<?xml version='1.0' encoding='UTF-8'?><gpx version="1.1" creator="JPX - https://github.com/jenetics/jpx" xmlns="http://www.topografix.com/GPX/1/1"><trk><trkseg><trkpt lat="45.07598070999204" lon="7.624569422194576"><ele>278.0</ele><time>2026-04-18T13:47:16.999Z</time></trkpt><trkpt lat="45.07584455110759" lon="7.624647013974275"><ele>278.0</ele><time>2026-04-18T13:47:18.999Z</time></trkpt><trkpt lat="45.07581399675713" lon="7.624744251384249"><ele>278.0</ele><time>2026-04-18T13:47:19.999Z</time></trkpt><trkpt lat="45.07575381446378" lon="7.62492424185228"><ele>278.0</ele><time>2026-04-18T13:47:22.999Z</time></trkpt><trkpt lat="45.0758672075501" lon="7.625065425559515"><ele>278.0</ele><time>2026-04-18T13:47:26.999Z</time></trkpt><trkpt lat="45.07597841229605" lon="7.625104713535242"><ele>278.0</ele><time>2026-04-18T13:47:27.999Z</time></trkpt><trkpt lat="45.07618315597362" lon="7.625247838332145"><ele>278.0</ele><time>2026-04-18T13:47:29.999Z</time></trkpt><trkpt lat="45.076282544179946" lon="7.625314782083426"><ele>278.8</ele><time>2026-04-18T13:47:30.998Z</time></trkpt><trkpt lat="45.0763866863652" lon="7.625378917286441"><ele>279.6</ele><time>2026-04-18T13:47:31.998Z</time></trkpt><trkpt lat="45.07647544557035" lon="7.625436171852671"><ele>280.4</ele><time>2026-04-18T13:47:32.998Z</time></trkpt><trkpt lat="45.07656532477323" lon="7.625490205308145"><ele>281.2</ele><time>2026-04-18T13:47:33.998Z</time></trkpt><trkpt lat="45.07664079580525" lon="7.625530603222181"><ele>282.0</ele><time>2026-04-18T13:47:34.998Z</time></trkpt><trkpt lat="45.076711598891706" lon="7.625572965118687"><ele>282.0</ele><time>2026-04-18T13:47:35.998Z</time></trkpt><trkpt lat="45.07680381458641" lon="7.6256106581026755"><ele>282.0</ele><time>2026-04-18T13:47:37.998Z</time></trkpt><trkpt lat="45.07683575792973" lon="7.62534228076488"><ele>282.0</ele><time>2026-04-18T13:47:41.998Z</time></trkpt><trkpt lat="45.076852225963776" lon="7.625230753602353"><ele>282.0</ele><time>2026-04-18T13:47:43.998Z</time></trkpt><trkpt lat="45.076853082930946" lon="7.625126068457254"><ele>282.0</ele><time>2026-04-18T13:47:50.999Z</time></trkpt><trkpt lat="45.076853877631734" lon="7.625028984988718"><ele>281.2</ele><time>2026-04-18T13:47:53.999Z</time></trkpt><trkpt lat="45.07671062823422" lon="7.625028144529889"><ele>280.4</ele><time>2026-04-18T13:47:54.999Z</time></trkpt><trkpt lat="45.07661367020002" lon="7.624971406911096"><ele>279.6</ele><time>2026-04-18T13:47:56.999Z</time></trkpt><trkpt lat="45.07655386941525" lon="7.624930400027948"><ele>278.8</ele><time>2026-04-18T13:47:59.999Z</time></trkpt><trkpt lat="45.076483332814604" lon="7.624907367585597"><ele>278.0</ele><time>2026-04-18T13:52:07.001Z</time></trkpt><trkpt lat="45.07640948948104" lon="7.624817905221111"><ele>278.0</ele><time>2026-04-18T13:52:09.001Z</time></trkpt><trkpt lat="45.07634978179815" lon="7.624761793346683"><ele>278.0</ele><time>2026-04-18T13:52:10.001Z</time></trkpt><trkpt lat="45.07621116284818" lon="7.624686516876922"><ele>278.0</ele><time>2026-04-18T13:52:12.001Z</time></trkpt><trkpt lat="45.07613734959247" lon="7.624646653826175"><ele>278.0</ele><time>2026-04-18T13:52:13.001Z</time></trkpt><trkpt lat="45.076064160708874" lon="7.624603225362285"><ele>278.0</ele><time>2026-04-18T13:52:14.001Z</time></trkpt><trkpt lat="45.07600037532698" lon="7.624568586584563"><ele>278.0</ele><time>2026-04-18T13:52:15.001Z</time></trkpt><trkpt lat="45.075894650287864" lon="7.6245505839648615"><ele>278.0</ele><time>2026-04-18T13:52:17.001Z</time></trkpt><trkpt lat="45.075817418792056" lon="7.6246430007932515"><ele>278.0</ele><time>2026-04-18T13:52:19.001Z</time></trkpt><trkpt lat="45.07578630881246" lon="7.624806455965946"><ele>278.0</ele><time>2026-04-18T13:52:21.001Z</time></trkpt><trkpt lat="45.075750880417054" lon="7.624920092240271"><ele>278.0</ele><time>2026-04-18T13:52:23.001Z</time></trkpt><trkpt lat="45.075868509765264" lon="7.625001044476399"><ele>278.0</ele><time>2026-04-18T13:52:30.001Z</time></trkpt><trkpt lat="45.07594729600031" lon="7.62507182127629"><ele>278.0</ele><time>2026-04-18T13:52:31.001Z</time></trkpt><trkpt lat="45.07602709979158" lon="7.625124309101671"><ele>278.0</ele><time>2026-04-18T13:52:32.001Z</time></trkpt><trkpt lat="45.07610654235847" lon="7.625168953222355"><ele>278.0</ele><time>2026-04-18T13:52:33.001Z</time></trkpt><trkpt lat="45.076167882257344" lon="7.625213657182295"><ele>278.0</ele><time>2026-04-18T13:52:34.001Z</time></trkpt><trkpt lat="45.07623004547442" lon="7.625264374466815"><ele>278.0</ele><time>2026-04-18T13:52:35.001Z</time></trkpt><trkpt lat="45.076306523683535" lon="7.6253226266925"><ele>278.0</ele><time>2026-04-18T13:52:36.001Z</time></trkpt><trkpt lat="45.07637206039507" lon="7.625369227644037"><ele>278.8</ele><time>2026-04-18T13:52:37.001Z</time></trkpt><trkpt lat="45.07644381220856" lon="7.625391728151634"><ele>279.6</ele><time>2026-04-18T13:52:38.001Z</time></trkpt><trkpt lat="45.07653427383792" lon="7.625444510259027"><ele>280.4</ele><time>2026-04-18T13:52:40.001Z</time></trkpt><trkpt lat="45.07663489622893" lon="7.625540729416621"><ele>281.2</ele><time>2026-04-18T13:52:42.001Z</time></trkpt><trkpt lat="45.07670317001187" lon="7.625574549025654"><ele>282.0</ele><time>2026-04-18T13:52:43.001Z</time></trkpt><trkpt lat="45.07687516263166" lon="7.625684398969219"><ele>282.0</ele><time>2026-04-18T13:52:50.001Z</time></trkpt><trkpt lat="45.07695638964281" lon="7.625732661018486"><ele>282.0</ele><time>2026-04-18T13:52:51.001Z</time></trkpt><trkpt lat="45.0770249208304" lon="7.62579031943615"><ele>282.0</ele><time>2026-04-18T13:52:52.001Z</time></trkpt><trkpt lat="45.077102650582574" lon="7.625840251893917"><ele>282.0</ele><time>2026-04-18T13:52:53.001Z</time></trkpt><trkpt lat="45.07718693979156" lon="7.625859733929682"><ele>282.0</ele><time>2026-04-18T13:52:54.001Z</time></trkpt><trkpt lat="45.07726929570831" lon="7.62589660739267"><ele>282.0</ele><time>2026-04-18T13:52:55.001Z</time></trkpt><trkpt lat="45.07736783525336" lon="7.625960842240695"><ele>281.4</ele><time>2026-04-18T13:52:56.001Z</time></trkpt><trkpt lat="45.07746785122903" lon="7.626038291213986"><ele>280.79999999999995</ele><time>2026-04-18T13:52:57.001Z</time></trkpt><trkpt lat="45.07755067048099" lon="7.626116035045355"><ele>280.2</ele><time>2026-04-18T13:52:58.001Z</time></trkpt><trkpt lat="45.077654505478236" lon="7.626170864953505"><ele>279.59999999999997</ele><time>2026-04-18T13:52:59.001Z</time></trkpt><trkpt lat="45.07775818887726" lon="7.626208727863042"><ele>279.0</ele><time>2026-04-18T13:53:00.001Z</time></trkpt><trkpt lat="45.077840712323166" lon="7.6262501977946515"><ele>279.0</ele><time>2026-04-18T13:53:01.001Z</time></trkpt><trkpt lat="45.07791619691023" lon="7.626290133044035"><ele>279.0</ele><time>2026-04-18T13:53:02.001Z</time></trkpt><trkpt lat="45.07797759250126" lon="7.626337218930629"><ele>279.0</ele><time>2026-04-18T13:53:03.001Z</time></trkpt><trkpt lat="45.07805116852472" lon="7.626391230745248"><ele>279.0</ele><time>2026-04-18T13:53:04.001Z</time></trkpt><trkpt lat="45.07813614933488" lon="7.626454211277028"><ele>279.0</ele><time>2026-04-18T13:53:05.001Z</time></trkpt><trkpt lat="45.078241362131756" lon="7.626520145499519"><ele>279.0</ele><time>2026-04-18T13:53:06.001Z</time></trkpt><trkpt lat="45.07836539777265" lon="7.6265973483764045"><ele>278.5</ele><time>2026-04-18T13:53:07.001Z</time></trkpt><trkpt lat="45.078463242128706" lon="7.6266467210086955"><ele>278.0</ele><time>2026-04-18T13:53:08.001Z</time></trkpt><trkpt lat="45.078542076697495" lon="7.626691422438269"><ele>277.5</ele><time>2026-04-18T13:53:09.001Z</time></trkpt><trkpt lat="45.07863721644679" lon="7.626748071520293"><ele>277.0</ele><time>2026-04-18T13:53:10.001Z</time></trkpt><trkpt lat="45.07870425705025" lon="7.626800551735445"><ele>276.5</ele><time>2026-04-18T13:53:11.001Z</time></trkpt><trkpt lat="45.07877693832099" lon="7.626842481143778"><ele>276.0</ele><time>2026-04-18T13:53:12.001Z</time></trkpt><trkpt lat="45.078839742929006" lon="7.626887538094223"><ele>276.0</ele><time>2026-04-18T13:53:13.001Z</time></trkpt><trkpt lat="45.078948281256935" lon="7.626951384896311"><ele>276.0</ele><time>2026-04-18T13:53:15.001Z</time></trkpt><trkpt lat="45.07905115761638" lon="7.627015231271993"><ele>276.0</ele><time>2026-04-18T13:53:17.001Z</time></trkpt><trkpt lat="45.07913657391738" lon="7.627074406860962"><ele>276.0</ele><time>2026-04-18T13:53:19.001Z</time></trkpt><trkpt lat="45.0791986876222" lon="7.6271039300846795"><ele>276.0</ele><time>2026-04-18T13:53:21.001Z</time></trkpt><trkpt lat="45.079260903982075" lon="7.627134440234553"><ele>276.3333333333333</ele><time>2026-04-18T13:53:23.001Z</time></trkpt><trkpt lat="45.079326687964304" lon="7.627182385155689"><ele>276.6666666666667</ele><time>2026-04-18T13:53:25.001Z</time></trkpt><trkpt lat="45.079416035456745" lon="7.6272161230370745"><ele>277.0</ele><time>2026-04-18T13:53:27.001Z</time></trkpt><trkpt lat="45.079474969806945" lon="7.6272611029422155"><ele>277.33333333333337</ele><time>2026-04-18T13:53:30.001Z</time></trkpt><trkpt lat="45.079533529091684" lon="7.627307325568948"><ele>277.6666666666667</ele><time>2026-04-18T13:53:36.001Z</time></trkpt><trkpt lat="45.07961141880343" lon="7.627355067189995"><ele>278.0</ele><time>2026-04-18T13:53:37.001Z</time></trkpt><trkpt lat="45.0796794503696" lon="7.627380433353179"><ele>278.0</ele><time>2026-04-18T13:53:38.001Z</time></trkpt><trkpt lat="45.07973462721713" lon="7.627434938795309"><ele>278.0</ele><time>2026-04-18T13:53:40.001Z</time></trkpt><trkpt lat="45.079820774764435" lon="7.627465398349185"><ele>278.0</ele><time>2026-04-18T13:53:43.001Z</time></trkpt><trkpt lat="45.079905624605665" lon="7.627544393502276"><ele>278.0</ele><time>2026-04-18T13:53:45.001Z</time></trkpt><trkpt lat="45.07997827115235" lon="7.627581165080811"><ele>278.0</ele><time>2026-04-18T13:53:47.001Z</time></trkpt><trkpt lat="45.080069119433965" lon="7.62763184060483"><ele>278.0</ele><time>2026-04-18T13:53:49Z</time></trkpt><trkpt lat="45.08013635647316" lon="7.6276777843932235"><ele>277.85714285714283</ele><time>2026-04-18T13:53:50Z</time></trkpt><trkpt lat="45.08020711050735" lon="7.627715394072912"><ele>277.7142857142857</ele><time>2026-04-18T13:53:51Z</time></trkpt><trkpt lat="45.08027583665715" lon="7.627758955948218"><ele>277.57142857142856</ele><time>2026-04-18T13:53:52Z</time></trkpt><trkpt lat="45.08033873501224" lon="7.627789729648004"><ele>277.42857142857144</ele><time>2026-04-18T13:53:53Z</time></trkpt><trkpt lat="45.08040841042405" lon="7.627835730110399"><ele>277.2857142857143</ele><time>2026-04-18T13:53:54Z</time></trkpt><trkpt lat="45.080480511277244" lon="7.627903276309357"><ele>277.1428571428571</ele><time>2026-04-18T13:53:55Z</time></trkpt><trkpt lat="45.08054450949239" lon="7.627934997632582"><ele>277.0</ele><time>2026-04-18T13:53:56Z</time></trkpt><trkpt lat="45.080602684023596" lon="7.627979657905486"><ele>276.85714285714283</ele><time>2026-04-18T13:53:57Z</time></trkpt><trkpt lat="45.08067422773807" lon="7.628027722432803"><ele>276.71428571428567</ele><time>2026-04-18T13:53:58Z</time></trkpt><trkpt lat="45.08074893569088" lon="7.628073591098337"><ele>276.57142857142856</ele><time>2026-04-18T13:53:59Z</time></trkpt><trkpt lat="45.08081640213762" lon="7.628118295978592"><ele>276.42857142857144</ele><time>2026-04-18T13:54:00Z</time></trkpt><trkpt lat="45.080887426941814" lon="7.628156251842176"><ele>276.28571428571433</ele><time>2026-04-18T13:54:01Z</time></trkpt><trkpt lat="45.08094775675708" lon="7.628192808425145"><ele>276.14285714285717</ele><time>2026-04-18T13:54:02Z</time></trkpt><trkpt lat="45.08100347930779" lon="7.628238510064804"><ele>276.0</ele><time>2026-04-18T13:54:03Z</time></trkpt><trkpt lat="45.08108575837798" lon="7.628291773537447"><ele>276.8</ele><time>2026-04-18T13:54:04Z</time></trkpt><trkpt lat="45.08116489861193" lon="7.628343680481033"><ele>277.6</ele><time>2026-04-18T13:54:05Z</time></trkpt><trkpt lat="45.08123519831488" lon="7.628396668700858"><ele>278.4</ele><time>2026-04-18T13:54:06Z</time></trkpt><trkpt lat="45.0813523926172" lon="7.628466024687766"><ele>279.2</ele><time>2026-04-18T13:54:08Z</time></trkpt><trkpt lat="45.08144744745936" lon="7.628524147964694"><ele>280.0</ele><time>2026-04-18T13:54:09Z</time></trkpt><trkpt lat="45.08155004129176" lon="7.628586881091248"><ele>279.3333333333333</ele><time>2026-04-18T13:54:10Z</time></trkpt><trkpt lat="45.08164263924128" lon="7.62864348520592"><ele>278.66666666666663</ele><time>2026-04-18T13:54:11Z</time></trkpt><trkpt lat="45.08175119673852" lon="7.628701923880601"><ele>278.0</ele><time>2026-04-18T13:54:12Z</time></trkpt><trkpt lat="45.08181106896666" lon="7.628734382083674"><ele>277.3333333333333</ele><time>2026-04-18T13:54:13Z</time></trkpt><trkpt lat="45.08187842108147" lon="7.628762816138275"><ele>276.6666666666667</ele><time>2026-04-18T13:54:14Z</time></trkpt><trkpt lat="45.081931434871706" lon="7.628825633229271"><ele>276.0</ele><time>2026-04-18T13:54:16Z</time></trkpt><trkpt lat="45.08202092710398" lon="7.6288576002260475"><ele>276.0</ele><time>2026-04-18T13:54:19Z</time></trkpt><trkpt lat="45.082101748941255" lon="7.628897489382762"><ele>276.0</ele><time>2026-04-18T13:54:22Z</time></trkpt><trkpt lat="45.08217493437439" lon="7.628947369262975"><ele>276.0</ele><time>2026-04-18T13:54:28Z</time></trkpt><trkpt lat="45.08224879100321" lon="7.628985073791764"><ele>276.0</ele><time>2026-04-18T13:54:29Z</time></trkpt><trkpt lat="45.08232611408522" lon="7.629042580730041"><ele>276.0</ele><time>2026-04-18T13:54:30Z</time></trkpt><trkpt lat="45.082396527429886" lon="7.629097646964408"><ele>276.0</ele><time>2026-04-18T13:54:31Z</time></trkpt><trkpt lat="45.082475882269655" lon="7.6291523889133765"><ele>275.8333333333333</ele><time>2026-04-18T13:54:32Z</time></trkpt><trkpt lat="45.082557681979225" lon="7.62919627175619"><ele>275.6666666666667</ele><time>2026-04-18T13:54:33Z</time></trkpt><trkpt lat="45.08263465719771" lon="7.629242707330653"><ele>275.5</ele><time>2026-04-18T13:54:34Z</time></trkpt><trkpt lat="45.08270113693501" lon="7.629283739793687"><ele>275.33333333333337</ele><time>2026-04-18T13:54:35Z</time></trkpt><trkpt lat="45.082764600604435" lon="7.629336813556686"><ele>275.1666666666667</ele><time>2026-04-18T13:54:36Z</time></trkpt><trkpt lat="45.08284316498687" lon="7.629378438746759"><ele>275.0</ele><time>2026-04-18T13:54:37Z</time></trkpt><trkpt lat="45.08292835365929" lon="7.629428181551677"><ele>275.0</ele><time>2026-04-18T13:54:38Z</time></trkpt><trkpt lat="45.083022456064874" lon="7.629470727085893"><ele>275.0</ele><time>2026-04-18T13:54:39Z</time></trkpt><trkpt lat="45.083109079199765" lon="7.629536514418347"><ele>275.0</ele><time>2026-04-18T13:54:40Z</time></trkpt><trkpt lat="45.08318509562213" lon="7.6295883990284885"><ele>275.0</ele><time>2026-04-18T13:54:41Z</time></trkpt><trkpt lat="45.08326379956847" lon="7.629636400188362"><ele>275.0</ele><time>2026-04-18T13:54:42Z</time></trkpt><trkpt lat="45.08333399150061" lon="7.629680871143386"><ele>275.0</ele><time>2026-04-18T13:54:43Z</time></trkpt><trkpt lat="45.08339602705565" lon="7.629719639993476"><ele>274.2</ele><time>2026-04-18T13:54:44Z</time></trkpt><trkpt lat="45.08350045708568" lon="7.6297952243193405"><ele>273.4</ele><time>2026-04-18T13:54:46Z</time></trkpt><trkpt lat="45.08356760247415" lon="7.629868520498129"><ele>272.6</ele><time>2026-04-18T13:54:48Z</time></trkpt><trkpt lat="45.083646842088285" lon="7.629882759309762"><ele>271.8</ele><time>2026-04-18T13:55:06Z</time></trkpt><trkpt lat="45.083723529967" lon="7.629907424745148"><ele>271.0</ele><time>2026-04-18T13:55:07Z</time></trkpt><trkpt lat="45.08382074976156" lon="7.629984950306605"><ele>271.0</ele><time>2026-04-18T13:55:08Z</time></trkpt><trkpt lat="45.083905030764754" lon="7.6300475976757705"><ele>271.0</ele><time>2026-04-18T13:55:09Z</time></trkpt><trkpt lat="45.08398554266856" lon="7.6301057549089055"><ele>271.0</ele><time>2026-04-18T13:55:10Z</time></trkpt><trkpt lat="45.08407864654783" lon="7.630167066183451"><ele>271.0</ele><time>2026-04-18T13:55:11Z</time></trkpt><trkpt lat="45.084184037747555" lon="7.630232530849266"><ele>271.0</ele><time>2026-04-18T13:55:12Z</time></trkpt><trkpt lat="45.08428533048277" lon="7.630298803976933"><ele>270.2</ele><time>2026-04-18T13:55:13Z</time></trkpt><trkpt lat="45.08439015808349" lon="7.630367135471802"><ele>269.40000000000003</ele><time>2026-04-18T13:55:14Z</time></trkpt><trkpt lat="45.08448990197567" lon="7.630430610088765"><ele>268.6</ele><time>2026-04-18T13:55:15Z</time></trkpt><trkpt lat="45.084584850935165" lon="7.63048992794154"><ele>267.8</ele><time>2026-04-18T13:55:16Z</time></trkpt><trkpt lat="45.08467607924388" lon="7.63054696586041"><ele>267.0</ele><time>2026-04-18T13:55:17Z</time></trkpt><trkpt lat="45.08476474384615" lon="7.6306021375033755"><ele>267.0</ele><time>2026-04-18T13:55:18Z</time></trkpt><trkpt lat="45.08485728560639" lon="7.630656656549851"><ele>267.0</ele><time>2026-04-18T13:55:19Z</time></trkpt><trkpt lat="45.08494929963573" lon="7.6307134650018655"><ele>267.0</ele><time>2026-04-18T13:55:20Z</time></trkpt><trkpt lat="45.08503394916993" lon="7.630771388869904"><ele>267.0</ele><time>2026-04-18T13:55:21Z</time></trkpt><trkpt lat="45.085108376062436" lon="7.6308371945978815"><ele>267.0</ele><time>2026-04-18T13:55:22Z</time></trkpt><trkpt lat="45.08516954142236" lon="7.630902421428258"><ele>266.0</ele><time>2026-04-18T13:55:23Z</time></trkpt><trkpt lat="45.08523248971457" lon="7.630976588382584"><ele>265.0</ele><time>2026-04-18T13:55:25Z</time></trkpt><trkpt lat="45.08531632581944" lon="7.630976468861817"><ele>264.0</ele><time>2026-04-18T13:56:24Z</time></trkpt><trkpt lat="45.08543976535666" lon="7.63077838825801"><ele>263.0</ele><time>2026-04-18T13:56:26Z</time></trkpt><trkpt lat="45.08549473801655" lon="7.630600174875785"><ele>263.0</ele><time>2026-04-18T13:56:27Z</time></trkpt><trkpt lat="45.0855541228577" lon="7.630370111095453"><ele>263.0</ele><time>2026-04-18T13:56:28Z</time></trkpt><trkpt lat="45.0856360735718" lon="7.630107807136969"><ele>263.0</ele><time>2026-04-18T13:56:29Z</time></trkpt><trkpt lat="45.085724650437996" lon="7.629881510990642"><ele>261.6666666666667</ele><time>2026-04-18T13:56:30Z</time></trkpt><trkpt lat="45.08580026801451" lon="7.629683378065912"><ele>260.3333333333333</ele><time>2026-04-18T13:56:31Z</time></trkpt><trkpt lat="45.08591797913117" lon="7.6293136953148295"><ele>259.0</ele><time>2026-04-18T13:56:33Z</time></trkpt><trkpt lat="45.08598733904461" lon="7.629127208584478"><ele>259.0</ele><time>2026-04-18T13:56:34Z</time></trkpt><trkpt lat="45.08605397565774" lon="7.628933670839913"><ele>259.0</ele><time>2026-04-18T13:56:35Z</time></trkpt><trkpt lat="45.08611735386185" lon="7.628767935791892"><ele>259.0</ele><time>2026-04-18T13:56:36Z</time></trkpt><trkpt lat="45.08616768299182" lon="7.628636961048481"><ele>259.0</ele><time>2026-04-18T13:56:37Z</time></trkpt><trkpt lat="45.08619968664804" lon="7.628543920948928"><ele>258.8</ele><time>2026-04-18T13:56:38Z</time></trkpt><trkpt lat="45.086230058781524" lon="7.6284611001602105"><ele>258.59999999999997</ele><time>2026-04-18T13:56:39Z</time></trkpt><trkpt lat="45.08627405870301" lon="7.628344601291305"><ele>258.4</ele><time>2026-04-18T13:56:40Z</time></trkpt><trkpt lat="45.08632827681013" lon="7.62820063709931"><ele>258.2</ele><time>2026-04-18T13:56:41Z</time></trkpt><trkpt lat="45.08638255318551" lon="7.6280391743101985"><ele>258.0</ele><time>2026-04-18T13:56:42Z</time></trkpt><trkpt lat="45.086439980544" lon="7.62788354170388"><ele>257.75</ele><time>2026-04-18T13:56:43Z</time></trkpt><trkpt lat="45.08649325470831" lon="7.627728395332423"><ele>257.5</ele><time>2026-04-18T13:56:44Z</time></trkpt><trkpt lat="45.086544547053265" lon="7.627579098371943"><ele>257.25</ele><time>2026-04-18T13:56:45Z</time></trkpt><trkpt lat="45.08659395357826" lon="7.627428860938134"><ele>257.0</ele><time>2026-04-18T13:56:46Z</time></trkpt><trkpt lat="45.08664716252997" lon="7.6272835112187725"><ele>257.0</ele><time>2026-04-18T13:56:47Z</time></trkpt><trkpt lat="45.086697448150545" lon="7.627133167230172"><ele>257.0</ele><time>2026-04-18T13:56:48Z</time></trkpt><trkpt lat="45.08671160178937" lon="7.626981680288694"><ele>257.0</ele><time>2026-04-18T13:56:49Z</time></trkpt><trkpt lat="45.086792008243904" lon="7.62687022642576"><ele>257.0</ele><time>2026-04-18T13:56:50Z</time></trkpt><trkpt lat="45.086848607679705" lon="7.626745168383686"><ele>257.0</ele><time>2026-04-18T13:56:51Z</time></trkpt><trkpt lat="45.086920909971965" lon="7.6266425354874405"><ele>257.0</ele><time>2026-04-18T13:56:52Z</time></trkpt><trkpt lat="45.087014813617344" lon="7.626570608649423"><ele>257.0</ele><time>2026-04-18T13:56:53Z</time></trkpt><trkpt lat="45.087122620771" lon="7.626544675235267"><ele>257.0</ele><time>2026-04-18T13:56:54Z</time></trkpt><trkpt lat="45.08722100439368" lon="7.626570935531267"><ele>257.0</ele><time>2026-04-18T13:56:55Z</time></trkpt><trkpt lat="45.08731521808328" lon="7.626648944425748"><ele>257.0</ele><time>2026-04-18T13:56:56Z</time></trkpt><trkpt lat="45.08739042817849" lon="7.626764121045162"><ele>257.0</ele><time>2026-04-18T13:56:57Z</time></trkpt><trkpt lat="45.08745247575592" lon="7.62692099979171"><ele>257.0</ele><time>2026-04-18T13:56:58Z</time></trkpt><trkpt lat="45.08751851323416" lon="7.62710577923677"><ele>257.0</ele><time>2026-04-18T13:56:59Z</time></trkpt><trkpt lat="45.08759343951334" lon="7.627324233797252"><ele>257.0</ele><time>2026-04-18T13:57:00Z</time></trkpt><trkpt lat="45.087672215325355" lon="7.62756949873054"><ele>257.0</ele><time>2026-04-18T13:57:01Z</time></trkpt><trkpt lat="45.08778334269752" lon="7.62784734778186"><ele>257.0</ele><time>2026-04-18T13:57:02Z</time></trkpt><trkpt lat="45.08788124513722" lon="7.628132908737848"><ele>257.0</ele><time>2026-04-18T13:57:03Z</time></trkpt><trkpt lat="45.08796542814229" lon="7.628423225925658"><ele>257.0</ele><time>2026-04-18T13:57:04Z</time></trkpt><trkpt lat="45.08805302441837" lon="7.628707322785528"><ele>257.0</ele><time>2026-04-18T13:57:05Z</time></trkpt><trkpt lat="45.08814976682086" lon="7.628984817743751"><ele>256.0</ele><time>2026-04-18T13:57:06Z</time></trkpt><trkpt lat="45.08826140824781" lon="7.629231638183105"><ele>255.0</ele><time>2026-04-18T13:57:07Z</time></trkpt><trkpt lat="45.08841844232703" lon="7.629424562995235"><ele>254.0</ele><time>2026-04-18T13:57:08Z</time></trkpt><trkpt lat="45.088584333039954" lon="7.629601599460642"><ele>254.0</ele><time>2026-04-18T13:57:09Z</time></trkpt><trkpt lat="45.08879130395992" lon="7.629715425906118"><ele>254.0</ele><time>2026-04-18T13:57:10Z</time></trkpt><trkpt lat="45.08901605079894" lon="7.629805189477011"><ele>253.5</ele><time>2026-04-18T13:57:11Z</time></trkpt><trkpt lat="45.08925172437263" lon="7.6299030614860355"><ele>253.0</ele><time>2026-04-18T13:57:12Z</time></trkpt><trkpt lat="45.08947976053901" lon="7.630039862392931"><ele>253.0</ele><time>2026-04-18T13:57:13Z</time></trkpt><trkpt lat="45.089711466406115" lon="7.630173683797376"><ele>253.0</ele><time>2026-04-18T13:57:14Z</time></trkpt><trkpt lat="45.089934424790904" lon="7.630302537057574"><ele>254.0</ele><time>2026-04-18T13:57:15Z</time></trkpt><trkpt lat="45.09015620568156" lon="7.630409356356453"><ele>255.0</ele><time>2026-04-18T13:57:16Z</time></trkpt><trkpt lat="45.090359333627475" lon="7.6305309337442795"><ele>255.0</ele><time>2026-04-18T13:57:17Z</time></trkpt><trkpt lat="45.090563137337824" lon="7.630647750561029"><ele>255.0</ele><time>2026-04-18T13:57:18Z</time></trkpt><trkpt lat="45.09076984217375" lon="7.6307654679982715"><ele>255.0</ele><time>2026-04-18T13:57:19Z</time></trkpt><trkpt lat="45.090969067536186" lon="7.6308825939301155"><ele>254.66666666666669</ele><time>2026-04-18T13:57:20Z</time></trkpt><trkpt lat="45.09116119580869" lon="7.630998636858031"><ele>254.33333333333334</ele><time>2026-04-18T13:57:21Z</time></trkpt><trkpt lat="45.09134037965645" lon="7.63109495603945"><ele>254.0</ele><time>2026-04-18T13:57:22Z</time></trkpt><trkpt lat="45.091509750110056" lon="7.631191217661409"><ele>252.66666666666669</ele><time>2026-04-18T13:57:23Z</time></trkpt><trkpt lat="45.09168417710898" lon="7.631293584394157"><ele>251.33333333333331</ele><time>2026-04-18T13:57:24Z</time></trkpt><trkpt lat="45.091862895721185" lon="7.631399372788875"><ele>250.0</ele><time>2026-04-18T13:57:25Z</time></trkpt><trkpt lat="45.0920338971439" lon="7.631500161077858"><ele>250.0</ele><time>2026-04-18T13:57:26Z</time></trkpt><trkpt lat="45.092198284563196" lon="7.631598798814043"><ele>250.0</ele><time>2026-04-18T13:57:27Z</time></trkpt><trkpt lat="45.09235960927892" lon="7.631696551890587"><ele>250.0</ele><time>2026-04-18T13:57:28Z</time></trkpt><trkpt lat="45.092510728403646" lon="7.631790097498276"><ele>250.66666666666666</ele><time>2026-04-18T13:57:29Z</time></trkpt><trkpt lat="45.092657075496184" lon="7.631882815058067"><ele>251.33333333333331</ele><time>2026-04-18T13:57:30Z</time></trkpt><trkpt lat="45.092799075709976" lon="7.631968741584744"><ele>252.0</ele><time>2026-04-18T13:57:31Z</time></trkpt><trkpt lat="45.092934439534886" lon="7.632051522446875"><ele>252.0</ele><time>2026-04-18T13:57:32Z</time></trkpt><trkpt lat="45.09306037452102" lon="7.63212469520915"><ele>252.0</ele><time>2026-04-18T13:57:33Z</time></trkpt><trkpt lat="45.09318821289952" lon="7.632201115990938"><ele>252.0</ele><time>2026-04-18T13:57:34Z</time></trkpt><trkpt lat="45.09331683528226" lon="7.632277640880857"><ele>252.0</ele><time>2026-04-18T13:57:35Z</time></trkpt><trkpt lat="45.093443443586956" lon="7.6323564131703385"><ele>251.8</ele><time>2026-04-18T13:57:36Z</time></trkpt><trkpt lat="45.093557678411386" lon="7.632425859087735"><ele>251.6</ele><time>2026-04-18T13:57:37.001Z</time></trkpt><trkpt lat="45.09366213517836" lon="7.6324870488204875"><ele>251.40000000000003</ele><time>2026-04-18T13:57:38.001Z</time></trkpt><trkpt lat="45.093755254178646" lon="7.632541765993216"><ele>251.20000000000002</ele><time>2026-04-18T13:57:39.001Z</time></trkpt><trkpt lat="45.09383562420897" lon="7.6325934057522105"><ele>251.0</ele><time>2026-04-18T13:57:40.001Z</time></trkpt><trkpt lat="45.093907231169865" lon="7.632634999566979"><ele>251.00000000000003</ele><time>2026-04-18T13:57:41.001Z</time></trkpt><trkpt lat="45.09397357832574" lon="7.632672909088532"><ele>251.0</ele><time>2026-04-18T13:57:42.001Z</time></trkpt><trkpt lat="45.094032573086956" lon="7.632706213514583"><ele>251.0</ele><time>2026-04-18T13:57:43.001Z</time></trkpt><trkpt lat="45.09413892184231" lon="7.632771389086793"><ele>251.0</ele><time>2026-04-18T13:57:45.001Z</time></trkpt><trkpt lat="45.09422565190302" lon="7.632820286375625"><ele>251.00000000000003</ele><time>2026-04-18T13:57:47.001Z</time></trkpt><trkpt lat="45.09430160859909" lon="7.632857077935412"><ele>251.0</ele><time>2026-04-18T13:57:49.001Z</time></trkpt><trkpt lat="45.09437430758654" lon="7.632910329549051"><ele>251.28571428571425</ele><time>2026-04-18T13:57:53.001Z</time></trkpt><trkpt lat="45.094433872386425" lon="7.632940393161658"><ele>251.57142857142856</ele><time>2026-04-18T13:57:55.001Z</time></trkpt><trkpt lat="45.09449894961306" lon="7.63297610484731"><ele>251.85714285714286</ele><time>2026-04-18T13:58:01Z</time></trkpt><trkpt lat="45.094557820613794" lon="7.63301425851307"><ele>252.14285714285714</ele><time>2026-04-18T13:58:18Z</time></trkpt><trkpt lat="45.094619699653016" lon="7.633051818229458"><ele>252.42857142857144</ele><time>2026-04-18T13:58:19Z</time></trkpt><trkpt lat="45.094691134541975" lon="7.633103555662421"><ele>252.71428571428575</ele><time>2026-04-18T13:58:20Z</time></trkpt><trkpt lat="45.09476403358757" lon="7.633148934564225"><ele>253.00000000000003</ele><time>2026-04-18T13:58:21Z</time></trkpt><trkpt lat="45.09483382869491" lon="7.633181931469474"><ele>253.0</ele><time>2026-04-18T13:58:22Z</time></trkpt><trkpt lat="45.094905195356034" lon="7.633222527272222"><ele>253.0</ele><time>2026-04-18T13:58:23Z</time></trkpt><trkpt lat="45.095002056788886" lon="7.633278686577402"><ele>253.0</ele><time>2026-04-18T13:58:24Z</time></trkpt><trkpt lat="45.095113992051" lon="7.633343342209323"><ele>253.0</ele><time>2026-04-18T13:58:25Z</time></trkpt><trkpt lat="45.095216272470935" lon="7.633408582442013"><ele>253.0</ele><time>2026-04-18T13:58:26Z</time></trkpt><trkpt lat="45.09532218851558" lon="7.6334653714580005"><ele>254.0</ele><time>2026-04-18T13:58:27Z</time></trkpt><trkpt lat="45.095430492705404" lon="7.633519033170364"><ele>255.0</ele><time>2026-04-18T13:58:28Z</time></trkpt><trkpt lat="45.095551999847295" lon="7.633578727891088"><ele>256.0</ele><time>2026-04-18T13:58:29Z</time></trkpt><trkpt lat="45.09569003340205" lon="7.633650442947057"><ele>257.0</ele><time>2026-04-18T13:58:30Z</time></trkpt><trkpt lat="45.09582323315263" lon="7.633722565526298"><ele>258.0</ele><time>2026-04-18T13:58:31Z</time></trkpt><trkpt lat="45.0959525898499" lon="7.6338022967053805"><ele>259.0</ele><time>2026-04-18T13:58:32Z</time></trkpt><trkpt lat="45.09608601832833" lon="7.6338807750458955"><ele>260.0</ele><time>2026-04-18T13:58:33Z</time></trkpt><trkpt lat="45.09622045939535" lon="7.6339537655217935"><ele>261.0</ele><time>2026-04-18T13:58:34Z</time></trkpt><trkpt lat="45.09633855193529" lon="7.634024512487185"><ele>261.0</ele><time>2026-04-18T13:58:35Z</time></trkpt><trkpt lat="45.09644789082286" lon="7.63408921575833"><ele>261.0</ele><time>2026-04-18T13:58:36Z</time></trkpt><trkpt lat="45.096548501759486" lon="7.63414834851149"><ele>261.0</ele><time>2026-04-18T13:58:37Z</time></trkpt><trkpt lat="45.09664269232061" lon="7.634199620782243"><ele>261.0</ele><time>2026-04-18T13:58:38Z</time></trkpt><trkpt lat="45.09673530150749" lon="7.634253996336088"><ele>261.0</ele><time>2026-04-18T13:58:39Z</time></trkpt><trkpt lat="45.09682867596624" lon="7.634313536458806"><ele>260.40000000000003</ele><time>2026-04-18T13:58:40Z</time></trkpt><trkpt lat="45.096930514236725" lon="7.634380714893581"><ele>259.8</ele><time>2026-04-18T13:58:41Z</time></trkpt><trkpt lat="45.097029256774356" lon="7.634448728221514"><ele>259.20000000000005</ele><time>2026-04-18T13:58:42Z</time></trkpt><trkpt lat="45.097131163757105" lon="7.634496057743824"><ele>258.6</ele><time>2026-04-18T13:58:43Z</time></trkpt><trkpt lat="45.09724137616461" lon="7.634527634372802"><ele>258.0</ele><time>2026-04-18T13:58:44Z</time></trkpt><trkpt lat="45.09736085950646" lon="7.634553188404558"><ele>258.0</ele><time>2026-04-18T13:58:45Z</time></trkpt><trkpt lat="45.097481236750234" lon="7.634581172775371"><ele>258.0</ele><time>2026-04-18T13:58:46Z</time></trkpt><trkpt lat="45.09758947393425" lon="7.63460333099996"><ele>258.0</ele><time>2026-04-18T13:58:47Z</time></trkpt><trkpt lat="45.09769009621142" lon="7.634625969245201"><ele>258.0</ele><time>2026-04-18T13:58:48Z</time></trkpt><trkpt lat="45.09780055870823" lon="7.634648318547847"><ele>258.0</ele><time>2026-04-18T13:58:49Z</time></trkpt><trkpt lat="45.097905248400934" lon="7.634676913682789"><ele>258.0</ele><time>2026-04-18T13:58:50Z</time></trkpt><trkpt lat="45.09800257719257" lon="7.634730943826121"><ele>258.0</ele><time>2026-04-18T13:58:51Z</time></trkpt><trkpt lat="45.09808769008295" lon="7.634822422438927"><ele>258.0</ele><time>2026-04-18T13:58:52Z</time></trkpt><trkpt lat="45.09816406059841" lon="7.634947324569556"><ele>258.0</ele><time>2026-04-18T13:58:53Z</time></trkpt><trkpt lat="45.09823643479256" lon="7.6350930402350405"><ele>258.5</ele><time>2026-04-18T13:58:54Z</time></trkpt><trkpt lat="45.09831767430025" lon="7.635246478304748"><ele>259.0</ele><time>2026-04-18T13:58:55Z</time></trkpt><trkpt lat="45.09840761484613" lon="7.635398215576134"><ele>259.5</ele><time>2026-04-18T13:58:56Z</time></trkpt><trkpt lat="45.09850242506117" lon="7.635556368379316"><ele>260.0</ele><time>2026-04-18T13:58:57Z</time></trkpt><trkpt lat="45.098601010816466" lon="7.635716534261849"><ele>260.33333333333337</ele><time>2026-04-18T13:58:58Z</time></trkpt><trkpt lat="45.09870016232449" lon="7.6358795997970486"><ele>260.6666666666667</ele><time>2026-04-18T13:58:59Z</time></trkpt><trkpt lat="45.098799558058246" lon="7.636046243992515"><ele>261.0</ele><time>2026-04-18T13:59:00Z</time></trkpt><trkpt lat="45.098898175516" lon="7.6362067145798145"><ele>261.0</ele><time>2026-04-18T13:59:01Z</time></trkpt><trkpt lat="45.09899619259883" lon="7.636369877841981"><ele>261.0</ele><time>2026-04-18T13:59:02Z</time></trkpt><trkpt lat="45.0990989121434" lon="7.636537987832016"><ele>261.0</ele><time>2026-04-18T13:59:03Z</time></trkpt><trkpt lat="45.099204310723806" lon="7.6367096180472"><ele>260.75</ele><time>2026-04-18T13:59:04Z</time></trkpt><trkpt lat="45.099307314896656" lon="7.6368721223606455"><ele>260.5</ele><time>2026-04-18T13:59:05Z</time></trkpt><trkpt lat="45.09939599132901" lon="7.637029862647825"><ele>260.25</ele><time>2026-04-18T13:59:06Z</time></trkpt><trkpt lat="45.09949406618004" lon="7.63718448702555"><ele>260.0</ele><time>2026-04-18T13:59:07Z</time></trkpt><trkpt lat="45.09958665624482" lon="7.637335353059661"><ele>259.75</ele><time>2026-04-18T13:59:08Z</time></trkpt><trkpt lat="45.099682854546295" lon="7.637488267687133"><ele>259.5</ele><time>2026-04-18T13:59:09Z</time></trkpt><trkpt lat="45.09978907648976" lon="7.6376444914899135"><ele>259.25</ele><time>2026-04-18T13:59:10Z</time></trkpt><trkpt lat="45.09988009712303" lon="7.637784605504332"><ele>259.0</ele><time>2026-04-18T13:59:11Z</time></trkpt><trkpt lat="45.09996543929567" lon="7.637922052421358"><ele>259.0</ele><time>2026-04-18T13:59:12Z</time></trkpt><trkpt lat="45.100040587277505" lon="7.6380427711875365"><ele>259.0</ele><time>2026-04-18T13:59:13Z</time></trkpt><trkpt lat="45.10010055692032" lon="7.638128356124304"><ele>259.0</ele><time>2026-04-18T13:59:14Z</time></trkpt><trkpt lat="45.10015827384459" lon="7.638214399859164"><ele>259.0</ele><time>2026-04-18T13:59:15Z</time></trkpt><trkpt lat="45.10021932787914" lon="7.638288258847592"><ele>259.0</ele><time>2026-04-18T13:59:16Z</time></trkpt><trkpt lat="45.10029082935076" lon="7.63832397917851"><ele>259.0</ele><time>2026-04-18T13:59:17Z</time></trkpt><trkpt lat="45.10038021447275" lon="7.638315852521104"><ele>259.0</ele><time>2026-04-18T13:59:18Z</time></trkpt><trkpt lat="45.10048910378523" lon="7.638296807192035"><ele>259.0</ele><time>2026-04-18T13:59:19Z</time></trkpt><trkpt lat="45.10058275865251" lon="7.638290909795854"><ele>259.0</ele><time>2026-04-18T13:59:20Z</time></trkpt><trkpt lat="45.10074398666516" lon="7.6382932487542154"><ele>259.0</ele><time>2026-04-18T13:59:22Z</time></trkpt><trkpt lat="45.100814971408916" lon="7.638304034436833"><ele>259.0</ele><time>2026-04-18T13:59:23Z</time></trkpt><trkpt lat="45.10088719538446" lon="7.638314476179489"><ele>259.16666666666663</ele><time>2026-04-18T13:59:24Z</time></trkpt><trkpt lat="45.10096737864979" lon="7.6383190496140685"><ele>259.3333333333333</ele><time>2026-04-18T13:59:25Z</time></trkpt><trkpt lat="45.10103998420732" lon="7.638318415627391"><ele>259.5</ele><time>2026-04-18T13:59:26Z</time></trkpt><trkpt lat="45.101106906705226" lon="7.638318766873975"><ele>259.6666666666667</ele><time>2026-04-18T13:59:27Z</time></trkpt><trkpt lat="45.10121493066601" lon="7.638326942321812"><ele>259.83333333333337</ele><time>2026-04-18T13:59:29Z</time></trkpt><trkpt lat="45.101325602291034" lon="7.638352304508011"><ele>260.0</ele><time>2026-04-18T13:59:31Z</time></trkpt><trkpt lat="45.10138850695896" lon="7.638358085237119"><ele>260.0</ele><time>2026-04-18T13:59:32Z</time></trkpt><trkpt lat="45.10154918334129" lon="7.638359631752789"><ele>260.0</ele><time>2026-04-18T13:59:34Z</time></trkpt><trkpt lat="45.10165478658468" lon="7.6383236433015895"><ele>260.0</ele><time>2026-04-18T13:59:35Z</time></trkpt><trkpt lat="45.10177320442518" lon="7.6382444928798074"><ele>260.0</ele><time>2026-04-18T13:59:36Z</time></trkpt><trkpt lat="45.101883704535524" lon="7.638154054534335"><ele>260.2</ele><time>2026-04-18T13:59:37Z</time></trkpt><trkpt lat="45.10198902078211" lon="7.638094647812674"><ele>260.4</ele><time>2026-04-18T13:59:38Z</time></trkpt><trkpt lat="45.10208744338709" lon="7.638077370978778"><ele>260.6</ele><time>2026-04-18T13:59:39Z</time></trkpt><trkpt lat="45.10217534487494" lon="7.638068451988469"><ele>260.8</ele><time>2026-04-18T13:59:40Z</time></trkpt><trkpt lat="45.10223955521653" lon="7.638071647779655"><ele>261.0</ele><time>2026-04-18T13:59:41Z</time></trkpt><trkpt lat="45.10234382941935" lon="7.638193124800992"><ele>261.0</ele><time>2026-04-18T13:59:43Z</time></trkpt><trkpt lat="45.102395020189775" lon="7.638288582231039"><ele>261.0</ele><time>2026-04-18T13:59:44Z</time></trkpt><trkpt lat="45.102528983039925" lon="7.638370113812003"><ele>261.0</ele><time>2026-04-18T13:59:46Z</time></trkpt><trkpt lat="45.10259511413036" lon="7.638358649775494"><ele>261.0</ele><time>2026-04-18T13:59:47Z</time></trkpt><trkpt lat="45.102660851634084" lon="7.638305492645182"><ele>261.0</ele><time>2026-04-18T13:59:48Z</time></trkpt><trkpt lat="45.10276058841003" lon="7.638374190757408"><ele>260.75</ele><time>2026-04-18T13:59:49Z</time></trkpt><trkpt lat="45.102864735880296" lon="7.6384074504143635"><ele>260.5</ele><time>2026-04-18T13:59:50Z</time></trkpt><trkpt lat="45.102985617622906" lon="7.638416029576995"><ele>260.25</ele><time>2026-04-18T13:59:51Z</time></trkpt><trkpt lat="45.10311372535718" lon="7.638413061197195"><ele>260.0</ele><time>2026-04-18T13:59:52Z</time></trkpt><trkpt lat="45.10325128248242" lon="7.638423837781327"><ele>259.75</ele><time>2026-04-18T13:59:53Z</time></trkpt><trkpt lat="45.103389914988874" lon="7.638432054534826"><ele>259.5</ele><time>2026-04-18T13:59:54Z</time></trkpt><trkpt lat="45.10351716564975" lon="7.638442894278453"><ele>259.25</ele><time>2026-04-18T13:59:55Z</time></trkpt><trkpt lat="45.1036286479829" lon="7.638449731023621"><ele>259.0</ele><time>2026-04-18T13:59:56Z</time></trkpt><trkpt lat="45.103731129788386" lon="7.638456978533545"><ele>259.0</ele><time>2026-04-18T13:59:57Z</time></trkpt><trkpt lat="45.103826506204996" lon="7.6384633766768575"><ele>259.0</ele><time>2026-04-18T13:59:58Z</time></trkpt><trkpt lat="45.10391750373744" lon="7.6384723869630635"><ele>259.0</ele><time>2026-04-18T13:59:59Z</time></trkpt><trkpt lat="45.104016512202456" lon="7.638480268956471"><ele>259.0</ele><time>2026-04-18T14:00:00Z</time></trkpt><trkpt lat="45.10413801341728" lon="7.6384880882404245"><ele>259.0</ele><time>2026-04-18T14:00:01Z</time></trkpt><trkpt lat="45.10428045387902" lon="7.638488764356189"><ele>259.25</ele><time>2026-04-18T14:00:02Z</time></trkpt><trkpt lat="45.10442219151292" lon="7.638495903868742"><ele>259.5</ele><time>2026-04-18T14:00:03Z</time></trkpt><trkpt lat="45.104573692397175" lon="7.638502039099164"><ele>259.75</ele><time>2026-04-18T14:00:04Z</time></trkpt><trkpt lat="45.10472174498954" lon="7.638497373383084"><ele>260.0</ele><time>2026-04-18T14:00:05Z</time></trkpt><trkpt lat="45.10486095851424" lon="7.638516425286693"><ele>260.25</ele><time>2026-04-18T14:00:06Z</time></trkpt><trkpt lat="45.10499335736103" lon="7.638526230839562"><ele>260.5</ele><time>2026-04-18T14:00:07Z</time></trkpt><trkpt lat="45.105124634814594" lon="7.638534247448751"><ele>260.75</ele><time>2026-04-18T14:00:08Z</time></trkpt><trkpt lat="45.10525493556014" lon="7.638536978763385"><ele>261.0</ele><time>2026-04-18T14:00:09Z</time></trkpt><trkpt lat="45.105370177840065" lon="7.638542394902779"><ele>261.0</ele><time>2026-04-18T14:00:10Z</time></trkpt><trkpt lat="45.105482081625304" lon="7.6385422010317265"><ele>261.0</ele><time>2026-04-18T14:00:11Z</time></trkpt><trkpt lat="45.10558606188712" lon="7.638549927944244"><ele>261.0</ele><time>2026-04-18T14:00:12Z</time></trkpt><trkpt lat="45.10568454801451" lon="7.638555127436914"><ele>261.0</ele><time>2026-04-18T14:00:13Z</time></trkpt><trkpt lat="45.105775708606465" lon="7.638561137306718"><ele>261.0</ele><time>2026-04-18T14:00:14Z</time></trkpt><trkpt lat="45.10585878554195" lon="7.638558885189669"><ele>260.8333333333333</ele><time>2026-04-18T14:00:15Z</time></trkpt><trkpt lat="45.1059365419415" lon="7.638557756519266"><ele>260.6666666666667</ele><time>2026-04-18T14:00:16Z</time></trkpt><trkpt lat="45.10601037511551" lon="7.638552681509592"><ele>260.5</ele><time>2026-04-18T14:00:17Z</time></trkpt><trkpt lat="45.10608083035695" lon="7.638552796579943"><ele>260.33333333333337</ele><time>2026-04-18T14:00:18Z</time></trkpt><trkpt lat="45.10614987903671" lon="7.638558390376426"><ele>260.1666666666667</ele><time>2026-04-18T14:00:19Z</time></trkpt><trkpt lat="45.10626876180989" lon="7.63858013679741"><ele>260.0</ele><time>2026-04-18T14:00:21Z</time></trkpt><trkpt lat="45.10636280075689" lon="7.638580021832734"><ele>260.0</ele><time>2026-04-18T14:00:23Z</time></trkpt><trkpt lat="45.10643325039405" lon="7.638592045916629"><ele>260.0</ele><time>2026-04-18T14:00:25Z</time></trkpt><trkpt lat="45.10655185606206" lon="7.63858095604168"><ele>260.0</ele><time>2026-04-18T14:00:56Z</time></trkpt><trkpt lat="45.106652795009516" lon="7.638587056594569"><ele>260.0</ele><time>2026-04-18T14:00:57Z</time></trkpt><trkpt lat="45.10678568238573" lon="7.638598584667043"><ele>260.0</ele><time>2026-04-18T14:00:58Z</time></trkpt><trkpt lat="45.10690982658563" lon="7.638616676252404"><ele>260.25</ele><time>2026-04-18T14:00:59Z</time></trkpt><trkpt lat="45.10703270529826" lon="7.638631877873301"><ele>260.5</ele><time>2026-04-18T14:01:00Z</time></trkpt><trkpt lat="45.10715666173534" lon="7.638631675206918"><ele>260.75</ele><time>2026-04-18T14:01:01Z</time></trkpt><trkpt lat="45.10727657165248" lon="7.638620186558307"><ele>261.0</ele><time>2026-04-18T14:01:02Z</time></trkpt><trkpt lat="45.10739679574549" lon="7.638570217751937"><ele>260.6666666666667</ele><time>2026-04-18T14:01:03Z</time></trkpt><trkpt lat="45.107504556045605" lon="7.638438252339256"><ele>260.33333333333337</ele><time>2026-04-18T14:01:04Z</time></trkpt><trkpt lat="45.10761964625388" lon="7.638272306714725"><ele>260.0</ele><time>2026-04-18T14:01:05Z</time></trkpt><trkpt lat="45.10775797088949" lon="7.638085469728099"><ele>260.0</ele><time>2026-04-18T14:01:06Z</time></trkpt><trkpt lat="45.1078916961223" lon="7.637932291247278"><ele>260.0</ele><time>2026-04-18T14:01:07Z</time></trkpt><trkpt lat="45.10801034542016" lon="7.637775680890777"><ele>260.0</ele><time>2026-04-18T14:01:08Z</time></trkpt><trkpt lat="45.108128232154314" lon="7.637612050955571"><ele>260.0</ele><time>2026-04-18T14:01:09Z</time></trkpt><trkpt lat="45.10824223470114" lon="7.637448408436071"><ele>260.0</ele><time>2026-04-18T14:01:10Z</time></trkpt><trkpt lat="45.10835906522864" lon="7.637274585145534"><ele>260.0</ele><time>2026-04-18T14:01:11Z</time></trkpt><trkpt lat="45.10847007315231" lon="7.637111228183421"><ele>260.75</ele><time>2026-04-18T14:01:12Z</time></trkpt><trkpt lat="45.10856616123829" lon="7.636962216128125"><ele>261.5</ele><time>2026-04-18T14:01:13Z</time></trkpt><trkpt lat="45.10865825047572" lon="7.636828054850733"><ele>262.25</ele><time>2026-04-18T14:01:14Z</time></trkpt><trkpt lat="45.10875282525647" lon="7.6366985244381524"><ele>263.0</ele><time>2026-04-18T14:01:15Z</time></trkpt><trkpt lat="45.10884720010955" lon="7.63656185142441"><ele>263.0</ele><time>2026-04-18T14:01:16Z</time></trkpt><trkpt lat="45.10894568389772" lon="7.636432715691646"><ele>263.0</ele><time>2026-04-18T14:01:17Z</time></trkpt><trkpt lat="45.1090581319325" lon="7.636334086923642"><ele>263.0</ele><time>2026-04-18T14:01:18Z</time></trkpt><trkpt lat="45.10918384382767" lon="7.636275424143293"><ele>263.0</ele><time>2026-04-18T14:01:19Z</time></trkpt><trkpt lat="45.109331803347075" lon="7.636253676214197"><ele>262.6666666666667</ele><time>2026-04-18T14:01:20Z</time></trkpt><trkpt lat="45.109488700782066" lon="7.636259183507639"><ele>262.3333333333333</ele><time>2026-04-18T14:01:21Z</time></trkpt><trkpt lat="45.10965046865344" lon="7.6363155488098355"><ele>262.0</ele><time>2026-04-18T14:01:22Z</time></trkpt><trkpt lat="45.10981035579692" lon="7.63640815534108"><ele>261.0</ele><time>2026-04-18T14:01:23Z</time></trkpt><trkpt lat="45.109971508747414" lon="7.636522857612804"><ele>260.0</ele><time>2026-04-18T14:01:24Z</time></trkpt><trkpt lat="45.110144230769606" lon="7.636643655234404"><ele>259.0</ele><time>2026-04-18T14:01:25Z</time></trkpt><trkpt lat="45.11034385767667" lon="7.636764187588662"><ele>259.0</ele><time>2026-04-18T14:01:26Z</time></trkpt><trkpt lat="45.11053131926306" lon="7.636872952213454"><ele>259.0</ele><time>2026-04-18T14:01:27Z</time></trkpt><trkpt lat="45.11071366162676" lon="7.636992380600435"><ele>259.0</ele><time>2026-04-18T14:01:28Z</time></trkpt><trkpt lat="45.110891967291344" lon="7.637099632330399"><ele>258.66666666666663</ele><time>2026-04-18T14:01:29Z</time></trkpt><trkpt lat="45.11106539735946" lon="7.6372022308647045"><ele>258.3333333333333</ele><time>2026-04-18T14:01:30Z</time></trkpt><trkpt lat="45.11123266226516" lon="7.637304492340702"><ele>258.0</ele><time>2026-04-18T14:01:31Z</time></trkpt><trkpt lat="45.1113932577816" lon="7.637407705990881"><ele>258.0</ele><time>2026-04-18T14:01:32Z</time></trkpt><trkpt lat="45.111544499946476" lon="7.63750031037208"><ele>258.0</ele><time>2026-04-18T14:01:33Z</time></trkpt><trkpt lat="45.11168915915444" lon="7.6375837086178295"><ele>258.0</ele><time>2026-04-18T14:01:34Z</time></trkpt><trkpt lat="45.1118163303312" lon="7.637657606049085"><ele>258.0</ele><time>2026-04-18T14:01:35Z</time></trkpt><trkpt lat="45.111928501426455" lon="7.637725629973044"><ele>258.0</ele><time>2026-04-18T14:01:36Z</time></trkpt><trkpt lat="45.11202358308044" lon="7.6377842236856806"><ele>258.0</ele><time>2026-04-18T14:01:37Z</time></trkpt><trkpt lat="45.112100234811145" lon="7.6378274372572905"><ele>258.0</ele><time>2026-04-18T14:01:38Z</time></trkpt><trkpt lat="45.11216315205582" lon="7.637854269869839"><ele>258.0</ele><time>2026-04-18T14:01:39Z</time></trkpt><trkpt lat="45.1122370132573" lon="7.637868900759481"><ele>258.0</ele><time>2026-04-18T14:01:41Z</time></trkpt><trkpt lat="45.112301472461596" lon="7.637872313008979"><ele>258.0</ele><time>2026-04-18T14:01:50Z</time></trkpt><trkpt lat="45.11237852064574" lon="7.637888067632013"><ele>258.0</ele><time>2026-04-18T14:01:51Z</time></trkpt><trkpt lat="45.112494342637625" lon="7.637914559121238"><ele>258.0</ele><time>2026-04-18T14:01:52Z</time></trkpt><trkpt lat="45.112627533916296" lon="7.637927007918279"><ele>258.0</ele><time>2026-04-18T14:01:53Z</time></trkpt><trkpt lat="45.112792691435324" lon="7.6379807762384715"><ele>258.0</ele><time>2026-04-18T14:01:54Z</time></trkpt><trkpt lat="45.11296908358223" lon="7.637918940912255"><ele>258.0</ele><time>2026-04-18T14:01:55Z</time></trkpt><trkpt lat="45.113151492628795" lon="7.637907913469726"><ele>258.0</ele><time>2026-04-18T14:01:56Z</time></trkpt><trkpt lat="45.11332214558076" lon="7.6378972476520195"><ele>258.6666666666667</ele><time>2026-04-18T14:01:57Z</time></trkpt><trkpt lat="45.1134895796442" lon="7.63789684407642"><ele>259.33333333333337</ele><time>2026-04-18T14:01:58Z</time></trkpt><trkpt lat="45.11366081111139" lon="7.637891931759453"><ele>260.0</ele><time>2026-04-18T14:01:59Z</time></trkpt><trkpt lat="45.113834130010616" lon="7.637887199107733"><ele>260.0</ele><time>2026-04-18T14:02:00Z</time></trkpt><trkpt lat="45.11399394587462" lon="7.637888743508333"><ele>260.0</ele><time>2026-04-18T14:02:01Z</time></trkpt><trkpt lat="45.114337727238066" lon="7.63787418528206"><ele>259.6666666666667</ele><time>2026-04-18T14:02:03Z</time></trkpt><trkpt lat="45.11450296534007" lon="7.63786930091716"><ele>259.3333333333333</ele><time>2026-04-18T14:02:04Z</time></trkpt><trkpt lat="45.11465619976779" lon="7.637863143251408"><ele>259.0</ele><time>2026-04-18T14:02:05Z</time></trkpt><trkpt lat="45.114804564490406" lon="7.637857906259399"><ele>259.66666666666663</ele><time>2026-04-18T14:02:06Z</time></trkpt><trkpt lat="45.11495920081244" lon="7.637853585840654"><ele>260.3333333333333</ele><time>2026-04-18T14:02:07Z</time></trkpt><trkpt lat="45.11511821374437" lon="7.637851717480966"><ele>261.0</ele><time>2026-04-18T14:02:08Z</time></trkpt><trkpt lat="45.11527831914438" lon="7.637847125487104"><ele>261.0</ele><time>2026-04-18T14:02:09Z</time></trkpt><trkpt lat="45.115444316732905" lon="7.63783766515934"><ele>261.0</ele><time>2026-04-18T14:02:10Z</time></trkpt><trkpt lat="45.11560700756873" lon="7.637832287422735"><ele>261.0</ele><time>2026-04-18T14:02:11Z</time></trkpt><trkpt lat="45.11577484115047" lon="7.637828759481001"><ele>260.6666666666667</ele><time>2026-04-18T14:02:12Z</time></trkpt><trkpt lat="45.11594078742538" lon="7.6378222081464395"><ele>260.33333333333337</ele><time>2026-04-18T14:02:13Z</time></trkpt><trkpt lat="45.1161093550022" lon="7.637813746764217"><ele>260.0</ele><time>2026-04-18T14:02:14Z</time></trkpt><trkpt lat="45.11626970967749" lon="7.637808655124669"><ele>260.0</ele><time>2026-04-18T14:02:15Z</time></trkpt><trkpt lat="45.116421607478316" lon="7.6378056554137395"><ele>260.0</ele><time>2026-04-18T14:02:16Z</time></trkpt><trkpt lat="45.11656491027298" lon="7.637799821744453"><ele>260.0</ele><time>2026-04-18T14:02:17Z</time></trkpt><trkpt lat="45.116693168904526" lon="7.637794950680474"><ele>260.0</ele><time>2026-04-18T14:02:18Z</time></trkpt><trkpt lat="45.116804837113676" lon="7.637791711389975"><ele>259.8</ele><time>2026-04-18T14:02:19Z</time></trkpt><trkpt lat="45.1168939985474" lon="7.637788819440298"><ele>259.6</ele><time>2026-04-18T14:02:20Z</time></trkpt><trkpt lat="45.1169814262859" lon="7.637804414936656"><ele>259.4</ele><time>2026-04-18T14:02:21Z</time></trkpt><trkpt lat="45.11708713385948" lon="7.637827967549699"><ele>259.2</ele><time>2026-04-18T14:02:22Z</time></trkpt><trkpt lat="45.117212683686674" lon="7.637785954645921"><ele>259.0</ele><time>2026-04-18T14:02:23Z</time></trkpt><trkpt lat="45.11735274817236" lon="7.637808759707988"><ele>258.5</ele><time>2026-04-18T14:02:24Z</time></trkpt><trkpt lat="45.11749027588805" lon="7.637824335231157"><ele>258.0</ele><time>2026-04-18T14:02:25Z</time></trkpt><trkpt lat="45.11763239916141" lon="7.637830166599036"><ele>257.5</ele><time>2026-04-18T14:02:26Z</time></trkpt><trkpt lat="45.11776933555436" lon="7.637828172804955"><ele>257.0</ele><time>2026-04-18T14:02:27Z</time></trkpt><trkpt lat="45.117887140697924" lon="7.637825139671731"><ele>257.0</ele><time>2026-04-18T14:02:28Z</time></trkpt><trkpt lat="45.11799765646056" lon="7.63783898625227"><ele>257.0</ele><time>2026-04-18T14:02:29Z</time></trkpt><trkpt lat="45.11809605363504" lon="7.637841682537141"><ele>257.0</ele><time>2026-04-18T14:02:30Z</time></trkpt><trkpt lat="45.118200038219726" lon="7.6379420333907975"><ele>257.0</ele><time>2026-04-18T14:02:31Z</time></trkpt><trkpt lat="45.118292240215695" lon="7.638059171594161"><ele>256.75</ele><time>2026-04-18T14:02:32Z</time></trkpt><trkpt lat="45.11835667084048" lon="7.638204335002807"><ele>256.5</ele><time>2026-04-18T14:02:33Z</time></trkpt><trkpt lat="45.118402933618455" lon="7.638379041515767"><ele>256.25</ele><time>2026-04-18T14:02:34Z</time></trkpt><trkpt lat="45.11842149659179" lon="7.638566279709487"><ele>256.0</ele><time>2026-04-18T14:02:35Z</time></trkpt><trkpt lat="45.11841391794721" lon="7.638765108742092"><ele>257.66666666666663</ele><time>2026-04-18T14:02:36Z</time></trkpt><trkpt lat="45.118380965469456" lon="7.638970821628203"><ele>259.3333333333333</ele><time>2026-04-18T14:02:37Z</time></trkpt><trkpt lat="45.11833988747723" lon="7.639192555362697"><ele>261.0</ele><time>2026-04-18T14:02:38Z</time></trkpt><trkpt lat="45.118314124422" lon="7.639409683917285"><ele>260.3333333333333</ele><time>2026-04-18T14:02:39Z</time></trkpt><trkpt lat="45.118337656289974" lon="7.639623944666366"><ele>259.66666666666663</ele><time>2026-04-18T14:02:40Z</time></trkpt><trkpt lat="45.11837965172699" lon="7.639840932858108"><ele>259.0</ele><time>2026-04-18T14:02:41Z</time></trkpt><trkpt lat="45.11844458265847" lon="7.64004634642996"><ele>259.0</ele><time>2026-04-18T14:02:42Z</time></trkpt><trkpt lat="45.11853612457338" lon="7.640232198172467"><ele>259.0</ele><time>2026-04-18T14:02:43Z</time></trkpt><trkpt lat="45.118653675595446" lon="7.640397898887958"><ele>259.0</ele><time>2026-04-18T14:02:44Z</time></trkpt><trkpt lat="45.11879065819309" lon="7.640528656626391"><ele>258.3333333333333</ele><time>2026-04-18T14:02:45Z</time></trkpt><trkpt lat="45.11894398376604" lon="7.640618861036445"><ele>257.6666666666667</ele><time>2026-04-18T14:02:46Z</time></trkpt><trkpt lat="45.119106333748164" lon="7.640668425717361"><ele>257.0</ele><time>2026-04-18T14:02:47Z</time></trkpt><trkpt lat="45.119283547580245" lon="7.6406648763326865"><ele>256.33333333333337</ele><time>2026-04-18T14:02:48Z</time></trkpt><trkpt lat="45.119459195169725" lon="7.6406354162312375"><ele>255.66666666666669</ele><time>2026-04-18T14:02:49Z</time></trkpt><trkpt lat="45.119633293915356" lon="7.6406157745042105"><ele>255.0</ele><time>2026-04-18T14:02:50Z</time></trkpt><trkpt lat="45.11978922241365" lon="7.640584662876995"><ele>254.66666666666669</ele><time>2026-04-18T14:02:51Z</time></trkpt><trkpt lat="45.119950445493444" lon="7.6405904719510085"><ele>254.33333333333334</ele><time>2026-04-18T14:02:52Z</time></trkpt><trkpt lat="45.12010678245746" lon="7.64061943001777"><ele>254.0</ele><time>2026-04-18T14:02:53Z</time></trkpt><trkpt lat="45.120242367830734" lon="7.640716810477038"><ele>254.0</ele><time>2026-04-18T14:02:54Z</time></trkpt><trkpt lat="45.12036493256153" lon="7.640833526585194"><ele>254.0</ele><time>2026-04-18T14:02:55Z</time></trkpt><trkpt lat="45.12047016503161" lon="7.64098065381886"><ele>254.0</ele><time>2026-04-18T14:02:56Z</time></trkpt><trkpt lat="45.1205535868359" lon="7.641162958558238"><ele>254.0</ele><time>2026-04-18T14:02:57Z</time></trkpt><trkpt lat="45.12065308532986" lon="7.641353550760894"><ele>254.33333333333334</ele><time>2026-04-18T14:02:58Z</time></trkpt><trkpt lat="45.12069654756752" lon="7.641631342833573"><ele>254.66666666666669</ele><time>2026-04-18T14:02:59Z</time></trkpt><trkpt lat="45.12076905200092" lon="7.641882530196028"><ele>255.0</ele><time>2026-04-18T14:03:00Z</time></trkpt><trkpt lat="45.120858902330184" lon="7.642143212419832"><ele>254.0</ele><time>2026-04-18T14:03:01Z</time></trkpt><trkpt lat="45.12096328573451" lon="7.6424212876529225"><ele>253.0</ele><time>2026-04-18T14:03:02Z</time></trkpt><trkpt lat="45.12106600340803" lon="7.642710397485044"><ele>254.5</ele><time>2026-04-18T14:03:03Z</time></trkpt><trkpt lat="45.12116280589699" lon="7.643016563454785"><ele>256.0</ele><time>2026-04-18T14:03:04Z</time></trkpt><trkpt lat="45.121261015366265" lon="7.643331759470963"><ele>256.5</ele><time>2026-04-18T14:03:05Z</time></trkpt><trkpt lat="45.12136473676906" lon="7.643651702731736"><ele>257.0</ele><time>2026-04-18T14:03:06Z</time></trkpt><trkpt lat="45.121466584529486" lon="7.643965300723272"><ele>257.0</ele><time>2026-04-18T14:03:07Z</time></trkpt><trkpt lat="45.121561009244964" lon="7.644315920635263"><ele>257.0</ele><time>2026-04-18T14:03:08Z</time></trkpt><trkpt lat="45.12170238963166" lon="7.644709557557792"><ele>256.0</ele><time>2026-04-18T14:03:09Z</time></trkpt><trkpt lat="45.121811844080746" lon="7.645078265909492"><ele>255.0</ele><time>2026-04-18T14:03:10Z</time></trkpt><trkpt lat="45.12193028132426" lon="7.645448537973172"><ele>255.0</ele><time>2026-04-18T14:03:11Z</time></trkpt><trkpt lat="45.1220508875098" lon="7.645817992435345"><ele>255.0</ele><time>2026-04-18T14:03:12Z</time></trkpt><trkpt lat="45.122163732646015" lon="7.646174622505784"><ele>255.5</ele><time>2026-04-18T14:03:13Z</time></trkpt><trkpt lat="45.122273168887986" lon="7.64653618518643"><ele>256.0</ele><time>2026-04-18T14:03:14Z</time></trkpt><trkpt lat="45.122380436000526" lon="7.6469193188202045"><ele>255.5</ele><time>2026-04-18T14:03:15Z</time></trkpt><trkpt lat="45.12250114068886" lon="7.647256265654714"><ele>255.0</ele><time>2026-04-18T14:03:16Z</time></trkpt><trkpt lat="45.12261721863895" lon="7.6476160637415225"><ele>253.0</ele><time>2026-04-18T14:03:17Z</time></trkpt><trkpt lat="45.12273235664097" lon="7.647973486574294"><ele>251.0</ele><time>2026-04-18T14:03:18Z</time></trkpt><trkpt lat="45.12284160719098" lon="7.648322107551629"><ele>251.0</ele><time>2026-04-18T14:03:19Z</time></trkpt><trkpt lat="45.122950845352904" lon="7.648668944076791"><ele>251.0</ele><time>2026-04-18T14:03:20Z</time></trkpt><trkpt lat="45.12306272278792" lon="7.649021147698481"><ele>251.0</ele><time>2026-04-18T14:03:21Z</time></trkpt><trkpt lat="45.12317919956385" lon="7.649381828183021"><ele>251.0</ele><time>2026-04-18T14:03:22Z</time></trkpt><trkpt lat="45.12329891121541" lon="7.649753303516487"><ele>251.5</ele><time>2026-04-18T14:03:23Z</time></trkpt><trkpt lat="45.123421401508374" lon="7.650134575816462"><ele>252.0</ele><time>2026-04-18T14:03:24Z</time></trkpt><trkpt lat="45.12354529954979" lon="7.650530207645393"><ele>251.0</ele><time>2026-04-18T14:03:25Z</time></trkpt><trkpt lat="45.12366803448556" lon="7.650910948334974"><ele>250.0</ele><time>2026-04-18T14:03:26Z</time></trkpt><trkpt lat="45.12378983101557" lon="7.6512806715440655"><ele>249.5</ele><time>2026-04-18T14:03:27Z</time></trkpt><trkpt lat="45.12390765424013" lon="7.651649846569691"><ele>249.0</ele><time>2026-04-18T14:03:28Z</time></trkpt><trkpt lat="45.124022332238695" lon="7.65200707015946"><ele>250.0</ele><time>2026-04-18T14:03:29Z</time></trkpt><trkpt lat="45.12413143953475" lon="7.652353030662328"><ele>251.0</ele><time>2026-04-18T14:03:30Z</time></trkpt><trkpt lat="45.12423755242916" lon="7.652690636866517"><ele>249.5</ele><time>2026-04-18T14:03:31Z</time></trkpt><trkpt lat="45.1243429461625" lon="7.653019466686493"><ele>248.0</ele><time>2026-04-18T14:03:32Z</time></trkpt><trkpt lat="45.12444302245356" lon="7.653313469209116"><ele>248.0</ele><time>2026-04-18T14:03:33Z</time></trkpt><trkpt lat="45.12454188614411" lon="7.653609217591138"><ele>248.0</ele><time>2026-04-18T14:03:34Z</time></trkpt><trkpt lat="45.12463039025943" lon="7.653919756376269"><ele>244.5</ele><time>2026-04-18T14:03:35Z</time></trkpt><trkpt lat="45.1247328961928" lon="7.654236270913759"><ele>241.0</ele><time>2026-04-18T14:03:36Z</time></trkpt><trkpt lat="45.124828629543764" lon="7.654541144199088"><ele>237.5</ele><time>2026-04-18T14:03:37Z</time></trkpt><trkpt lat="45.12492378064596" lon="7.654843939269865"><ele>234.0</ele><time>2026-04-18T14:03:38Z</time></trkpt><trkpt lat="45.12502182474134" lon="7.655150287941028"><ele>235.0</ele><time>2026-04-18T14:03:39Z</time></trkpt><trkpt lat="45.12512177281976" lon="7.655458458791688"><ele>236.0</ele><time>2026-04-18T14:03:40Z</time></trkpt><trkpt lat="45.125220529363226" lon="7.655763826768733"><ele>236.0</ele><time>2026-04-18T14:03:41Z</time></trkpt><trkpt lat="45.125319712179405" lon="7.656073980472515"><ele>236.0</ele><time>2026-04-18T14:03:42Z</time></trkpt><trkpt lat="45.12541779295596" lon="7.65637632938734"><ele>237.0</ele><time>2026-04-18T14:03:43Z</time></trkpt><trkpt lat="45.12551915904635" lon="7.656686136623098"><ele>238.0</ele><time>2026-04-18T14:03:44Z</time></trkpt><trkpt lat="45.125617750184624" lon="7.656998495401946"><ele>238.0</ele><time>2026-04-18T14:03:45Z</time></trkpt><trkpt lat="45.12571764549728" lon="7.657310907376175"><ele>238.0</ele><time>2026-04-18T14:03:46Z</time></trkpt><trkpt lat="45.12581173322571" lon="7.6576181287528495"><ele>239.5</ele><time>2026-04-18T14:03:47Z</time></trkpt><trkpt lat="45.12590406246331" lon="7.657924029505579"><ele>241.0</ele><time>2026-04-18T14:03:48Z</time></trkpt><trkpt lat="45.12599370421907" lon="7.658237772921073"><ele>241.0</ele><time>2026-04-18T14:03:49Z</time></trkpt><trkpt lat="45.12607921398249" lon="7.6585481822867845"><ele>241.0</ele><time>2026-04-18T14:03:50Z</time></trkpt><trkpt lat="45.12616028728775" lon="7.65886767489172"><ele>241.5</ele><time>2026-04-18T14:03:51Z</time></trkpt><trkpt lat="45.1262342412541" lon="7.659191873172701"><ele>242.0</ele><time>2026-04-18T14:03:52Z</time></trkpt><trkpt lat="45.126303799331396" lon="7.659518698739852"><ele>240.5</ele><time>2026-04-18T14:03:53Z</time></trkpt><trkpt lat="45.12635466106117" lon="7.659879037507557"><ele>239.0</ele><time>2026-04-18T14:03:54Z</time></trkpt><trkpt lat="45.12641609552948" lon="7.660214945702348"><ele>239.5</ele><time>2026-04-18T14:03:55Z</time></trkpt><trkpt lat="45.12646543113936" lon="7.660563813061716"><ele>240.0</ele><time>2026-04-18T14:03:56Z</time></trkpt><trkpt lat="45.126511757640756" lon="7.660903304886244"><ele>240.0</ele><time>2026-04-18T14:03:57Z</time></trkpt><trkpt lat="45.12655848542729" lon="7.661235639686059"><ele>240.0</ele><time>2026-04-18T14:03:58Z</time></trkpt><trkpt lat="45.126597091908515" lon="7.661564690018111"><ele>240.0</ele><time>2026-04-18T14:03:59Z</time></trkpt><trkpt lat="45.12661885657649" lon="7.661870382731569"><ele>240.0</ele><time>2026-04-18T14:04:00Z</time></trkpt><trkpt lat="45.126620452749854" lon="7.662171199059104"><ele>240.0</ele><time>2026-04-18T14:04:01Z</time></trkpt><trkpt lat="45.12660998528217" lon="7.66264091522945"><ele>240.0</ele><time>2026-04-18T14:04:03Z</time></trkpt><trkpt lat="45.12658441757585" lon="7.66284220758964"><ele>240.0</ele><time>2026-04-18T14:04:04Z</time></trkpt><trkpt lat="45.126524145503346" lon="7.66302656368941"><ele>240.0</ele><time>2026-04-18T14:04:05Z</time></trkpt><trkpt lat="45.12642627672314" lon="7.66317715196924"><ele>240.0</ele><time>2026-04-18T14:04:06Z</time></trkpt><trkpt lat="45.12630401501598" lon="7.663289290148493"><ele>240.0</ele><time>2026-04-18T14:04:07Z</time></trkpt><trkpt lat="45.126163255073635" lon="7.663345229698751"><ele>240.0</ele><time>2026-04-18T14:04:08Z</time></trkpt><trkpt lat="45.126014960833416" lon="7.66334767916513"><ele>240.0</ele><time>2026-04-18T14:04:09Z</time></trkpt><trkpt lat="45.125870061310074" lon="7.663285350721519"><ele>240.0</ele><time>2026-04-18T14:04:10Z</time></trkpt><trkpt lat="45.125736832095164" lon="7.663176146759119"><ele>239.66666666666669</ele><time>2026-04-18T14:04:11Z</time></trkpt><trkpt lat="45.12563047744663" lon="7.663026680953031"><ele>239.33333333333334</ele><time>2026-04-18T14:04:12Z</time></trkpt><trkpt lat="45.12555221638442" lon="7.6628393004830375"><ele>239.0</ele><time>2026-04-18T14:04:13Z</time></trkpt><trkpt lat="45.12550521291136" lon="7.662633068916284"><ele>239.0</ele><time>2026-04-18T14:04:14Z</time></trkpt><trkpt lat="45.125508276411296" lon="7.662399119927787"><ele>239.0</ele><time>2026-04-18T14:04:15Z</time></trkpt><trkpt lat="45.12555998231492" lon="7.662176277373942"><ele>239.0</ele><time>2026-04-18T14:04:16Z</time></trkpt><trkpt lat="45.12562479578801" lon="7.661967534284165"><ele>238.66666666666669</ele><time>2026-04-18T14:04:17Z</time></trkpt><trkpt lat="45.12572646334232" lon="7.661769517068967"><ele>238.33333333333331</ele><time>2026-04-18T14:04:18Z</time></trkpt><trkpt lat="45.125859284909986" lon="7.66161171064501"><ele>238.0</ele><time>2026-04-18T14:04:19Z</time></trkpt><trkpt lat="45.12602555745904" lon="7.661494625414486"><ele>238.66666666666666</ele><time>2026-04-18T14:04:20Z</time></trkpt><trkpt lat="45.1262059277117" lon="7.661420736305104"><ele>239.33333333333331</ele><time>2026-04-18T14:04:21Z</time></trkpt><trkpt lat="45.12639537427546" lon="7.661363303336197"><ele>240.0</ele><time>2026-04-18T14:04:22Z</time></trkpt><trkpt lat="45.126583628348754" lon="7.6612931737395344"><ele>240.0</ele><time>2026-04-18T14:04:23Z</time></trkpt><trkpt lat="45.12676723819888" lon="7.661216284057084"><ele>240.0</ele><time>2026-04-18T14:04:24Z</time></trkpt><trkpt lat="45.12694447172491" lon="7.661133502014452"><ele>240.0</ele><time>2026-04-18T14:04:25Z</time></trkpt><trkpt lat="45.127132435282824" lon="7.661046182558066"><ele>240.5</ele><time>2026-04-18T14:04:26Z</time></trkpt><trkpt lat="45.12734184233026" lon="7.660947623613487"><ele>241.0</ele><time>2026-04-18T14:04:27Z</time></trkpt><trkpt lat="45.12757499402727" lon="7.660825875325264"><ele>241.5</ele><time>2026-04-18T14:04:28Z</time></trkpt><trkpt lat="45.127825057708705" lon="7.660702022123389"><ele>242.0</ele><time>2026-04-18T14:04:29Z</time></trkpt><trkpt lat="45.12807436104263" lon="7.660596008740306"><ele>241.0</ele><time>2026-04-18T14:04:30Z</time></trkpt><trkpt lat="45.12831574262548" lon="7.660500632874096"><ele>240.0</ele><time>2026-04-18T14:04:31Z</time></trkpt><trkpt lat="45.128545825574186" lon="7.6603962002416"><ele>239.5</ele><time>2026-04-18T14:04:32Z</time></trkpt><trkpt lat="45.12876414553535" lon="7.660273618501237"><ele>239.0</ele><time>2026-04-18T14:04:33Z</time></trkpt><trkpt lat="45.128980436039846" lon="7.660124601011141"><ele>239.5</ele><time>2026-04-18T14:04:34Z</time></trkpt><trkpt lat="45.12918764178727" lon="7.659936224914391"><ele>240.0</ele><time>2026-04-18T14:04:35Z</time></trkpt><trkpt lat="45.12939210673099" lon="7.65971423295122"><ele>240.0</ele><time>2026-04-18T14:04:36Z</time></trkpt><trkpt lat="45.12958965843303" lon="7.659466154801902"><ele>240.0</ele><time>2026-04-18T14:04:37Z</time></trkpt><trkpt lat="45.12977529334486" lon="7.659191004148205"><ele>240.0</ele><time>2026-04-18T14:04:38Z</time></trkpt><trkpt lat="45.12996046585186" lon="7.658901093278108"><ele>240.0</ele><time>2026-04-18T14:04:39Z</time></trkpt><trkpt lat="45.13015545740067" lon="7.658610927977847"><ele>240.5</ele><time>2026-04-18T14:04:40Z</time></trkpt><trkpt lat="45.13034824826849" lon="7.65833235356598"><ele>241.0</ele><time>2026-04-18T14:04:41Z</time></trkpt><trkpt lat="45.130544608660074" lon="7.65805557156455"><ele>241.5</ele><time>2026-04-18T14:04:42Z</time></trkpt><trkpt lat="45.13073701346183" lon="7.657782461827647"><ele>242.0</ele><time>2026-04-18T14:04:43Z</time></trkpt><trkpt lat="45.130919355745995" lon="7.657515396511834"><ele>242.0</ele><time>2026-04-18T14:04:44Z</time></trkpt><trkpt lat="45.13109989292221" lon="7.657246785943599"><ele>242.0</ele><time>2026-04-18T14:04:45Z</time></trkpt><trkpt lat="45.13128361858017" lon="7.656979519497069"><ele>242.0</ele><time>2026-04-18T14:04:46Z</time></trkpt><trkpt lat="45.13146913398515" lon="7.656709387214306"><ele>242.0</ele><time>2026-04-18T14:04:47Z</time></trkpt><trkpt lat="45.131666931615115" lon="7.656447747233691"><ele>242.0</ele><time>2026-04-18T14:04:48Z</time></trkpt><trkpt lat="45.13187985330692" lon="7.656204934012483"><ele>242.0</ele><time>2026-04-18T14:04:49Z</time></trkpt><trkpt lat="45.13210831852261" lon="7.655986300440665"><ele>242.0</ele><time>2026-04-18T14:04:50Z</time></trkpt><trkpt lat="45.132344884364585" lon="7.655783494471857"><ele>242.0</ele><time>2026-04-18T14:04:51Z</time></trkpt><trkpt lat="45.132591561598844" lon="7.6556058801908025"><ele>242.0</ele><time>2026-04-18T14:04:52Z</time></trkpt><trkpt lat="45.132838212122856" lon="7.655449850563622"><ele>242.0</ele><time>2026-04-18T14:04:53Z</time></trkpt><trkpt lat="45.13310523732344" lon="7.655321206024931"><ele>245.0</ele><time>2026-04-18T14:04:54Z</time></trkpt><trkpt lat="45.13337679800658" lon="7.655215713980399"><ele>248.0</ele><time>2026-04-18T14:04:55Z</time></trkpt><trkpt lat="45.133654108705166" lon="7.655143985705069"><ele>248.0</ele><time>2026-04-18T14:04:56Z</time></trkpt><trkpt lat="45.13394061490498" lon="7.655093856738258"><ele>248.0</ele><time>2026-04-18T14:04:57Z</time></trkpt><trkpt lat="45.134236258394765" lon="7.655076090120167"><ele>245.5</ele><time>2026-04-18T14:04:58Z</time></trkpt><trkpt lat="45.13453359629108" lon="7.655083633410675"><ele>243.0</ele><time>2026-04-18T14:04:59Z</time></trkpt><trkpt lat="45.13483049470509" lon="7.6551017768720655"><ele>243.0</ele><time>2026-04-18T14:05:00Z</time></trkpt><trkpt lat="45.13512763327271" lon="7.655125920888411"><ele>243.0</ele><time>2026-04-18T14:05:01Z</time></trkpt><trkpt lat="45.135428561922055" lon="7.655154991076555"><ele>246.0</ele><time>2026-04-18T14:05:02Z</time></trkpt><trkpt lat="45.13572793871137" lon="7.655173865438381"><ele>249.0</ele><time>2026-04-18T14:05:03Z</time></trkpt><trkpt lat="45.13601263846881" lon="7.655191426050623"><ele>249.0</ele><time>2026-04-18T14:05:04Z</time></trkpt><trkpt lat="45.13629064588074" lon="7.655211892213241"><ele>249.0</ele><time>2026-04-18T14:05:05Z</time></trkpt><trkpt lat="45.13657376950129" lon="7.655233036838954"><ele>249.0</ele><time>2026-04-18T14:05:06Z</time></trkpt><trkpt lat="45.13686038040954" lon="7.655249472232055"><ele>249.0</ele><time>2026-04-18T14:05:07Z</time></trkpt><trkpt lat="45.13714559730454" lon="7.6552613596469605"><ele>248.0</ele><time>2026-04-18T14:05:08Z</time></trkpt><trkpt lat="45.137431137478025" lon="7.655267997534353"><ele>247.0</ele><time>2026-04-18T14:05:09Z</time></trkpt><trkpt lat="45.13771240974955" lon="7.655256817630426"><ele>247.0</ele><time>2026-04-18T14:05:10Z</time></trkpt><trkpt lat="45.137994315986525" lon="7.655231087616905"><ele>247.0</ele><time>2026-04-18T14:05:11Z</time></trkpt><trkpt lat="45.13827963697995" lon="7.655192432783969"><ele>247.5</ele><time>2026-04-18T14:05:12Z</time></trkpt><trkpt lat="45.13856010155834" lon="7.655143161769684"><ele>248.0</ele><time>2026-04-18T14:05:13Z</time></trkpt><trkpt lat="45.13882910305469" lon="7.655080631238922"><ele>250.5</ele><time>2026-04-18T14:05:14Z</time></trkpt><trkpt lat="45.13909387665246" lon="7.655009463630089"><ele>253.0</ele><time>2026-04-18T14:05:15Z</time></trkpt><trkpt lat="45.13935214693146" lon="7.654926561482477"><ele>253.0</ele><time>2026-04-18T14:05:16Z</time></trkpt><trkpt lat="45.13962143091967" lon="7.654816599032068"><ele>253.0</ele><time>2026-04-18T14:05:17Z</time></trkpt><trkpt lat="45.13990121098565" lon="7.654679011196797"><ele>252.0</ele><time>2026-04-18T14:05:18Z</time></trkpt><trkpt lat="45.14018778762624" lon="7.654530647208078"><ele>251.0</ele><time>2026-04-18T14:05:19Z</time></trkpt><trkpt lat="45.14047252038689" lon="7.654388882768037"><ele>249.5</ele><time>2026-04-18T14:05:20Z</time></trkpt><trkpt lat="45.14075198862177" lon="7.654233943234202"><ele>248.0</ele><time>2026-04-18T14:05:21Z</time></trkpt><trkpt lat="45.14103839395221" lon="7.654083894354389"><ele>248.0</ele><time>2026-04-18T14:05:22Z</time></trkpt><trkpt lat="45.141315010322124" lon="7.653901576583812"><ele>248.0</ele><time>2026-04-18T14:05:23Z</time></trkpt><trkpt lat="45.141570740501635" lon="7.653702888977734"><ele>247.5</ele><time>2026-04-18T14:05:24Z</time></trkpt><trkpt lat="45.14182698564108" lon="7.653489472961462"><ele>247.0</ele><time>2026-04-18T14:05:25Z</time></trkpt><trkpt lat="45.14207311405942" lon="7.653267476592827"><ele>247.0</ele><time>2026-04-18T14:05:26Z</time></trkpt><trkpt lat="45.14231195725719" lon="7.653034251008821"><ele>247.0</ele><time>2026-04-18T14:05:27Z</time></trkpt><trkpt lat="45.14255192545617" lon="7.652797519639905"><ele>249.0</ele><time>2026-04-18T14:05:28Z</time></trkpt><trkpt lat="45.14279222918943" lon="7.652559250656945"><ele>251.0</ele><time>2026-04-18T14:05:29Z</time></trkpt><trkpt lat="45.143025455024514" lon="7.652324847561279"><ele>251.5</ele><time>2026-04-18T14:05:30Z</time></trkpt><trkpt lat="45.14325283579755" lon="7.652096222539565"><ele>252.0</ele><time>2026-04-18T14:05:31Z</time></trkpt><trkpt lat="45.14348401865614" lon="7.651861404600273"><ele>252.0</ele><time>2026-04-18T14:05:32.02Z</time></trkpt><trkpt lat="45.143710715933686" lon="7.651627747640417"><ele>252.0</ele><time>2026-04-18T14:05:33.02Z</time></trkpt><trkpt lat="45.14393429273436" lon="7.6514005198351125"><ele>252.5</ele><time>2026-04-18T14:05:34.019Z</time></trkpt><trkpt lat="45.14415911848684" lon="7.6511755471989185"><ele>253.0</ele><time>2026-04-18T14:05:35.019Z</time></trkpt><trkpt lat="45.144387018708386" lon="7.650948024281024"><ele>253.0</ele><time>2026-04-18T14:05:36.019Z</time></trkpt><trkpt lat="45.14461312133278" lon="7.650708055396798"><ele>253.0</ele><time>2026-04-18T14:05:37.02Z</time></trkpt><trkpt lat="45.14483615258611" lon="7.650457909568062"><ele>253.0</ele><time>2026-04-18T14:05:38.02Z</time></trkpt><trkpt lat="45.145300260931926" lon="7.6500030999329525"><ele>253.0</ele><time>2026-04-18T14:05:40.022Z</time></trkpt><trkpt lat="45.14552692486623" lon="7.649767466622402"><ele>253.0</ele><time>2026-04-18T14:05:41.021Z</time></trkpt><trkpt lat="45.145588964265905" lon="7.649714173756213"><ele>253.0</ele><time>2026-04-18T14:05:42Z</time></trkpt><trkpt lat="45.14577919140524" lon="7.64949356870416"><ele>252.5</ele><time>2026-04-18T14:05:43Z</time></trkpt><trkpt lat="45.14596534565892" lon="7.64918403791239"><ele>252.0</ele><time>2026-04-18T14:05:44Z</time></trkpt><trkpt lat="45.14615401420904" lon="7.648957677638183"><ele>252.0</ele><time>2026-04-18T14:05:45Z</time></trkpt><trkpt lat="45.14632677664338" lon="7.648708531680711"><ele>252.0</ele><time>2026-04-18T14:05:46Z</time></trkpt><trkpt lat="45.14649552408445" lon="7.648455876430594"><ele>253.5</ele><time>2026-04-18T14:05:47Z</time></trkpt><trkpt lat="45.146651926473005" lon="7.648190952577749"><ele>255.0</ele><time>2026-04-18T14:05:48Z</time></trkpt><trkpt lat="45.146807072433916" lon="7.647928038148226"><ele>255.0</ele><time>2026-04-18T14:05:49Z</time></trkpt><trkpt lat="45.14696678018915" lon="7.647661261111775"><ele>255.0</ele><time>2026-04-18T14:05:50Z</time></trkpt><trkpt lat="45.14711866514859" lon="7.647403739544856"><ele>255.0</ele><time>2026-04-18T14:05:51Z</time></trkpt><trkpt lat="45.14726751795925" lon="7.647150403197847"><ele>255.0</ele><time>2026-04-18T14:05:52Z</time></trkpt><trkpt lat="45.14741537241075" lon="7.646896195724812"><ele>255.0</ele><time>2026-04-18T14:05:53Z</time></trkpt><trkpt lat="45.14757023539687" lon="7.646652302209721"><ele>255.0</ele><time>2026-04-18T14:05:54Z</time></trkpt><trkpt lat="45.14774103728048" lon="7.646419766819016"><ele>255.0</ele><time>2026-04-18T14:05:55Z</time></trkpt><trkpt lat="45.147920115736376" lon="7.6462040481176174"><ele>255.0</ele><time>2026-04-18T14:05:56Z</time></trkpt><trkpt lat="45.14810905482337" lon="7.645999206851369"><ele>255.0</ele><time>2026-04-18T14:05:57Z</time></trkpt><trkpt lat="45.14830732285816" lon="7.645817138150059"><ele>255.0</ele><time>2026-04-18T14:05:58Z</time></trkpt><trkpt lat="45.14850814440395" lon="7.64564261139476"><ele>255.0</ele><time>2026-04-18T14:05:59Z</time></trkpt><trkpt lat="45.148719834008695" lon="7.645482304183472"><ele>255.0</ele><time>2026-04-18T14:06:00Z</time></trkpt><trkpt lat="45.14893159378813" lon="7.645351598210471"><ele>255.66666666666669</ele><time>2026-04-18T14:06:01Z</time></trkpt><trkpt lat="45.149130881309226" lon="7.645229467053475"><ele>256.33333333333337</ele><time>2026-04-18T14:06:02Z</time></trkpt><trkpt lat="45.149337946115494" lon="7.645150500444271"><ele>257.0</ele><time>2026-04-18T14:06:03Z</time></trkpt><trkpt lat="45.14953940190755" lon="7.645072308055968"><ele>257.0</ele><time>2026-04-18T14:06:04Z</time></trkpt><trkpt lat="45.14972851836995" lon="7.645004911162605"><ele>257.0</ele><time>2026-04-18T14:06:05Z</time></trkpt><trkpt lat="45.1499285640247" lon="7.644947194696731"><ele>257.0</ele><time>2026-04-18T14:06:06Z</time></trkpt><trkpt lat="45.15014330757836" lon="7.644892766044393"><ele>256.6666666666667</ele><time>2026-04-18T14:06:07Z</time></trkpt><trkpt lat="45.15035771781743" lon="7.6448323217001715"><ele>256.3333333333333</ele><time>2026-04-18T14:06:08Z</time></trkpt><trkpt lat="45.150576362991295" lon="7.644764703841512"><ele>256.0</ele><time>2026-04-18T14:06:09Z</time></trkpt><trkpt lat="45.15079914781902" lon="7.644711776443466"><ele>257.0</ele><time>2026-04-18T14:06:10Z</time></trkpt><trkpt lat="45.15100718492494" lon="7.644673916475839"><ele>258.0</ele><time>2026-04-18T14:06:11Z</time></trkpt><trkpt lat="45.15120614569206" lon="7.6446371287407695"><ele>259.0</ele><time>2026-04-18T14:06:12Z</time></trkpt><trkpt lat="45.15139497157329" lon="7.6446139027381514"><ele>259.66666666666663</ele><time>2026-04-18T14:06:13Z</time></trkpt><trkpt lat="45.15158080414734" lon="7.644606820667231"><ele>260.3333333333333</ele><time>2026-04-18T14:06:14Z</time></trkpt><trkpt lat="45.15176745485151" lon="7.6446089656936955"><ele>261.0</ele><time>2026-04-18T14:06:15Z</time></trkpt><trkpt lat="45.15194810843625" lon="7.644611101694597"><ele>261.0</ele><time>2026-04-18T14:06:16Z</time></trkpt><trkpt lat="45.15211923775499" lon="7.6446132069261"><ele>261.0</ele><time>2026-04-18T14:06:17Z</time></trkpt><trkpt lat="45.15228072093599" lon="7.644615862359479"><ele>261.0</ele><time>2026-04-18T14:06:18Z</time></trkpt><trkpt lat="45.15243445099842" lon="7.6446151239844635"><ele>261.0</ele><time>2026-04-18T14:06:19Z</time></trkpt><trkpt lat="45.152580236508385" lon="7.644600319142071"><ele>261.0</ele><time>2026-04-18T14:06:20Z</time></trkpt><trkpt lat="45.15272429881587" lon="7.6445650385941475"><ele>261.0</ele><time>2026-04-18T14:06:21Z</time></trkpt><trkpt lat="45.15284682125036" lon="7.6445197373996985"><ele>261.0</ele><time>2026-04-18T14:06:22Z</time></trkpt><trkpt lat="45.15295286981964" lon="7.644474877288903"><ele>261.0</ele><time>2026-04-18T14:06:23Z</time></trkpt><trkpt lat="45.15304203902094" lon="7.644436945470351"><ele>261.0</ele><time>2026-04-18T14:06:24Z</time></trkpt><trkpt lat="45.153123834154144" lon="7.644401991943973"><ele>261.0</ele><time>2026-04-18T14:06:25Z</time></trkpt><trkpt lat="45.15319944283757" lon="7.644380587864524"><ele>261.0</ele><time>2026-04-18T14:06:26Z</time></trkpt><trkpt lat="45.15327507974632" lon="7.644370224353201"><ele>261.0</ele><time>2026-04-18T14:06:27Z</time></trkpt><trkpt lat="45.153389793710026" lon="7.644458346906189"><ele>261.1666666666667</ele><time>2026-04-18T14:06:29Z</time></trkpt><trkpt lat="45.15345594591326" lon="7.644528243209239"><ele>261.3333333333333</ele><time>2026-04-18T14:06:30Z</time></trkpt><trkpt lat="45.153513476749396" lon="7.644582859030757"><ele>261.5</ele><time>2026-04-18T14:06:31Z</time></trkpt><trkpt lat="45.153587275488675" lon="7.6446134823688086"><ele>261.66666666666663</ele><time>2026-04-18T14:06:32Z</time></trkpt><trkpt lat="45.15367161227681" lon="7.644614398218478"><ele>261.8333333333333</ele><time>2026-04-18T14:06:33Z</time></trkpt><trkpt lat="45.153755909868856" lon="7.644576574846939"><ele>262.0</ele><time>2026-04-18T14:06:34Z</time></trkpt><trkpt lat="45.1538424872107" lon="7.644509661281519"><ele>261.75</ele><time>2026-04-18T14:06:35Z</time></trkpt><trkpt lat="45.15391598580946" lon="7.644449502656233"><ele>261.5</ele><time>2026-04-18T14:06:36Z</time></trkpt><trkpt lat="45.154111097828284" lon="7.644420568568303"><ele>261.25</ele><time>2026-04-18T14:06:38Z</time></trkpt><trkpt lat="45.15421908109213" lon="7.644459059676661"><ele>261.0</ele><time>2026-04-18T14:06:39Z</time></trkpt><trkpt lat="45.15435134871922" lon="7.644503789815033"><ele>261.6666666666667</ele><time>2026-04-18T14:06:40Z</time></trkpt><trkpt lat="45.15451087995726" lon="7.644558436677504"><ele>262.33333333333337</ele><time>2026-04-18T14:06:41Z</time></trkpt><trkpt lat="45.15468494181163" lon="7.644610975231808"><ele>263.0</ele><time>2026-04-18T14:06:42Z</time></trkpt><trkpt lat="45.15485185814564" lon="7.6446441343963825"><ele>263.0</ele><time>2026-04-18T14:06:43Z</time></trkpt><trkpt lat="45.15501475724072" lon="7.644691405268941"><ele>263.0</ele><time>2026-04-18T14:06:44Z</time></trkpt><trkpt lat="45.155172754238876" lon="7.6447480219469615"><ele>263.0</ele><time>2026-04-18T14:06:45Z</time></trkpt><trkpt lat="45.15532663916213" lon="7.644815480388152"><ele>263.0</ele><time>2026-04-18T14:06:46Z</time></trkpt><trkpt lat="45.15547647620381" lon="7.644881817180524"><ele>263.0</ele><time>2026-04-18T14:06:47Z</time></trkpt><trkpt lat="45.15562260984872" lon="7.644959281136205"><ele>263.0</ele><time>2026-04-18T14:06:48Z</time></trkpt><trkpt lat="45.15577745131329" lon="7.645052483685835"><ele>263.0</ele><time>2026-04-18T14:06:49Z</time></trkpt><trkpt lat="45.15593426610756" lon="7.6451511060029995"><ele>263.0</ele><time>2026-04-18T14:06:50Z</time></trkpt><trkpt lat="45.1560900449672" lon="7.645250212490579"><ele>263.0</ele><time>2026-04-18T14:06:51Z</time></trkpt><trkpt lat="45.15624443489027" lon="7.645364531812429"><ele>263.0</ele><time>2026-04-18T14:06:52Z</time></trkpt><trkpt lat="45.156398115319405" lon="7.645496551947639"><ele>263.0</ele><time>2026-04-18T14:06:53Z</time></trkpt><trkpt lat="45.156546685095364" lon="7.645636601886047"><ele>263.0</ele><time>2026-04-18T14:06:54Z</time></trkpt><trkpt lat="45.15668884903633" lon="7.64578080479142"><ele>263.0</ele><time>2026-04-18T14:06:55Z</time></trkpt><trkpt lat="45.15681985114605" lon="7.6459416385552235"><ele>263.0</ele><time>2026-04-18T14:06:56Z</time></trkpt><trkpt lat="45.15695471731678" lon="7.646106198976235"><ele>263.0</ele><time>2026-04-18T14:06:57Z</time></trkpt><trkpt lat="45.157085121925434" lon="7.646288441057044"><ele>263.33333333333337</ele><time>2026-04-18T14:06:58Z</time></trkpt><trkpt lat="45.15721267805519" lon="7.646483410413131"><ele>263.6666666666667</ele><time>2026-04-18T14:06:59Z</time></trkpt><trkpt lat="45.15734278306865" lon="7.6466880252191345"><ele>264.0</ele><time>2026-04-18T14:07:00Z</time></trkpt><trkpt lat="45.15746169191158" lon="7.646898079529391"><ele>263.3333333333333</ele><time>2026-04-18T14:07:01Z</time></trkpt><trkpt lat="45.15757001752273" lon="7.64711240480747"><ele>262.66666666666663</ele><time>2026-04-18T14:07:02Z</time></trkpt><trkpt lat="45.157671354987166" lon="7.647333814206989"><ele>262.0</ele><time>2026-04-18T14:07:03Z</time></trkpt><trkpt lat="45.15776388969997" lon="7.647559032820272"><ele>262.0</ele><time>2026-04-18T14:07:04Z</time></trkpt><trkpt lat="45.15785225231867" lon="7.647786738063007"><ele>262.0</ele><time>2026-04-18T14:07:05Z</time></trkpt><trkpt lat="45.1579292698742" lon="7.648030322596283"><ele>262.0</ele><time>2026-04-18T14:07:06Z</time></trkpt><trkpt lat="45.15799824724687" lon="7.648267314138569"><ele>262.0</ele><time>2026-04-18T14:07:07Z</time></trkpt><trkpt lat="45.15807546465754" lon="7.648496985126263"><ele>262.0</ele><time>2026-04-18T14:07:08Z</time></trkpt><trkpt lat="45.15815515684891" lon="7.6487312142637265"><ele>262.0</ele><time>2026-04-18T14:07:09Z</time></trkpt><trkpt lat="45.158223420177144" lon="7.64896990046046"><ele>262.0</ele><time>2026-04-18T14:07:10Z</time></trkpt><trkpt lat="45.15829874406032" lon="7.649198645234316"><ele>262.0</ele><time>2026-04-18T14:07:11Z</time></trkpt><trkpt lat="45.15836911983294" lon="7.649417971392065"><ele>262.0</ele><time>2026-04-18T14:07:12Z</time></trkpt><trkpt lat="45.158436348129946" lon="7.649630879110119"><ele>262.0</ele><time>2026-04-18T14:07:13Z</time></trkpt><trkpt lat="45.15849882948754" lon="7.649847738492895"><ele>262.0</ele><time>2026-04-18T14:07:14Z</time></trkpt><trkpt lat="45.158564342304935" lon="7.650067957968369"><ele>262.0</ele><time>2026-04-18T14:07:15Z</time></trkpt><trkpt lat="45.158635974070634" lon="7.650287332438562"><ele>261.66666666666663</ele><time>2026-04-18T14:07:16Z</time></trkpt><trkpt lat="45.15870410198325" lon="7.650509666786111"><ele>261.3333333333333</ele><time>2026-04-18T14:07:17Z</time></trkpt><trkpt lat="45.15877533374484" lon="7.650730914809925"><ele>261.0</ele><time>2026-04-18T14:07:18Z</time></trkpt><trkpt lat="45.158843547723215" lon="7.650957004607759"><ele>261.3333333333333</ele><time>2026-04-18T14:07:19Z</time></trkpt><trkpt lat="45.15890935008062" lon="7.651179088519573"><ele>261.66666666666663</ele><time>2026-04-18T14:07:20Z</time></trkpt><trkpt lat="45.15897266625423" lon="7.651397871052182"><ele>262.0</ele><time>2026-04-18T14:07:21Z</time></trkpt><trkpt lat="45.15903397132205" lon="7.65162623272967"><ele>262.0</ele><time>2026-04-18T14:07:22Z</time></trkpt><trkpt lat="45.15909051826018" lon="7.651861982219741"><ele>262.0</ele><time>2026-04-18T14:07:23Z</time></trkpt><trkpt lat="45.15913425820939" lon="7.652110353832739"><ele>262.0</ele><time>2026-04-18T14:07:24Z</time></trkpt><trkpt lat="45.15917570088548" lon="7.652357913924528"><ele>262.0</ele><time>2026-04-18T14:07:25Z</time></trkpt><trkpt lat="45.159205467850114" lon="7.652590993855448"><ele>262.0</ele><time>2026-04-18T14:07:26Z</time></trkpt><trkpt lat="45.15922756167697" lon="7.652807628391485"><ele>262.0</ele><time>2026-04-18T14:07:27Z</time></trkpt><trkpt lat="45.159248381844606" lon="7.653031330554826"><ele>261.5</ele><time>2026-04-18T14:07:28Z</time></trkpt><trkpt lat="45.15926692472129" lon="7.653257852874906"><ele>261.0</ele><time>2026-04-18T14:07:29Z</time></trkpt><trkpt lat="45.159278044640544" lon="7.653462693760627"><ele>260.5</ele><time>2026-04-18T14:07:30Z</time></trkpt><trkpt lat="45.15928420588871" lon="7.653661753753368"><ele>260.0</ele><time>2026-04-18T14:07:31Z</time></trkpt><trkpt lat="45.159288129949665" lon="7.653839014959812"><ele>259.8</ele><time>2026-04-18T14:07:32Z</time></trkpt><trkpt lat="45.159296028648285" lon="7.653996792460417"><ele>259.6</ele><time>2026-04-18T14:07:33Z</time></trkpt><trkpt lat="45.15930375651548" lon="7.654135739333655"><ele>259.4</ele><time>2026-04-18T14:07:34Z</time></trkpt><trkpt lat="45.159308736855735" lon="7.654258775080734"><ele>259.2</ele><time>2026-04-18T14:07:35Z</time></trkpt><trkpt lat="45.15930005573354" lon="7.654362564618937"><ele>259.0</ele><time>2026-04-18T14:07:36Z</time></trkpt><trkpt lat="45.159249158306416" lon="7.65445995104731"><ele>259.0</ele><time>2026-04-18T14:07:37Z</time></trkpt><trkpt lat="45.159181435369696" lon="7.654562704383554"><ele>259.0</ele><time>2026-04-18T14:07:38Z</time></trkpt><trkpt lat="45.15911493342667" lon="7.654655311389813"><ele>259.0</ele><time>2026-04-18T14:07:39Z</time></trkpt><trkpt lat="45.159086575653916" lon="7.654768595446697"><ele>259.0</ele><time>2026-04-18T14:07:40Z</time></trkpt><trkpt lat="45.15908418443541" lon="7.654890604869122"><ele>259.0</ele><time>2026-04-18T14:07:41Z</time></trkpt><trkpt lat="45.1591037665954" lon="7.655013902644561"><ele>259.0</ele><time>2026-04-18T14:07:42Z</time></trkpt><trkpt lat="45.159152606587625" lon="7.655117847574537"><ele>259.0</ele><time>2026-04-18T14:07:43Z</time></trkpt><trkpt lat="45.15930861320644" lon="7.655249082147442"><ele>259.0</ele><time>2026-04-18T14:07:45Z</time></trkpt><trkpt lat="45.15940427772878" lon="7.655263719388464"><ele>259.0</ele><time>2026-04-18T14:07:46Z</time></trkpt><trkpt lat="45.15950195299091" lon="7.655223648532971"><ele>259.0</ele><time>2026-04-18T14:07:47Z</time></trkpt><trkpt lat="45.15958858192222" lon="7.655151101010696"><ele>259.0</ele><time>2026-04-18T14:07:48Z</time></trkpt><trkpt lat="45.15966745355031" lon="7.655038915613829"><ele>259.0</ele><time>2026-04-18T14:07:49Z</time></trkpt><trkpt lat="45.15971968328522" lon="7.654909922163374"><ele>259.0</ele><time>2026-04-18T14:07:50Z</time></trkpt><trkpt lat="45.15984041899091" lon="7.654870233835228"><ele>259.0</ele><time>2026-04-18T14:07:51Z</time></trkpt><trkpt lat="45.159952130732066" lon="7.654847385423356"><ele>259.4</ele><time>2026-04-18T14:07:52Z</time></trkpt><trkpt lat="45.16006138987588" lon="7.6548413573588805"><ele>259.79999999999995</ele><time>2026-04-18T14:07:53Z</time></trkpt><trkpt lat="45.160174719926125" lon="7.654834052802953"><ele>260.20000000000005</ele><time>2026-04-18T14:07:54Z</time></trkpt><trkpt lat="45.16027829541953" lon="7.654829915966655"><ele>260.6</ele><time>2026-04-18T14:07:55Z</time></trkpt><trkpt lat="45.16038763205558" lon="7.6548208832982665"><ele>261.0</ele><time>2026-04-18T14:07:56Z</time></trkpt><trkpt lat="45.16050211580428" lon="7.654816770786186"><ele>261.0</ele><time>2026-04-18T14:07:57Z</time></trkpt><trkpt lat="45.16062613922331" lon="7.65481257080715"><ele>261.0</ele><time>2026-04-18T14:07:58Z</time></trkpt><trkpt lat="45.16075423152645" lon="7.654806481396896"><ele>261.0</ele><time>2026-04-18T14:07:59Z</time></trkpt><trkpt lat="45.160881811839786" lon="7.654805124055407"><ele>261.0</ele><time>2026-04-18T14:08:00Z</time></trkpt><trkpt lat="45.16100735409047" lon="7.654805149300817"><ele>261.0</ele><time>2026-04-18T14:08:01Z</time></trkpt><trkpt lat="45.161134931823405" lon="7.654806527095655"><ele>261.0</ele><time>2026-04-18T14:08:02Z</time></trkpt><trkpt lat="45.16127018755518" lon="7.654805199832458"><ele>261.0</ele><time>2026-04-18T14:08:03Z</time></trkpt><trkpt lat="45.16141088238435" lon="7.654801117735555"><ele>261.0</ele><time>2026-04-18T14:08:04Z</time></trkpt><trkpt lat="45.16154293364162" lon="7.654792030667051"><ele>261.40000000000003</ele><time>2026-04-18T14:08:05Z</time></trkpt><trkpt lat="45.16165800956134" lon="7.654798398818147"><ele>261.8</ele><time>2026-04-18T14:08:06Z</time></trkpt><trkpt lat="45.16176457967914" lon="7.654806315904742"><ele>262.20000000000005</ele><time>2026-04-18T14:08:07Z</time></trkpt><trkpt lat="45.16187149538801" lon="7.654804686393696"><ele>262.6</ele><time>2026-04-18T14:08:08Z</time></trkpt><trkpt lat="45.161974489058835" lon="7.654806935494834"><ele>263.0</ele><time>2026-04-18T14:08:09Z</time></trkpt><trkpt lat="45.16208245597427" lon="7.654810615163921"><ele>263.0</ele><time>2026-04-18T14:08:10Z</time></trkpt><trkpt lat="45.16219384443452" lon="7.654817183179236"><ele>263.0</ele><time>2026-04-18T14:08:11Z</time></trkpt><trkpt lat="45.162304658955314" lon="7.654818168784885"><ele>263.0</ele><time>2026-04-18T14:08:12Z</time></trkpt><trkpt lat="45.16241692578393" lon="7.654815867371094"><ele>263.0</ele><time>2026-04-18T14:08:13Z</time></trkpt><trkpt lat="45.16253174411538" lon="7.654816543447575"><ele>263.0</ele><time>2026-04-18T14:08:14Z</time></trkpt><trkpt lat="45.16263881027228" lon="7.654824893425649"><ele>263.2</ele><time>2026-04-18T14:08:15Z</time></trkpt><trkpt lat="45.16274242189137" lon="7.654831660667642"><ele>263.4</ele><time>2026-04-18T14:08:16Z</time></trkpt><trkpt lat="45.162850017099984" lon="7.6548396470052795"><ele>263.59999999999997</ele><time>2026-04-18T14:08:17Z</time></trkpt><trkpt lat="45.162964974146234" lon="7.654843071795863"><ele>263.8</ele><time>2026-04-18T14:08:18Z</time></trkpt><trkpt lat="45.16308191615295" lon="7.654843209300375"><ele>264.0</ele><time>2026-04-18T14:08:19Z</time></trkpt><trkpt lat="45.163197010047675" lon="7.6548444776960265"><ele>263.5</ele><time>2026-04-18T14:08:20Z</time></trkpt><trkpt lat="45.163310029230985" lon="7.654848989505769"><ele>263.0</ele><time>2026-04-18T14:08:21Z</time></trkpt><trkpt lat="45.1634309591885" lon="7.65485276885846"><ele>262.5</ele><time>2026-04-18T14:08:22Z</time></trkpt><trkpt lat="45.16355461128739" lon="7.654855158299486"><ele>262.0</ele><time>2026-04-18T14:08:23Z</time></trkpt><trkpt lat="45.16368040386305" lon="7.654856650015295"><ele>262.0</ele><time>2026-04-18T14:08:24Z</time></trkpt><trkpt lat="45.16380189510604" lon="7.6548614606941285"><ele>262.0</ele><time>2026-04-18T14:08:25Z</time></trkpt><trkpt lat="45.16391774961096" lon="7.654863741088429"><ele>262.0</ele><time>2026-04-18T14:08:26Z</time></trkpt><trkpt lat="45.16402212426292" lon="7.65487064997098"><ele>262.0</ele><time>2026-04-18T14:08:27Z</time></trkpt><trkpt lat="45.16412557020621" lon="7.654871960981905"><ele>262.0</ele><time>2026-04-18T14:08:28Z</time></trkpt><trkpt lat="45.16423651907427" lon="7.654868279436865"><ele>262.4</ele><time>2026-04-18T14:08:29Z</time></trkpt><trkpt lat="45.16433611169438" lon="7.654858000118055"><ele>262.79999999999995</ele><time>2026-04-18T14:08:30Z</time></trkpt><trkpt lat="45.16444222329667" lon="7.654827857930042"><ele>263.2</ele><time>2026-04-18T14:08:31Z</time></trkpt><trkpt lat="45.1645501231695" lon="7.654773427245353"><ele>263.59999999999997</ele><time>2026-04-18T14:08:32Z</time></trkpt><trkpt lat="45.16465520887879" lon="7.654715459632581"><ele>264.0</ele><time>2026-04-18T14:08:33Z</time></trkpt><trkpt lat="45.16475835268386" lon="7.654653106658646"><ele>263.75</ele><time>2026-04-18T14:08:34Z</time></trkpt><trkpt lat="45.16486577281359" lon="7.654591128742374"><ele>263.5</ele><time>2026-04-18T14:08:35Z</time></trkpt><trkpt lat="45.16497115237676" lon="7.654526422374631"><ele>263.25</ele><time>2026-04-18T14:08:36Z</time></trkpt><trkpt lat="45.16507236576552" lon="7.65446340705078"><ele>263.0</ele><time>2026-04-18T14:08:37Z</time></trkpt><trkpt lat="45.16517250508008" lon="7.65440066502724"><ele>263.5</ele><time>2026-04-18T14:08:38Z</time></trkpt><trkpt lat="45.165274857463714" lon="7.654342288673459"><ele>264.0</ele><time>2026-04-18T14:08:39Z</time></trkpt><trkpt lat="45.165382430885366" lon="7.6542840867687385"><ele>264.5</ele><time>2026-04-18T14:08:40Z</time></trkpt><trkpt lat="45.1654882138995" lon="7.654222053476288"><ele>265.0</ele><time>2026-04-18T14:08:41Z</time></trkpt><trkpt lat="45.16559648787556" lon="7.654152592786843"><ele>265.0</ele><time>2026-04-18T14:08:42Z</time></trkpt><trkpt lat="45.16570324923617" lon="7.654085641633908"><ele>265.0</ele><time>2026-04-18T14:08:43Z</time></trkpt><trkpt lat="45.165806685979035" lon="7.65402214621452"><ele>265.0</ele><time>2026-04-18T14:08:44Z</time></trkpt><trkpt lat="45.165903247696065" lon="7.653966219197604"><ele>265.0</ele><time>2026-04-18T14:08:45Z</time></trkpt><trkpt lat="45.166007089278025" lon="7.65390835333543"><ele>265.0</ele><time>2026-04-18T14:08:46Z</time></trkpt><trkpt lat="45.16611047058081" lon="7.653848189541216"><ele>265.0</ele><time>2026-04-18T14:08:47Z</time></trkpt><trkpt lat="45.16621438814218" lon="7.653785874114193"><ele>265.0</ele><time>2026-04-18T14:08:48Z</time></trkpt><trkpt lat="45.166315512453295" lon="7.653726843859369"><ele>265.0</ele><time>2026-04-18T14:08:49Z</time></trkpt><trkpt lat="45.16642193958914" lon="7.653661495284391"><ele>265.0</ele><time>2026-04-18T14:08:50Z</time></trkpt><trkpt lat="45.16652765164276" lon="7.653599294680018"><ele>265.25</ele><time>2026-04-18T14:08:51Z</time></trkpt><trkpt lat="45.16663536014621" lon="7.653539611462351"><ele>265.5</ele><time>2026-04-18T14:08:52Z</time></trkpt><trkpt lat="45.1667433086927" lon="7.653478496501355"><ele>265.75</ele><time>2026-04-18T14:08:53Z</time></trkpt><trkpt lat="45.16684903585224" lon="7.653423508993619"><ele>266.0</ele><time>2026-04-18T14:08:54Z</time></trkpt><trkpt lat="45.16695526878974" lon="7.65336299866042"><ele>266.0</ele><time>2026-04-18T14:08:55Z</time></trkpt><trkpt lat="45.16706619945983" lon="7.653293288898317"><ele>266.0</ele><time>2026-04-18T14:08:56Z</time></trkpt><trkpt lat="45.1671840016911" lon="7.6532192353126565"><ele>266.0</ele><time>2026-04-18T14:08:57Z</time></trkpt><trkpt lat="45.16730896560574" lon="7.653148624872689"><ele>266.0</ele><time>2026-04-18T14:08:58Z</time></trkpt><trkpt lat="45.16745038088374" lon="7.653067849810254"><ele>266.25</ele><time>2026-04-18T14:08:59Z</time></trkpt><trkpt lat="45.167588727032275" lon="7.6529931957451"><ele>266.5</ele><time>2026-04-18T14:09:00Z</time></trkpt><trkpt lat="45.1677213822767" lon="7.652927002942553"><ele>266.75</ele><time>2026-04-18T14:09:01Z</time></trkpt><trkpt lat="45.16785534599915" lon="7.652862547997848"><ele>267.0</ele><time>2026-04-18T14:09:02Z</time></trkpt><trkpt lat="45.16799391124245" lon="7.65279084825817"><ele>267.25</ele><time>2026-04-18T14:09:03Z</time></trkpt><trkpt lat="45.168126606390445" lon="7.652717151243452"><ele>267.5</ele><time>2026-04-18T14:09:04Z</time></trkpt><trkpt lat="45.168244979940376" lon="7.6526473041142875"><ele>267.75</ele><time>2026-04-18T14:09:05Z</time></trkpt><trkpt lat="45.168350468309626" lon="7.652584146638401"><ele>268.0</ele><time>2026-04-18T14:09:06Z</time></trkpt><trkpt lat="45.168432776507245" lon="7.652529476888363"><ele>268.16666666666663</ele><time>2026-04-18T14:09:07Z</time></trkpt><trkpt lat="45.16849355760851" lon="7.652495944716988"><ele>268.3333333333333</ele><time>2026-04-18T14:09:08Z</time></trkpt><trkpt lat="45.16856779551547" lon="7.652482130194536"><ele>268.5</ele><time>2026-04-18T14:09:12Z</time></trkpt><trkpt lat="45.16863567275501" lon="7.652533455033251"><ele>268.6666666666667</ele><time>2026-04-18T14:09:13Z</time></trkpt><trkpt lat="45.168726276431805" lon="7.652544680104079"><ele>268.83333333333337</ele><time>2026-04-18T14:09:14Z</time></trkpt><trkpt lat="45.168810824125806" lon="7.6524610614448685"><ele>269.0</ele><time>2026-04-18T14:09:15Z</time></trkpt><trkpt lat="45.16888674583547" lon="7.65233535943009"><ele>269.0</ele><time>2026-04-18T14:09:16Z</time></trkpt><trkpt lat="45.16895627621661" lon="7.6522044327587695"><ele>269.0</ele><time>2026-04-18T14:09:17Z</time></trkpt><trkpt lat="45.169061310030656" lon="7.652103409435863"><ele>269.0</ele><time>2026-04-18T14:09:18Z</time></trkpt><trkpt lat="45.1692154783033" lon="7.652025981644594"><ele>269.0</ele><time>2026-04-18T14:09:19Z</time></trkpt><trkpt lat="45.16940315614314" lon="7.651941471722857"><ele>269.6666666666667</ele><time>2026-04-18T14:09:20Z</time></trkpt><trkpt lat="45.16957094736547" lon="7.6518443596554135"><ele>270.3333333333333</ele><time>2026-04-18T14:09:21Z</time></trkpt><trkpt lat="45.16972793925535" lon="7.651747079871"><ele>271.0</ele><time>2026-04-18T14:09:22Z</time></trkpt><trkpt lat="45.169888952947545" lon="7.651651939942316"><ele>271.66666666666663</ele><time>2026-04-18T14:09:23Z</time></trkpt><trkpt lat="45.17004983850322" lon="7.651553471596405"><ele>272.3333333333333</ele><time>2026-04-18T14:09:24Z</time></trkpt><trkpt lat="45.17020738298582" lon="7.651457875446997"><ele>273.0</ele><time>2026-04-18T14:09:25Z</time></trkpt><trkpt lat="45.17035238468152" lon="7.651369492811026"><ele>273.0</ele><time>2026-04-18T14:09:26Z</time></trkpt><trkpt lat="45.17048308130988" lon="7.651291707021428"><ele>273.0</ele><time>2026-04-18T14:09:27Z</time></trkpt><trkpt lat="45.17060803585549" lon="7.6512268612933845"><ele>273.0</ele><time>2026-04-18T14:09:28Z</time></trkpt><trkpt lat="45.17073192865322" lon="7.651174949188945"><ele>273.0</ele><time>2026-04-18T14:09:29Z</time></trkpt><trkpt lat="45.17086167813495" lon="7.651132383789732"><ele>273.0</ele><time>2026-04-18T14:09:30Z</time></trkpt><trkpt lat="45.17099188027976" lon="7.651093464294046"><ele>273.0</ele><time>2026-04-18T14:09:31Z</time></trkpt><trkpt lat="45.17110470206128" lon="7.651066865015295"><ele>273.0</ele><time>2026-04-18T14:09:32Z</time></trkpt><trkpt lat="45.17120449202829" lon="7.651041198604429"><ele>273.0</ele><time>2026-04-18T14:09:33Z</time></trkpt><trkpt lat="45.17128537709219" lon="7.651024036507276"><ele>273.0</ele><time>2026-04-18T14:09:34Z</time></trkpt><trkpt lat="45.17136477858896" lon="7.651018388930656"><ele>273.0</ele><time>2026-04-18T14:09:35Z</time></trkpt><trkpt lat="45.17144105555606" lon="7.651047392796059"><ele>273.0</ele><time>2026-04-18T14:09:36Z</time></trkpt><trkpt lat="45.17152128297058" lon="7.6510867959564575"><ele>273.0</ele><time>2026-04-18T14:09:37Z</time></trkpt><trkpt lat="45.17160838717506" lon="7.651080102847986"><ele>273.0</ele><time>2026-04-18T14:09:38Z</time></trkpt><trkpt lat="45.17171700638024" lon="7.651051599898807"><ele>273.0</ele><time>2026-04-18T14:09:39Z</time></trkpt><trkpt lat="45.171863887015206" lon="7.651039952397472"><ele>273.0</ele><time>2026-04-18T14:09:40Z</time></trkpt><trkpt lat="45.17217765220433" lon="7.651098342202549"><ele>273.0</ele><time>2026-04-18T14:09:42Z</time></trkpt><trkpt lat="45.17232931660319" lon="7.651125456313326"><ele>272.6666666666667</ele><time>2026-04-18T14:09:43Z</time></trkpt><trkpt lat="45.17248664869854" lon="7.6511481742531515"><ele>272.33333333333337</ele><time>2026-04-18T14:09:44Z</time></trkpt><trkpt lat="45.17263808854954" lon="7.651176237816867"><ele>272.0</ele><time>2026-04-18T14:09:45Z</time></trkpt><trkpt lat="45.17278880496455" lon="7.651209788462582"><ele>272.0</ele><time>2026-04-18T14:09:46Z</time></trkpt><trkpt lat="45.1729373788552" lon="7.65123805935945"><ele>272.0</ele><time>2026-04-18T14:09:47Z</time></trkpt><trkpt lat="45.17308396936141" lon="7.651259668009023"><ele>272.0</ele><time>2026-04-18T14:09:48Z</time></trkpt><trkpt lat="45.1732357290128" lon="7.65128044539291"><ele>272.0</ele><time>2026-04-18T14:09:49Z</time></trkpt><trkpt lat="45.173389452205555" lon="7.6513007098769785"><ele>272.0</ele><time>2026-04-18T14:09:50Z</time></trkpt><trkpt lat="45.173543891579826" lon="7.651309240246764"><ele>272.0</ele><time>2026-04-18T14:09:51Z</time></trkpt><trkpt lat="45.17370110657012" lon="7.651303107967616"><ele>272.0</ele><time>2026-04-18T14:09:52Z</time></trkpt><trkpt lat="45.17384993988603" lon="7.651291800386491"><ele>272.0</ele><time>2026-04-18T14:09:53Z</time></trkpt><trkpt lat="45.173999066155076" lon="7.651264103978785"><ele>272.0</ele><time>2026-04-18T14:09:54Z</time></trkpt><trkpt lat="45.17414208778763" lon="7.651227582952879"><ele>272.0</ele><time>2026-04-18T14:09:55Z</time></trkpt><trkpt lat="45.17429244094591" lon="7.651174750323007"><ele>272.75</ele><time>2026-04-18T14:09:56Z</time></trkpt><trkpt lat="45.174435729030634" lon="7.651120436124457"><ele>273.5</ele><time>2026-04-18T14:09:57Z</time></trkpt><trkpt lat="45.17457867770219" lon="7.651073379763184"><ele>274.25</ele><time>2026-04-18T14:09:58Z</time></trkpt><trkpt lat="45.17471736122534" lon="7.651027578682574"><ele>275.0</ele><time>2026-04-18T14:09:59Z</time></trkpt><trkpt lat="45.174853631396225" lon="7.65097553686798"><ele>275.25</ele><time>2026-04-18T14:10:00Z</time></trkpt><trkpt lat="45.17498154899126" lon="7.650928608402371"><ele>275.5</ele><time>2026-04-18T14:10:01Z</time></trkpt><trkpt lat="45.17510445821091" lon="7.650893628812954"><ele>275.75</ele><time>2026-04-18T14:10:02Z</time></trkpt><trkpt lat="45.175213725179866" lon="7.650867124883399"><ele>276.0</ele><time>2026-04-18T14:10:03Z</time></trkpt><trkpt lat="45.17532262947606" lon="7.650831032195302"><ele>276.0</ele><time>2026-04-18T14:10:04Z</time></trkpt><trkpt lat="45.175586508288525" lon="7.6507237680523215"><ele>276.0</ele><time>2026-04-18T14:10:06Z</time></trkpt><trkpt lat="45.17572437783529" lon="7.650678144109736"><ele>276.0</ele><time>2026-04-18T14:10:07Z</time></trkpt><trkpt lat="45.175867525322566" lon="7.650631802409454"><ele>276.5</ele><time>2026-04-18T14:10:08Z</time></trkpt><trkpt lat="45.17600919217587" lon="7.6505781495106016"><ele>277.0</ele><time>2026-04-18T14:10:09Z</time></trkpt><trkpt lat="45.17615140743813" lon="7.650523933852617"><ele>277.5</ele><time>2026-04-18T14:10:10Z</time></trkpt><trkpt lat="45.176290400109146" lon="7.650474827446787"><ele>278.0</ele><time>2026-04-18T14:10:11Z</time></trkpt><trkpt lat="45.17643596730559" lon="7.65042723243861"><ele>277.6666666666667</ele><time>2026-04-18T14:10:12Z</time></trkpt><trkpt lat="45.17658128395305" lon="7.650380216547931"><ele>277.3333333333333</ele><time>2026-04-18T14:10:13Z</time></trkpt><trkpt lat="45.17672995228633" lon="7.650336192074394"><ele>277.0</ele><time>2026-04-18T14:10:14Z</time></trkpt><trkpt lat="45.176878472227756" lon="7.650287530526284"><ele>277.0</ele><time>2026-04-18T14:10:15Z</time></trkpt><trkpt lat="45.1770240934329" lon="7.6502363461785"><ele>277.0</ele><time>2026-04-18T14:10:16Z</time></trkpt><trkpt lat="45.17716976201732" lon="7.650189671296546"><ele>277.0</ele><time>2026-04-18T14:10:17Z</time></trkpt><trkpt lat="45.177317590907656" lon="7.650142138351725"><ele>277.25</ele><time>2026-04-18T14:10:18Z</time></trkpt><trkpt lat="45.17746490260409" lon="7.650088162543382"><ele>277.5</ele><time>2026-04-18T14:10:19Z</time></trkpt><trkpt lat="45.17759968759967" lon="7.650037608133533"><ele>277.75</ele><time>2026-04-18T14:10:20Z</time></trkpt><trkpt lat="45.17772839687417" lon="7.649995283045716"><ele>278.0</ele><time>2026-04-18T14:10:21Z</time></trkpt><trkpt lat="45.17784523210788" lon="7.649961621096905"><ele>278.0</ele><time>2026-04-18T14:10:22Z</time></trkpt><trkpt lat="45.17794506548611" lon="7.649930438486585"><ele>278.0</ele><time>2026-04-18T14:10:23Z</time></trkpt><trkpt lat="45.17803197088786" lon="7.649908209497862"><ele>278.0</ele><time>2026-04-18T14:10:24Z</time></trkpt><trkpt lat="45.17811145872169" lon="7.6499170180406315"><ele>278.0</ele><time>2026-04-18T14:10:25Z</time></trkpt><trkpt lat="45.17817766788442" lon="7.649935560837282"><ele>278.0</ele><time>2026-04-18T14:10:26Z</time></trkpt><trkpt lat="45.17824321398419" lon="7.649961300512121"><ele>278.0</ele><time>2026-04-18T14:10:27Z</time></trkpt><trkpt lat="45.178319605642336" lon="7.6499660297321785"><ele>277.8</ele><time>2026-04-18T14:10:28Z</time></trkpt><trkpt lat="45.1783849994764" lon="7.649908903623387"><ele>277.6</ele><time>2026-04-18T14:10:29Z</time></trkpt><trkpt lat="45.17848633616848" lon="7.649744312761607"><ele>277.4</ele><time>2026-04-18T14:10:31Z</time></trkpt><trkpt lat="45.178557958332064" lon="7.649695604662662"><ele>277.2</ele><time>2026-04-18T14:10:32Z</time></trkpt><trkpt lat="45.17862634437995" lon="7.649665618629043"><ele>277.0</ele><time>2026-04-18T14:10:33Z</time></trkpt><trkpt lat="45.17869858462772" lon="7.649636925583867"><ele>277.0</ele><time>2026-04-18T14:10:34Z</time></trkpt><trkpt lat="45.17877732460085" lon="7.649615227822263"><ele>277.0</ele><time>2026-04-18T14:10:35Z</time></trkpt><trkpt lat="45.17887012654749" lon="7.649588709015921"><ele>277.0</ele><time>2026-04-18T14:10:36Z</time></trkpt><trkpt lat="45.178963922212155" lon="7.64956343462176"><ele>277.0</ele><time>2026-04-18T14:10:37Z</time></trkpt><trkpt lat="45.17906054369023" lon="7.649548995756489"><ele>277.0</ele><time>2026-04-18T14:10:38Z</time></trkpt><trkpt lat="45.17915968994662" lon="7.649547415202702"><ele>277.0</ele><time>2026-04-18T14:10:39Z</time></trkpt><trkpt lat="45.17926292811216" lon="7.6495629893594845"><ele>277.0</ele><time>2026-04-18T14:10:40Z</time></trkpt><trkpt lat="45.17936688301306" lon="7.6496054727709835"><ele>277.0</ele><time>2026-04-18T14:10:41Z</time></trkpt><trkpt lat="45.17948703027477" lon="7.649679941108535"><ele>277.0</ele><time>2026-04-18T14:10:42Z</time></trkpt><trkpt lat="45.179608678246765" lon="7.649782650990142"><ele>277.0</ele><time>2026-04-18T14:10:43Z</time></trkpt><trkpt lat="45.179726064294286" lon="7.6498970666052895"><ele>277.0</ele><time>2026-04-18T14:10:44Z</time></trkpt><trkpt lat="45.17983243287652" lon="7.650003599166351"><ele>277.0</ele><time>2026-04-18T14:10:45Z</time></trkpt><trkpt lat="45.17994701373762" lon="7.6501059939745275"><ele>277.0</ele><time>2026-04-18T14:10:46Z</time></trkpt><trkpt lat="45.18005556961664" lon="7.650196628953154"><ele>277.0</ele><time>2026-04-18T14:10:47Z</time></trkpt><trkpt lat="45.18013737738751" lon="7.650268426521046"><ele>277.0</ele><time>2026-04-18T14:10:48Z</time></trkpt><trkpt lat="45.180248539560026" lon="7.650348433685986"><ele>277.0</ele><time>2026-04-18T14:10:49Z</time></trkpt><trkpt lat="45.1803923004331" lon="7.650349204834672"><ele>277.0</ele><time>2026-04-18T14:10:50Z</time></trkpt><trkpt lat="45.18051042654188" lon="7.65029222770485"><ele>277.0</ele><time>2026-04-18T14:10:51Z</time></trkpt><trkpt lat="45.1806042261243" lon="7.650180940974218"><ele>277.0</ele><time>2026-04-18T14:10:52Z</time></trkpt><trkpt lat="45.18067846907843" lon="7.650036762175359"><ele>277.0</ele><time>2026-04-18T14:10:53Z</time></trkpt><trkpt lat="45.18071552422631" lon="7.649873748712675"><ele>277.0</ele><time>2026-04-18T14:10:54Z</time></trkpt><trkpt lat="45.18072535587095" lon="7.6497107983751675"><ele>277.0</ele><time>2026-04-18T14:10:55Z</time></trkpt><trkpt lat="45.18071245697619" lon="7.6495577104574775"><ele>277.0</ele><time>2026-04-18T14:10:56Z</time></trkpt><trkpt lat="45.180689541420314" lon="7.649415294285115"><ele>277.0</ele><time>2026-04-18T14:10:57Z</time></trkpt><trkpt lat="45.18068194290433" lon="7.649281878030869"><ele>277.0</ele><time>2026-04-18T14:10:58Z</time></trkpt><trkpt lat="45.180702034422744" lon="7.6491389800921255"><ele>277.0</ele><time>2026-04-18T14:10:59Z</time></trkpt><trkpt lat="45.18073524439758" lon="7.649001709219667"><ele>277.0</ele><time>2026-04-18T14:11:00Z</time></trkpt><trkpt lat="45.180772352178145" lon="7.6488652756243685"><ele>277.0</ele><time>2026-04-18T14:11:01Z</time></trkpt><trkpt lat="45.18082226662776" lon="7.6487350707817585"><ele>277.0</ele><time>2026-04-18T14:11:02Z</time></trkpt><trkpt lat="45.180887800025914" lon="7.648593727065632"><ele>277.0</ele><time>2026-04-18T14:11:03Z</time></trkpt><trkpt lat="45.180954506733514" lon="7.6484432802123035"><ele>277.0</ele><time>2026-04-18T14:11:04Z</time></trkpt><trkpt lat="45.18102109716123" lon="7.648289163581734"><ele>277.0</ele><time>2026-04-18T14:11:05Z</time></trkpt><trkpt lat="45.18109377579587" lon="7.648119263750267"><ele>277.0</ele><time>2026-04-18T14:11:06Z</time></trkpt><trkpt lat="45.181168386155825" lon="7.64795080084912"><ele>277.0</ele><time>2026-04-18T14:11:07Z</time></trkpt><trkpt lat="45.18124751806881" lon="7.64778130779274"><ele>277.0</ele><time>2026-04-18T14:11:08Z</time></trkpt><trkpt lat="45.18132878652782" lon="7.647611972050565"><ele>277.0</ele><time>2026-04-18T14:11:09Z</time></trkpt><trkpt lat="45.18141279584726" lon="7.647442924047114"><ele>277.0</ele><time>2026-04-18T14:11:10Z</time></trkpt><trkpt lat="45.18149560451139" lon="7.6472744954055"><ele>277.0</ele><time>2026-04-18T14:11:11Z</time></trkpt><trkpt lat="45.18157672498646" lon="7.647105094082762"><ele>278.3333333333333</ele><time>2026-04-18T14:11:12Z</time></trkpt><trkpt lat="45.18166735689084" lon="7.646904141332728"><ele>279.6666666666667</ele><time>2026-04-18T14:11:13Z</time></trkpt><trkpt lat="45.1817838430101" lon="7.646673444740504"><ele>281.0</ele><time>2026-04-18T14:11:14Z</time></trkpt><trkpt lat="45.18193514597694" lon="7.646429665781009"><ele>281.0</ele><time>2026-04-18T14:11:15Z</time></trkpt><trkpt lat="45.18210062577821" lon="7.646206855790383"><ele>281.0</ele><time>2026-04-18T14:11:16Z</time></trkpt><trkpt lat="45.182287165904285" lon="7.646016055910121"><ele>281.5</ele><time>2026-04-18T14:11:17Z</time></trkpt><trkpt lat="45.18248994339182" lon="7.6458489381868135"><ele>282.0</ele><time>2026-04-18T14:11:18Z</time></trkpt><trkpt lat="45.18270297256894" lon="7.6456966672530395"><ele>282.0</ele><time>2026-04-18T14:11:19Z</time></trkpt><trkpt lat="45.18292083158026" lon="7.6455723169646514"><ele>282.0</ele><time>2026-04-18T14:11:20Z</time></trkpt><trkpt lat="45.183140852814645" lon="7.645478638162619"><ele>282.0</ele><time>2026-04-18T14:11:21Z</time></trkpt><trkpt lat="45.18336927027837" lon="7.6454274845449515"><ele>282.0</ele><time>2026-04-18T14:11:22Z</time></trkpt><trkpt lat="45.183610201266596" lon="7.645406592091939"><ele>282.0</ele><time>2026-04-18T14:11:23Z</time></trkpt><trkpt lat="45.18385402260986" lon="7.645380296803491"><ele>282.0</ele><time>2026-04-18T14:11:24Z</time></trkpt><trkpt lat="45.18408927513369" lon="7.6453413073915595"><ele>282.0</ele><time>2026-04-18T14:11:25Z</time></trkpt><trkpt lat="45.18432103357003" lon="7.645307710377962"><ele>282.0</ele><time>2026-04-18T14:11:26Z</time></trkpt><trkpt lat="45.184544652386386" lon="7.645281755588275"><ele>282.0</ele><time>2026-04-18T14:11:27Z</time></trkpt><trkpt lat="45.184765043029046" lon="7.645244029116874"><ele>282.0</ele><time>2026-04-18T14:11:28Z</time></trkpt><trkpt lat="45.18498637099509" lon="7.645187676836959"><ele>282.0</ele><time>2026-04-18T14:11:29Z</time></trkpt><trkpt lat="45.18518769012431" lon="7.645129199276876"><ele>282.6666666666667</ele><time>2026-04-18T14:11:30Z</time></trkpt><trkpt lat="45.18538708974863" lon="7.645067208649563"><ele>283.33333333333337</ele><time>2026-04-18T14:11:31Z</time></trkpt><trkpt lat="45.18558599946026" lon="7.644984439467371"><ele>284.0</ele><time>2026-04-18T14:11:32Z</time></trkpt><trkpt lat="45.185778915126804" lon="7.644865406053724"><ele>284.0</ele><time>2026-04-18T14:11:33Z</time></trkpt><trkpt lat="45.18596325710924" lon="7.644725997356833"><ele>284.0</ele><time>2026-04-18T14:11:34Z</time></trkpt><trkpt lat="45.186136841270134" lon="7.644576482912856"><ele>284.0</ele><time>2026-04-18T14:11:35Z</time></trkpt><trkpt lat="45.186302137425756" lon="7.644427896082573"><ele>284.0</ele><time>2026-04-18T14:11:36Z</time></trkpt><trkpt lat="45.18645867252581" lon="7.644284399068873"><ele>284.0</ele><time>2026-04-18T14:11:37Z</time></trkpt><trkpt lat="45.18658862621778" lon="7.644156950749709"><ele>284.0</ele><time>2026-04-18T14:11:38Z</time></trkpt><trkpt lat="45.18669854498559" lon="7.644028801533758"><ele>284.25</ele><time>2026-04-18T14:11:39Z</time></trkpt><trkpt lat="45.1868015578759" lon="7.643887741531006"><ele>284.5</ele><time>2026-04-18T14:11:40Z</time></trkpt><trkpt lat="45.18689217200234" lon="7.64373870908891"><ele>284.75</ele><time>2026-04-18T14:11:41Z</time></trkpt><trkpt lat="45.18697594637581" lon="7.6435897064167015"><ele>285.0</ele><time>2026-04-18T14:11:42Z</time></trkpt><trkpt lat="45.187052914504626" lon="7.643452391416207"><ele>285.0</ele><time>2026-04-18T14:11:43Z</time></trkpt><trkpt lat="45.1871261184182" lon="7.6433077413996"><ele>285.0</ele><time>2026-04-18T14:11:44Z</time></trkpt><trkpt lat="45.18720032076554" lon="7.643152553386436"><ele>285.0</ele><time>2026-04-18T14:11:45Z</time></trkpt><trkpt lat="45.18728490278996" lon="7.642978523109645"><ele>285.0</ele><time>2026-04-18T14:11:46Z</time></trkpt><trkpt lat="45.187371515396435" lon="7.642809058550602"><ele>285.5</ele><time>2026-04-18T14:11:47Z</time></trkpt><trkpt lat="45.18745619888755" lon="7.64264573653968"><ele>286.0</ele><time>2026-04-18T14:11:48Z</time></trkpt><trkpt lat="45.18754218917128" lon="7.642476366835604"><ele>286.5</ele><time>2026-04-18T14:11:49Z</time></trkpt><trkpt lat="45.18763234489358" lon="7.642301813260554"><ele>287.0</ele><time>2026-04-18T14:11:50Z</time></trkpt><trkpt lat="45.18772556006764" lon="7.64211881396022"><ele>287.0</ele><time>2026-04-18T14:11:51Z</time></trkpt><trkpt lat="45.1878225093246" lon="7.641923994453443"><ele>287.0</ele><time>2026-04-18T14:11:52Z</time></trkpt><trkpt lat="45.18791927959368" lon="7.641733943622537"><ele>287.0</ele><time>2026-04-18T14:11:53Z</time></trkpt><trkpt lat="45.1880157013" lon="7.641527124997882"><ele>287.0</ele><time>2026-04-18T14:11:54Z</time></trkpt><trkpt lat="45.1881065306828" lon="7.641314841825753"><ele>287.0</ele><time>2026-04-18T14:11:55Z</time></trkpt><trkpt lat="45.18819283617207" lon="7.641107035077417"><ele>287.0</ele><time>2026-04-18T14:11:56Z</time></trkpt><trkpt lat="45.188275303192675" lon="7.640908935433721"><ele>287.33333333333337</ele><time>2026-04-18T14:11:57Z</time></trkpt><trkpt lat="45.18836349664011" lon="7.64071843718962"><ele>287.6666666666667</ele><time>2026-04-18T14:11:58Z</time></trkpt><trkpt lat="45.188462118769834" lon="7.640528759471706"><ele>288.0</ele><time>2026-04-18T14:11:59Z</time></trkpt><trkpt lat="45.18857985823172" lon="7.640361255276965"><ele>288.0</ele><time>2026-04-18T14:12:00Z</time></trkpt><trkpt lat="45.18871210027863" lon="7.6402061913237675"><ele>288.0</ele><time>2026-04-18T14:12:01Z</time></trkpt><trkpt lat="45.18887852986883" lon="7.640052424610832"><ele>288.0</ele><time>2026-04-18T14:12:02Z</time></trkpt><trkpt lat="45.189067605435035" lon="7.63990678695049"><ele>287.6666666666667</ele><time>2026-04-18T14:12:03Z</time></trkpt><trkpt lat="45.189252526057665" lon="7.639784324731152"><ele>287.33333333333337</ele><time>2026-04-18T14:12:04Z</time></trkpt><trkpt lat="45.189440676264965" lon="7.639667782930513"><ele>287.0</ele><time>2026-04-18T14:12:05Z</time></trkpt><trkpt lat="45.18963704164992" lon="7.639585425575161"><ele>287.33333333333337</ele><time>2026-04-18T14:12:06Z</time></trkpt><trkpt lat="45.1898419735972" lon="7.6395376543819316"><ele>287.6666666666667</ele><time>2026-04-18T14:12:07Z</time></trkpt><trkpt lat="45.1900519520012" lon="7.639502299739996"><ele>288.0</ele><time>2026-04-18T14:12:08Z</time></trkpt><trkpt lat="45.19027458948535" lon="7.639487770513766"><ele>287.0</ele><time>2026-04-18T14:12:09Z</time></trkpt><trkpt lat="45.19071724442244" lon="7.639564595528121"><ele>286.0</ele><time>2026-04-18T14:12:11Z</time></trkpt><trkpt lat="45.190940474761575" lon="7.639644172773387"><ele>286.0</ele><time>2026-04-18T14:12:12Z</time></trkpt><trkpt lat="45.19115997309896" lon="7.639748574449988"><ele>286.0</ele><time>2026-04-18T14:12:13Z</time></trkpt><trkpt lat="45.19136984448402" lon="7.639862562206534"><ele>287.0</ele><time>2026-04-18T14:12:14Z</time></trkpt><trkpt lat="45.191566809739584" lon="7.63995804318069"><ele>288.0</ele><time>2026-04-18T14:12:15Z</time></trkpt><trkpt lat="45.19175630293474" lon="7.64004888659547"><ele>289.0</ele><time>2026-04-18T14:12:16Z</time></trkpt><trkpt lat="45.191941390249305" lon="7.640133815222941"><ele>289.0</ele><time>2026-04-18T14:12:17Z</time></trkpt><trkpt lat="45.19211158687884" lon="7.6402142522485965"><ele>289.0</ele><time>2026-04-18T14:12:18Z</time></trkpt><trkpt lat="45.19227602274425" lon="7.640288127148591"><ele>289.0</ele><time>2026-04-18T14:12:19Z</time></trkpt><trkpt lat="45.192444972563024" lon="7.640361916581951"><ele>289.3333333333333</ele><time>2026-04-18T14:12:20Z</time></trkpt><trkpt lat="45.19261421619941" lon="7.640433160137434"><ele>289.6666666666667</ele><time>2026-04-18T14:12:21Z</time></trkpt><trkpt lat="45.19277597808244" lon="7.6405120009399035"><ele>290.0</ele><time>2026-04-18T14:12:22Z</time></trkpt><trkpt lat="45.19293041579303" lon="7.640578308832245"><ele>290.0</ele><time>2026-04-18T14:12:23Z</time></trkpt><trkpt lat="45.19308158425325" lon="7.640630781848204"><ele>290.0</ele><time>2026-04-18T14:12:24Z</time></trkpt><trkpt lat="45.19323634965848" lon="7.640674747052761"><ele>290.0</ele><time>2026-04-18T14:12:25Z</time></trkpt><trkpt lat="45.193389810306215" lon="7.640713076948996"><ele>289.6666666666667</ele><time>2026-04-18T14:12:26Z</time></trkpt><trkpt lat="45.1935494969837" lon="7.640742022878465"><ele>289.3333333333333</ele><time>2026-04-18T14:12:27Z</time></trkpt><trkpt lat="45.193710815806675" lon="7.640760996873116"><ele>289.0</ele><time>2026-04-18T14:12:28Z</time></trkpt><trkpt lat="45.193870646179626" lon="7.640776573814169"><ele>290.3333333333333</ele><time>2026-04-18T14:12:29Z</time></trkpt><trkpt lat="45.19403340427902" lon="7.640789177559565"><ele>291.6666666666667</ele><time>2026-04-18T14:12:30Z</time></trkpt><trkpt lat="45.19419265983452" lon="7.640787266232116"><ele>293.0</ele><time>2026-04-18T14:12:31Z</time></trkpt><trkpt lat="45.19434604614789" lon="7.640778740366945"><ele>293.0</ele><time>2026-04-18T14:12:32Z</time></trkpt><trkpt lat="45.1944921696373" lon="7.640758246059166"><ele>293.0</ele><time>2026-04-18T14:12:33Z</time></trkpt><trkpt lat="45.19463692506534" lon="7.640740649476421"><ele>293.0</ele><time>2026-04-18T14:12:34Z</time></trkpt><trkpt lat="45.19477796917178" lon="7.640709486898569"><ele>293.0</ele><time>2026-04-18T14:12:35Z</time></trkpt><trkpt lat="45.19494184138842" lon="7.64065963468521"><ele>293.0</ele><time>2026-04-18T14:12:36Z</time></trkpt><trkpt lat="45.19510069962513" lon="7.640613165517076"><ele>293.0</ele><time>2026-04-18T14:12:37Z</time></trkpt><trkpt lat="45.19526409556315" lon="7.640566463466453"><ele>293.0</ele><time>2026-04-18T14:12:38Z</time></trkpt><trkpt lat="45.195430590844765" lon="7.6405134402556"><ele>293.0</ele><time>2026-04-18T14:12:39Z</time></trkpt><trkpt lat="45.19559627081745" lon="7.640460507916296"><ele>293.0</ele><time>2026-04-18T14:12:40Z</time></trkpt><trkpt lat="45.19575891738583" lon="7.64039987079056"><ele>293.0</ele><time>2026-04-18T14:12:41Z</time></trkpt><trkpt lat="45.19592509961852" lon="7.640335085031392"><ele>293.6666666666667</ele><time>2026-04-18T14:12:42Z</time></trkpt><trkpt lat="45.19609488281927" lon="7.640272757659234"><ele>294.3333333333333</ele><time>2026-04-18T14:12:43Z</time></trkpt><trkpt lat="45.19627441478791" lon="7.64021796819153"><ele>295.0</ele><time>2026-04-18T14:12:44Z</time></trkpt><trkpt lat="45.19645647802787" lon="7.640167356724616"><ele>294.66666666666663</ele><time>2026-04-18T14:12:45Z</time></trkpt><trkpt lat="45.196641730493404" lon="7.640110465908318"><ele>294.3333333333333</ele><time>2026-04-18T14:12:46Z</time></trkpt><trkpt lat="45.19681715626352" lon="7.640049901223597"><ele>294.0</ele><time>2026-04-18T14:12:47Z</time></trkpt><trkpt lat="45.19698985249397" lon="7.639989607900046"><ele>294.0</ele><time>2026-04-18T14:12:48Z</time></trkpt><trkpt lat="45.19715962393874" lon="7.63993008907863"><ele>294.0</ele><time>2026-04-18T14:12:49Z</time></trkpt><trkpt lat="45.19732465213921" lon="7.639871926509"><ele>294.0</ele><time>2026-04-18T14:12:50Z</time></trkpt><trkpt lat="45.197489306579044" lon="7.639805666294972"><ele>294.0</ele><time>2026-04-18T14:12:51Z</time></trkpt><trkpt lat="45.19765823588169" lon="7.639724865652611"><ele>294.0</ele><time>2026-04-18T14:12:52Z</time></trkpt><trkpt lat="45.19782289592058" lon="7.639650189849085"><ele>294.0</ele><time>2026-04-18T14:12:53Z</time></trkpt><trkpt lat="45.19799127313159" lon="7.639580075797145"><ele>294.0</ele><time>2026-04-18T14:12:54Z</time></trkpt><trkpt lat="45.19815963916284" lon="7.639509290136914"><ele>294.0</ele><time>2026-04-18T14:12:55Z</time></trkpt><trkpt lat="45.19832699074444" lon="7.639427715737973"><ele>294.0</ele><time>2026-04-18T14:12:56Z</time></trkpt><trkpt lat="45.19849230342932" lon="7.639349258963222"><ele>295.3333333333333</ele><time>2026-04-18T14:12:57Z</time></trkpt><trkpt lat="45.19865585373851" lon="7.639276581380475"><ele>296.66666666666663</ele><time>2026-04-18T14:12:58Z</time></trkpt><trkpt lat="45.19881461450264" lon="7.639206211110645"><ele>298.0</ele><time>2026-04-18T14:12:59Z</time></trkpt><trkpt lat="45.19897538885713" lon="7.639135149621187"><ele>298.0</ele><time>2026-04-18T14:13:00Z</time></trkpt><trkpt lat="45.199137636984794" lon="7.639063144514153"><ele>298.0</ele><time>2026-04-18T14:13:01Z</time></trkpt><trkpt lat="45.19930249823372" lon="7.638986908381764"><ele>298.0</ele><time>2026-04-18T14:13:02Z</time></trkpt><trkpt lat="45.199468255518404" lon="7.638909817756115"><ele>298.0</ele><time>2026-04-18T14:13:03Z</time></trkpt><trkpt lat="45.19963452938095" lon="7.638834238445374"><ele>298.0</ele><time>2026-04-18T14:13:04Z</time></trkpt><trkpt lat="45.199799098812605" lon="7.638756266440592"><ele>298.0</ele><time>2026-04-18T14:13:05Z</time></trkpt><trkpt lat="45.19996115347265" lon="7.638677323428671"><ele>297.66666666666663</ele><time>2026-04-18T14:13:06Z</time></trkpt><trkpt lat="45.20012772514969" lon="7.638603339687661"><ele>297.3333333333333</ele><time>2026-04-18T14:13:07Z</time></trkpt><trkpt lat="45.20030012606442" lon="7.638526124531647"><ele>297.0</ele><time>2026-04-18T14:13:08Z</time></trkpt><trkpt lat="45.20045749220808" lon="7.638453492595634"><ele>297.0</ele><time>2026-04-18T14:13:09Z</time></trkpt><trkpt lat="45.20060977694408" lon="7.638381596035526"><ele>297.0</ele><time>2026-04-18T14:13:10Z</time></trkpt><trkpt lat="45.200761506637015" lon="7.638311122587862"><ele>297.0</ele><time>2026-04-18T14:13:11Z</time></trkpt><trkpt lat="45.20091387775565" lon="7.638244328439817"><ele>297.3333333333333</ele><time>2026-04-18T14:13:12Z</time></trkpt><trkpt lat="45.20106874249159" lon="7.63817765220262"><ele>297.66666666666663</ele><time>2026-04-18T14:13:13Z</time></trkpt><trkpt lat="45.20123371124772" lon="7.638102241170656"><ele>298.0</ele><time>2026-04-18T14:13:14Z</time></trkpt><trkpt lat="45.20139707753225" lon="7.638027661672842"><ele>298.66666666666663</ele><time>2026-04-18T14:13:15Z</time></trkpt><trkpt lat="45.201566069004656" lon="7.637951611943475"><ele>299.3333333333333</ele><time>2026-04-18T14:13:16Z</time></trkpt><trkpt lat="45.20173687782878" lon="7.637874930274011"><ele>300.0</ele><time>2026-04-18T14:13:17Z</time></trkpt><trkpt lat="45.20190436611817" lon="7.637793719260619"><ele>300.6666666666667</ele><time>2026-04-18T14:13:18Z</time></trkpt><trkpt lat="45.20207177705948" lon="7.63771509904384"><ele>301.33333333333337</ele><time>2026-04-18T14:13:19Z</time></trkpt><trkpt lat="45.202237571247025" lon="7.637642639221691"><ele>302.0</ele><time>2026-04-18T14:13:20Z</time></trkpt><trkpt lat="45.20254026779103" lon="7.6375072403716215"><ele>302.0</ele><time>2026-04-18T14:13:22Z</time></trkpt><trkpt lat="45.202680591517726" lon="7.6374446761522"><ele>302.0</ele><time>2026-04-18T14:13:23Z</time></trkpt><trkpt lat="45.20282009735406" lon="7.637380304690141"><ele>302.0</ele><time>2026-04-18T14:13:24Z</time></trkpt><trkpt lat="45.202961641588686" lon="7.637314608049264"><ele>302.0</ele><time>2026-04-18T14:13:25Z</time></trkpt><trkpt lat="45.20310367182119" lon="7.637250674087918"><ele>302.5</ele><time>2026-04-18T14:13:26Z</time></trkpt><trkpt lat="45.20324461972302" lon="7.637189017520197"><ele>303.0</ele><time>2026-04-18T14:13:27Z</time></trkpt><trkpt lat="45.20338463308555" lon="7.637125366670659"><ele>303.5</ele><time>2026-04-18T14:13:28Z</time></trkpt><trkpt lat="45.203527867000794" lon="7.637059056648514"><ele>304.0</ele><time>2026-04-18T14:13:29Z</time></trkpt><trkpt lat="45.203669319678156" lon="7.636998039989519"><ele>303.75</ele><time>2026-04-18T14:13:30Z</time></trkpt><trkpt lat="45.20381255443541" lon="7.6369279104398755"><ele>303.5</ele><time>2026-04-18T14:13:31Z</time></trkpt><trkpt lat="45.20395088037581" lon="7.636863915736016"><ele>303.25</ele><time>2026-04-18T14:13:32Z</time></trkpt><trkpt lat="45.20409291377927" lon="7.63680656349921"><ele>303.0</ele><time>2026-04-18T14:13:33Z</time></trkpt><trkpt lat="45.204233282359894" lon="7.636744631180955"><ele>302.5</ele><time>2026-04-18T14:13:34Z</time></trkpt><trkpt lat="45.20437662807912" lon="7.636677302045456"><ele>302.0</ele><time>2026-04-18T14:13:35Z</time></trkpt><trkpt lat="45.20451392388604" lon="7.636612522543868"><ele>301.5</ele><time>2026-04-18T14:13:36Z</time></trkpt><trkpt lat="45.20464985147807" lon="7.636553204234767"><ele>301.0</ele><time>2026-04-18T14:13:37Z</time></trkpt><trkpt lat="45.20477647873626" lon="7.636516580048719"><ele>301.40000000000003</ele><time>2026-04-18T14:13:38Z</time></trkpt><trkpt lat="45.204882013228755" lon="7.636509316761727"><ele>301.8</ele><time>2026-04-18T14:13:39Z</time></trkpt><trkpt lat="45.204971398981506" lon="7.636530643006741"><ele>302.20000000000005</ele><time>2026-04-18T14:13:40Z</time></trkpt><trkpt lat="45.20505399080562" lon="7.636593731277334"><ele>302.6</ele><time>2026-04-18T14:13:41Z</time></trkpt><trkpt lat="45.20513671419254" lon="7.6366814375422445"><ele>303.0</ele><time>2026-04-18T14:13:42Z</time></trkpt><trkpt lat="45.20523392569745" lon="7.636758380151163"><ele>303.0</ele><time>2026-04-18T14:13:43Z</time></trkpt><trkpt lat="45.20546098095658" lon="7.636744965926069"><ele>303.0</ele><time>2026-04-18T14:13:45Z</time></trkpt><trkpt lat="45.20559106548812" lon="7.6366972564975635"><ele>303.0</ele><time>2026-04-18T14:13:46Z</time></trkpt><trkpt lat="45.205729968167894" lon="7.636692189750399"><ele>303.3333333333333</ele><time>2026-04-18T14:13:47Z</time></trkpt><trkpt lat="45.20586093229025" lon="7.63673885958928"><ele>303.66666666666663</ele><time>2026-04-18T14:13:48Z</time></trkpt><trkpt lat="45.205992852802034" lon="7.636896223266034"><ele>304.0</ele><time>2026-04-18T14:13:49Z</time></trkpt><trkpt lat="45.20614771044527" lon="7.63705775789674"><ele>304.0</ele><time>2026-04-18T14:13:50Z</time></trkpt><trkpt lat="45.206328588012326" lon="7.6372052951572265"><ele>304.0</ele><time>2026-04-18T14:13:51Z</time></trkpt><trkpt lat="45.20649538279898" lon="7.637342444844237"><ele>304.0</ele><time>2026-04-18T14:13:52Z</time></trkpt><trkpt lat="45.20665121175568" lon="7.637488175282852"><ele>304.3333333333333</ele><time>2026-04-18T14:13:53Z</time></trkpt><trkpt lat="45.206783283944425" lon="7.63767160197695"><ele>304.6666666666667</ele><time>2026-04-18T14:13:54Z</time></trkpt><trkpt lat="45.206909743627314" lon="7.637888028110972"><ele>305.0</ele><time>2026-04-18T14:13:55Z</time></trkpt><trkpt lat="45.20699307508176" lon="7.638157390848206"><ele>305.0</ele><time>2026-04-18T14:13:56Z</time></trkpt><trkpt lat="45.20706574176308" lon="7.638451699892132"><ele>305.0</ele><time>2026-04-18T14:13:57Z</time></trkpt><trkpt lat="45.20717739658003" lon="7.639066125739762"><ele>305.0</ele><time>2026-04-18T14:13:59Z</time></trkpt><trkpt lat="45.20723642036839" lon="7.639323729886806"><ele>305.0</ele><time>2026-04-18T14:14:00Z</time></trkpt><trkpt lat="45.207295483418704" lon="7.639568107986565"><ele>305.0</ele><time>2026-04-18T14:14:01Z</time></trkpt><trkpt lat="45.20736793008694" lon="7.639798690339476"><ele>305.0</ele><time>2026-04-18T14:14:02Z</time></trkpt><trkpt lat="45.20748110162694" lon="7.6400078616663"><ele>305.0</ele><time>2026-04-18T14:14:03Z</time></trkpt><trkpt lat="45.20761618697128" lon="7.640189078890275"><ele>305.0</ele><time>2026-04-18T14:14:04Z</time></trkpt><trkpt lat="45.207762408028806" lon="7.640342043987796"><ele>305.0</ele><time>2026-04-18T14:14:05Z</time></trkpt><trkpt lat="45.20791264633235" lon="7.64045080738262"><ele>305.0</ele><time>2026-04-18T14:14:06Z</time></trkpt><trkpt lat="45.20805443682808" lon="7.640532893520335"><ele>305.0</ele><time>2026-04-18T14:14:07Z</time></trkpt><trkpt lat="45.20818288081259" lon="7.640600395551099"><ele>305.0</ele><time>2026-04-18T14:14:08Z</time></trkpt><trkpt lat="45.2082975844538" lon="7.640652056349278"><ele>305.0</ele><time>2026-04-18T14:14:09Z</time></trkpt><trkpt lat="45.20838051641795" lon="7.640707110106504"><ele>305.0</ele><time>2026-04-18T14:14:10Z</time></trkpt><trkpt lat="45.208432919322014" lon="7.640796510237367"><ele>305.0</ele><time>2026-04-18T14:14:11Z</time></trkpt><trkpt lat="45.20848080736532" lon="7.640938348310572"><ele>305.0</ele><time>2026-04-18T14:14:12Z</time></trkpt><trkpt lat="45.20854252374148" lon="7.641055495158901"><ele>305.0</ele><time>2026-04-18T14:14:13Z</time></trkpt><trkpt lat="45.20864229156051" lon="7.641106919598215"><ele>305.0</ele><time>2026-04-18T14:14:14Z</time></trkpt><trkpt lat="45.20876257517952" lon="7.641097986372708"><ele>305.0</ele><time>2026-04-18T14:14:15Z</time></trkpt><trkpt lat="45.20888697957331" lon="7.64105029145289"><ele>305.0</ele><time>2026-04-18T14:14:16Z</time></trkpt><trkpt lat="45.209005395280876" lon="7.64104808920589"><ele>304.75</ele><time>2026-04-18T14:14:17Z</time></trkpt><trkpt lat="45.20912868583234" lon="7.641110077663707"><ele>304.5</ele><time>2026-04-18T14:14:18Z</time></trkpt><trkpt lat="45.2092433146645" lon="7.641178090743312"><ele>304.25</ele><time>2026-04-18T14:14:19Z</time></trkpt><trkpt lat="45.209334711555" lon="7.641232173437928"><ele>304.0</ele><time>2026-04-18T14:14:20Z</time></trkpt><trkpt lat="45.20943313371626" lon="7.641279155340161"><ele>304.0</ele><time>2026-04-18T14:14:21Z</time></trkpt><trkpt lat="45.20954638039421" lon="7.641332717819767"><ele>304.0</ele><time>2026-04-18T14:14:22Z</time></trkpt><trkpt lat="45.20966657929651" lon="7.641385409325591"><ele>304.0</ele><time>2026-04-18T14:14:23Z</time></trkpt><trkpt lat="45.20977994086512" lon="7.641432974574831"><ele>304.0</ele><time>2026-04-18T14:14:24Z</time></trkpt><trkpt lat="45.20990322792752" lon="7.641489354168271"><ele>304.3333333333333</ele><time>2026-04-18T14:14:25Z</time></trkpt><trkpt lat="45.21008095206553" lon="7.6415512171351825"><ele>304.6666666666667</ele><time>2026-04-18T14:14:26Z</time></trkpt><trkpt lat="45.2102969137681" lon="7.641646544356171"><ele>305.0</ele><time>2026-04-18T14:14:27Z</time></trkpt><trkpt lat="45.21054527492905" lon="7.641773096864156"><ele>305.0</ele><time>2026-04-18T14:14:28Z</time></trkpt><trkpt lat="45.21081715371253" lon="7.641924275819065"><ele>305.0</ele><time>2026-04-18T14:14:29Z</time></trkpt><trkpt lat="45.2111025570939" lon="7.642070254696535"><ele>304.5</ele><time>2026-04-18T14:14:30Z</time></trkpt><trkpt lat="45.2113754827878" lon="7.642185547718217"><ele>304.0</ele><time>2026-04-18T14:14:31Z</time></trkpt><trkpt lat="45.2116368427876" lon="7.642306999807963"><ele>305.0</ele><time>2026-04-18T14:14:32Z</time></trkpt><trkpt lat="45.21189927074798" lon="7.642437539713754"><ele>306.0</ele><time>2026-04-18T14:14:33Z</time></trkpt><trkpt lat="45.212146952139456" lon="7.642552618171192"><ele>305.0</ele><time>2026-04-18T14:14:34Z</time></trkpt><trkpt lat="45.21238632793148" lon="7.642660440829249"><ele>304.0</ele><time>2026-04-18T14:14:35Z</time></trkpt><trkpt lat="45.21262697261406" lon="7.642764038177285"><ele>305.5</ele><time>2026-04-18T14:14:36Z</time></trkpt><trkpt lat="45.21286806928608" lon="7.642845963412958"><ele>307.0</ele><time>2026-04-18T14:14:37Z</time></trkpt><trkpt lat="45.2131316474044" lon="7.642899738658217"><ele>307.0</ele><time>2026-04-18T14:14:38Z</time></trkpt><trkpt lat="45.213403967896376" lon="7.642928330813494"><ele>307.0</ele><time>2026-04-18T14:14:39Z</time></trkpt><trkpt lat="45.213678384259666" lon="7.642950441480288"><ele>307.0</ele><time>2026-04-18T14:14:40Z</time></trkpt><trkpt lat="45.21394702429838" lon="7.642960187765865"><ele>307.0</ele><time>2026-04-18T14:14:41Z</time></trkpt><trkpt lat="45.21421097639084" lon="7.642981717511696"><ele>306.5</ele><time>2026-04-18T14:14:42Z</time></trkpt><trkpt lat="45.214472329728636" lon="7.642990447006623"><ele>306.0</ele><time>2026-04-18T14:14:43Z</time></trkpt><trkpt lat="45.21472355221843" lon="7.643007569790103"><ele>306.5</ele><time>2026-04-18T14:14:44Z</time></trkpt><trkpt lat="45.21497567455281" lon="7.64302005466854"><ele>307.0</ele><time>2026-04-18T14:14:45Z</time></trkpt><trkpt lat="45.21521453998689" lon="7.64303859946256"><ele>307.0</ele><time>2026-04-18T14:14:46Z</time></trkpt><trkpt lat="45.21543434669631" lon="7.643056497911871"><ele>307.0</ele><time>2026-04-18T14:14:47Z</time></trkpt><trkpt lat="45.2156367851572" lon="7.643071955196262"><ele>307.0</ele><time>2026-04-18T14:14:48Z</time></trkpt><trkpt lat="45.21584613343831" lon="7.64307548085359"><ele>306.66666666666663</ele><time>2026-04-18T14:14:49Z</time></trkpt><trkpt lat="45.216059511051455" lon="7.64304512372795"><ele>306.3333333333333</ele><time>2026-04-18T14:14:50Z</time></trkpt><trkpt lat="45.21628397271217" lon="7.642971139238614"><ele>306.0</ele><time>2026-04-18T14:14:51Z</time></trkpt><trkpt lat="45.216504479687934" lon="7.642860428785144"><ele>306.0</ele><time>2026-04-18T14:14:52Z</time></trkpt><trkpt lat="45.216714510383525" lon="7.642715205788812"><ele>306.0</ele><time>2026-04-18T14:14:53Z</time></trkpt><trkpt lat="45.21690458756478" lon="7.6425286455291275"><ele>306.0</ele><time>2026-04-18T14:14:54Z</time></trkpt><trkpt lat="45.21707344034547" lon="7.6423051913207125"><ele>306.0</ele><time>2026-04-18T14:14:55Z</time></trkpt><trkpt lat="45.217215328338845" lon="7.6420659641887685"><ele>306.3333333333333</ele><time>2026-04-18T14:14:56Z</time></trkpt><trkpt lat="45.21733481974118" lon="7.641818595908229"><ele>306.66666666666663</ele><time>2026-04-18T14:14:57Z</time></trkpt><trkpt lat="45.21742435771416" lon="7.641567510328688"><ele>307.0</ele><time>2026-04-18T14:14:58Z</time></trkpt><trkpt lat="45.21748634864418" lon="7.641321341001642"><ele>307.3333333333333</ele><time>2026-04-18T14:14:59Z</time></trkpt><trkpt lat="45.21753472061043" lon="7.641073914756256"><ele>307.6666666666667</ele><time>2026-04-18T14:15:00Z</time></trkpt><trkpt lat="45.217574801217445" lon="7.6408423812151725"><ele>308.0</ele><time>2026-04-18T14:15:01Z</time></trkpt><trkpt lat="45.217618059264325" lon="7.640615429971564"><ele>308.0</ele><time>2026-04-18T14:15:02Z</time></trkpt><trkpt lat="45.21770987265879" lon="7.6404277261772355"><ele>308.0</ele><time>2026-04-18T14:15:03Z</time></trkpt><trkpt lat="45.21779298339105" lon="7.64024714257741"><ele>308.0</ele><time>2026-04-18T14:15:04Z</time></trkpt><trkpt lat="45.21786278400099" lon="7.640070148278942"><ele>308.5</ele><time>2026-04-18T14:15:05Z</time></trkpt><trkpt lat="45.21793121638493" lon="7.639946783606726"><ele>309.0</ele><time>2026-04-18T14:15:06Z</time></trkpt><trkpt lat="45.21798493658529" lon="7.639857220318784"><ele>309.5</ele><time>2026-04-18T14:15:07Z</time></trkpt><trkpt lat="45.21803805211484" lon="7.639800883529858"><ele>310.0</ele><time>2026-04-18T14:15:08Z</time></trkpt><trkpt lat="45.21811390495159" lon="7.639766687911737"><ele>310.5</ele><time>2026-04-18T14:15:09Z</time></trkpt><trkpt lat="45.21820139695683" lon="7.639720978612547"><ele>311.0</ele><time>2026-04-18T14:15:10Z</time></trkpt><trkpt lat="45.218273503663646" lon="7.639619615135706"><ele>311.0</ele><time>2026-04-18T14:15:11Z</time></trkpt><trkpt lat="45.2183064992238" lon="7.639487433847653"><ele>311.0</ele><time>2026-04-18T14:15:12Z</time></trkpt><trkpt lat="45.21830264093302" lon="7.639341645169298"><ele>311.0</ele><time>2026-04-18T14:15:13Z</time></trkpt><trkpt lat="45.21827673702409" lon="7.63917617578735"><ele>311.0</ele><time>2026-04-18T14:15:14Z</time></trkpt><trkpt lat="45.21826835564056" lon="7.639007809183584"><ele>311.0</ele><time>2026-04-18T14:15:15Z</time></trkpt><trkpt lat="45.21829082633966" lon="7.638828478557068"><ele>312.6666666666667</ele><time>2026-04-18T14:15:16Z</time></trkpt><trkpt lat="45.218294530893374" lon="7.638629798058278"><ele>314.3333333333333</ele><time>2026-04-18T14:15:17Z</time></trkpt><trkpt lat="45.21846113305068" lon="7.638428652847219"><ele>316.0</ele><time>2026-04-18T14:15:18Z</time></trkpt><trkpt lat="45.21853027957827" lon="7.6382157164659485"><ele>317.5</ele><time>2026-04-18T14:15:19Z</time></trkpt><trkpt lat="45.218620922571674" lon="7.63773777811911"><ele>319.0</ele><time>2026-04-18T14:15:21Z</time></trkpt><trkpt lat="45.218649826390944" lon="7.637494228814751"><ele>319.0</ele><time>2026-04-18T14:15:22Z</time></trkpt><trkpt lat="45.21867996064003" lon="7.637256806377793"><ele>319.0</ele><time>2026-04-18T14:15:23Z</time></trkpt><trkpt lat="45.21871664604102" lon="7.637029744528151"><ele>319.0</ele><time>2026-04-18T14:15:24Z</time></trkpt><trkpt lat="45.218755155650044" lon="7.636810081354482"><ele>319.0</ele><time>2026-04-18T14:15:25Z</time></trkpt><trkpt lat="45.21878524749218" lon="7.63659661565842"><ele>319.0</ele><time>2026-04-18T14:15:26Z</time></trkpt><trkpt lat="45.218814257942476" lon="7.636403853313484"><ele>319.0</ele><time>2026-04-18T14:15:27Z</time></trkpt><trkpt lat="45.21883770566804" lon="7.6362324610377454"><ele>319.0</ele><time>2026-04-18T14:15:28Z</time></trkpt><trkpt lat="45.21888001920255" lon="7.636103522958158"><ele>318.8</ele><time>2026-04-18T14:15:29Z</time></trkpt><trkpt lat="45.218948325392" lon="7.635984567664835"><ele>318.59999999999997</ele><time>2026-04-18T14:15:30Z</time></trkpt><trkpt lat="45.219048448818114" lon="7.63590510911394"><ele>318.4</ele><time>2026-04-18T14:15:31Z</time></trkpt><trkpt lat="45.219165817701125" lon="7.635869720823416"><ele>318.2</ele><time>2026-04-18T14:15:32Z</time></trkpt><trkpt lat="45.219264027427066" lon="7.635853834168963"><ele>318.0</ele><time>2026-04-18T14:15:33Z</time></trkpt><trkpt lat="45.219344806757526" lon="7.635864027509123"><ele>317.25</ele><time>2026-04-18T14:15:34Z</time></trkpt><trkpt lat="45.2194408849403" lon="7.635925691294198"><ele>316.5</ele><time>2026-04-18T14:15:35Z</time></trkpt><trkpt lat="45.21954340745863" lon="7.635981108519722"><ele>315.75</ele><time>2026-04-18T14:15:36Z</time></trkpt><trkpt lat="45.21966398171288" lon="7.6359593679080655"><ele>315.0</ele><time>2026-04-18T14:15:37Z</time></trkpt><trkpt lat="45.21991954921045" lon="7.635873184206663"><ele>315.0</ele><time>2026-04-18T14:15:39Z</time></trkpt><trkpt lat="45.22006050326528" lon="7.635925441689597"><ele>315.0</ele><time>2026-04-18T14:15:40Z</time></trkpt><trkpt lat="45.22019952411124" lon="7.636009833239445"><ele>315.0</ele><time>2026-04-18T14:15:41Z</time></trkpt><trkpt lat="45.22033401160045" lon="7.636099414757391"><ele>315.0</ele><time>2026-04-18T14:15:42Z</time></trkpt><trkpt lat="45.220451070569645" lon="7.636220796790141"><ele>315.0</ele><time>2026-04-18T14:15:43Z</time></trkpt><trkpt lat="45.220568281928216" lon="7.636350162113379"><ele>315.0</ele><time>2026-04-18T14:15:44Z</time></trkpt><trkpt lat="45.220684919139096" lon="7.636462554010885"><ele>315.0</ele><time>2026-04-18T14:15:45Z</time></trkpt><trkpt lat="45.220797932311164" lon="7.636572279428668"><ele>315.0</ele><time>2026-04-18T14:15:46Z</time></trkpt><trkpt lat="45.22091048147042" lon="7.636676906696184"><ele>315.0</ele><time>2026-04-18T14:15:47Z</time></trkpt><trkpt lat="45.221028093326474" lon="7.636781493322253"><ele>315.0</ele><time>2026-04-18T14:15:48Z</time></trkpt><trkpt lat="45.22114409301469" lon="7.636890918757177"><ele>315.0</ele><time>2026-04-18T14:15:49Z</time></trkpt><trkpt lat="45.22125432748089" lon="7.637003922559815"><ele>315.0</ele><time>2026-04-18T14:15:50Z</time></trkpt><trkpt lat="45.22135569660846" lon="7.637107254198107"><ele>315.0</ele><time>2026-04-18T14:15:51Z</time></trkpt><trkpt lat="45.22146433591703" lon="7.6372058226963775"><ele>315.0</ele><time>2026-04-18T14:15:52Z</time></trkpt><trkpt lat="45.221571572148775" lon="7.637313133376732"><ele>315.0</ele><time>2026-04-18T14:15:53Z</time></trkpt><trkpt lat="45.22168375358126" lon="7.637420478403489"><ele>315.0</ele><time>2026-04-18T14:15:54Z</time></trkpt><trkpt lat="45.22180117484815" lon="7.637534468655604"><ele>315.25</ele><time>2026-04-18T14:15:55Z</time></trkpt><trkpt lat="45.221919837892074" lon="7.637646954450341"><ele>315.5</ele><time>2026-04-18T14:15:56Z</time></trkpt><trkpt lat="45.2220384914503" lon="7.6377599600861155"><ele>315.75</ele><time>2026-04-18T14:15:57Z</time></trkpt><trkpt lat="45.22215571243715" lon="7.6378685975251805"><ele>316.0</ele><time>2026-04-18T14:15:58Z</time></trkpt><trkpt lat="45.22227304255665" lon="7.6379813913774255"><ele>315.75</ele><time>2026-04-18T14:15:59Z</time></trkpt><trkpt lat="45.22238960007458" lon="7.638090063602146"><ele>315.5</ele><time>2026-04-18T14:16:00Z</time></trkpt><trkpt lat="45.22249944858486" lon="7.638201324592654"><ele>315.25</ele><time>2026-04-18T14:16:01Z</time></trkpt><trkpt lat="45.22260656597749" lon="7.6383051125507935"><ele>315.0</ele><time>2026-04-18T14:16:02Z</time></trkpt><trkpt lat="45.222713723082336" lon="7.638407171993889"><ele>315.0</ele><time>2026-04-18T14:16:03Z</time></trkpt><trkpt lat="45.22281545149774" lon="7.638501767063577"><ele>315.0</ele><time>2026-04-18T14:16:04Z</time></trkpt><trkpt lat="45.222916801368115" lon="7.638597185634783"><ele>315.0</ele><time>2026-04-18T14:16:05Z</time></trkpt><trkpt lat="45.22302120513437" lon="7.638702211297793"><ele>315.0</ele><time>2026-04-18T14:16:06Z</time></trkpt><trkpt lat="45.223123790668566" lon="7.638804669561433"><ele>315.25</ele><time>2026-04-18T14:16:07Z</time></trkpt><trkpt lat="45.22323663843672" lon="7.638913373063347"><ele>315.5</ele><time>2026-04-18T14:16:08Z</time></trkpt><trkpt lat="45.2233555924983" lon="7.639026665878612"><ele>315.75</ele><time>2026-04-18T14:16:09Z</time></trkpt><trkpt lat="45.22347744889818" lon="7.639142608182584"><ele>316.0</ele><time>2026-04-18T14:16:10Z</time></trkpt><trkpt lat="45.22360282869798" lon="7.639263597272284"><ele>316.0</ele><time>2026-04-18T14:16:11Z</time></trkpt><trkpt lat="45.22372628915531" lon="7.639387279168329"><ele>316.0</ele><time>2026-04-18T14:16:12Z</time></trkpt><trkpt lat="45.22385395837569" lon="7.639506606996689"><ele>316.0</ele><time>2026-04-18T14:16:13Z</time></trkpt><trkpt lat="45.22397318929085" lon="7.639623943419938"><ele>316.0</ele><time>2026-04-18T14:16:14Z</time></trkpt><trkpt lat="45.224081434969605" lon="7.639734240519219"><ele>315.75</ele><time>2026-04-18T14:16:15Z</time></trkpt><trkpt lat="45.22417936145733" lon="7.639845373579522"><ele>315.5</ele><time>2026-04-18T14:16:16Z</time></trkpt><trkpt lat="45.22426316512468" lon="7.6399637454862885"><ele>315.25</ele><time>2026-04-18T14:16:17Z</time></trkpt><trkpt lat="45.22434339830457" lon="7.640089867343943"><ele>315.0</ele><time>2026-04-18T14:16:18Z</time></trkpt><trkpt lat="45.22442519656731" lon="7.6402438864743285"><ele>314.5</ele><time>2026-04-18T14:16:19Z</time></trkpt><trkpt lat="45.224503831033196" lon="7.640385815559613"><ele>314.0</ele><time>2026-04-18T14:16:20Z</time></trkpt><trkpt lat="45.22459297109052" lon="7.640519547710014"><ele>313.5</ele><time>2026-04-18T14:16:21Z</time></trkpt><trkpt lat="45.22467002161908" lon="7.640640549816517"><ele>313.0</ele><time>2026-04-18T14:16:22Z</time></trkpt><trkpt lat="45.22475922418405" lon="7.640764048601633"><ele>313.25</ele><time>2026-04-18T14:16:23Z</time></trkpt><trkpt lat="45.2248419915757" lon="7.6408834419725435"><ele>313.5</ele><time>2026-04-18T14:16:24Z</time></trkpt><trkpt lat="45.22495318988921" lon="7.641012653988434"><ele>313.75</ele><time>2026-04-18T14:16:25Z</time></trkpt><trkpt lat="45.22504139215993" lon="7.641142690409883"><ele>314.0</ele><time>2026-04-18T14:16:26Z</time></trkpt><trkpt lat="45.22512219534843" lon="7.641258735183271"><ele>314.0</ele><time>2026-04-18T14:16:27Z</time></trkpt><trkpt lat="45.22520596536234" lon="7.641367111035071"><ele>314.0</ele><time>2026-04-18T14:16:28Z</time></trkpt><trkpt lat="45.225284703167695" lon="7.641485709761919"><ele>314.0</ele><time>2026-04-18T14:16:29Z</time></trkpt><trkpt lat="45.225365889657034" lon="7.641609387404901"><ele>314.0</ele><time>2026-04-18T14:16:30Z</time></trkpt><trkpt lat="45.225453560281316" lon="7.6417424455305545"><ele>314.0</ele><time>2026-04-18T14:16:31Z</time></trkpt><trkpt lat="45.22554428325576" lon="7.64188035078834"><ele>314.0</ele><time>2026-04-18T14:16:32Z</time></trkpt><trkpt lat="45.2256385737669" lon="7.642024110299304"><ele>314.0</ele><time>2026-04-18T14:16:33Z</time></trkpt><trkpt lat="45.22572955790023" lon="7.642166861318885"><ele>314.0</ele><time>2026-04-18T14:16:34Z</time></trkpt><trkpt lat="45.22581381335516" lon="7.6422972228667225"><ele>314.0</ele><time>2026-04-18T14:16:35Z</time></trkpt><trkpt lat="45.225894018824285" lon="7.642416565896801"><ele>314.0</ele><time>2026-04-18T14:16:36Z</time></trkpt><trkpt lat="45.225964680890506" lon="7.64253600037315"><ele>314.0</ele><time>2026-04-18T14:16:37Z</time></trkpt><trkpt lat="45.226035272255366" lon="7.642647298672649"><ele>314.0</ele><time>2026-04-18T14:16:38Z</time></trkpt><trkpt lat="45.22610196610327" lon="7.642754169637757"><ele>314.0</ele><time>2026-04-18T14:16:39Z</time></trkpt><trkpt lat="45.22617504470695" lon="7.64287091526955"><ele>314.25</ele><time>2026-04-18T14:16:40Z</time></trkpt><trkpt lat="45.226257813082206" lon="7.642994662651775"><ele>314.5</ele><time>2026-04-18T14:16:41Z</time></trkpt><trkpt lat="45.22634145675576" lon="7.643122576435311"><ele>314.75</ele><time>2026-04-18T14:16:42Z</time></trkpt><trkpt lat="45.226419070860615" lon="7.643252586812906"><ele>315.0</ele><time>2026-04-18T14:16:43Z</time></trkpt><trkpt lat="45.22649830096158" lon="7.643381409440439"><ele>314.75</ele><time>2026-04-18T14:16:44Z</time></trkpt><trkpt lat="45.226579157891805" lon="7.6435050669806195"><ele>314.5</ele><time>2026-04-18T14:16:45Z</time></trkpt><trkpt lat="45.22665675254416" lon="7.643633938058341"><ele>314.25</ele><time>2026-04-18T14:16:46Z</time></trkpt><trkpt lat="45.226732576597975" lon="7.643768185622627"><ele>314.0</ele><time>2026-04-18T14:16:47Z</time></trkpt><trkpt lat="45.2268110492988" lon="7.643900276201884"><ele>314.0</ele><time>2026-04-18T14:16:48Z</time></trkpt><trkpt lat="45.226887328962405" lon="7.644033448634248"><ele>314.0</ele><time>2026-04-18T14:16:49Z</time></trkpt><trkpt lat="45.22696056088828" lon="7.6441605308294545"><ele>314.0</ele><time>2026-04-18T14:16:50Z</time></trkpt><trkpt lat="45.22703595727809" lon="7.644290701133887"><ele>314.0</ele><time>2026-04-18T14:16:51Z</time></trkpt><trkpt lat="45.227114128606836" lon="7.644427066785642"><ele>313.75</ele><time>2026-04-18T14:16:52Z</time></trkpt><trkpt lat="45.227193827762946" lon="7.644570285683722"><ele>313.5</ele><time>2026-04-18T14:16:53Z</time></trkpt><trkpt lat="45.227275533169006" lon="7.644716060153043"><ele>313.25</ele><time>2026-04-18T14:16:54Z</time></trkpt><trkpt lat="45.227359844042326" lon="7.644867366005052"><ele>313.0</ele><time>2026-04-18T14:16:55Z</time></trkpt><trkpt lat="45.22744318947857" lon="7.645022899214013"><ele>313.75</ele><time>2026-04-18T14:16:56Z</time></trkpt><trkpt lat="45.22752854501739" lon="7.645174855222403"><ele>314.5</ele><time>2026-04-18T14:16:57Z</time></trkpt><trkpt lat="45.227611069695314" lon="7.645318449549402"><ele>315.25</ele><time>2026-04-18T14:16:58Z</time></trkpt><trkpt lat="45.227685613133566" lon="7.645446120115988"><ele>316.0</ele><time>2026-04-18T14:16:59Z</time></trkpt><trkpt lat="45.227750466268716" lon="7.645558110674267"><ele>316.40000000000003</ele><time>2026-04-18T14:17:00Z</time></trkpt><trkpt lat="45.22781201924241" lon="7.64566937407697"><ele>316.8</ele><time>2026-04-18T14:17:01Z</time></trkpt><trkpt lat="45.22786926480742" lon="7.645780788148865"><ele>317.20000000000005</ele><time>2026-04-18T14:17:02Z</time></trkpt><trkpt lat="45.227924248789044" lon="7.6458745773192085"><ele>317.6</ele><time>2026-04-18T14:17:03Z</time></trkpt><trkpt lat="45.22799309509649" lon="7.645955825298122"><ele>318.0</ele><time>2026-04-18T14:17:04Z</time></trkpt><trkpt lat="45.228085223694606" lon="7.64601890316816"><ele>318.6</ele><time>2026-04-18T14:17:05Z</time></trkpt><trkpt lat="45.22817770564325" lon="7.6460757810946625"><ele>319.20000000000005</ele><time>2026-04-18T14:17:06Z</time></trkpt><trkpt lat="45.228265166464176" lon="7.646132157932121"><ele>319.8</ele><time>2026-04-18T14:17:07Z</time></trkpt><trkpt lat="45.22835170712751" lon="7.64619204122217"><ele>320.40000000000003</ele><time>2026-04-18T14:17:08Z</time></trkpt><trkpt lat="45.228427293414285" lon="7.646247548406701"><ele>321.0</ele><time>2026-04-18T14:17:09Z</time></trkpt><trkpt lat="45.22850789997147" lon="7.646306362680214"><ele>321.8</ele><time>2026-04-18T14:17:10Z</time></trkpt><trkpt lat="45.228590004838345" lon="7.6463653900722965"><ele>322.6</ele><time>2026-04-18T14:17:11Z</time></trkpt><trkpt lat="45.22866997536617" lon="7.646428761038982"><ele>323.4</ele><time>2026-04-18T14:17:12Z</time></trkpt><trkpt lat="45.22874326385863" lon="7.646507351617336"><ele>324.2</ele><time>2026-04-18T14:17:13Z</time></trkpt><trkpt lat="45.228821048879695" lon="7.646599229908952"><ele>325.0</ele><time>2026-04-18T14:17:14Z</time></trkpt><trkpt lat="45.22889569982325" lon="7.646699698280161"><ele>325.0</ele><time>2026-04-18T14:17:15Z</time></trkpt><trkpt lat="45.22896448605441" lon="7.646809969939016"><ele>325.0</ele><time>2026-04-18T14:17:16Z</time></trkpt><trkpt lat="45.22902513495611" lon="7.646933159810817"><ele>325.0</ele><time>2026-04-18T14:17:17Z</time></trkpt><trkpt lat="45.22908342969166" lon="7.647057024445942"><ele>325.0</ele><time>2026-04-18T14:17:18Z</time></trkpt><trkpt lat="45.22914319700067" lon="7.647177999644433"><ele>325.0</ele><time>2026-04-18T14:17:19Z</time></trkpt><trkpt lat="45.22920138024684" lon="7.647295233894163"><ele>326.0</ele><time>2026-04-18T14:17:20Z</time></trkpt><trkpt lat="45.229259121768074" lon="7.647407634077586"><ele>327.0</ele><time>2026-04-18T14:17:21Z</time></trkpt><trkpt lat="45.229320248704646" lon="7.647525279157619"><ele>328.0</ele><time>2026-04-18T14:17:22Z</time></trkpt><trkpt lat="45.229376893933996" lon="7.647639965400824"><ele>329.0</ele><time>2026-04-18T14:17:23Z</time></trkpt><trkpt lat="45.22942705202217" lon="7.647751531278076"><ele>330.0</ele><time>2026-04-18T14:17:24Z</time></trkpt><trkpt lat="45.229484807833025" lon="7.647857175711113"><ele>330.4</ele><time>2026-04-18T14:17:25Z</time></trkpt><trkpt lat="45.22953629525735" lon="7.647956464583644"><ele>330.8</ele><time>2026-04-18T14:17:26Z</time></trkpt><trkpt lat="45.229601458809505" lon="7.648062139695275"><ele>331.20000000000005</ele><time>2026-04-18T14:17:27Z</time></trkpt><trkpt lat="45.229666028837215" lon="7.648157299332727"><ele>331.6</ele><time>2026-04-18T14:17:28Z</time></trkpt><trkpt lat="45.2297465359718" lon="7.648235844027114"><ele>332.0</ele><time>2026-04-18T14:17:29Z</time></trkpt><trkpt lat="45.2298300982351" lon="7.648308903330068"><ele>332.20000000000005</ele><time>2026-04-18T14:17:30Z</time></trkpt><trkpt lat="45.229923890656444" lon="7.648369703806292"><ele>332.4</ele><time>2026-04-18T14:17:31Z</time></trkpt><trkpt lat="45.23001936014581" lon="7.6484337427861275"><ele>332.6</ele><time>2026-04-18T14:17:32Z</time></trkpt><trkpt lat="45.230115415331696" lon="7.648498092723889"><ele>332.79999999999995</ele><time>2026-04-18T14:17:33Z</time></trkpt><trkpt lat="45.23020919008353" lon="7.648557602775116"><ele>333.0</ele><time>2026-04-18T14:17:34Z</time></trkpt><trkpt lat="45.23029812379671" lon="7.648613098123574"><ele>333.2</ele><time>2026-04-18T14:17:35Z</time></trkpt><trkpt lat="45.23037792021166" lon="7.648659608249019"><ele>333.4</ele><time>2026-04-18T14:17:36Z</time></trkpt><trkpt lat="45.23044975469309" lon="7.648693507239732"><ele>333.59999999999997</ele><time>2026-04-18T14:17:37Z</time></trkpt><trkpt lat="45.23055151580088" lon="7.64877382568927"><ele>333.79999999999995</ele><time>2026-04-18T14:17:39Z</time></trkpt><trkpt lat="45.23062781142878" lon="7.648819812688808"><ele>334.0</ele><time>2026-04-18T14:17:40Z</time></trkpt><trkpt lat="45.23074488574957" lon="7.648875290054664"><ele>334.25</ele><time>2026-04-18T14:17:41Z</time></trkpt><trkpt lat="45.23087078243585" lon="7.648952455368438"><ele>334.5</ele><time>2026-04-18T14:17:42Z</time></trkpt><trkpt lat="45.23100796664786" lon="7.649043494580776"><ele>334.75</ele><time>2026-04-18T14:17:43Z</time></trkpt><trkpt lat="45.231156195698254" lon="7.649131180546924"><ele>335.0</ele><time>2026-04-18T14:17:44Z</time></trkpt><trkpt lat="45.231277608251624" lon="7.64918981739343"><ele>335.0</ele><time>2026-04-18T14:17:45Z</time></trkpt><trkpt lat="45.23141658469279" lon="7.649280755606818"><ele>335.0</ele><time>2026-04-18T14:17:46Z</time></trkpt><trkpt lat="45.23155059620056" lon="7.649372855851006"><ele>335.0</ele><time>2026-04-18T14:17:47Z</time></trkpt><trkpt lat="45.231673828314065" lon="7.64945176612975"><ele>335.0</ele><time>2026-04-18T14:17:48Z</time></trkpt><trkpt lat="45.231802093663525" lon="7.649537105858045"><ele>334.6666666666667</ele><time>2026-04-18T14:17:49Z</time></trkpt><trkpt lat="45.23194170231016" lon="7.649614966020368"><ele>334.3333333333333</ele><time>2026-04-18T14:17:50Z</time></trkpt><trkpt lat="45.23208185927422" lon="7.649699428824275"><ele>334.0</ele><time>2026-04-18T14:17:51Z</time></trkpt><trkpt lat="45.23222348505571" lon="7.649791977930792"><ele>333.3333333333333</ele><time>2026-04-18T14:17:52Z</time></trkpt><trkpt lat="45.232365227712805" lon="7.649883907411425"><ele>332.6666666666667</ele><time>2026-04-18T14:17:53Z</time></trkpt><trkpt lat="45.23251065702573" lon="7.649970423498149"><ele>332.0</ele><time>2026-04-18T14:17:54Z</time></trkpt><trkpt lat="45.232651701544924" lon="7.6500596881458085"><ele>332.0</ele><time>2026-04-18T14:17:55Z</time></trkpt><trkpt lat="45.23279572336302" lon="7.650149114343856"><ele>332.0</ele><time>2026-04-18T14:17:56Z</time></trkpt><trkpt lat="45.23292676603761" lon="7.650234009012758"><ele>332.0</ele><time>2026-04-18T14:17:57Z</time></trkpt><trkpt lat="45.233055390070916" lon="7.650316126751695"><ele>332.0</ele><time>2026-04-18T14:17:58Z</time></trkpt><trkpt lat="45.23318771749271" lon="7.650404785610244"><ele>331.75</ele><time>2026-04-18T14:17:59Z</time></trkpt><trkpt lat="45.23331344343831" lon="7.650485341520892"><ele>331.5</ele><time>2026-04-18T14:18:00Z</time></trkpt><trkpt lat="45.23343443023098" lon="7.650569626458127"><ele>331.25</ele><time>2026-04-18T14:18:01Z</time></trkpt><trkpt lat="45.23355312615706" lon="7.65064146694151"><ele>331.0</ele><time>2026-04-18T14:18:02Z</time></trkpt><trkpt lat="45.23366887248276" lon="7.650707837453326"><ele>331.0</ele><time>2026-04-18T14:18:03Z</time></trkpt><trkpt lat="45.23378085701275" lon="7.650773906750156"><ele>331.0</ele><time>2026-04-18T14:18:04Z</time></trkpt><trkpt lat="45.23388798442277" lon="7.650836907719659"><ele>331.0</ele><time>2026-04-18T14:18:05Z</time></trkpt><trkpt lat="45.23398715288374" lon="7.650899223618103"><ele>331.0</ele><time>2026-04-18T14:18:06Z</time></trkpt><trkpt lat="45.2340793492013" lon="7.650957113692042"><ele>331.0</ele><time>2026-04-18T14:18:07Z</time></trkpt><trkpt lat="45.23416139597947" lon="7.651006140253693"><ele>330.8</ele><time>2026-04-18T14:18:08Z</time></trkpt><trkpt lat="45.2342222308959" lon="7.651064414671293"><ele>330.6</ele><time>2026-04-18T14:18:09Z</time></trkpt><trkpt lat="45.234239702602004" lon="7.651163241372653"><ele>330.4</ele><time>2026-04-18T14:18:11Z</time></trkpt><trkpt lat="45.23425885613483" lon="7.65127659548559"><ele>330.2</ele><time>2026-04-18T14:18:13Z</time></trkpt><trkpt lat="45.2343137358027" lon="7.6514399751096045"><ele>330.0</ele><time>2026-04-18T14:18:15Z</time></trkpt><trkpt lat="45.23441335107045" lon="7.651421058225277"><ele>329.6</ele><time>2026-04-18T14:18:16Z</time></trkpt><trkpt lat="45.23451049798195" lon="7.651378527073563"><ele>329.2</ele><time>2026-04-18T14:18:17Z</time></trkpt><trkpt lat="45.234617924510566" lon="7.651347731637134"><ele>328.79999999999995</ele><time>2026-04-18T14:18:18Z</time></trkpt><trkpt lat="45.23472389600299" lon="7.651367567771903"><ele>328.4</ele><time>2026-04-18T14:18:19Z</time></trkpt><trkpt lat="45.234825130539875" lon="7.651418188008254"><ele>328.0</ele><time>2026-04-18T14:18:20Z</time></trkpt><trkpt lat="45.23492278372753" lon="7.6514764811335025"><ele>329.0</ele><time>2026-04-18T14:18:21Z</time></trkpt><trkpt lat="45.235015311067365" lon="7.651544545509059"><ele>330.0</ele><time>2026-04-18T14:18:22Z</time></trkpt><trkpt lat="45.23510800905484" lon="7.651612850404392"><ele>331.0</ele><time>2026-04-18T14:18:23Z</time></trkpt><trkpt lat="45.235201093424685" lon="7.651674335581183"><ele>332.0</ele><time>2026-04-18T14:18:24Z</time></trkpt><trkpt lat="45.23529915765627" lon="7.651734285304207"><ele>333.0</ele><time>2026-04-18T14:18:25Z</time></trkpt><trkpt lat="45.23539303398301" lon="7.6517885174867954"><ele>333.0</ele><time>2026-04-18T14:18:26Z</time></trkpt><trkpt lat="45.23548792359691" lon="7.651844653691824"><ele>333.0</ele><time>2026-04-18T14:18:27Z</time></trkpt><trkpt lat="45.23558718141833" lon="7.651902603291279"><ele>333.0</ele><time>2026-04-18T14:18:28Z</time></trkpt><trkpt lat="45.2356849557437" lon="7.651971868429093"><ele>333.0</ele><time>2026-04-18T14:18:29Z</time></trkpt><trkpt lat="45.23578859856446" lon="7.652039062170831"><ele>333.0</ele><time>2026-04-18T14:18:30Z</time></trkpt><trkpt lat="45.23589306994904" lon="7.652102663333501"><ele>333.25</ele><time>2026-04-18T14:18:31Z</time></trkpt><trkpt lat="45.23600393180369" lon="7.65216846937422"><ele>333.5</ele><time>2026-04-18T14:18:32Z</time></trkpt><trkpt lat="45.236115049985614" lon="7.652239023488124"><ele>333.75</ele><time>2026-04-18T14:18:33Z</time></trkpt><trkpt lat="45.23623013182531" lon="7.6523126184964925"><ele>334.0</ele><time>2026-04-18T14:18:34Z</time></trkpt><trkpt lat="45.23634522258775" lon="7.652384327912333"><ele>334.0</ele><time>2026-04-18T14:18:35Z</time></trkpt><trkpt lat="45.236446988933" lon="7.652453832757907"><ele>334.0</ele><time>2026-04-18T14:18:36Z</time></trkpt><trkpt lat="45.23655145062877" lon="7.652519480037877"><ele>334.0</ele><time>2026-04-18T14:18:37Z</time></trkpt><trkpt lat="45.23666076896217" lon="7.652584291747233"><ele>334.0</ele><time>2026-04-18T14:18:38Z</time></trkpt><trkpt lat="45.23677367876837" lon="7.652653353192897"><ele>334.5</ele><time>2026-04-18T14:18:39Z</time></trkpt><trkpt lat="45.236886956363676" lon="7.652725217626513"><ele>335.0</ele><time>2026-04-18T14:18:40Z</time></trkpt><trkpt lat="45.237002832566084" lon="7.652797132464388"><ele>335.5</ele><time>2026-04-18T14:18:41Z</time></trkpt><trkpt lat="45.23711908764814" lon="7.652867660885188"><ele>336.0</ele><time>2026-04-18T14:18:42Z</time></trkpt><trkpt lat="45.23722481676658" lon="7.652937501863777"><ele>336.0</ele><time>2026-04-18T14:18:43Z</time></trkpt><trkpt lat="45.23732987429039" lon="7.652995178137927"><ele>336.0</ele><time>2026-04-18T14:18:44Z</time></trkpt><trkpt lat="45.23742405409412" lon="7.653052375123052"><ele>336.0</ele><time>2026-04-18T14:18:45Z</time></trkpt><trkpt lat="45.237528926232926" lon="7.65310056956465"><ele>336.0</ele><time>2026-04-18T14:18:46Z</time></trkpt><trkpt lat="45.237638185933356" lon="7.653151385452397"><ele>336.0</ele><time>2026-04-18T14:18:47Z</time></trkpt><trkpt lat="45.23775413242245" lon="7.653200453345198"><ele>336.0</ele><time>2026-04-18T14:18:48Z</time></trkpt><trkpt lat="45.23787613379024" lon="7.65325202834917"><ele>336.0</ele><time>2026-04-18T14:18:49Z</time></trkpt><trkpt lat="45.23800866649507" lon="7.653312009030917"><ele>336.0</ele><time>2026-04-18T14:18:50Z</time></trkpt><trkpt lat="45.23814284758361" lon="7.653352962509238"><ele>336.0</ele><time>2026-04-18T14:18:51Z</time></trkpt><trkpt lat="45.238277790987375" lon="7.653394743071849"><ele>335.0</ele><time>2026-04-18T14:18:52Z</time></trkpt><trkpt lat="45.23841355802728" lon="7.6534453660758395"><ele>334.0</ele><time>2026-04-18T14:18:53Z</time></trkpt><trkpt lat="45.23854956469378" lon="7.653497157501793"><ele>333.0</ele><time>2026-04-18T14:18:54Z</time></trkpt><trkpt lat="45.2386870609497" lon="7.653543153281506"><ele>332.0</ele><time>2026-04-18T14:18:55Z</time></trkpt><trkpt lat="45.23882846082348" lon="7.653586381117609"><ele>330.33333333333337</ele><time>2026-04-18T14:18:56Z</time></trkpt><trkpt lat="45.23897339217933" lon="7.653635085885021"><ele>328.6666666666667</ele><time>2026-04-18T14:18:57Z</time></trkpt><trkpt lat="45.23911956947188" lon="7.653687604912586"><ele>327.0</ele><time>2026-04-18T14:18:58Z</time></trkpt><trkpt lat="45.23927778605065" lon="7.653744755482452"><ele>327.0</ele><time>2026-04-18T14:18:59Z</time></trkpt><trkpt lat="45.239430367713695" lon="7.653801706664089"><ele>327.0</ele><time>2026-04-18T14:19:00Z</time></trkpt><trkpt lat="45.23957939777387" lon="7.653854257395343"><ele>327.0</ele><time>2026-04-18T14:19:01Z</time></trkpt><trkpt lat="45.23973774995362" lon="7.653905037704832"><ele>325.0</ele><time>2026-04-18T14:19:02Z</time></trkpt><trkpt lat="45.23988858289442" lon="7.653962947005765"><ele>323.0</ele><time>2026-04-18T14:19:03Z</time></trkpt><trkpt lat="45.24004133759045" lon="7.6540232440867095"><ele>321.0</ele><time>2026-04-18T14:19:04Z</time></trkpt><trkpt lat="45.24019691383986" lon="7.654076417898842"><ele>321.0</ele><time>2026-04-18T14:19:05Z</time></trkpt><trkpt lat="45.24034992192961" lon="7.654129267758139"><ele>321.0</ele><time>2026-04-18T14:19:06Z</time></trkpt><trkpt lat="45.24050567570638" lon="7.654181309556568"><ele>321.0</ele><time>2026-04-18T14:19:07Z</time></trkpt><trkpt lat="45.24065670043213" lon="7.65422978795547"><ele>319.75</ele><time>2026-04-18T14:19:08Z</time></trkpt><trkpt lat="45.240799053974946" lon="7.65427156143007"><ele>318.5</ele><time>2026-04-18T14:19:09Z</time></trkpt><trkpt lat="45.24093673976323" lon="7.654323722097277"><ele>317.25</ele><time>2026-04-18T14:19:10Z</time></trkpt><trkpt lat="45.241070815507705" lon="7.654370924035523"><ele>316.0</ele><time>2026-04-18T14:19:11Z</time></trkpt><trkpt lat="45.241195932967806" lon="7.654415067904922"><ele>316.0</ele><time>2026-04-18T14:19:12Z</time></trkpt><trkpt lat="45.241304940467224" lon="7.654495175721228"><ele>316.0</ele><time>2026-04-18T14:19:13Z</time></trkpt><trkpt lat="45.24140238477168" lon="7.6545806521259525"><ele>316.0</ele><time>2026-04-18T14:19:14Z</time></trkpt><trkpt lat="45.241483338449264" lon="7.654680678210285"><ele>316.0</ele><time>2026-04-18T14:19:15Z</time></trkpt><trkpt lat="45.24154540807667" lon="7.654796517911353"><ele>316.0</ele><time>2026-04-18T14:19:16Z</time></trkpt><trkpt lat="45.24159854164579" lon="7.654914542226705"><ele>317.5</ele><time>2026-04-18T14:19:17Z</time></trkpt><trkpt lat="45.241646201988345" lon="7.655037840759942"><ele>319.0</ele><time>2026-04-18T14:19:18Z</time></trkpt><trkpt lat="45.241690746412644" lon="7.65515967054646"><ele>320.5</ele><time>2026-04-18T14:19:19Z</time></trkpt><trkpt lat="45.2417467481105" lon="7.65526105188917"><ele>322.0</ele><time>2026-04-18T14:19:20Z</time></trkpt><trkpt lat="45.24178654563721" lon="7.655355820173351"><ele>323.5</ele><time>2026-04-18T14:19:21Z</time></trkpt><trkpt lat="45.24183633721369" lon="7.655430559917784"><ele>325.0</ele><time>2026-04-18T14:19:22Z</time></trkpt><trkpt lat="45.241889125629754" lon="7.655492761976849"><ele>325.2</ele><time>2026-04-18T14:19:23Z</time></trkpt><trkpt lat="45.24194963715428" lon="7.655553839084582"><ele>325.4</ele><time>2026-04-18T14:19:24Z</time></trkpt><trkpt lat="45.242031202041304" lon="7.655613556412598"><ele>325.6</ele><time>2026-04-18T14:19:25Z</time></trkpt><trkpt lat="45.24214074144415" lon="7.655668533869393"><ele>325.8</ele><time>2026-04-18T14:19:26Z</time></trkpt><trkpt lat="45.24225484356438" lon="7.655725972688399"><ele>326.0</ele><time>2026-04-18T14:19:27Z</time></trkpt><trkpt lat="45.242363699207594" lon="7.655760718973963"><ele>327.75</ele><time>2026-04-18T14:19:28Z</time></trkpt><trkpt lat="45.24248424091541" lon="7.655794285556472"><ele>329.5</ele><time>2026-04-18T14:19:29Z</time></trkpt><trkpt lat="45.24262410805391" lon="7.6557779401984"><ele>331.25</ele><time>2026-04-18T14:19:30Z</time></trkpt><trkpt lat="45.24275615646583" lon="7.655784893369592"><ele>333.0</ele><time>2026-04-18T14:19:31Z</time></trkpt><trkpt lat="45.24287105172535" lon="7.6557985644017235"><ele>333.0</ele><time>2026-04-18T14:19:32Z</time></trkpt><trkpt lat="45.242961054940764" lon="7.655820441852615"><ele>333.0</ele><time>2026-04-18T14:19:33Z</time></trkpt><trkpt lat="45.24304977475847" lon="7.655791816223608"><ele>333.0</ele><time>2026-04-18T14:19:34Z</time></trkpt><trkpt lat="45.24311230964008" lon="7.6558031433829035"><ele>333.0</ele><time>2026-04-18T14:19:35Z</time></trkpt><trkpt lat="45.24320382655492" lon="7.65581165316127"><ele>333.0</ele><time>2026-04-18T14:19:36Z</time></trkpt><trkpt lat="45.24330031113557" lon="7.655815473850095"><ele>333.0</ele><time>2026-04-18T14:19:37Z</time></trkpt><trkpt lat="45.243407110963936" lon="7.655808535678742"><ele>333.6666666666667</ele><time>2026-04-18T14:19:38Z</time></trkpt><trkpt lat="45.24349124273255" lon="7.655821847528765"><ele>334.3333333333333</ele><time>2026-04-18T14:19:39Z</time></trkpt><trkpt lat="45.243575575306366" lon="7.655828830658824"><ele>335.0</ele><time>2026-04-18T14:19:40Z</time></trkpt><trkpt lat="45.24365070878885" lon="7.655831345597774"><ele>335.66666666666663</ele><time>2026-04-18T14:19:41Z</time></trkpt><trkpt lat="45.243736958235175" lon="7.655831264423102"><ele>336.3333333333333</ele><time>2026-04-18T14:19:42Z</time></trkpt><trkpt lat="45.24382217944149" lon="7.6558307757949695"><ele>337.0</ele><time>2026-04-18T14:19:43Z</time></trkpt><trkpt lat="45.24389692447385" lon="7.6558356114105175"><ele>337.20000000000005</ele><time>2026-04-18T14:19:44Z</time></trkpt><trkpt lat="45.24396589772428" lon="7.655843422032574"><ele>337.4</ele><time>2026-04-18T14:19:45Z</time></trkpt><trkpt lat="45.24408728008223" lon="7.655843673874614"><ele>337.6</ele><time>2026-04-18T14:19:47Z</time></trkpt><trkpt lat="45.244215919565164" lon="7.655861087036731"><ele>337.79999999999995</ele><time>2026-04-18T14:19:49Z</time></trkpt><trkpt lat="45.24430337823374" lon="7.655861700200542"><ele>338.0</ele><time>2026-04-18T14:19:50Z</time></trkpt><trkpt lat="45.24439122540751" lon="7.655867267167834"><ele>338.0</ele><time>2026-04-18T14:19:51Z</time></trkpt><trkpt lat="45.24446787123847" lon="7.655866392556929"><ele>338.0</ele><time>2026-04-18T14:19:52Z</time></trkpt><trkpt lat="45.24454836135612" lon="7.655875967906448"><ele>338.0</ele><time>2026-04-18T14:19:53Z</time></trkpt><trkpt lat="45.244635199092095" lon="7.655876104314944"><ele>338.0</ele><time>2026-04-18T14:19:54Z</time></trkpt><trkpt lat="45.244721319457035" lon="7.655877940635482"><ele>338.0</ele><time>2026-04-18T14:19:55Z</time></trkpt><trkpt lat="45.24480942967226" lon="7.6558769743468735"><ele>338.0</ele><time>2026-04-18T14:19:56Z</time></trkpt><trkpt lat="45.244889948777754" lon="7.655878251155792"><ele>337.6666666666667</ele><time>2026-04-18T14:19:57Z</time></trkpt><trkpt lat="45.24496694185706" lon="7.655882158741954"><ele>337.33333333333337</ele><time>2026-04-18T14:19:58Z</time></trkpt><trkpt lat="45.24505354537323" lon="7.6558830766059005"><ele>337.0</ele><time>2026-04-18T14:19:59Z</time></trkpt><trkpt lat="45.245141015179506" lon="7.6558875826197"><ele>336.6666666666667</ele><time>2026-04-18T14:20:00Z</time></trkpt><trkpt lat="45.2452267152964" lon="7.655890723237358"><ele>336.3333333333333</ele><time>2026-04-18T14:20:01Z</time></trkpt><trkpt lat="45.245313859026936" lon="7.655888995332493"><ele>336.0</ele><time>2026-04-18T14:20:02Z</time></trkpt><trkpt lat="45.24538789667979" lon="7.655895593201251"><ele>336.0</ele><time>2026-04-18T14:20:03Z</time></trkpt><trkpt lat="45.245458231024806" lon="7.6559039466230265"><ele>336.0</ele><time>2026-04-18T14:20:04Z</time></trkpt><trkpt lat="45.245525109010494" lon="7.655912374794841"><ele>336.0</ele><time>2026-04-18T14:20:05Z</time></trkpt><trkpt lat="45.24559595412407" lon="7.655921406485921"><ele>336.0</ele><time>2026-04-18T14:20:06Z</time></trkpt><trkpt lat="45.245665622696336" lon="7.655940284234803"><ele>336.0</ele><time>2026-04-18T14:20:07Z</time></trkpt><trkpt lat="45.24573626817285" lon="7.655981048379382"><ele>336.0</ele><time>2026-04-18T14:20:08Z</time></trkpt><trkpt lat="45.245808916770045" lon="7.656046699836634"><ele>336.0</ele><time>2026-04-18T14:20:09Z</time></trkpt><trkpt lat="45.245897517246824" lon="7.656107490379617"><ele>336.0</ele><time>2026-04-18T14:20:10Z</time></trkpt><trkpt lat="45.24600450605574" lon="7.656104714067374"><ele>336.0</ele><time>2026-04-18T14:20:11Z</time></trkpt><trkpt lat="45.24610631960794" lon="7.656011785493261"><ele>336.0</ele><time>2026-04-18T14:20:12Z</time></trkpt><trkpt lat="45.24622054197953" lon="7.65595316225411"><ele>336.0</ele><time>2026-04-18T14:20:13Z</time></trkpt><trkpt lat="45.24633928017615" lon="7.655914903429113"><ele>336.0</ele><time>2026-04-18T14:20:14Z</time></trkpt><trkpt lat="45.24647596565704" lon="7.65594204493809"><ele>336.0</ele><time>2026-04-18T14:20:15Z</time></trkpt><trkpt lat="45.24661092618518" lon="7.6559272100236"><ele>336.0</ele><time>2026-04-18T14:20:16Z</time></trkpt><trkpt lat="45.24674418595914" lon="7.655935835035196"><ele>336.0</ele><time>2026-04-18T14:20:17Z</time></trkpt><trkpt lat="45.24688025171676" lon="7.655943000286503"><ele>336.0</ele><time>2026-04-18T14:20:18Z</time></trkpt><trkpt lat="45.24702219029512" lon="7.65594282375823"><ele>336.0</ele><time>2026-04-18T14:20:19Z</time></trkpt><trkpt lat="45.24716798466585" lon="7.655949932803118"><ele>336.0</ele><time>2026-04-18T14:20:20Z</time></trkpt><trkpt lat="45.24731563142993" lon="7.655959586052086"><ele>336.0</ele><time>2026-04-18T14:20:21Z</time></trkpt><trkpt lat="45.24747909081575" lon="7.655973989359762"><ele>336.0</ele><time>2026-04-18T14:20:22Z</time></trkpt><trkpt lat="45.24762089326728" lon="7.655980433754245"><ele>336.0</ele><time>2026-04-18T14:20:23Z</time></trkpt><trkpt lat="45.247782006451" lon="7.655989143678846"><ele>336.0</ele><time>2026-04-18T14:20:24Z</time></trkpt><trkpt lat="45.24795366439662" lon="7.656002114693393"><ele>336.0</ele><time>2026-04-18T14:20:25Z</time></trkpt><trkpt lat="45.24811866459672" lon="7.65600233508636"><ele>336.0</ele><time>2026-04-18T14:20:26Z</time></trkpt><trkpt lat="45.24827440448452" lon="7.655999756365717"><ele>336.0</ele><time>2026-04-18T14:20:27Z</time></trkpt><trkpt lat="45.24842546457214" lon="7.656002912920998"><ele>336.3333333333333</ele><time>2026-04-18T14:20:28Z</time></trkpt><trkpt lat="45.248559556136044" lon="7.656004053270135"><ele>336.66666666666663</ele><time>2026-04-18T14:20:29Z</time></trkpt><trkpt lat="45.24871940232728" lon="7.656007271883258"><ele>337.0</ele><time>2026-04-18T14:20:30Z</time></trkpt><trkpt lat="45.24888466874819" lon="7.656019395149841"><ele>337.3333333333333</ele><time>2026-04-18T14:20:31Z</time></trkpt><trkpt lat="45.24905073218892" lon="7.656025272076549"><ele>337.6666666666667</ele><time>2026-04-18T14:20:32Z</time></trkpt><trkpt lat="45.249219473854346" lon="7.656033040058049"><ele>338.0</ele><time>2026-04-18T14:20:33Z</time></trkpt><trkpt lat="45.24938468410175" lon="7.656035919520858"><ele>338.0</ele><time>2026-04-18T14:20:34Z</time></trkpt><trkpt lat="45.24955989124014" lon="7.65603803829893"><ele>338.0</ele><time>2026-04-18T14:20:35Z</time></trkpt><trkpt lat="45.24972429706925" lon="7.656043604493715"><ele>338.0</ele><time>2026-04-18T14:20:36Z</time></trkpt><trkpt lat="45.24988327724836" lon="7.65605153113965"><ele>337.0</ele><time>2026-04-18T14:20:37Z</time></trkpt><trkpt lat="45.25004881807247" lon="7.656059942309541"><ele>336.0</ele><time>2026-04-18T14:20:38Z</time></trkpt><trkpt lat="45.25022140211256" lon="7.656071492206418"><ele>335.0</ele><time>2026-04-18T14:20:39Z</time></trkpt><trkpt lat="45.250400825389136" lon="7.6560747685184625"><ele>335.0</ele><time>2026-04-18T14:20:40Z</time></trkpt><trkpt lat="45.2505798681774" lon="7.656076939376376"><ele>335.0</ele><time>2026-04-18T14:20:41Z</time></trkpt><trkpt lat="45.25076595508193" lon="7.6560824193384205"><ele>335.0</ele><time>2026-04-18T14:20:42Z</time></trkpt><trkpt lat="45.25094999150201" lon="7.6560909734659655"><ele>335.0</ele><time>2026-04-18T14:20:43Z</time></trkpt><trkpt lat="45.251134802568764" lon="7.656096836047295"><ele>335.0</ele><time>2026-04-18T14:20:44Z</time></trkpt><trkpt lat="45.25131808986404" lon="7.65610104669969"><ele>335.0</ele><time>2026-04-18T14:20:45Z</time></trkpt><trkpt lat="45.25152135419528" lon="7.6561099676371445"><ele>335.33333333333337</ele><time>2026-04-18T14:20:46Z</time></trkpt><trkpt lat="45.25172049579055" lon="7.6561149351067606"><ele>335.6666666666667</ele><time>2026-04-18T14:20:47Z</time></trkpt><trkpt lat="45.251905472227584" lon="7.656116106970227"><ele>336.0</ele><time>2026-04-18T14:20:48Z</time></trkpt><trkpt lat="45.25210430423305" lon="7.656129323663711"><ele>336.0</ele><time>2026-04-18T14:20:49Z</time></trkpt><trkpt lat="45.25228643798213" lon="7.656134023430867"><ele>336.0</ele><time>2026-04-18T14:20:50Z</time></trkpt><trkpt lat="45.252458161377426" lon="7.6561341050987055"><ele>336.0</ele><time>2026-04-18T14:20:51Z</time></trkpt><trkpt lat="45.25263467838752" lon="7.656137920673121"><ele>336.0</ele><time>2026-04-18T14:20:52Z</time></trkpt><trkpt lat="45.2528158308956" lon="7.65614190271553"><ele>336.0</ele><time>2026-04-18T14:20:53Z</time></trkpt><trkpt lat="45.25298928766146" lon="7.6561468061741"><ele>336.0</ele><time>2026-04-18T14:20:54Z</time></trkpt><trkpt lat="45.25316320687053" lon="7.65615373013587"><ele>336.3333333333333</ele><time>2026-04-18T14:20:55Z</time></trkpt><trkpt lat="45.25333317520373" lon="7.65616164005584"><ele>336.66666666666663</ele><time>2026-04-18T14:20:56Z</time></trkpt><trkpt lat="45.253490305179504" lon="7.656169556185577"><ele>337.0</ele><time>2026-04-18T14:20:57Z</time></trkpt><trkpt lat="45.253638178206124" lon="7.656177967442773"><ele>337.0</ele><time>2026-04-18T14:20:58Z</time></trkpt><trkpt lat="45.253794046920746" lon="7.656183366516567"><ele>337.0</ele><time>2026-04-18T14:20:59Z</time></trkpt><trkpt lat="45.25396261796491" lon="7.656180750869404"><ele>337.0</ele><time>2026-04-18T14:21:00Z</time></trkpt><trkpt lat="45.25413105088794" lon="7.6561909758626365"><ele>336.0</ele><time>2026-04-18T14:21:01Z</time></trkpt><trkpt lat="45.25430455111725" lon="7.656200524587777"><ele>335.0</ele><time>2026-04-18T14:21:02Z</time></trkpt><trkpt lat="45.25447177972007" lon="7.656205803911931"><ele>334.0</ele><time>2026-04-18T14:21:03Z</time></trkpt><trkpt lat="45.25463756133004" lon="7.656212624197695"><ele>334.3333333333333</ele><time>2026-04-18T14:21:04Z</time></trkpt><trkpt lat="45.25479672809509" lon="7.656215824181216"><ele>334.6666666666667</ele><time>2026-04-18T14:21:05Z</time></trkpt><trkpt lat="45.25495421564092" lon="7.656222445876166"><ele>335.0</ele><time>2026-04-18T14:21:06Z</time></trkpt><trkpt lat="45.255113150319225" lon="7.656225708575016"><ele>335.0</ele><time>2026-04-18T14:21:07Z</time></trkpt><trkpt lat="45.2552693566596" lon="7.656228157877184"><ele>335.0</ele><time>2026-04-18T14:21:08Z</time></trkpt><trkpt lat="45.25541732652893" lon="7.656233420464988"><ele>335.0</ele><time>2026-04-18T14:21:09Z</time></trkpt><trkpt lat="45.25556065024091" lon="7.656237535066702"><ele>335.0</ele><time>2026-04-18T14:21:10Z</time></trkpt><trkpt lat="45.255704245803024" lon="7.656246780140489"><ele>335.0</ele><time>2026-04-18T14:21:11Z</time></trkpt><trkpt lat="45.2558532474199" lon="7.65625550281232"><ele>335.0</ele><time>2026-04-18T14:21:12Z</time></trkpt><trkpt lat="45.25599592431355" lon="7.65625969833487"><ele>335.0</ele><time>2026-04-18T14:21:13Z</time></trkpt><trkpt lat="45.25611735765152" lon="7.656265715101571"><ele>335.0</ele><time>2026-04-18T14:21:14Z</time></trkpt><trkpt lat="45.25621878080591" lon="7.656274690628238"><ele>335.0</ele><time>2026-04-18T14:21:15Z</time></trkpt><trkpt lat="45.25631934288228" lon="7.6562754373306605"><ele>335.0</ele><time>2026-04-18T14:21:16Z</time></trkpt><trkpt lat="45.25642476295092" lon="7.6562736564191"><ele>335.0</ele><time>2026-04-18T14:21:17Z</time></trkpt><trkpt lat="45.25651465452624" lon="7.656268744801043"><ele>335.0</ele><time>2026-04-18T14:21:18Z</time></trkpt><trkpt lat="45.25659654635026" lon="7.6562856852313015"><ele>335.0</ele><time>2026-04-18T14:21:19Z</time></trkpt><trkpt lat="45.25668217968572" lon="7.65628825295575"><ele>335.4</ele><time>2026-04-18T14:21:20Z</time></trkpt><trkpt lat="45.256757454960066" lon="7.656315988068464"><ele>335.8</ele><time>2026-04-18T14:21:21Z</time></trkpt><trkpt lat="45.256824501289366" lon="7.656366675727682"><ele>336.20000000000005</ele><time>2026-04-18T14:21:22Z</time></trkpt><trkpt lat="45.25689426121371" lon="7.656413219849937"><ele>336.6</ele><time>2026-04-18T14:21:23Z</time></trkpt><trkpt lat="45.256975256054886" lon="7.65642457092672"><ele>337.0</ele><time>2026-04-18T14:21:24Z</time></trkpt><trkpt lat="45.25713721467654" lon="7.65632796458427"><ele>337.0</ele><time>2026-04-18T14:21:26Z</time></trkpt><trkpt lat="45.257236969867925" lon="7.656299038147795"><ele>337.0</ele><time>2026-04-18T14:21:27Z</time></trkpt><trkpt lat="45.25734560037506" lon="7.656298810167698"><ele>337.0</ele><time>2026-04-18T14:21:28Z</time></trkpt><trkpt lat="45.257454925187126" lon="7.656306296032022"><ele>337.0</ele><time>2026-04-18T14:21:29Z</time></trkpt><trkpt lat="45.25757107904818" lon="7.656315610860794"><ele>337.0</ele><time>2026-04-18T14:21:30Z</time></trkpt><trkpt lat="45.25768147767887" lon="7.6563251762692"><ele>338.0</ele><time>2026-04-18T14:21:31Z</time></trkpt><trkpt lat="45.257802948444095" lon="7.656319279916254"><ele>339.0</ele><time>2026-04-18T14:21:32Z</time></trkpt><trkpt lat="45.25795721623219" lon="7.6563149917532085"><ele>340.0</ele><time>2026-04-18T14:21:33Z</time></trkpt><trkpt lat="45.25812329523616" lon="7.656328906458358"><ele>341.0</ele><time>2026-04-18T14:21:34Z</time></trkpt><trkpt lat="45.25828101315541" lon="7.65635005075482"><ele>341.20000000000005</ele><time>2026-04-18T14:21:35Z</time></trkpt><trkpt lat="45.25842284296044" lon="7.656361927276005"><ele>341.40000000000003</ele><time>2026-04-18T14:21:36Z</time></trkpt><trkpt lat="45.25853980456718" lon="7.656357354407309"><ele>341.6</ele><time>2026-04-18T14:21:37Z</time></trkpt><trkpt lat="45.25863079449974" lon="7.656361813483358"><ele>341.8</ele><time>2026-04-18T14:21:38Z</time></trkpt><trkpt lat="45.25872379751737" lon="7.656366065335762"><ele>342.0</ele><time>2026-04-18T14:21:39Z</time></trkpt><trkpt lat="45.25882476872865" lon="7.656373278821652"><ele>342.0</ele><time>2026-04-18T14:21:40Z</time></trkpt><trkpt lat="45.25893629245438" lon="7.6563757101119085"><ele>342.0</ele><time>2026-04-18T14:21:41Z</time></trkpt><trkpt lat="45.25905057663448" lon="7.656380656737761"><ele>342.0</ele><time>2026-04-18T14:21:42Z</time></trkpt><trkpt lat="45.25916887575788" lon="7.656387109604349"><ele>342.0</ele><time>2026-04-18T14:21:43Z</time></trkpt><trkpt lat="45.259295142038916" lon="7.656386738260556"><ele>342.25</ele><time>2026-04-18T14:21:44Z</time></trkpt><trkpt lat="45.259432438563486" lon="7.656386656359117"><ele>342.5</ele><time>2026-04-18T14:21:45Z</time></trkpt><trkpt lat="45.259566374589454" lon="7.656388138971824"><ele>342.75</ele><time>2026-04-18T14:21:46Z</time></trkpt><trkpt lat="45.2597094174489" lon="7.656399624243074"><ele>343.0</ele><time>2026-04-18T14:21:47Z</time></trkpt><trkpt lat="45.25983414779784" lon="7.656417312164209"><ele>343.25</ele><time>2026-04-18T14:21:48Z</time></trkpt><trkpt lat="45.259962248255334" lon="7.656417866739168"><ele>343.5</ele><time>2026-04-18T14:21:49Z</time></trkpt><trkpt lat="45.26008059556367" lon="7.656417790787876"><ele>343.75</ele><time>2026-04-18T14:21:50Z</time></trkpt><trkpt lat="45.260192242206244" lon="7.656423508211028"><ele>344.0</ele><time>2026-04-18T14:21:51Z</time></trkpt><trkpt lat="45.26030139389677" lon="7.656425511661014"><ele>344.0</ele><time>2026-04-18T14:21:52Z</time></trkpt><trkpt lat="45.26041900019804" lon="7.65641958614356"><ele>344.0</ele><time>2026-04-18T14:21:53Z</time></trkpt><trkpt lat="45.2605374701084" lon="7.656425116101972"><ele>344.0</ele><time>2026-04-18T14:21:54Z</time></trkpt><trkpt lat="45.26066563617898" lon="7.656431319245165"><ele>344.0</ele><time>2026-04-18T14:21:55Z</time></trkpt><trkpt lat="45.26079706833956" lon="7.65643949243284"><ele>344.0</ele><time>2026-04-18T14:21:56Z</time></trkpt><trkpt lat="45.260927244343485" lon="7.656441093308043"><ele>344.0</ele><time>2026-04-18T14:21:57Z</time></trkpt><trkpt lat="45.26105420745925" lon="7.656444097944455"><ele>344.0</ele><time>2026-04-18T14:21:58Z</time></trkpt><trkpt lat="45.26117642614158" lon="7.6564445905702"><ele>344.0</ele><time>2026-04-18T14:21:59Z</time></trkpt><trkpt lat="45.26129565419298" lon="7.656457002260403"><ele>344.0</ele><time>2026-04-18T14:22:00Z</time></trkpt><trkpt lat="45.26140535556103" lon="7.656461439673038"><ele>344.0</ele><time>2026-04-18T14:22:01Z</time></trkpt><trkpt lat="45.26150887126732" lon="7.6564680157905975"><ele>344.0</ele><time>2026-04-18T14:22:02Z</time></trkpt><trkpt lat="45.2616186665966" lon="7.656466845373869"><ele>344.0</ele><time>2026-04-18T14:22:03Z</time></trkpt><trkpt lat="45.261721047755344" lon="7.656471980081607"><ele>344.0</ele><time>2026-04-18T14:22:04Z</time></trkpt><trkpt lat="45.26179742108675" lon="7.656476495525627"><ele>343.5</ele><time>2026-04-18T14:22:05Z</time></trkpt><trkpt lat="45.2618729265269" lon="7.656487916655122"><ele>343.0</ele><time>2026-04-18T14:22:06Z</time></trkpt><trkpt lat="45.26193249799629" lon="7.656518386904232"><ele>342.5</ele><time>2026-04-18T14:22:07Z</time></trkpt><trkpt lat="45.26204560539016" lon="7.656620478703265"><ele>342.0</ele><time>2026-04-18T14:22:09Z</time></trkpt><trkpt lat="45.262113112259804" lon="7.65662584450035"><ele>341.5</ele><time>2026-04-18T14:22:10Z</time></trkpt><trkpt lat="45.26219449044394" lon="7.656585184553427"><ele>341.0</ele><time>2026-04-18T14:22:11Z</time></trkpt><trkpt lat="45.26228654034909" lon="7.6564961647280905"><ele>340.6666666666667</ele><time>2026-04-18T14:22:12Z</time></trkpt><trkpt lat="45.26241773165825" lon="7.656477730902175"><ele>340.3333333333333</ele><time>2026-04-18T14:22:13Z</time></trkpt><trkpt lat="45.26257372144521" lon="7.656454103647873"><ele>340.0</ele><time>2026-04-18T14:22:14Z</time></trkpt><trkpt lat="45.26276812032357" lon="7.656466876805112"><ele>340.0</ele><time>2026-04-18T14:22:15Z</time></trkpt><trkpt lat="45.26299369157518" lon="7.656494833670256"><ele>340.0</ele><time>2026-04-18T14:22:16Z</time></trkpt><trkpt lat="45.26320284160558" lon="7.656520416643272"><ele>340.0</ele><time>2026-04-18T14:22:17Z</time></trkpt><trkpt lat="45.2633984682563" lon="7.656521141039354"><ele>339.3333333333333</ele><time>2026-04-18T14:22:18Z</time></trkpt><trkpt lat="45.26357462579551" lon="7.656529801475466"><ele>338.6666666666667</ele><time>2026-04-18T14:22:19Z</time></trkpt><trkpt lat="45.26373596981851" lon="7.656577437988162"><ele>338.0</ele><time>2026-04-18T14:22:20Z</time></trkpt><trkpt lat="45.26389530577694" lon="7.656684887827526"><ele>338.0</ele><time>2026-04-18T14:22:21Z</time></trkpt><trkpt lat="45.26401628221666" lon="7.656875576456614"><ele>338.0</ele><time>2026-04-18T14:22:22Z</time></trkpt><trkpt lat="45.26412759293136" lon="7.657083257259999"><ele>338.0</ele><time>2026-04-18T14:22:23Z</time></trkpt><trkpt lat="45.26425110035277" lon="7.657307106707012"><ele>338.0</ele><time>2026-04-18T14:22:24Z</time></trkpt><trkpt lat="45.26435676864489" lon="7.657551696016245"><ele>338.0</ele><time>2026-04-18T14:22:25Z</time></trkpt><trkpt lat="45.26449553756596" lon="7.657741518922243"><ele>338.0</ele><time>2026-04-18T14:22:26Z</time></trkpt><trkpt lat="45.264676195829345" lon="7.657878423930067"><ele>341.0</ele><time>2026-04-18T14:22:27Z</time></trkpt><trkpt lat="45.264903044228426" lon="7.657975944578355"><ele>344.0</ele><time>2026-04-18T14:22:28Z</time></trkpt><trkpt lat="45.26515714350867" lon="7.658047636872758"><ele>344.0</ele><time>2026-04-18T14:22:29Z</time></trkpt><trkpt lat="45.26542513257794" lon="7.658098508853291"><ele>344.0</ele><time>2026-04-18T14:22:30Z</time></trkpt><trkpt lat="45.265702003547815" lon="7.658121096918753"><ele>345.0</ele><time>2026-04-18T14:22:31Z</time></trkpt><trkpt lat="45.265964318489196" lon="7.658118616155421"><ele>346.0</ele><time>2026-04-18T14:22:32Z</time></trkpt><trkpt lat="45.26618468297411" lon="7.658103794215956"><ele>346.0</ele><time>2026-04-18T14:22:33Z</time></trkpt><trkpt lat="45.26637380309896" lon="7.6581028125086785"><ele>346.0</ele><time>2026-04-18T14:22:34Z</time></trkpt><trkpt lat="45.266540139288296" lon="7.658104983315663"><ele>346.0</ele><time>2026-04-18T14:22:35Z</time></trkpt><trkpt lat="45.266697840904484" lon="7.658115909757346"><ele>346.5</ele><time>2026-04-18T14:22:36Z</time></trkpt><trkpt lat="45.266854439189274" lon="7.658123615583197"><ele>347.0</ele><time>2026-04-18T14:22:37Z</time></trkpt><trkpt lat="45.26700964885479" lon="7.658142963365586"><ele>347.5</ele><time>2026-04-18T14:22:38Z</time></trkpt><trkpt lat="45.26714477337908" lon="7.658147600862647"><ele>348.0</ele><time>2026-04-18T14:22:39Z</time></trkpt><trkpt lat="45.26728893340218" lon="7.658145729819631"><ele>347.0</ele><time>2026-04-18T14:22:40Z</time></trkpt><trkpt lat="45.26744115941956" lon="7.6581336397058335"><ele>346.0</ele><time>2026-04-18T14:22:41Z</time></trkpt><trkpt lat="45.267560192376955" lon="7.658157111662361"><ele>345.0</ele><time>2026-04-18T14:22:42Z</time></trkpt><trkpt lat="45.26769172506633" lon="7.658197337861675"><ele>344.0</ele><time>2026-04-18T14:22:43Z</time></trkpt><trkpt lat="45.26781186570712" lon="7.65829756729105"><ele>344.0</ele><time>2026-04-18T14:22:44Z</time></trkpt><trkpt lat="45.26785801023135" lon="7.658473099972069"><ele>344.0</ele><time>2026-04-18T14:22:45Z</time></trkpt><trkpt lat="45.2678860645041" lon="7.658659913235274"><ele>344.0</ele><time>2026-04-18T14:22:46Z</time></trkpt><trkpt lat="45.26792317500828" lon="7.658879802412384"><ele>344.0</ele><time>2026-04-18T14:22:47Z</time></trkpt><trkpt lat="45.2679580257534" lon="7.659096280896028"><ele>344.75</ele><time>2026-04-18T14:22:48Z</time></trkpt><trkpt lat="45.26800054981914" lon="7.659280078462213"><ele>345.5</ele><time>2026-04-18T14:22:49Z</time></trkpt><trkpt lat="45.268027380128245" lon="7.6594952963530325"><ele>346.25</ele><time>2026-04-18T14:22:50Z</time></trkpt><trkpt lat="45.2680617548007" lon="7.659701096353966"><ele>347.0</ele><time>2026-04-18T14:22:51Z</time></trkpt><trkpt lat="45.26809542677392" lon="7.65992571828617"><ele>341.0</ele><time>2026-04-18T14:22:52Z</time></trkpt><trkpt lat="45.26813200305143" lon="7.660154212389868"><ele>335.0</ele><time>2026-04-18T14:22:53Z</time></trkpt><trkpt lat="45.26817500651043" lon="7.660429032295372"><ele>329.0</ele><time>2026-04-18T14:22:54Z</time></trkpt><trkpt lat="45.26824654563219" lon="7.660746856803396"><ele>329.0</ele><time>2026-04-18T14:22:55Z</time></trkpt><trkpt lat="45.268347340590054" lon="7.661091124995051"><ele>329.0</ele><time>2026-04-18T14:22:56Z</time></trkpt><trkpt lat="45.26846367924357" lon="7.6614282797680495"><ele>331.0</ele><time>2026-04-18T14:22:57Z</time></trkpt><trkpt lat="45.26856437401684" lon="7.661791048092454"><ele>333.0</ele><time>2026-04-18T14:22:58Z</time></trkpt><trkpt lat="45.268685553759504" lon="7.662158385652202"><ele>336.0</ele><time>2026-04-18T14:22:59Z</time></trkpt><trkpt lat="45.26879981573603" lon="7.662503658172262"><ele>339.0</ele><time>2026-04-18T14:23:00Z</time></trkpt><trkpt lat="45.26890903246333" lon="7.662834462372698"><ele>329.0</ele><time>2026-04-18T14:23:01Z</time></trkpt><trkpt lat="45.26901398433311" lon="7.663140124600214"><ele>319.0</ele><time>2026-04-18T14:23:02Z</time></trkpt><trkpt lat="45.2691191518107" lon="7.663422454407873"><ele>322.66666666666663</ele><time>2026-04-18T14:23:03Z</time></trkpt><trkpt lat="45.26921906546315" lon="7.6636915626914055"><ele>326.3333333333333</ele><time>2026-04-18T14:23:04Z</time></trkpt><trkpt lat="45.26930764051796" lon="7.6639382349438385"><ele>330.0</ele><time>2026-04-18T14:23:05Z</time></trkpt><trkpt lat="45.26939765903498" lon="7.664171418669897"><ele>330.0</ele><time>2026-04-18T14:23:06Z</time></trkpt><trkpt lat="45.26947780505766" lon="7.66439903098531"><ele>330.0</ele><time>2026-04-18T14:23:07Z</time></trkpt><trkpt lat="45.26954459809783" lon="7.664657687985636"><ele>330.0</ele><time>2026-04-18T14:23:08Z</time></trkpt><trkpt lat="45.26959588134094" lon="7.664918024671673"><ele>332.3333333333333</ele><time>2026-04-18T14:23:09Z</time></trkpt><trkpt lat="45.2696584041151" lon="7.665168631101658"><ele>334.66666666666663</ele><time>2026-04-18T14:23:10Z</time></trkpt><trkpt lat="45.26969500096186" lon="7.66541153129229"><ele>337.0</ele><time>2026-04-18T14:23:11Z</time></trkpt><trkpt lat="45.269765189632565" lon="7.665647339070142"><ele>332.75</ele><time>2026-04-18T14:23:12Z</time></trkpt><trkpt lat="45.2697941464255" lon="7.6658431224687025"><ele>328.5</ele><time>2026-04-18T14:23:13Z</time></trkpt><trkpt lat="45.2698135127945" lon="7.666021340053877"><ele>324.25</ele><time>2026-04-18T14:23:14Z</time></trkpt><trkpt lat="45.2698417850708" lon="7.666171880870816"><ele>320.0</ele><time>2026-04-18T14:23:15Z</time></trkpt><trkpt lat="45.26997253964233" lon="7.666198023954696"><ele>320.0</ele><time>2026-04-18T14:23:17Z</time></trkpt><trkpt lat="45.270022937571035" lon="7.666114261619375"><ele>320.0</ele><time>2026-04-18T14:23:18Z</time></trkpt><trkpt lat="45.27004689505744" lon="7.665977181545019"><ele>320.0</ele><time>2026-04-18T14:23:19Z</time></trkpt><trkpt lat="45.27000699659601" lon="7.665807159382548"><ele>320.0</ele><time>2026-04-18T14:23:20Z</time></trkpt><trkpt lat="45.26993659782414" lon="7.665604371155304"><ele>317.0</ele><time>2026-04-18T14:23:21Z</time></trkpt><trkpt lat="45.26986232707638" lon="7.6653655349465515"><ele>314.0</ele><time>2026-04-18T14:23:22Z</time></trkpt><trkpt lat="45.26982442123974" lon="7.665112825025457"><ele>311.0</ele><time>2026-04-18T14:23:23Z</time></trkpt><trkpt lat="45.269787949378575" lon="7.664854561857222"><ele>317.33333333333337</ele><time>2026-04-18T14:23:24Z</time></trkpt><trkpt lat="45.26976014762229" lon="7.664605910613165"><ele>323.6666666666667</ele><time>2026-04-18T14:23:25Z</time></trkpt><trkpt lat="45.2697236361616" lon="7.664393070933855"><ele>330.0</ele><time>2026-04-18T14:23:26Z</time></trkpt><trkpt lat="45.269661830545836" lon="7.664180166284541"><ele>330.0</ele><time>2026-04-18T14:23:27Z</time></trkpt><trkpt lat="45.269618546100865" lon="7.6639562912892405"><ele>330.0</ele><time>2026-04-18T14:23:28Z</time></trkpt><trkpt lat="45.269563748045336" lon="7.663757191642946"><ele>330.0</ele><time>2026-04-18T14:23:29Z</time></trkpt><trkpt lat="45.26951374412476" lon="7.663577725072252"><ele>327.8</ele><time>2026-04-18T14:23:30Z</time></trkpt><trkpt lat="45.26946840333476" lon="7.663414562571297"><ele>325.6</ele><time>2026-04-18T14:23:31Z</time></trkpt><trkpt lat="45.269435410996635" lon="7.663286397077796"><ele>323.4</ele><time>2026-04-18T14:23:32Z</time></trkpt><trkpt lat="45.26942069423843" lon="7.663147676448443"><ele>321.2</ele><time>2026-04-18T14:23:34Z</time></trkpt><trkpt lat="45.269487519148896" lon="7.663144669401691"><ele>319.0</ele><time>2026-04-18T14:23:35Z</time></trkpt><trkpt lat="45.269557283192746" lon="7.663208813371777"><ele>319.0</ele><time>2026-04-18T14:23:36Z</time></trkpt><trkpt lat="45.26960312570195" lon="7.663323094390809"><ele>319.0</ele><time>2026-04-18T14:23:37Z</time></trkpt><trkpt lat="45.26963892839291" lon="7.66350044429784"><ele>319.0</ele><time>2026-04-18T14:23:38Z</time></trkpt><trkpt lat="45.26967791378677" lon="7.6637325938492245"><ele>319.0</ele><time>2026-04-18T14:23:39Z</time></trkpt><trkpt lat="45.26974796175095" lon="7.6639996083319835"><ele>309.0</ele><time>2026-04-18T14:23:40Z</time></trkpt><trkpt lat="45.26986021900032" lon="7.6643446713731915"><ele>299.0</ele><time>2026-04-18T14:23:41Z</time></trkpt><trkpt lat="45.269951226662776" lon="7.664675328503226"><ele>299.0</ele><time>2026-04-18T14:23:42Z</time></trkpt><trkpt lat="45.270020821660346" lon="7.665006076962013"><ele>299.0</ele><time>2026-04-18T14:23:43Z</time></trkpt><trkpt lat="45.27008841652796" lon="7.6652978405181"><ele>303.0</ele><time>2026-04-18T14:23:44Z</time></trkpt><trkpt lat="45.270181347420014" lon="7.6655729679170275"><ele>307.0</ele><time>2026-04-18T14:23:45Z</time></trkpt><trkpt lat="45.27029907460345" lon="7.665846548219371"><ele>311.0</ele><time>2026-04-18T14:23:46Z</time></trkpt><trkpt lat="45.270403059394475" lon="7.666101465825657"><ele>314.0</ele><time>2026-04-18T14:23:47Z</time></trkpt><trkpt lat="45.270486591268174" lon="7.6663770457882565"><ele>317.0</ele><time>2026-04-18T14:23:48Z</time></trkpt><trkpt lat="45.27055295454593" lon="7.666620677363623"><ele>320.0</ele><time>2026-04-18T14:23:49Z</time></trkpt><trkpt lat="45.27060089450734" lon="7.666860244358093"><ele>308.33333333333337</ele><time>2026-04-18T14:23:50Z</time></trkpt><trkpt lat="45.27065003152967" lon="7.66709242907166"><ele>296.6666666666667</ele><time>2026-04-18T14:23:51Z</time></trkpt><trkpt lat="45.270697423680716" lon="7.667319532607486"><ele>285.0</ele><time>2026-04-18T14:23:52Z</time></trkpt><trkpt lat="45.27074669313701" lon="7.667556453613233"><ele>286.6666666666667</ele><time>2026-04-18T14:23:53Z</time></trkpt><trkpt lat="45.2708018426159" lon="7.667793936425641"><ele>288.33333333333337</ele><time>2026-04-18T14:23:54Z</time></trkpt><trkpt lat="45.27083836045121" lon="7.667992814997243"><ele>290.0</ele><time>2026-04-18T14:23:55Z</time></trkpt><trkpt lat="45.27088364683763" lon="7.6681897590634485"><ele>290.0</ele><time>2026-04-18T14:23:56Z</time></trkpt><trkpt lat="45.27092442940721" lon="7.6683815879308534"><ele>290.0</ele><time>2026-04-18T14:23:57Z</time></trkpt><trkpt lat="45.27096109139137" lon="7.66856839456329"><ele>290.0</ele><time>2026-04-18T14:23:58Z</time></trkpt><trkpt lat="45.27099587409785" lon="7.668748546742401"><ele>290.0</ele><time>2026-04-18T14:23:59Z</time></trkpt><trkpt lat="45.27104026777998" lon="7.668932991895272"><ele>290.75</ele><time>2026-04-18T14:24:00Z</time></trkpt><trkpt lat="45.271069773123834" lon="7.6691122630394055"><ele>291.5</ele><time>2026-04-18T14:24:01Z</time></trkpt><trkpt lat="45.27110618355149" lon="7.669285296596829"><ele>292.25</ele><time>2026-04-18T14:24:02Z</time></trkpt><trkpt lat="45.27112703895692" lon="7.669455274432232"><ele>293.0</ele><time>2026-04-18T14:24:03Z</time></trkpt><trkpt lat="45.27117383989904" lon="7.66961242333012"><ele>295.0</ele><time>2026-04-18T14:24:04Z</time></trkpt><trkpt lat="45.271219633847714" lon="7.669761027226869"><ele>297.0</ele><time>2026-04-18T14:24:05Z</time></trkpt><trkpt lat="45.271299122755764" lon="7.669879688558468"><ele>299.0</ele><time>2026-04-18T14:24:06Z</time></trkpt><trkpt lat="45.271401903732404" lon="7.669985691237292"><ele>301.0</ele><time>2026-04-18T14:24:07Z</time></trkpt><trkpt lat="45.271563697253356" lon="7.669965367167197"><ele>293.3333333333333</ele><time>2026-04-18T14:24:08Z</time></trkpt><trkpt lat="45.271711458310975" lon="7.669907356290029"><ele>285.6666666666667</ele><time>2026-04-18T14:24:09Z</time></trkpt><trkpt lat="45.27189971365061" lon="7.669823126953597"><ele>278.0</ele><time>2026-04-18T14:24:10Z</time></trkpt><trkpt lat="45.27211015218286" lon="7.6697135110923504"><ele>275.0</ele><time>2026-04-18T14:24:11Z</time></trkpt><trkpt lat="45.27234603230823" lon="7.669627037678655"><ele>272.0</ele><time>2026-04-18T14:24:12Z</time></trkpt><trkpt lat="45.27259055878281" lon="7.669554633467252"><ele>272.0</ele><time>2026-04-18T14:24:13Z</time></trkpt><trkpt lat="45.27283603141547" lon="7.6694664330105295"><ele>272.0</ele><time>2026-04-18T14:24:14Z</time></trkpt><trkpt lat="45.27310654318884" lon="7.6693858329183335"><ele>273.0</ele><time>2026-04-18T14:24:15Z</time></trkpt><trkpt lat="45.27337001360272" lon="7.669296225772335"><ele>274.0</ele><time>2026-04-18T14:24:16Z</time></trkpt><trkpt lat="45.27361916399154" lon="7.669216099865648"><ele>274.0</ele><time>2026-04-18T14:24:17Z</time></trkpt><trkpt lat="45.273862868244485" lon="7.6691451039085035"><ele>274.0</ele><time>2026-04-18T14:24:18Z</time></trkpt><trkpt lat="45.27412547730524" lon="7.669066002162813"><ele>274.0</ele><time>2026-04-18T14:24:19Z</time></trkpt><trkpt lat="45.27431816024566" lon="7.668995811742209"><ele>274.0</ele><time>2026-04-18T14:24:20Z</time></trkpt><trkpt lat="45.27452630405317" lon="7.66892905135366"><ele>274.0</ele><time>2026-04-18T14:24:21Z</time></trkpt><trkpt lat="45.27473719184567" lon="7.668859905004701"><ele>273.0</ele><time>2026-04-18T14:24:22Z</time></trkpt><trkpt lat="45.274948201588344" lon="7.66878871152895"><ele>272.0</ele><time>2026-04-18T14:24:23Z</time></trkpt><trkpt lat="45.275158716216275" lon="7.668718129288305"><ele>271.0</ele><time>2026-04-18T14:24:24Z</time></trkpt><trkpt lat="45.27536838633965" lon="7.668645428688506"><ele>272.66666666666663</ele><time>2026-04-18T14:24:25Z</time></trkpt><trkpt lat="45.27556683394709" lon="7.668594339617304"><ele>274.3333333333333</ele><time>2026-04-18T14:24:26Z</time></trkpt><trkpt lat="45.27575331026107" lon="7.668535472550039"><ele>276.0</ele><time>2026-04-18T14:24:27Z</time></trkpt><trkpt lat="45.27593640666863" lon="7.668470129348871"><ele>276.0</ele><time>2026-04-18T14:24:28Z</time></trkpt><trkpt lat="45.27611132090357" lon="7.6683837024640695"><ele>276.0</ele><time>2026-04-18T14:24:29Z</time></trkpt><trkpt lat="45.27627273897793" lon="7.668257872543892"><ele>276.0</ele><time>2026-04-18T14:24:30Z</time></trkpt><trkpt lat="45.27642333155355" lon="7.668104161522213"><ele>276.0</ele><time>2026-04-18T14:24:31Z</time></trkpt><trkpt lat="45.276571088079955" lon="7.667929299356462"><ele>276.0</ele><time>2026-04-18T14:24:32Z</time></trkpt><trkpt lat="45.27671955575462" lon="7.6677679345397705"><ele>276.0</ele><time>2026-04-18T14:24:33Z</time></trkpt><trkpt lat="45.27686121896805" lon="7.667608738566077"><ele>276.0</ele><time>2026-04-18T14:24:34Z</time></trkpt><trkpt lat="45.27699820564478" lon="7.667461926338576"><ele>276.0</ele><time>2026-04-18T14:24:35Z</time></trkpt><trkpt lat="45.27712950614547" lon="7.6673192586553975"><ele>276.0</ele><time>2026-04-18T14:24:36Z</time></trkpt><trkpt lat="45.277257931287444" lon="7.667174715082798"><ele>274.3333333333333</ele><time>2026-04-18T14:24:37Z</time></trkpt><trkpt lat="45.277377550444676" lon="7.667018445505221"><ele>272.66666666666663</ele><time>2026-04-18T14:24:38Z</time></trkpt><trkpt lat="45.27751565483552" lon="7.666869957267849"><ele>271.0</ele><time>2026-04-18T14:24:39Z</time></trkpt><trkpt lat="45.27764935786784" lon="7.666748318570122"><ele>271.0</ele><time>2026-04-18T14:24:40Z</time></trkpt><trkpt lat="45.277770943711886" lon="7.666608022719275"><ele>271.0</ele><time>2026-04-18T14:24:41Z</time></trkpt><trkpt lat="45.277895814990295" lon="7.666474274545549"><ele>271.0</ele><time>2026-04-18T14:24:42Z</time></trkpt><trkpt lat="45.278015152733886" lon="7.6663526829412465"><ele>271.25</ele><time>2026-04-18T14:24:43Z</time></trkpt><trkpt lat="45.27810449711951" lon="7.666247766335418"><ele>271.5</ele><time>2026-04-18T14:24:44Z</time></trkpt><trkpt lat="45.278181915535995" lon="7.666167758518127"><ele>271.75</ele><time>2026-04-18T14:24:45Z</time></trkpt><trkpt lat="45.27827123483232" lon="7.666075491020989"><ele>272.0</ele><time>2026-04-18T14:24:46Z</time></trkpt><trkpt lat="45.27838092523596" lon="7.665963207087022"><ele>272.0</ele><time>2026-04-18T14:24:47Z</time></trkpt><trkpt lat="45.278485071094934" lon="7.6658498797759735"><ele>272.0</ele><time>2026-04-18T14:24:48Z</time></trkpt><trkpt lat="45.27859446557571" lon="7.6657293379381155"><ele>272.0</ele><time>2026-04-18T14:24:49Z</time></trkpt><trkpt lat="45.27870551213558" lon="7.665614703367208"><ele>272.0</ele><time>2026-04-18T14:24:50Z</time></trkpt><trkpt lat="45.278818126714484" lon="7.665495929936196"><ele>272.0</ele><time>2026-04-18T14:24:51Z</time></trkpt><trkpt lat="45.2789258607535" lon="7.665373800329437"><ele>272.0</ele><time>2026-04-18T14:24:52Z</time></trkpt><trkpt lat="45.279030485019106" lon="7.665263979557162"><ele>272.0</ele><time>2026-04-18T14:24:53Z</time></trkpt><trkpt lat="45.27912188588343" lon="7.6651664994371504"><ele>272.0</ele><time>2026-04-18T14:24:54Z</time></trkpt><trkpt lat="45.27920046301756" lon="7.665079496317374"><ele>272.6</ele><time>2026-04-18T14:24:55Z</time></trkpt><trkpt lat="45.279268717011796" lon="7.665002701141057"><ele>273.2</ele><time>2026-04-18T14:24:56Z</time></trkpt><trkpt lat="45.27934133396242" lon="7.664915043557613"><ele>273.8</ele><time>2026-04-18T14:24:57Z</time></trkpt><trkpt lat="45.27943656856679" lon="7.66481113778946"><ele>274.4</ele><time>2026-04-18T14:24:58Z</time></trkpt><trkpt lat="45.27953754164785" lon="7.664704129842831"><ele>275.0</ele><time>2026-04-18T14:24:59Z</time></trkpt><trkpt lat="45.279632606697604" lon="7.664593146368465"><ele>275.0</ele><time>2026-04-18T14:25:00Z</time></trkpt><trkpt lat="45.27973171496501" lon="7.664506595245204"><ele>275.0</ele><time>2026-04-18T14:25:01Z</time></trkpt><trkpt lat="45.2798332362775" lon="7.664411131415745"><ele>275.0</ele><time>2026-04-18T14:25:02Z</time></trkpt><trkpt lat="45.27993853055899" lon="7.664317641904395"><ele>275.0</ele><time>2026-04-18T14:25:03Z</time></trkpt><trkpt lat="45.280036869854854" lon="7.664193526848523"><ele>275.0</ele><time>2026-04-18T14:25:04Z</time></trkpt><trkpt lat="45.28014474567914" lon="7.664083490006359"><ele>275.0</ele><time>2026-04-18T14:25:05Z</time></trkpt><trkpt lat="45.28023631787195" lon="7.663983920192712"><ele>275.0</ele><time>2026-04-18T14:25:06Z</time></trkpt><trkpt lat="45.280323095389505" lon="7.663884288606275"><ele>275.0</ele><time>2026-04-18T14:25:07Z</time></trkpt><trkpt lat="45.28040716400347" lon="7.663800070028657"><ele>275.0</ele><time>2026-04-18T14:25:08Z</time></trkpt><trkpt lat="45.28048495391451" lon="7.663701315758877"><ele>275.0</ele><time>2026-04-18T14:25:09Z</time></trkpt><trkpt lat="45.280565415073596" lon="7.663617651538555"><ele>275.0</ele><time>2026-04-18T14:25:10Z</time></trkpt><trkpt lat="45.28066094186054" lon="7.66355969553933"><ele>275.0</ele><time>2026-04-18T14:25:11Z</time></trkpt><trkpt lat="45.28076191298288" lon="7.663529007727879"><ele>275.0</ele><time>2026-04-18T14:25:12Z</time></trkpt><trkpt lat="45.280849441442726" lon="7.6635360708126266"><ele>275.0</ele><time>2026-04-18T14:25:13Z</time></trkpt><trkpt lat="45.280951872581525" lon="7.663578632495607"><ele>275.0</ele><time>2026-04-18T14:25:14Z</time></trkpt><trkpt lat="45.281039618170894" lon="7.663681223704905"><ele>275.0</ele><time>2026-04-18T14:25:15Z</time></trkpt><trkpt lat="45.28117430708497" lon="7.663787466069771"><ele>275.0</ele><time>2026-04-18T14:25:16Z</time></trkpt><trkpt lat="45.28130554863178" lon="7.6638936325912494"><ele>273.0</ele><time>2026-04-18T14:25:17Z</time></trkpt><trkpt lat="45.28144412178038" lon="7.664022199741954"><ele>271.0</ele><time>2026-04-18T14:25:18Z</time></trkpt><trkpt lat="45.28158074513713" lon="7.664151955376425"><ele>269.0</ele><time>2026-04-18T14:25:19Z</time></trkpt><trkpt lat="45.28170474593654" lon="7.664275494180835"><ele>269.0</ele><time>2026-04-18T14:25:20Z</time></trkpt><trkpt lat="45.2818221233356" lon="7.664395441020787"><ele>269.0</ele><time>2026-04-18T14:25:21Z</time></trkpt><trkpt lat="45.281947173637086" lon="7.664503361738217"><ele>269.0</ele><time>2026-04-18T14:25:22Z</time></trkpt><trkpt lat="45.28207015493111" lon="7.664619877773808"><ele>269.0</ele><time>2026-04-18T14:25:23Z</time></trkpt><trkpt lat="45.28218254980489" lon="7.664734118423563"><ele>268.59999999999997</ele><time>2026-04-18T14:25:24Z</time></trkpt><trkpt lat="45.282290360216756" lon="7.664835848117044"><ele>268.2</ele><time>2026-04-18T14:25:25Z</time></trkpt><trkpt lat="45.28237867156651" lon="7.664931296615849"><ele>267.79999999999995</ele><time>2026-04-18T14:25:26Z</time></trkpt><trkpt lat="45.28245014130307" lon="7.665014282609618"><ele>267.4</ele><time>2026-04-18T14:25:27Z</time></trkpt><trkpt lat="45.28248086158371" lon="7.6651430501092355"><ele>267.0</ele><time>2026-04-18T14:25:28Z</time></trkpt><trkpt lat="45.282551275857045" lon="7.665233098939546"><ele>267.0</ele><time>2026-04-18T14:25:29Z</time></trkpt><trkpt lat="45.28269064887907" lon="7.665303918701473"><ele>267.0</ele><time>2026-04-18T14:25:31Z</time></trkpt><trkpt lat="45.28274889285817" lon="7.665232069666577"><ele>267.0</ele><time>2026-04-18T14:25:32Z</time></trkpt><trkpt lat="45.282779069481954" lon="7.66513389649003"><ele>267.0</ele><time>2026-04-18T14:25:33Z</time></trkpt><trkpt lat="45.28277903464931" lon="7.665012516092877"><ele>267.0</ele><time>2026-04-18T14:25:34Z</time></trkpt><trkpt lat="45.28272744164916" lon="7.664867035248089"><ele>267.0</ele><time>2026-04-18T14:25:35Z</time></trkpt><trkpt lat="45.28276887384325" lon="7.664668259864287"><ele>267.0</ele><time>2026-04-18T14:25:36Z</time></trkpt><trkpt lat="45.28280158058499" lon="7.664457879689253"><ele>267.0</ele><time>2026-04-18T14:25:37Z</time></trkpt><trkpt lat="45.28283661534751" lon="7.664211058252923"><ele>267.3333333333333</ele><time>2026-04-18T14:25:38Z</time></trkpt><trkpt lat="45.28287457803799" lon="7.663978756619881"><ele>267.66666666666663</ele><time>2026-04-18T14:25:39Z</time></trkpt><trkpt lat="45.28294951749007" lon="7.663774364440393"><ele>268.0</ele><time>2026-04-18T14:25:40Z</time></trkpt><trkpt lat="45.283071178200004" lon="7.663567289152194"><ele>268.3333333333333</ele><time>2026-04-18T14:25:41Z</time></trkpt><trkpt lat="45.28322040752858" lon="7.6633419995430945"><ele>268.6666666666667</ele><time>2026-04-18T14:25:42Z</time></trkpt><trkpt lat="45.28334844204374" lon="7.663145844196495"><ele>269.0</ele><time>2026-04-18T14:25:43Z</time></trkpt><trkpt lat="45.28349130822082" lon="7.663011132343063"><ele>269.0</ele><time>2026-04-18T14:25:44Z</time></trkpt><trkpt lat="45.283643498363695" lon="7.662924156785141"><ele>269.0</ele><time>2026-04-18T14:25:45Z</time></trkpt><trkpt lat="45.283760731338916" lon="7.662820699959698"><ele>269.0</ele><time>2026-04-18T14:25:46Z</time></trkpt><trkpt lat="45.28387064644795" lon="7.662748679533362"><ele>269.0</ele><time>2026-04-18T14:25:47Z</time></trkpt><trkpt lat="45.28396522162057" lon="7.662712579532408"><ele>268.8</ele><time>2026-04-18T14:25:48Z</time></trkpt><trkpt lat="45.284062665644264" lon="7.66275117694849"><ele>268.59999999999997</ele><time>2026-04-18T14:25:49Z</time></trkpt><trkpt lat="45.28414519275747" lon="7.662735965590524"><ele>268.4</ele><time>2026-04-18T14:25:50Z</time></trkpt><trkpt lat="45.28425460797637" lon="7.6625963940324056"><ele>268.2</ele><time>2026-04-18T14:25:52Z</time></trkpt><trkpt lat="45.284236103278275" lon="7.662472671775852"><ele>268.0</ele><time>2026-04-18T14:25:53Z</time></trkpt><trkpt lat="45.28417990261142" lon="7.66236963479456"><ele>268.0</ele><time>2026-04-18T14:25:54Z</time></trkpt><trkpt lat="45.28407743848265" lon="7.662290879288169"><ele>268.0</ele><time>2026-04-18T14:25:55Z</time></trkpt><trkpt lat="45.28394648704848" lon="7.662217123169244"><ele>268.0</ele><time>2026-04-18T14:25:56Z</time></trkpt><trkpt lat="45.28384783825674" lon="7.662047008854727"><ele>268.0</ele><time>2026-04-18T14:25:57Z</time></trkpt><trkpt lat="45.28373687685452" lon="7.661832019489831"><ele>268.66666666666663</ele><time>2026-04-18T14:25:58Z</time></trkpt><trkpt lat="45.28361987406058" lon="7.661621719500379"><ele>269.3333333333333</ele><time>2026-04-18T14:25:59Z</time></trkpt><trkpt lat="45.28352120526634" lon="7.661427809192949"><ele>270.0</ele><time>2026-04-18T14:26:00Z</time></trkpt><trkpt lat="45.283419957770406" lon="7.661241135493792"><ele>271.5</ele><time>2026-04-18T14:26:01Z</time></trkpt><trkpt lat="45.28332866432992" lon="7.661060114696579"><ele>273.0</ele><time>2026-04-18T14:26:02Z</time></trkpt><trkpt lat="45.283247654786365" lon="7.660903061847917"><ele>274.5</ele><time>2026-04-18T14:26:03Z</time></trkpt><trkpt lat="45.283193856586585" lon="7.6607832100131805"><ele>276.0</ele><time>2026-04-18T14:26:04Z</time></trkpt><trkpt lat="45.28316953797983" lon="7.660687665827855"><ele>276.0</ele><time>2026-04-18T14:26:05Z</time></trkpt><trkpt lat="45.28318333243898" lon="7.66059920328005"><ele>276.0</ele><time>2026-04-18T14:26:06Z</time></trkpt><trkpt lat="45.28333504648061" lon="7.66040543838718"><ele>276.0</ele><time>2026-04-18T14:26:08Z</time></trkpt><trkpt lat="45.28347439306949" lon="7.660386325957498"><ele>276.0</ele><time>2026-04-18T14:26:09Z</time></trkpt><trkpt lat="45.283637010521474" lon="7.660313503772258"><ele>275.0</ele><time>2026-04-18T14:26:10Z</time></trkpt><trkpt lat="45.28383059327551" lon="7.660240482264978"><ele>274.0</ele><time>2026-04-18T14:26:11Z</time></trkpt><trkpt lat="45.28405333668659" lon="7.66012234268465"><ele>273.0</ele><time>2026-04-18T14:26:12Z</time></trkpt><trkpt lat="45.28430304229855" lon="7.659984472151882"><ele>273.0</ele><time>2026-04-18T14:26:13Z</time></trkpt><trkpt lat="45.28455835512406" lon="7.659835925365652"><ele>273.0</ele><time>2026-04-18T14:26:14Z</time></trkpt><trkpt lat="45.284781957016136" lon="7.659700138147188"><ele>272.5</ele><time>2026-04-18T14:26:15Z</time></trkpt><trkpt lat="45.28499402689027" lon="7.659569599326843"><ele>272.0</ele><time>2026-04-18T14:26:16Z</time></trkpt><trkpt lat="45.28520357470306" lon="7.659440700013736"><ele>273.0</ele><time>2026-04-18T14:26:17Z</time></trkpt><trkpt lat="45.28541219421317" lon="7.659313256128822"><ele>274.0</ele><time>2026-04-18T14:26:18Z</time></trkpt><trkpt lat="45.285607284887426" lon="7.659192977480553"><ele>275.0</ele><time>2026-04-18T14:26:19Z</time></trkpt><trkpt lat="45.28578751265399" lon="7.659083758243501"><ele>275.0</ele><time>2026-04-18T14:26:20Z</time></trkpt><trkpt lat="45.28596605968472" lon="7.658973402790255"><ele>275.0</ele><time>2026-04-18T14:26:21Z</time></trkpt><trkpt lat="45.2861330607292" lon="7.65882521395148"><ele>275.0</ele><time>2026-04-18T14:26:22Z</time></trkpt><trkpt lat="45.28627136916603" lon="7.658613408584267"><ele>276.33333333333337</ele><time>2026-04-18T14:26:23Z</time></trkpt><trkpt lat="45.286381938069226" lon="7.65834389669414"><ele>277.6666666666667</ele><time>2026-04-18T14:26:24Z</time></trkpt><trkpt lat="45.28647005032559" lon="7.658085328369544"><ele>279.0</ele><time>2026-04-18T14:26:25Z</time></trkpt><trkpt lat="45.28654591231678" lon="7.657836517620076"><ele>279.5</ele><time>2026-04-18T14:26:26Z</time></trkpt><trkpt lat="45.28659780393974" lon="7.657526649298266"><ele>280.0</ele><time>2026-04-18T14:26:27Z</time></trkpt><trkpt lat="45.28662930429513" lon="7.657183801509788"><ele>280.5</ele><time>2026-04-18T14:26:28Z</time></trkpt><trkpt lat="45.2866454469772" lon="7.656851697394344"><ele>281.0</ele><time>2026-04-18T14:26:29Z</time></trkpt><trkpt lat="45.28666000169492" lon="7.65653864874908"><ele>281.0</ele><time>2026-04-18T14:26:30Z</time></trkpt><trkpt lat="45.286677953744544" lon="7.656242953697125"><ele>281.0</ele><time>2026-04-18T14:26:31Z</time></trkpt><trkpt lat="45.286699662455085" lon="7.655988885903463"><ele>281.0</ele><time>2026-04-18T14:26:32Z</time></trkpt><trkpt lat="45.28675030673899" lon="7.655758619758008"><ele>280.75</ele><time>2026-04-18T14:26:33Z</time></trkpt><trkpt lat="45.286787093567895" lon="7.655565271327133"><ele>280.5</ele><time>2026-04-18T14:26:34Z</time></trkpt><trkpt lat="45.286874682162725" lon="7.655420944160517"><ele>280.25</ele><time>2026-04-18T14:26:35Z</time></trkpt><trkpt lat="45.287002668159644" lon="7.655342846635962"><ele>280.0</ele><time>2026-04-18T14:26:36Z</time></trkpt><trkpt lat="45.28713882406564" lon="7.655321101616882"><ele>279.66666666666663</ele><time>2026-04-18T14:26:37Z</time></trkpt><trkpt lat="45.28728166439513" lon="7.655338135223686"><ele>279.3333333333333</ele><time>2026-04-18T14:26:38Z</time></trkpt><trkpt lat="45.287453352083375" lon="7.655351226651165"><ele>279.0</ele><time>2026-04-18T14:26:39Z</time></trkpt><trkpt lat="45.28766457582614" lon="7.655410838904763"><ele>279.0</ele><time>2026-04-18T14:26:40Z</time></trkpt><trkpt lat="45.28786522130443" lon="7.655447860751828"><ele>279.0</ele><time>2026-04-18T14:26:41Z</time></trkpt><trkpt lat="45.28808607919932" lon="7.655483868382329"><ele>279.0</ele><time>2026-04-18T14:26:42Z</time></trkpt><trkpt lat="45.2883052921768" lon="7.655523741809139"><ele>280.5</ele><time>2026-04-18T14:26:43Z</time></trkpt><trkpt lat="45.288531235596025" lon="7.655558740567817"><ele>282.0</ele><time>2026-04-18T14:26:44Z</time></trkpt><trkpt lat="45.28875356872918" lon="7.6555999647826525"><ele>282.0</ele><time>2026-04-18T14:26:45Z</time></trkpt><trkpt lat="45.288972121386145" lon="7.655631412895742"><ele>282.0</ele><time>2026-04-18T14:26:46Z</time></trkpt><trkpt lat="45.28918431386764" lon="7.655672405586687"><ele>282.0</ele><time>2026-04-18T14:26:47Z</time></trkpt><trkpt lat="45.289415901776216" lon="7.655714625567497"><ele>282.0</ele><time>2026-04-18T14:26:48Z</time></trkpt><trkpt lat="45.28961990282152" lon="7.655756221667191"><ele>282.0</ele><time>2026-04-18T14:26:49Z</time></trkpt><trkpt lat="45.289831421931005" lon="7.655791949217715"><ele>282.0</ele><time>2026-04-18T14:26:50Z</time></trkpt><trkpt lat="45.290025853749434" lon="7.655823880776926"><ele>282.0</ele><time>2026-04-18T14:26:51Z</time></trkpt><trkpt lat="45.29019901490501" lon="7.655852629543755"><ele>282.0</ele><time>2026-04-18T14:26:52Z</time></trkpt><trkpt lat="45.290344186825855" lon="7.655857379289368"><ele>282.0</ele><time>2026-04-18T14:26:53Z</time></trkpt><trkpt lat="45.29047207471995" lon="7.655798502719393"><ele>282.0</ele><time>2026-04-18T14:26:54Z</time></trkpt><trkpt lat="45.290576211035976" lon="7.655677322514267"><ele>282.0</ele><time>2026-04-18T14:26:55Z</time></trkpt><trkpt lat="45.29065954697326" lon="7.655499080244974"><ele>282.0</ele><time>2026-04-18T14:26:56Z</time></trkpt><trkpt lat="45.290677664451756" lon="7.6552839698861925"><ele>282.0</ele><time>2026-04-18T14:26:57Z</time></trkpt><trkpt lat="45.290698892035245" lon="7.65504192508666"><ele>283.3333333333333</ele><time>2026-04-18T14:26:58Z</time></trkpt><trkpt lat="45.29069008464745" lon="7.654753922671934"><ele>284.66666666666663</ele><time>2026-04-18T14:26:59Z</time></trkpt><trkpt lat="45.29068293198877" lon="7.654441107883264"><ele>286.0</ele><time>2026-04-18T14:27:00Z</time></trkpt><trkpt lat="45.2906968462699" lon="7.654104686137022"><ele>286.0</ele><time>2026-04-18T14:27:01Z</time></trkpt><trkpt lat="45.290711514226324" lon="7.653746071987999"><ele>286.0</ele><time>2026-04-18T14:27:02Z</time></trkpt><trkpt lat="45.290723755115586" lon="7.653375616645006"><ele>287.5</ele><time>2026-04-18T14:27:03Z</time></trkpt><trkpt lat="45.2907251379568" lon="7.652989079710663"><ele>289.0</ele><time>2026-04-18T14:27:04Z</time></trkpt><trkpt lat="45.29074758678224" lon="7.652554962757456"><ele>292.5</ele><time>2026-04-18T14:27:05Z</time></trkpt><trkpt lat="45.29075400915882" lon="7.652097563967447"><ele>296.0</ele><time>2026-04-18T14:27:06Z</time></trkpt><trkpt lat="45.29076015883607" lon="7.6516613054530955"><ele>298.0</ele><time>2026-04-18T14:27:07Z</time></trkpt><trkpt lat="45.290764393450736" lon="7.651257437210599"><ele>300.0</ele><time>2026-04-18T14:27:08Z</time></trkpt><trkpt lat="45.29076800302268" lon="7.65089762774497"><ele>302.5</ele><time>2026-04-18T14:27:09Z</time></trkpt><trkpt lat="45.29075646531048" lon="7.650539822254001"><ele>305.0</ele><time>2026-04-18T14:27:10Z</time></trkpt><trkpt lat="45.29073804319562" lon="7.650186980242916"><ele>306.0</ele><time>2026-04-18T14:27:11Z</time></trkpt><trkpt lat="45.29071444291656" lon="7.649830070170195"><ele>307.0</ele><time>2026-04-18T14:27:12Z</time></trkpt><trkpt lat="45.29070652454047" lon="7.649463471836171"><ele>309.0</ele><time>2026-04-18T14:27:13Z</time></trkpt><trkpt lat="45.290721891770445" lon="7.649112947270534"><ele>311.0</ele><time>2026-04-18T14:27:14Z</time></trkpt><trkpt lat="45.29074650205618" lon="7.648804647350431"><ele>311.6666666666667</ele><time>2026-04-18T14:27:15Z</time></trkpt><trkpt lat="45.29077178476355" lon="7.648526416843594"><ele>312.3333333333333</ele><time>2026-04-18T14:27:16Z</time></trkpt><trkpt lat="45.290799019785894" lon="7.648270120303591"><ele>313.0</ele><time>2026-04-18T14:27:17Z</time></trkpt><trkpt lat="45.29084031141842" lon="7.648031353252287"><ele>313.66666666666663</ele><time>2026-04-18T14:27:18Z</time></trkpt><trkpt lat="45.29091795574469" lon="7.647755829875095"><ele>314.3333333333333</ele><time>2026-04-18T14:27:19Z</time></trkpt><trkpt lat="45.29103253461363" lon="7.6474725593354735"><ele>315.0</ele><time>2026-04-18T14:27:20Z</time></trkpt><trkpt lat="45.29110390160254" lon="7.647162630708478"><ele>314.5</ele><time>2026-04-18T14:27:21Z</time></trkpt><trkpt lat="45.29126019554197" lon="7.646909101430647"><ele>314.0</ele><time>2026-04-18T14:27:22Z</time></trkpt><trkpt lat="45.29136116510415" lon="7.646633609635413"><ele>317.33333333333337</ele><time>2026-04-18T14:27:23Z</time></trkpt><trkpt lat="45.29145584518676" lon="7.64637468279966"><ele>320.6666666666667</ele><time>2026-04-18T14:27:24Z</time></trkpt><trkpt lat="45.291546850173134" lon="7.646118302168032"><ele>324.0</ele><time>2026-04-18T14:27:25Z</time></trkpt><trkpt lat="45.291629956688844" lon="7.645895914559511"><ele>325.0</ele><time>2026-04-18T14:27:26Z</time></trkpt><trkpt lat="45.291719603180084" lon="7.645665866047359"><ele>326.0</ele><time>2026-04-18T14:27:27Z</time></trkpt><trkpt lat="45.29180001978987" lon="7.645458437914466"><ele>327.0</ele><time>2026-04-18T14:27:28Z</time></trkpt><trkpt lat="45.291876318836856" lon="7.645277210524812"><ele>327.6666666666667</ele><time>2026-04-18T14:27:29Z</time></trkpt><trkpt lat="45.291941253883564" lon="7.6450232239648175"><ele>328.33333333333337</ele><time>2026-04-18T14:27:30Z</time></trkpt><trkpt lat="45.29198855093081" lon="7.644738131589742"><ele>329.0</ele><time>2026-04-18T14:27:31Z</time></trkpt><trkpt lat="45.292024892709215" lon="7.644468704256436"><ele>329.0</ele><time>2026-04-18T14:27:32Z</time></trkpt><trkpt lat="45.29206782915029" lon="7.644213203990745"><ele>329.0</ele><time>2026-04-18T14:27:33Z</time></trkpt><trkpt lat="45.29211275331006" lon="7.643962647788504"><ele>329.0</ele><time>2026-04-18T14:27:34Z</time></trkpt><trkpt lat="45.29215997982289" lon="7.643714022320417"><ele>330.0</ele><time>2026-04-18T14:27:35Z</time></trkpt><trkpt lat="45.292194988475984" lon="7.643461446754257"><ele>331.0</ele><time>2026-04-18T14:27:36Z</time></trkpt><trkpt lat="45.29221922472093" lon="7.643204533794983"><ele>332.0</ele><time>2026-04-18T14:27:37Z</time></trkpt><trkpt lat="45.292230665911696" lon="7.642950186901142"><ele>332.33333333333337</ele><time>2026-04-18T14:27:38Z</time></trkpt><trkpt lat="45.292235125395024" lon="7.642694293479937"><ele>332.6666666666667</ele><time>2026-04-18T14:27:39Z</time></trkpt><trkpt lat="45.29223262557635" lon="7.642426449190517"><ele>333.0</ele><time>2026-04-18T14:27:40Z</time></trkpt><trkpt lat="45.29222899139494" lon="7.642166149038341"><ele>334.0</ele><time>2026-04-18T14:27:41Z</time></trkpt><trkpt lat="45.2922285724919" lon="7.641897913364894"><ele>335.0</ele><time>2026-04-18T14:27:42Z</time></trkpt><trkpt lat="45.292215600294426" lon="7.64162819704558"><ele>336.0</ele><time>2026-04-18T14:27:43Z</time></trkpt><trkpt lat="45.29221516183282" lon="7.641360803416146"><ele>337.0</ele><time>2026-04-18T14:27:44Z</time></trkpt><trkpt lat="45.292214498103874" lon="7.64110808916794"><ele>338.0</ele><time>2026-04-18T14:27:45Z</time></trkpt><trkpt lat="45.2922074872863" lon="7.640848494476141"><ele>339.0</ele><time>2026-04-18T14:27:46Z</time></trkpt><trkpt lat="45.29219820516432" lon="7.6405925165526725"><ele>339.0</ele><time>2026-04-18T14:27:47Z</time></trkpt><trkpt lat="45.29218681361866" lon="7.640351069857853"><ele>339.0</ele><time>2026-04-18T14:27:48Z</time></trkpt><trkpt lat="45.29217306995005" lon="7.640106468462089"><ele>339.0</ele><time>2026-04-18T14:27:49Z</time></trkpt><trkpt lat="45.292157706513365" lon="7.6398634745148355"><ele>339.3333333333333</ele><time>2026-04-18T14:27:50Z</time></trkpt><trkpt lat="45.292147443453494" lon="7.639621289879589"><ele>339.66666666666663</ele><time>2026-04-18T14:27:51Z</time></trkpt><trkpt lat="45.29212891781033" lon="7.639390158073196"><ele>340.0</ele><time>2026-04-18T14:27:52Z</time></trkpt><trkpt lat="45.292108737603336" lon="7.639160876083753"><ele>340.0</ele><time>2026-04-18T14:27:53Z</time></trkpt><trkpt lat="45.29209173331411" lon="7.638932298998864"><ele>340.0</ele><time>2026-04-18T14:27:54Z</time></trkpt><trkpt lat="45.29206903443034" lon="7.638700743965325"><ele>340.0</ele><time>2026-04-18T14:27:55Z</time></trkpt><trkpt lat="45.29204753371987" lon="7.638453033673125"><ele>340.3333333333333</ele><time>2026-04-18T14:27:56Z</time></trkpt><trkpt lat="45.29202885062275" lon="7.638205292681448"><ele>340.6666666666667</ele><time>2026-04-18T14:27:57Z</time></trkpt><trkpt lat="45.29200621047731" lon="7.637953583784135"><ele>341.0</ele><time>2026-04-18T14:27:58Z</time></trkpt><trkpt lat="45.29198049286644" lon="7.6377093064676576"><ele>342.0</ele><time>2026-04-18T14:27:59Z</time></trkpt><trkpt lat="45.29195285138424" lon="7.637470201203361"><ele>343.0</ele><time>2026-04-18T14:28:00Z</time></trkpt><trkpt lat="45.29192825418036" lon="7.637260112598201"><ele>344.0</ele><time>2026-04-18T14:28:01Z</time></trkpt><trkpt lat="45.291904440381565" lon="7.637057286389662"><ele>344.0</ele><time>2026-04-18T14:28:02Z</time></trkpt><trkpt lat="45.291886673558245" lon="7.636870706834711"><ele>344.0</ele><time>2026-04-18T14:28:03Z</time></trkpt><trkpt lat="45.29187675396059" lon="7.636714942628454"><ele>344.0</ele><time>2026-04-18T14:28:04Z</time></trkpt><trkpt lat="45.29187728902863" lon="7.63658745836237"><ele>344.0</ele><time>2026-04-18T14:28:05Z</time></trkpt><trkpt lat="45.29189773022754" lon="7.63649591099694"><ele>344.0</ele><time>2026-04-18T14:28:06Z</time></trkpt><trkpt lat="45.29193159069661" lon="7.6364075711016834"><ele>344.0</ele><time>2026-04-18T14:28:07Z</time></trkpt><trkpt lat="45.29185714987288" lon="7.6362764536285885"><ele>344.0</ele><time>2026-04-18T14:28:09Z</time></trkpt><trkpt lat="45.291784927732365" lon="7.636300272802268"><ele>344.0</ele><time>2026-04-18T14:28:10Z</time></trkpt><trkpt lat="45.29171531963018" lon="7.636346885663336"><ele>344.0</ele><time>2026-04-18T14:28:11Z</time></trkpt><trkpt lat="45.29164177255945" lon="7.636305923072283"><ele>344.0</ele><time>2026-04-18T14:28:12Z</time></trkpt><trkpt lat="45.29151414095444" lon="7.636015866374749"><ele>343.75</ele><time>2026-04-18T14:28:14Z</time></trkpt><trkpt lat="45.2914232829752" lon="7.63583993750423"><ele>343.5</ele><time>2026-04-18T14:28:15Z</time></trkpt><trkpt lat="45.29133274214562" lon="7.635683597686702"><ele>343.25</ele><time>2026-04-18T14:28:16Z</time></trkpt><trkpt lat="45.291256897549545" lon="7.635540546394878"><ele>343.0</ele><time>2026-04-18T14:28:17Z</time></trkpt><trkpt lat="45.29119518721223" lon="7.635394731459128"><ele>343.0</ele><time>2026-04-18T14:28:18Z</time></trkpt><trkpt lat="45.29116052591835" lon="7.635237552740407"><ele>343.0</ele><time>2026-04-18T14:28:19Z</time></trkpt><trkpt lat="45.29114978754999" lon="7.635044714330406"><ele>343.0</ele><time>2026-04-18T14:28:20Z</time></trkpt><trkpt lat="45.291137619579914" lon="7.634862201767214"><ele>343.0</ele><time>2026-04-18T14:28:21Z</time></trkpt><trkpt lat="45.291133065224344" lon="7.634698619176368"><ele>343.0</ele><time>2026-04-18T14:28:22Z</time></trkpt><trkpt lat="45.291145429698545" lon="7.634528706814973"><ele>343.0</ele><time>2026-04-18T14:28:23Z</time></trkpt><trkpt lat="45.29115774299335" lon="7.634353659167166"><ele>343.0</ele><time>2026-04-18T14:28:24Z</time></trkpt><trkpt lat="45.291177059029735" lon="7.634194782780035"><ele>343.0</ele><time>2026-04-18T14:28:25Z</time></trkpt><trkpt lat="45.291212231920355" lon="7.634018212099501"><ele>343.75</ele><time>2026-04-18T14:28:26Z</time></trkpt><trkpt lat="45.29126705648505" lon="7.633854540280043"><ele>344.5</ele><time>2026-04-18T14:28:27Z</time></trkpt><trkpt lat="45.29130878463943" lon="7.633690869024566"><ele>345.25</ele><time>2026-04-18T14:28:28Z</time></trkpt><trkpt lat="45.291345775634085" lon="7.633564823533022"><ele>346.0</ele><time>2026-04-18T14:28:29Z</time></trkpt><trkpt lat="45.29139985406352" lon="7.6334327929433"><ele>347.20000000000005</ele><time>2026-04-18T14:28:30Z</time></trkpt><trkpt lat="45.29149171945999" lon="7.6333101849910046"><ele>348.40000000000003</ele><time>2026-04-18T14:28:31Z</time></trkpt><trkpt lat="45.29157580715657" lon="7.633188465341433"><ele>349.6</ele><time>2026-04-18T14:28:32Z</time></trkpt><trkpt lat="45.29165130030879" lon="7.633112602825525"><ele>350.8</ele><time>2026-04-18T14:28:33Z</time></trkpt><trkpt lat="45.29167644477354" lon="7.632998028667645"><ele>352.0</ele><time>2026-04-18T14:28:34Z</time></trkpt><trkpt lat="45.291673424636585" lon="7.6328718271253795"><ele>352.25</ele><time>2026-04-18T14:28:35Z</time></trkpt><trkpt lat="45.29166732418608" lon="7.632722505422602"><ele>352.5</ele><time>2026-04-18T14:28:36Z</time></trkpt><trkpt lat="45.29165178428025" lon="7.632545808878885"><ele>352.75</ele><time>2026-04-18T14:28:37Z</time></trkpt><trkpt lat="45.29160186023283" lon="7.632381568006349"><ele>353.0</ele><time>2026-04-18T14:28:38Z</time></trkpt><trkpt lat="45.29153384280829" lon="7.632228474164869"><ele>353.0</ele><time>2026-04-18T14:28:39Z</time></trkpt><trkpt lat="45.29145142457031" lon="7.63208258036743"><ele>353.0</ele><time>2026-04-18T14:28:40Z</time></trkpt><trkpt lat="45.29140475430441" lon="7.63191760939608"><ele>353.0</ele><time>2026-04-18T14:28:41Z</time></trkpt><trkpt lat="45.29136805830671" lon="7.631824689409616"><ele>353.0</ele><time>2026-04-18T14:28:42Z</time></trkpt><trkpt lat="45.291345249122514" lon="7.631666729831549"><ele>353.0</ele><time>2026-04-18T14:28:43Z</time></trkpt><trkpt lat="45.29132003204878" lon="7.631505556106624"><ele>352.79999999999995</ele><time>2026-04-18T14:28:44Z</time></trkpt><trkpt lat="45.29130960351063" lon="7.63136056019102"><ele>352.6</ele><time>2026-04-18T14:28:45Z</time></trkpt><trkpt lat="45.291304468505665" lon="7.631269702526313"><ele>352.4</ele><time>2026-04-18T14:28:46Z</time></trkpt><trkpt lat="45.29128418660274" lon="7.631142183555216"><ele>352.20000000000005</ele><time>2026-04-18T14:28:48Z</time></trkpt><trkpt lat="45.29146823664909" lon="7.631079042045431"><ele>352.0</ele><time>2026-04-18T14:28:51Z</time></trkpt><trkpt lat="45.291541530134474" lon="7.631056843078653"><ele>352.40000000000003</ele><time>2026-04-18T14:28:52Z</time></trkpt><trkpt lat="45.29160142443125" lon="7.631014301943175"><ele>352.8</ele><time>2026-04-18T14:28:53Z</time></trkpt><trkpt lat="45.29167941388945" lon="7.630997619420819"><ele>353.2</ele><time>2026-04-18T14:28:55Z</time></trkpt><trkpt lat="45.29174176482724" lon="7.63094672003241"><ele>353.6</ele><time>2026-04-18T14:28:57Z</time></trkpt><trkpt lat="45.29164430367172" lon="7.630769159318808"><ele>354.0</ele><time>2026-04-18T14:29:00Z</time></trkpt><trkpt lat="45.29155670519923" lon="7.630684894833958"><ele>354.0</ele><time>2026-04-18T14:29:02Z</time></trkpt><trkpt lat="45.29143825416096" lon="7.630740598056071"><ele>354.0</ele><time>2026-04-18T14:29:03Z</time></trkpt><trkpt lat="45.29136553618121" lon="7.6307397312137715"><ele>354.0</ele><time>2026-04-18T14:29:04Z</time></trkpt><trkpt lat="45.291283411253055" lon="7.6307537610850735"><ele>354.0</ele><time>2026-04-18T14:29:05Z</time></trkpt><trkpt lat="45.29119698127255" lon="7.630735909622964"><ele>354.0</ele><time>2026-04-18T14:29:06Z</time></trkpt><trkpt lat="45.29110673844655" lon="7.630738855946001"><ele>354.6666666666667</ele><time>2026-04-18T14:29:07Z</time></trkpt><trkpt lat="45.291024906269364" lon="7.630731304452308"><ele>355.3333333333333</ele><time>2026-04-18T14:29:08Z</time></trkpt><trkpt lat="45.29094144058451" lon="7.630727668903876"><ele>356.0</ele><time>2026-04-18T14:29:09Z</time></trkpt><trkpt lat="45.29085400483452" lon="7.630731583193392"><ele>356.66666666666663</ele><time>2026-04-18T14:29:10Z</time></trkpt><trkpt lat="45.290785192953344" lon="7.630728613990709"><ele>357.3333333333333</ele><time>2026-04-18T14:29:11Z</time></trkpt><trkpt lat="45.29071949165991" lon="7.630714425452332"><ele>358.0</ele><time>2026-04-18T14:29:12Z</time></trkpt><trkpt lat="45.290598748952064" lon="7.630696470336301"><ele>356.0</ele><time>2026-04-18T14:29:14Z</time></trkpt><trkpt lat="45.290500186369506" lon="7.630667058574456"><ele>354.0</ele><time>2026-04-18T14:29:16Z</time></trkpt><trkpt lat="45.29041196226466" lon="7.6306611940271765"><ele>352.0</ele><time>2026-04-18T14:29:18Z</time></trkpt><trkpt lat="45.29043480383043" lon="7.630891363398634"><ele>350.0</ele><time>2026-04-18T14:29:23Z</time></trkpt><trkpt lat="45.29055246940971" lon="7.630927464136454"><ele>351.6</ele><time>2026-04-18T14:29:25Z</time></trkpt><trkpt lat="45.29066535711709" lon="7.630950394109789"><ele>353.2</ele><time>2026-04-18T14:29:27Z</time></trkpt><trkpt lat="45.29078563823445" lon="7.6309739995660575"><ele>354.79999999999995</ele><time>2026-04-18T14:29:29Z</time></trkpt><trkpt lat="45.290849556675994" lon="7.630988683453085"><ele>356.4</ele><time>2026-04-18T14:29:30Z</time></trkpt><trkpt lat="45.29092253939075" lon="7.630944575282376"><ele>358.0</ele><time>2026-04-18T14:29:31Z</time></trkpt><trkpt lat="45.291036425788725" lon="7.631017639430699"><ele>358.0</ele><time>2026-04-18T14:29:33Z</time></trkpt><trkpt lat="45.29114253525118" lon="7.631038385119004"><ele>358.0</ele><time>2026-04-18T14:29:35Z</time></trkpt><trkpt lat="45.29123260880612" lon="7.631068184206263"><ele>358.0</ele><time>2026-04-18T14:29:38Z</time></trkpt><trkpt lat="45.2913489790716" lon="7.631095326221631"><ele>358.0</ele><time>2026-04-18T14:29:40Z</time></trkpt><trkpt lat="45.2914221899607" lon="7.6310853342031"><ele>358.0</ele><time>2026-04-18T14:29:41Z</time></trkpt><trkpt lat="45.29149389246662" lon="7.631072348189449"><ele>357.2</ele><time>2026-04-18T14:29:42Z</time></trkpt><trkpt lat="45.291561139699" lon="7.631052288311082"><ele>356.4</ele><time>2026-04-18T14:29:43Z</time></trkpt><trkpt lat="45.29165144227178" lon="7.631019626595686"><ele>355.59999999999997</ele><time>2026-04-18T14:29:45Z</time></trkpt><trkpt lat="45.29172778586018" lon="7.630977030892377"><ele>354.79999999999995</ele><time>2026-04-18T14:29:47Z</time></trkpt><trkpt lat="45.29163841525105" lon="7.630789530717234"><ele>354.0</ele><time>2026-04-18T14:29:51Z</time></trkpt><trkpt lat="45.29156901539798" lon="7.630700221724892"><ele>354.0</ele><time>2026-04-18T14:29:53Z</time></trkpt><trkpt lat="45.29144581418449" lon="7.630740688173123"><ele>354.0</ele><time>2026-04-18T14:29:54Z</time></trkpt><trkpt lat="45.29137822011575" lon="7.630739882417895"><ele>354.0</ele><time>2026-04-18T14:29:55Z</time></trkpt><trkpt lat="45.2913002460255" lon="7.630738952926491"><ele>354.0</ele><time>2026-04-18T14:29:56Z</time></trkpt><trkpt lat="45.291222266778654" lon="7.630736992510082"><ele>354.0</ele><time>2026-04-18T14:29:57Z</time></trkpt><trkpt lat="45.29111220815561" lon="7.630753745703229"><ele>354.6666666666667</ele><time>2026-04-18T14:29:59Z</time></trkpt><trkpt lat="45.291022121825364" lon="7.630724265206332"><ele>355.3333333333333</ele><time>2026-04-18T14:30:01Z</time></trkpt><trkpt lat="45.2909527444628" lon="7.630735925064771"><ele>356.0</ele><time>2026-04-18T14:30:04Z</time></trkpt><trkpt lat="45.290889699216706" lon="7.6307402652105685"><ele>356.66666666666663</ele><time>2026-04-18T14:30:07Z</time></trkpt><trkpt lat="45.29076056579741" lon="7.630728797686377"><ele>357.3333333333333</ele><time>2026-04-18T14:30:10Z</time></trkpt><trkpt lat="45.29069371720171" lon="7.630706820479904"><ele>358.0</ele><time>2026-04-18T14:30:11Z</time></trkpt><trkpt lat="45.290611862657244" lon="7.630705329031946"><ele>358.0</ele><time>2026-04-18T14:30:12Z</time></trkpt><trkpt lat="45.29054281816292" lon="7.630692555511567"><ele>350.0</ele><time>2026-04-18T14:30:13Z</time></trkpt><trkpt lat="45.2904422947391" lon="7.630663070238277"><ele>350.0</ele><time>2026-04-18T14:30:15Z</time></trkpt><trkpt lat="45.29044767009888" lon="7.63090398536654"><ele>350.0</ele><time>2026-04-18T14:30:21Z</time></trkpt><trkpt lat="45.29052048519512" lon="7.630898413701378"><ele>350.0</ele><time>2026-04-18T14:30:23Z</time></trkpt></trkseg><trkseg><trkpt lat="45.29063633306296" lon="7.6309135166986115"><ele>358.0</ele><time>2026-04-18T14:41:26Z</time></trkpt><trkpt lat="45.29073983516298" lon="7.630938685071154"><ele>358.0</ele><time>2026-04-18T14:41:28Z</time></trkpt><trkpt lat="45.29083711209499" lon="7.6309520354365565"><ele>358.0</ele><time>2026-04-18T14:41:30Z</time></trkpt><trkpt lat="45.29094720209275" lon="7.630973805338073"><ele>358.0</ele><time>2026-04-18T14:41:32Z</time></trkpt><trkpt lat="45.29105606510942" lon="7.6309960354117505"><ele>358.0</ele><time>2026-04-18T14:41:34Z</time></trkpt><trkpt lat="45.29113165482304" lon="7.631046345782511"><ele>358.0</ele><time>2026-04-18T14:41:36Z</time></trkpt><trkpt lat="45.29120780617037" lon="7.63106933164533"><ele>358.0</ele><time>2026-04-18T14:41:39Z</time></trkpt><trkpt lat="45.291293127990315" lon="7.631083089336473"><ele>358.0</ele><time>2026-04-18T14:41:41Z</time></trkpt><trkpt lat="45.291422639345235" lon="7.63106977806292"><ele>358.0</ele><time>2026-04-18T14:41:43Z</time></trkpt><trkpt lat="45.29149406108262" lon="7.631058015951531"><ele>358.0</ele><time>2026-04-18T14:41:44Z</time></trkpt><trkpt lat="45.29156917073953" lon="7.63104394328481"><ele>358.0</ele><time>2026-04-18T14:41:45Z</time></trkpt><trkpt lat="45.2916713317709" lon="7.631007217268037"><ele>357.2</ele><time>2026-04-18T14:41:47Z</time></trkpt><trkpt lat="45.29173009871895" lon="7.6309695287069825"><ele>356.4</ele><time>2026-04-18T14:41:49Z</time></trkpt><trkpt lat="45.291682810855384" lon="7.630821160919332"><ele>355.59999999999997</ele><time>2026-04-18T14:41:52Z</time></trkpt><trkpt lat="45.291602884569876" lon="7.630755816875236"><ele>354.79999999999995</ele><time>2026-04-18T14:41:54Z</time></trkpt><trkpt lat="45.29157558374947" lon="7.6306565127869765"><ele>354.0</ele><time>2026-04-18T14:41:56Z</time></trkpt><trkpt lat="45.291561191363385" lon="7.6304589263953675"><ele>354.0</ele><time>2026-04-18T14:41:58Z</time></trkpt><trkpt lat="45.29153810735968" lon="7.630345472059888"><ele>354.0</ele><time>2026-04-18T14:41:59Z</time></trkpt><trkpt lat="45.29150152432582" lon="7.630248578617676"><ele>354.0</ele><time>2026-04-18T14:42:00Z</time></trkpt><trkpt lat="45.29148528403573" lon="7.63013166255647"><ele>354.0</ele><time>2026-04-18T14:42:01Z</time></trkpt><trkpt lat="45.29144888281313" lon="7.6300024656634005"><ele>354.0</ele><time>2026-04-18T14:42:02Z</time></trkpt><trkpt lat="45.29141838156416" lon="7.629888350920019"><ele>354.0</ele><time>2026-04-18T14:42:03Z</time></trkpt><trkpt lat="45.29139362263159" lon="7.629776469310099"><ele>356.4</ele><time>2026-04-18T14:42:04Z</time></trkpt><trkpt lat="45.291361118326236" lon="7.629650801539468"><ele>358.79999999999995</ele><time>2026-04-18T14:42:05Z</time></trkpt><trkpt lat="45.29132800375792" lon="7.62952208464327"><ele>361.20000000000005</ele><time>2026-04-18T14:42:06Z</time></trkpt><trkpt lat="45.291296687216374" lon="7.629432947715731"><ele>363.6</ele><time>2026-04-18T14:42:07Z</time></trkpt><trkpt lat="45.291295696088596" lon="7.629294040009257"><ele>366.0</ele><time>2026-04-18T14:42:09Z</time></trkpt><trkpt lat="45.29116905443609" lon="7.629218245112304"><ele>366.0</ele><time>2026-04-18T14:42:12Z</time></trkpt><trkpt lat="45.29110632134462" lon="7.629207599149205"><ele>366.0</ele><time>2026-04-18T14:42:13Z</time></trkpt><trkpt lat="45.291025367975614" lon="7.629201865543536"><ele>366.0</ele><time>2026-04-18T14:42:15Z</time></trkpt><trkpt lat="45.290938891251045" lon="7.629175900537431"><ele>366.0</ele><time>2026-04-18T14:42:19Z</time></trkpt><trkpt lat="45.290927036645044" lon="7.629027875285476"><ele>366.0</ele><time>2026-04-18T14:42:20Z</time></trkpt><trkpt lat="45.29088096185431" lon="7.628924592965231"><ele>366.0</ele><time>2026-04-18T14:42:22Z</time></trkpt><trkpt lat="45.29086787278891" lon="7.62882730266138"><ele>366.0</ele><time>2026-04-18T14:42:24Z</time></trkpt><trkpt lat="45.290889732794135" lon="7.628742687945617"><ele>366.0</ele><time>2026-04-18T14:42:27Z</time></trkpt><trkpt lat="45.290885473974384" lon="7.628638174923831"><ele>366.0</ele><time>2026-04-18T14:42:29Z</time></trkpt><trkpt lat="45.29086149215955" lon="7.628496337419566"><ele>366.0</ele><time>2026-04-18T14:42:31Z</time></trkpt><trkpt lat="45.29084972428147" lon="7.628336262296013"><ele>366.0</ele><time>2026-04-18T14:42:33Z</time></trkpt><trkpt lat="45.29081653528321" lon="7.628257038564671"><ele>366.0</ele><time>2026-04-18T14:42:34Z</time></trkpt><trkpt lat="45.29080154067162" lon="7.628074403659504"><ele>366.1666666666667</ele><time>2026-04-18T14:42:36Z</time></trkpt><trkpt lat="45.29077794588513" lon="7.6279644118634975"><ele>366.3333333333333</ele><time>2026-04-18T14:42:37Z</time></trkpt><trkpt lat="45.29077491396656" lon="7.627870415466669"><ele>366.5</ele><time>2026-04-18T14:42:38Z</time></trkpt><trkpt lat="45.29080056110173" lon="7.627745826154278"><ele>366.66666666666663</ele><time>2026-04-18T14:42:39Z</time></trkpt><trkpt lat="45.29082307621727" lon="7.627639987129303"><ele>366.8333333333333</ele><time>2026-04-18T14:42:40Z</time></trkpt><trkpt lat="45.290845835417066" lon="7.627464268630324"><ele>367.0</ele><time>2026-04-18T14:42:42Z</time></trkpt><trkpt lat="45.290874512782885" lon="7.627344813796583"><ele>367.0</ele><time>2026-04-18T14:42:43Z</time></trkpt><trkpt lat="45.2908729160295" lon="7.627222480799945"><ele>367.0</ele><time>2026-04-18T14:42:44Z</time></trkpt><trkpt lat="45.29091478223658" lon="7.627127837223237"><ele>367.0</ele><time>2026-04-18T14:42:45Z</time></trkpt><trkpt lat="45.29094816468604" lon="7.627023564458285"><ele>367.0</ele><time>2026-04-18T14:42:46Z</time></trkpt><trkpt lat="45.290960394326916" lon="7.626909865413241"><ele>367.0</ele><time>2026-04-18T14:42:47Z</time></trkpt><trkpt lat="45.29097196262457" lon="7.626791032989852"><ele>367.0</ele><time>2026-04-18T14:42:48Z</time></trkpt><trkpt lat="45.290981358378744" lon="7.626664710303362"><ele>367.0</ele><time>2026-04-18T14:42:49Z</time></trkpt><trkpt lat="45.29098710650546" lon="7.626537514623698"><ele>367.0</ele><time>2026-04-18T14:42:50Z</time></trkpt><trkpt lat="45.29100019255821" lon="7.626387539159385"><ele>367.0</ele><time>2026-04-18T14:42:51Z</time></trkpt><trkpt lat="45.29101047509207" lon="7.626250075422714"><ele>367.0</ele><time>2026-04-18T14:42:52Z</time></trkpt><trkpt lat="45.29101747353366" lon="7.626099274504282"><ele>367.0</ele><time>2026-04-18T14:42:53Z</time></trkpt><trkpt lat="45.291034155261826" lon="7.625950826573762"><ele>366.8</ele><time>2026-04-18T14:42:54Z</time></trkpt><trkpt lat="45.2910464553867" lon="7.625803291113407"><ele>366.6</ele><time>2026-04-18T14:42:55Z</time></trkpt><trkpt lat="45.291049885999136" lon="7.6256458130499025"><ele>366.40000000000003</ele><time>2026-04-18T14:42:56Z</time></trkpt><trkpt lat="45.29105195272278" lon="7.6254823789686625"><ele>366.20000000000005</ele><time>2026-04-18T14:42:57Z</time></trkpt><trkpt lat="45.29107716674599" lon="7.625345034379335"><ele>366.0</ele><time>2026-04-18T14:42:58Z</time></trkpt><trkpt lat="45.29108162722516" lon="7.625210913057645"><ele>366.5</ele><time>2026-04-18T14:42:59Z</time></trkpt><trkpt lat="45.29108776221873" lon="7.625082605428506"><ele>367.0</ele><time>2026-04-18T14:43:00Z</time></trkpt><trkpt lat="45.29109229010954" lon="7.624961628348428"><ele>367.5</ele><time>2026-04-18T14:43:01Z</time></trkpt><trkpt lat="45.29107653110173" lon="7.6248532389851"><ele>368.0</ele><time>2026-04-18T14:43:02Z</time></trkpt><trkpt lat="45.29103976105598" lon="7.624741348711635"><ele>368.5</ele><time>2026-04-18T14:43:03Z</time></trkpt><trkpt lat="45.290989153667084" lon="7.624639122622593"><ele>369.0</ele><time>2026-04-18T14:43:04Z</time></trkpt><trkpt lat="45.290950752542344" lon="7.624549779183796"><ele>368.4</ele><time>2026-04-18T14:43:05Z</time></trkpt><trkpt lat="45.29088994385886" lon="7.624466430638944"><ele>367.79999999999995</ele><time>2026-04-18T14:43:06Z</time></trkpt><trkpt lat="45.290794818189845" lon="7.624399241096473"><ele>367.20000000000005</ele><time>2026-04-18T14:43:07Z</time></trkpt><trkpt lat="45.29073899188585" lon="7.624307643861393"><ele>366.6</ele><time>2026-04-18T14:43:08Z</time></trkpt><trkpt lat="45.29067310157609" lon="7.624226758211499"><ele>366.0</ele><time>2026-04-18T14:43:09Z</time></trkpt><trkpt lat="45.29060197579005" lon="7.624153432700355"><ele>366.1666666666667</ele><time>2026-04-18T14:43:10Z</time></trkpt><trkpt lat="45.29052997103914" lon="7.624076119055506"><ele>366.3333333333333</ele><time>2026-04-18T14:43:11Z</time></trkpt><trkpt lat="45.290473202920616" lon="7.623986100106185"><ele>366.5</ele><time>2026-04-18T14:43:12Z</time></trkpt><trkpt lat="45.290411906461614" lon="7.62389162814903"><ele>366.66666666666663</ele><time>2026-04-18T14:43:13Z</time></trkpt><trkpt lat="45.290360505560535" lon="7.623792926248256"><ele>366.8333333333333</ele><time>2026-04-18T14:43:14Z</time></trkpt><trkpt lat="45.290317388315465" lon="7.623680585675378"><ele>367.0</ele><time>2026-04-18T14:43:15Z</time></trkpt><trkpt lat="45.290284712300235" lon="7.623558264679209"><ele>367.0</ele><time>2026-04-18T14:43:16Z</time></trkpt><trkpt lat="45.29026159792665" lon="7.6234319742720675"><ele>367.0</ele><time>2026-04-18T14:43:17Z</time></trkpt><trkpt lat="45.29024282460597" lon="7.6233018281215745"><ele>367.0</ele><time>2026-04-18T14:43:18Z</time></trkpt><trkpt lat="45.290236512618144" lon="7.623162436010635"><ele>367.0</ele><time>2026-04-18T14:43:19Z</time></trkpt><trkpt lat="45.29024624509453" lon="7.623016433754923"><ele>367.0</ele><time>2026-04-18T14:43:20Z</time></trkpt><trkpt lat="45.29023712910145" lon="7.622905445007378"><ele>366.66666666666663</ele><time>2026-04-18T14:43:21Z</time></trkpt><trkpt lat="45.29023729914966" lon="7.622778070723125"><ele>366.3333333333333</ele><time>2026-04-18T14:43:22Z</time></trkpt><trkpt lat="45.29022700990225" lon="7.622662342876828"><ele>366.0</ele><time>2026-04-18T14:43:23Z</time></trkpt><trkpt lat="45.29021030042364" lon="7.622553183593285"><ele>365.6666666666667</ele><time>2026-04-18T14:43:24Z</time></trkpt><trkpt lat="45.29018655700934" lon="7.622457875029656"><ele>365.33333333333337</ele><time>2026-04-18T14:43:25Z</time></trkpt><trkpt lat="45.290145335740036" lon="7.622367462399967"><ele>365.0</ele><time>2026-04-18T14:43:26Z</time></trkpt><trkpt lat="45.290103549277696" lon="7.622270702686666"><ele>365.0</ele><time>2026-04-18T14:43:27Z</time></trkpt><trkpt lat="45.29002981971829" lon="7.622201377184664"><ele>365.0</ele><time>2026-04-18T14:43:28Z</time></trkpt><trkpt lat="45.28997011154885" lon="7.622124498498752"><ele>365.0</ele><time>2026-04-18T14:43:29Z</time></trkpt><trkpt lat="45.28992500210257" lon="7.622048366806142"><ele>365.0</ele><time>2026-04-18T14:43:30Z</time></trkpt><trkpt lat="45.28987073375852" lon="7.621932097262692"><ele>365.0</ele><time>2026-04-18T14:43:32Z</time></trkpt><trkpt lat="45.28980623088427" lon="7.6218833246372215"><ele>365.0</ele><time>2026-04-18T14:44:02Z</time></trkpt><trkpt lat="45.28976101990073" lon="7.621800310570239"><ele>366.0</ele><time>2026-04-18T14:44:03Z</time></trkpt><trkpt lat="45.28968410248624" lon="7.621711954826822"><ele>367.0</ele><time>2026-04-18T14:44:04Z</time></trkpt><trkpt lat="45.289581118210776" lon="7.621597615984027"><ele>368.0</ele><time>2026-04-18T14:44:05Z</time></trkpt><trkpt lat="45.28944981524336" lon="7.6214843601015705"><ele>369.0</ele><time>2026-04-18T14:44:06Z</time></trkpt><trkpt lat="45.289320446951635" lon="7.621310258931036"><ele>369.3333333333333</ele><time>2026-04-18T14:44:07Z</time></trkpt><trkpt lat="45.28915819639779" lon="7.621136150580635"><ele>369.66666666666663</ele><time>2026-04-18T14:44:08Z</time></trkpt><trkpt lat="45.28900623702766" lon="7.620980875772904"><ele>370.0</ele><time>2026-04-18T14:44:09Z</time></trkpt><trkpt lat="45.288868880931226" lon="7.620854658004415"><ele>369.0</ele><time>2026-04-18T14:44:10Z</time></trkpt><trkpt lat="45.28872118097881" lon="7.62074382522021"><ele>368.0</ele><time>2026-04-18T14:44:11Z</time></trkpt><trkpt lat="45.288570370131346" lon="7.620659846447088"><ele>367.0</ele><time>2026-04-18T14:44:12Z</time></trkpt><trkpt lat="45.28843253144522" lon="7.62059931107987"><ele>367.0</ele><time>2026-04-18T14:44:13Z</time></trkpt><trkpt lat="45.28830534824938" lon="7.62052455884605"><ele>367.0</ele><time>2026-04-18T14:44:14Z</time></trkpt><trkpt lat="45.288173689139924" lon="7.620465441768422"><ele>367.0</ele><time>2026-04-18T14:44:15Z</time></trkpt><trkpt lat="45.28804450482147" lon="7.620418244811344"><ele>367.0</ele><time>2026-04-18T14:44:16Z</time></trkpt><trkpt lat="45.28792971765271" lon="7.620320806015981"><ele>364.25</ele><time>2026-04-18T14:44:17Z</time></trkpt><trkpt lat="45.28782365406096" lon="7.620198309921461"><ele>361.5</ele><time>2026-04-18T14:44:18Z</time></trkpt><trkpt lat="45.28772474568223" lon="7.620038339012921"><ele>358.75</ele><time>2026-04-18T14:44:19Z</time></trkpt><trkpt lat="45.28765625349051" lon="7.619878416271942"><ele>356.0</ele><time>2026-04-18T14:44:20Z</time></trkpt><trkpt lat="45.28759809455205" lon="7.619713937000338"><ele>356.0</ele><time>2026-04-18T14:44:21Z</time></trkpt><trkpt lat="45.287576079391" lon="7.619518071123448"><ele>356.0</ele><time>2026-04-18T14:44:22Z</time></trkpt><trkpt lat="45.287542706048455" lon="7.6193234874208535"><ele>356.0</ele><time>2026-04-18T14:44:23Z</time></trkpt><trkpt lat="45.28752175200619" lon="7.61913586847606"><ele>356.0</ele><time>2026-04-18T14:44:24Z</time></trkpt><trkpt lat="45.28746698874933" lon="7.618977706954824"><ele>355.8</ele><time>2026-04-18T14:44:25Z</time></trkpt><trkpt lat="45.28738337319677" lon="7.618859713701126"><ele>355.6</ele><time>2026-04-18T14:44:26Z</time></trkpt><trkpt lat="45.28729477411514" lon="7.618781403368236"><ele>355.4</ele><time>2026-04-18T14:44:27Z</time></trkpt><trkpt lat="45.28722465925452" lon="7.618719358795266"><ele>355.2</ele><time>2026-04-18T14:44:28Z</time></trkpt><trkpt lat="45.287191719844145" lon="7.618629517192508"><ele>355.0</ele><time>2026-04-18T14:44:29Z</time></trkpt><trkpt lat="45.28725674569595" lon="7.618325173812904"><ele>355.2</ele><time>2026-04-18T14:44:31Z</time></trkpt><trkpt lat="45.287295438576045" lon="7.618147606689969"><ele>355.4</ele><time>2026-04-18T14:44:32Z</time></trkpt><trkpt lat="45.28732791562263" lon="7.617977982103381"><ele>355.6</ele><time>2026-04-18T14:44:33Z</time></trkpt><trkpt lat="45.28734129465093" lon="7.617855345494099"><ele>355.8</ele><time>2026-04-18T14:44:34Z</time></trkpt><trkpt lat="45.28732725934014" lon="7.617744252120187"><ele>356.0</ele><time>2026-04-18T14:44:35Z</time></trkpt><trkpt lat="45.28725576217084" lon="7.617654834110944"><ele>352.20000000000005</ele><time>2026-04-18T14:44:36Z</time></trkpt><trkpt lat="45.28715948348419" lon="7.617604120876947"><ele>348.40000000000003</ele><time>2026-04-18T14:44:37Z</time></trkpt><trkpt lat="45.287059283076935" lon="7.617566802880632"><ele>344.6</ele><time>2026-04-18T14:44:38Z</time></trkpt><trkpt lat="45.2869640084346" lon="7.617500487774052"><ele>340.8</ele><time>2026-04-18T14:44:39Z</time></trkpt><trkpt lat="45.28687781657353" lon="7.617445857820403"><ele>337.0</ele><time>2026-04-18T14:44:40Z</time></trkpt><trkpt lat="45.28679338508589" lon="7.617376072694624"><ele>337.0</ele><time>2026-04-18T14:44:41Z</time></trkpt><trkpt lat="45.286725658820274" lon="7.617296024305665"><ele>337.0</ele><time>2026-04-18T14:44:42Z</time></trkpt><trkpt lat="45.28667125303046" lon="7.617171814608468"><ele>337.0</ele><time>2026-04-18T14:44:43Z</time></trkpt><trkpt lat="45.28663889919008" lon="7.616989022825122"><ele>337.0</ele><time>2026-04-18T14:44:44Z</time></trkpt><trkpt lat="45.28658315582199" lon="7.616805665079137"><ele>338.0</ele><time>2026-04-18T14:44:45Z</time></trkpt><trkpt lat="45.28655690991476" lon="7.61661681293132"><ele>339.0</ele><time>2026-04-18T14:44:46Z</time></trkpt><trkpt lat="45.28655304872737" lon="7.616432628598527"><ele>340.0</ele><time>2026-04-18T14:44:47Z</time></trkpt><trkpt lat="45.28650594971881" lon="7.616277026212968"><ele>341.0</ele><time>2026-04-18T14:44:48Z</time></trkpt><trkpt lat="45.28644452079573" lon="7.6161234878405795"><ele>339.25</ele><time>2026-04-18T14:44:49Z</time></trkpt><trkpt lat="45.286361623690645" lon="7.615969955734153"><ele>337.5</ele><time>2026-04-18T14:44:50Z</time></trkpt><trkpt lat="45.28629048315404" lon="7.6158266991452965"><ele>335.75</ele><time>2026-04-18T14:44:51Z</time></trkpt><trkpt lat="45.28627000390691" lon="7.615672367320433"><ele>334.0</ele><time>2026-04-18T14:44:52Z</time></trkpt><trkpt lat="45.28623629017653" lon="7.615506454698627"><ele>334.0</ele><time>2026-04-18T14:44:53Z</time></trkpt><trkpt lat="45.28620715658008" lon="7.615335039255025"><ele>334.0</ele><time>2026-04-18T14:44:54Z</time></trkpt><trkpt lat="45.28614790583" lon="7.615180891785314"><ele>334.0</ele><time>2026-04-18T14:44:55Z</time></trkpt><trkpt lat="45.28610276490131" lon="7.614971624351814"><ele>334.0</ele><time>2026-04-18T14:44:56Z</time></trkpt><trkpt lat="45.28603069197438" lon="7.614723355816225"><ele>336.3333333333333</ele><time>2026-04-18T14:44:57Z</time></trkpt><trkpt lat="45.28592558435082" lon="7.614470812186827"><ele>338.6666666666667</ele><time>2026-04-18T14:44:58Z</time></trkpt><trkpt lat="45.285825664009664" lon="7.614199110118264"><ele>341.0</ele><time>2026-04-18T14:44:59Z</time></trkpt><trkpt lat="45.28572182827069" lon="7.613942971677511"><ele>341.0</ele><time>2026-04-18T14:45:00Z</time></trkpt><trkpt lat="45.285636885157224" lon="7.613694681248596"><ele>341.0</ele><time>2026-04-18T14:45:01Z</time></trkpt><trkpt lat="45.28554287678187" lon="7.613460561086035"><ele>341.0</ele><time>2026-04-18T14:45:02Z</time></trkpt><trkpt lat="45.285459743056066" lon="7.613253453920164"><ele>339.6666666666667</ele><time>2026-04-18T14:45:03Z</time></trkpt><trkpt lat="45.28538199720155" lon="7.613049915260715"><ele>338.3333333333333</ele><time>2026-04-18T14:45:04Z</time></trkpt><trkpt lat="45.285294005209856" lon="7.612845306658832"><ele>337.0</ele><time>2026-04-18T14:45:05Z</time></trkpt><trkpt lat="45.28524815718615" lon="7.612620357018534"><ele>337.0</ele><time>2026-04-18T14:45:06Z</time></trkpt><trkpt lat="45.28518309016504" lon="7.612425000038562"><ele>337.0</ele><time>2026-04-18T14:45:07Z</time></trkpt><trkpt lat="45.285167596029304" lon="7.6122217230518245"><ele>337.0</ele><time>2026-04-18T14:45:08Z</time></trkpt><trkpt lat="45.28515360160528" lon="7.612006962561431"><ele>337.0</ele><time>2026-04-18T14:45:09Z</time></trkpt><trkpt lat="45.28516191444913" lon="7.611777713519935"><ele>337.75</ele><time>2026-04-18T14:45:10Z</time></trkpt><trkpt lat="45.285191728550075" lon="7.611578846628861"><ele>338.5</ele><time>2026-04-18T14:45:11Z</time></trkpt><trkpt lat="45.28522134761385" lon="7.611401608844105"><ele>339.25</ele><time>2026-04-18T14:45:12Z</time></trkpt><trkpt lat="45.28521950825226" lon="7.611239776767173"><ele>340.0</ele><time>2026-04-18T14:45:13Z</time></trkpt><trkpt lat="45.285193349374886" lon="7.611080752255757"><ele>340.5</ele><time>2026-04-18T14:45:14Z</time></trkpt><trkpt lat="45.28513814099818" lon="7.610896428609479"><ele>341.0</ele><time>2026-04-18T14:45:15Z</time></trkpt><trkpt lat="45.2851178727509" lon="7.6106968014464025"><ele>341.5</ele><time>2026-04-18T14:45:16Z</time></trkpt><trkpt lat="45.28510327694713" lon="7.610467778792347"><ele>342.0</ele><time>2026-04-18T14:45:17Z</time></trkpt><trkpt lat="45.28506320733312" lon="7.610266294946824"><ele>342.5</ele><time>2026-04-18T14:45:18Z</time></trkpt><trkpt lat="45.28503079548236" lon="7.610085794823431"><ele>343.0</ele><time>2026-04-18T14:45:19Z</time></trkpt><trkpt lat="45.285046128018585" lon="7.609910012377261"><ele>343.5</ele><time>2026-04-18T14:45:20Z</time></trkpt><trkpt lat="45.285080583147526" lon="7.609691605258738"><ele>344.0</ele><time>2026-04-18T14:45:21Z</time></trkpt><trkpt lat="45.28509774518096" lon="7.609412156161697"><ele>345.0</ele><time>2026-04-18T14:45:22Z</time></trkpt><trkpt lat="45.285078737101955" lon="7.609093619220159"><ele>346.0</ele><time>2026-04-18T14:45:23Z</time></trkpt><trkpt lat="45.285070395181954" lon="7.608747987744349"><ele>346.0</ele><time>2026-04-18T14:45:24Z</time></trkpt><trkpt lat="45.28509508883634" lon="7.608419724887326"><ele>346.0</ele><time>2026-04-18T14:45:25Z</time></trkpt><trkpt lat="45.28510614963647" lon="7.608122114152637"><ele>346.0</ele><time>2026-04-18T14:45:26Z</time></trkpt><trkpt lat="45.285114442425304" lon="7.607801021439425"><ele>345.0</ele><time>2026-04-18T14:45:27Z</time></trkpt><trkpt lat="45.285117545176426" lon="7.6075402843781"><ele>344.0</ele><time>2026-04-18T14:45:28Z</time></trkpt><trkpt lat="45.28511580609768" lon="7.6072681124487085"><ele>343.0</ele><time>2026-04-18T14:45:29Z</time></trkpt><trkpt lat="45.28513413543979" lon="7.60702796161579"><ele>343.5</ele><time>2026-04-18T14:45:30Z</time></trkpt><trkpt lat="45.28515990501536" lon="7.606809620513913"><ele>344.0</ele><time>2026-04-18T14:45:31Z</time></trkpt><trkpt lat="45.28518744348042" lon="7.606606654526582"><ele>344.5</ele><time>2026-04-18T14:45:32Z</time></trkpt><trkpt lat="45.28519741706942" lon="7.606422587312758"><ele>345.0</ele><time>2026-04-18T14:45:33Z</time></trkpt><trkpt lat="45.28522224089588" lon="7.606272210770264"><ele>346.0</ele><time>2026-04-18T14:45:34Z</time></trkpt><trkpt lat="45.285205349291424" lon="7.606094290534983"><ele>347.0</ele><time>2026-04-18T14:45:35Z</time></trkpt><trkpt lat="45.285199255687814" lon="7.605898916097048"><ele>348.0</ele><time>2026-04-18T14:45:36Z</time></trkpt><trkpt lat="45.285199966122356" lon="7.6057026814459245"><ele>349.0</ele><time>2026-04-18T14:45:37Z</time></trkpt><trkpt lat="45.285220992187135" lon="7.6055389297989"><ele>349.0</ele><time>2026-04-18T14:45:38Z</time></trkpt><trkpt lat="45.285263213870294" lon="7.605381031865504"><ele>349.0</ele><time>2026-04-18T14:45:39Z</time></trkpt><trkpt lat="45.285274726741115" lon="7.605199878830702"><ele>349.0</ele><time>2026-04-18T14:45:40Z</time></trkpt><trkpt lat="45.285285613933766" lon="7.605011698238985"><ele>349.0</ele><time>2026-04-18T14:45:41Z</time></trkpt><trkpt lat="45.285287795115025" lon="7.60483694070252"><ele>349.25</ele><time>2026-04-18T14:45:42Z</time></trkpt><trkpt lat="45.28527698118946" lon="7.604665368847323"><ele>349.5</ele><time>2026-04-18T14:45:43Z</time></trkpt><trkpt lat="45.28523039467244" lon="7.604468245284272"><ele>349.75</ele><time>2026-04-18T14:45:44Z</time></trkpt><trkpt lat="45.28518216611879" lon="7.60424031272173"><ele>350.0</ele><time>2026-04-18T14:45:45Z</time></trkpt><trkpt lat="45.28516571662808" lon="7.604008595809765"><ele>351.33333333333337</ele><time>2026-04-18T14:45:46Z</time></trkpt><trkpt lat="45.28515011093612" lon="7.603789378932726"><ele>352.6666666666667</ele><time>2026-04-18T14:45:47Z</time></trkpt><trkpt lat="45.28513215371434" lon="7.603547833558173"><ele>354.0</ele><time>2026-04-18T14:45:48Z</time></trkpt><trkpt lat="45.285122373538336" lon="7.603300608235317"><ele>354.3333333333333</ele><time>2026-04-18T14:45:49Z</time></trkpt><trkpt lat="45.28512513253064" lon="7.603045053305118"><ele>354.66666666666663</ele><time>2026-04-18T14:45:50Z</time></trkpt><trkpt lat="45.28512127367571" lon="7.602768943871282"><ele>355.0</ele><time>2026-04-18T14:45:51Z</time></trkpt><trkpt lat="45.2850719175358" lon="7.602491781356818"><ele>355.3333333333333</ele><time>2026-04-18T14:45:52Z</time></trkpt><trkpt lat="45.285026530809716" lon="7.602224499875071"><ele>355.6666666666667</ele><time>2026-04-18T14:45:53Z</time></trkpt><trkpt lat="45.28500863325059" lon="7.601977600374246"><ele>356.0</ele><time>2026-04-18T14:45:54Z</time></trkpt><trkpt lat="45.28498038614011" lon="7.601751781595464"><ele>356.0</ele><time>2026-04-18T14:45:55Z</time></trkpt><trkpt lat="45.28495405789543" lon="7.601507119604419"><ele>356.0</ele><time>2026-04-18T14:45:56Z</time></trkpt><trkpt lat="45.28494819681877" lon="7.60126651838468"><ele>356.0</ele><time>2026-04-18T14:45:57Z</time></trkpt><trkpt lat="45.284947254748744" lon="7.601030099757548"><ele>356.0</ele><time>2026-04-18T14:45:58Z</time></trkpt><trkpt lat="45.28492987945583" lon="7.600828686701667"><ele>356.0</ele><time>2026-04-18T14:45:59Z</time></trkpt><trkpt lat="45.28490342025693" lon="7.600645820241693"><ele>356.0</ele><time>2026-04-18T14:46:00Z</time></trkpt><trkpt lat="45.28483319967923" lon="7.600476155072529"><ele>356.0</ele><time>2026-04-18T14:46:01Z</time></trkpt><trkpt lat="45.28471044547555" lon="7.6003195902819085"><ele>354.6666666666667</ele><time>2026-04-18T14:46:02Z</time></trkpt><trkpt lat="45.28457720554103" lon="7.600154698341591"><ele>353.3333333333333</ele><time>2026-04-18T14:46:03Z</time></trkpt><trkpt lat="45.28446232864072" lon="7.5999501382456724"><ele>352.0</ele><time>2026-04-18T14:46:04Z</time></trkpt><trkpt lat="45.2843483100714" lon="7.599778827391967"><ele>352.0</ele><time>2026-04-18T14:46:05Z</time></trkpt><trkpt lat="45.284250919793784" lon="7.599614296680262"><ele>352.0</ele><time>2026-04-18T14:46:06Z</time></trkpt><trkpt lat="45.284160744802456" lon="7.599436033967605"><ele>352.0</ele><time>2026-04-18T14:46:07Z</time></trkpt><trkpt lat="45.284080879172535" lon="7.599277915955597"><ele>352.0</ele><time>2026-04-18T14:46:08Z</time></trkpt><trkpt lat="45.28400038264796" lon="7.5991334239546005"><ele>350.66666666666663</ele><time>2026-04-18T14:46:09Z</time></trkpt><trkpt lat="45.283887623839966" lon="7.599011339326017"><ele>349.3333333333333</ele><time>2026-04-18T14:46:10Z</time></trkpt><trkpt lat="45.28374868219628" lon="7.598908712044107"><ele>348.0</ele><time>2026-04-18T14:46:11Z</time></trkpt><trkpt lat="45.28357440916759" lon="7.598835469102997"><ele>348.0</ele><time>2026-04-18T14:46:12Z</time></trkpt><trkpt lat="45.283390511926946" lon="7.59878278709203"><ele>348.0</ele><time>2026-04-18T14:46:13Z</time></trkpt><trkpt lat="45.28321944556119" lon="7.598711157515466"><ele>348.0</ele><time>2026-04-18T14:46:14Z</time></trkpt><trkpt lat="45.28305685467774" lon="7.598615972155327"><ele>349.5</ele><time>2026-04-18T14:46:15Z</time></trkpt><trkpt lat="45.282904047219205" lon="7.598538010455415"><ele>351.0</ele><time>2026-04-18T14:46:16Z</time></trkpt><trkpt lat="45.282770928727466" lon="7.5984625089381606"><ele>352.5</ele><time>2026-04-18T14:46:17Z</time></trkpt><trkpt lat="45.28267647380389" lon="7.598379619643508"><ele>354.0</ele><time>2026-04-18T14:46:18Z</time></trkpt><trkpt lat="45.28260015130686" lon="7.598275699293836"><ele>354.0</ele><time>2026-04-18T14:46:19Z</time></trkpt><trkpt lat="45.282590134852086" lon="7.598111657267893"><ele>354.0</ele><time>2026-04-18T14:46:20Z</time></trkpt><trkpt lat="45.28257839469675" lon="7.597915472899931"><ele>354.0</ele><time>2026-04-18T14:46:21Z</time></trkpt><trkpt lat="45.28257196868008" lon="7.597686506917781"><ele>354.0</ele><time>2026-04-18T14:46:22Z</time></trkpt><trkpt lat="45.28253740090426" lon="7.597451840218011"><ele>354.75</ele><time>2026-04-18T14:46:23Z</time></trkpt><trkpt lat="45.28249316331091" lon="7.59722275638495"><ele>355.5</ele><time>2026-04-18T14:46:24Z</time></trkpt><trkpt lat="45.28246149642334" lon="7.597007027298915"><ele>356.25</ele><time>2026-04-18T14:46:25Z</time></trkpt><trkpt lat="45.28245154337843" lon="7.59684312947998"><ele>357.0</ele><time>2026-04-18T14:46:26Z</time></trkpt><trkpt lat="45.28251325900527" lon="7.596705840008717"><ele>357.75</ele><time>2026-04-18T14:46:27Z</time></trkpt><trkpt lat="45.28258841085995" lon="7.596531489582108"><ele>358.5</ele><time>2026-04-18T14:46:28Z</time></trkpt><trkpt lat="45.28264341825869" lon="7.596338407564042"><ele>359.25</ele><time>2026-04-18T14:46:29Z</time></trkpt><trkpt lat="45.28267151395004" lon="7.596124207325588"><ele>360.0</ele><time>2026-04-18T14:46:30Z</time></trkpt><trkpt lat="45.28268649802256" lon="7.595900682362729"><ele>361.6666666666667</ele><time>2026-04-18T14:46:31Z</time></trkpt><trkpt lat="45.2826882567418" lon="7.595657868151671"><ele>363.33333333333337</ele><time>2026-04-18T14:46:32Z</time></trkpt><trkpt lat="45.28269646205618" lon="7.5954325491393035"><ele>365.0</ele><time>2026-04-18T14:46:33Z</time></trkpt><trkpt lat="45.2826721512488" lon="7.595222073292286"><ele>365.25</ele><time>2026-04-18T14:46:34Z</time></trkpt><trkpt lat="45.282642333750935" lon="7.5950283813261175"><ele>365.5</ele><time>2026-04-18T14:46:35Z</time></trkpt><trkpt lat="45.282621742793246" lon="7.594832625361131"><ele>365.75</ele><time>2026-04-18T14:46:36Z</time></trkpt><trkpt lat="45.28265188031925" lon="7.594694503172542"><ele>366.0</ele><time>2026-04-18T14:46:37Z</time></trkpt><trkpt lat="45.28271190913254" lon="7.594555214712039"><ele>367.0</ele><time>2026-04-18T14:46:38Z</time></trkpt><trkpt lat="45.28278594645193" lon="7.594370148405019"><ele>368.0</ele><time>2026-04-18T14:46:39Z</time></trkpt><trkpt lat="45.28283991595102" lon="7.594133276105936"><ele>369.0</ele><time>2026-04-18T14:46:40Z</time></trkpt><trkpt lat="45.28286215283708" lon="7.593906333744607"><ele>369.0</ele><time>2026-04-18T14:46:41Z</time></trkpt><trkpt lat="45.28291274825954" lon="7.593702009442184"><ele>369.0</ele><time>2026-04-18T14:46:42Z</time></trkpt><trkpt lat="45.282945188016605" lon="7.593476888944964"><ele>369.0</ele><time>2026-04-18T14:46:43Z</time></trkpt><trkpt lat="45.28297084703953" lon="7.593230645698169"><ele>370.6</ele><time>2026-04-18T14:46:44Z</time></trkpt><trkpt lat="45.282986364060115" lon="7.593046703092766"><ele>372.2</ele><time>2026-04-18T14:46:45Z</time></trkpt><trkpt lat="45.28300046814584" lon="7.592881001793125"><ele>373.8</ele><time>2026-04-18T14:46:46Z</time></trkpt><trkpt lat="45.283015390528746" lon="7.592742262581032"><ele>375.40000000000003</ele><time>2026-04-18T14:46:47Z</time></trkpt><trkpt lat="45.283028852850165" lon="7.592622607756889"><ele>377.0</ele><time>2026-04-18T14:46:48Z</time></trkpt><trkpt lat="45.2830295234343" lon="7.592499438412864"><ele>377.5</ele><time>2026-04-18T14:46:49Z</time></trkpt><trkpt lat="45.28306658267885" lon="7.592348752799012"><ele>378.0</ele><time>2026-04-18T14:46:51Z</time></trkpt><trkpt lat="45.28310650019102" lon="7.592239871704763"><ele>378.5</ele><time>2026-04-18T14:46:53Z</time></trkpt><trkpt lat="45.28306343808316" lon="7.592380117505191"><ele>379.0</ele><time>2026-04-18T14:47:04Z</time></trkpt><trkpt lat="45.28303634628454" lon="7.5924691918726115"><ele>379.5</ele><time>2026-04-18T14:47:05Z</time></trkpt><trkpt lat="45.283029746939626" lon="7.592571106980723"><ele>380.0</ele><time>2026-04-18T14:47:06Z</time></trkpt><trkpt lat="45.283016306072234" lon="7.592682698382411"><ele>380.0</ele><time>2026-04-18T14:47:07Z</time></trkpt><trkpt lat="45.283003825717905" lon="7.592796193069594"><ele>380.0</ele><time>2026-04-18T14:47:08Z</time></trkpt><trkpt lat="45.28299223208336" lon="7.592912702647829"><ele>380.0</ele><time>2026-04-18T14:47:09Z</time></trkpt><trkpt lat="45.282980906094444" lon="7.593105645394631"><ele>380.0</ele><time>2026-04-18T14:47:10Z</time></trkpt><trkpt lat="45.28294619919702" lon="7.593233678433241"><ele>380.0</ele><time>2026-04-18T14:47:11Z</time></trkpt><trkpt lat="45.28293982573437" lon="7.593342429650558"><ele>379.5</ele><time>2026-04-18T14:47:12Z</time></trkpt><trkpt lat="45.282926322764375" lon="7.593442971178152"><ele>379.0</ele><time>2026-04-18T14:47:13Z</time></trkpt><trkpt lat="45.28292138570819" lon="7.593578770172616"><ele>378.5</ele><time>2026-04-18T14:47:15Z</time></trkpt><trkpt lat="45.282910043916836" lon="7.593674915488425"><ele>378.0</ele><time>2026-04-18T14:47:20Z</time></trkpt><trkpt lat="45.28288231244824" lon="7.593760462362792"><ele>377.5</ele><time>2026-04-18T14:49:13Z</time></trkpt><trkpt lat="45.28289319234249" lon="7.593639539490662"><ele>377.0</ele><time>2026-04-18T14:49:30Z</time></trkpt><trkpt lat="45.28292055207698" lon="7.593487070091912"><ele>377.0</ele><time>2026-04-18T14:49:32Z</time></trkpt><trkpt lat="45.28293709697129" lon="7.5932877378784145"><ele>377.0</ele><time>2026-04-18T14:49:34Z</time></trkpt><trkpt lat="45.28295357782411" lon="7.593188090330887"><ele>377.0</ele><time>2026-04-18T14:49:35Z</time></trkpt><trkpt lat="45.28296569140783" lon="7.593071637282943"><ele>377.0</ele><time>2026-04-18T14:49:36Z</time></trkpt><trkpt lat="45.282982849450086" lon="7.592965720410341"><ele>377.0</ele><time>2026-04-18T14:49:37Z</time></trkpt><trkpt lat="45.28299626687595" lon="7.592857573042773"><ele>377.5</ele><time>2026-04-18T14:49:38Z</time></trkpt><trkpt lat="45.28300288502605" lon="7.592761197600239"><ele>378.0</ele><time>2026-04-18T14:49:39Z</time></trkpt><trkpt lat="45.28301911883772" lon="7.592637182380866"><ele>378.5</ele><time>2026-04-18T14:49:40Z</time></trkpt><trkpt lat="45.28303778616005" lon="7.592523720460053"><ele>379.0</ele><time>2026-04-18T14:49:41Z</time></trkpt><trkpt lat="45.28305462936605" lon="7.59241240579145"><ele>379.5</ele><time>2026-04-18T14:49:42Z</time></trkpt><trkpt lat="45.28307114420913" lon="7.592311279171516"><ele>380.0</ele><time>2026-04-18T14:49:43Z</time></trkpt><trkpt lat="45.28309752030302" lon="7.592185958378771"><ele>377.0</ele><time>2026-04-18T14:49:44Z</time></trkpt><trkpt lat="45.28312758285773" lon="7.592073496591987"><ele>374.0</ele><time>2026-04-18T14:49:45Z</time></trkpt><trkpt lat="45.28316575643568" lon="7.59196354211539"><ele>371.0</ele><time>2026-04-18T14:49:46Z</time></trkpt><trkpt lat="45.2832295954216" lon="7.591785263045592"><ele>368.0</ele><time>2026-04-18T14:49:47Z</time></trkpt><trkpt lat="45.283268904007834" lon="7.591665065921948"><ele>365.0</ele><time>2026-04-18T14:49:48Z</time></trkpt><trkpt lat="45.28331346158204" lon="7.5915636084045"><ele>365.0</ele><time>2026-04-18T14:49:49Z</time></trkpt><trkpt lat="45.28335162306997" lon="7.59145387648572"><ele>365.0</ele><time>2026-04-18T14:49:50Z</time></trkpt><trkpt lat="45.28338288961404" lon="7.591338199910105"><ele>365.0</ele><time>2026-04-18T14:49:51Z</time></trkpt><trkpt lat="45.283406136947065" lon="7.591214717165215"><ele>365.0</ele><time>2026-04-18T14:49:52Z</time></trkpt><trkpt lat="45.28343948248905" lon="7.591091549199491"><ele>365.0</ele><time>2026-04-18T14:49:53Z</time></trkpt><trkpt lat="45.283440476868975" lon="7.590963205790187"><ele>365.0</ele><time>2026-04-18T14:49:54Z</time></trkpt><trkpt lat="45.283459112933485" lon="7.590837107721569"><ele>366.25</ele><time>2026-04-18T14:49:55Z</time></trkpt><trkpt lat="45.28347740236285" lon="7.5907084681064925"><ele>367.5</ele><time>2026-04-18T14:49:56Z</time></trkpt><trkpt lat="45.283502263018136" lon="7.590556227528505"><ele>368.75</ele><time>2026-04-18T14:49:57Z</time></trkpt><trkpt lat="45.28355014385647" lon="7.590358924626238"><ele>370.0</ele><time>2026-04-18T14:49:58Z</time></trkpt><trkpt lat="45.28361575549045" lon="7.590141958581251"><ele>371.3333333333333</ele><time>2026-04-18T14:49:59Z</time></trkpt><trkpt lat="45.283687132731096" lon="7.5899443616778175"><ele>372.6666666666667</ele><time>2026-04-18T14:50:00Z</time></trkpt><trkpt lat="45.283753320825255" lon="7.589748924056649"><ele>374.0</ele><time>2026-04-18T14:50:01Z</time></trkpt><trkpt lat="45.28381778122014" lon="7.589565156162749"><ele>377.0</ele><time>2026-04-18T14:50:02Z</time></trkpt><trkpt lat="45.28387916013405" lon="7.589372033258295"><ele>380.0</ele><time>2026-04-18T14:50:03Z</time></trkpt><trkpt lat="45.28390284856461" lon="7.589136171512902"><ele>383.0</ele><time>2026-04-18T14:50:04Z</time></trkpt><trkpt lat="45.2839111003803" lon="7.58881905041765"><ele>386.0</ele><time>2026-04-18T14:50:05Z</time></trkpt><trkpt lat="45.28388979007451" lon="7.588494617974369"><ele>389.0</ele><time>2026-04-18T14:50:06Z</time></trkpt><trkpt lat="45.2838884512211" lon="7.588188632977383"><ele>392.0</ele><time>2026-04-18T14:50:07Z</time></trkpt><trkpt lat="45.28385207844523" lon="7.587904635930102"><ele>394.3333333333333</ele><time>2026-04-18T14:50:08Z</time></trkpt><trkpt lat="45.283824739946006" lon="7.587628132658576"><ele>396.66666666666663</ele><time>2026-04-18T14:50:09Z</time></trkpt><trkpt lat="45.28381669705305" lon="7.587374992425926"><ele>399.0</ele><time>2026-04-18T14:50:10Z</time></trkpt><trkpt lat="45.28381369929575" lon="7.5871762622887395"><ele>401.25</ele><time>2026-04-18T14:50:11Z</time></trkpt><trkpt lat="45.28381583356841" lon="7.587001095820594"><ele>403.5</ele><time>2026-04-18T14:50:12Z</time></trkpt><trkpt lat="45.28385781398387" lon="7.5868383906872925"><ele>405.75</ele><time>2026-04-18T14:50:13Z</time></trkpt><trkpt lat="45.283917341979304" lon="7.5866957614343065"><ele>408.0</ele><time>2026-04-18T14:50:14Z</time></trkpt><trkpt lat="45.28400715333272" lon="7.586590961008887"><ele>403.4</ele><time>2026-04-18T14:50:15Z</time></trkpt><trkpt lat="45.28408952792071" lon="7.586455757431251"><ele>398.79999999999995</ele><time>2026-04-18T14:50:16Z</time></trkpt><trkpt lat="45.2841583463812" lon="7.586349795390361"><ele>394.2</ele><time>2026-04-18T14:50:17Z</time></trkpt><trkpt lat="45.28421129774741" lon="7.586261420888488"><ele>389.6</ele><time>2026-04-18T14:50:18Z</time></trkpt><trkpt lat="45.28424775523703" lon="7.586111554706071"><ele>385.0</ele><time>2026-04-18T14:50:20Z</time></trkpt><trkpt lat="45.284292856480086" lon="7.586041188149521"><ele>385.00000000000006</ele><time>2026-04-18T14:50:21Z</time></trkpt><trkpt lat="45.28435457897096" lon="7.585981234345583"><ele>385.0</ele><time>2026-04-18T14:50:22Z</time></trkpt><trkpt lat="45.28441931710838" lon="7.585920976163031"><ele>385.0</ele><time>2026-04-18T14:50:23Z</time></trkpt><trkpt lat="45.284482410666705" lon="7.585857464763817"><ele>385.0</ele><time>2026-04-18T14:50:24Z</time></trkpt><trkpt lat="45.28455472673228" lon="7.585781453584818"><ele>385.00000000000006</ele><time>2026-04-18T14:50:25Z</time></trkpt><trkpt lat="45.284654161097315" lon="7.5856807844253344"><ele>385.0</ele><time>2026-04-18T14:50:26Z</time></trkpt><trkpt lat="45.28477097547393" lon="7.585555421724188"><ele>383.6666666666667</ele><time>2026-04-18T14:50:27Z</time></trkpt><trkpt lat="45.28491743960749" lon="7.58540641129399"><ele>382.33333333333337</ele><time>2026-04-18T14:50:28Z</time></trkpt><trkpt lat="45.28506708194929" lon="7.585240347118974"><ele>381.0</ele><time>2026-04-18T14:50:29Z</time></trkpt><trkpt lat="45.2852174327094" lon="7.585086277475651"><ele>381.0</ele><time>2026-04-18T14:50:30Z</time></trkpt><trkpt lat="45.28533788508827" lon="7.5848903189939225"><ele>381.0</ele><time>2026-04-18T14:50:31Z</time></trkpt><trkpt lat="45.285449588544346" lon="7.58467773596121"><ele>381.0</ele><time>2026-04-18T14:50:32Z</time></trkpt><trkpt lat="45.285546181189076" lon="7.584439701401931"><ele>379.3333333333333</ele><time>2026-04-18T14:50:33Z</time></trkpt><trkpt lat="45.285644202837226" lon="7.584192882174502"><ele>377.66666666666663</ele><time>2026-04-18T14:50:34Z</time></trkpt><trkpt lat="45.28574607206866" lon="7.583947356430952"><ele>376.0</ele><time>2026-04-18T14:50:35Z</time></trkpt><trkpt lat="45.28585695716277" lon="7.583701444198867"><ele>376.66666666666663</ele><time>2026-04-18T14:50:36Z</time></trkpt><trkpt lat="45.28598283710907" lon="7.583482254588218"><ele>377.3333333333333</ele><time>2026-04-18T14:50:37Z</time></trkpt><trkpt lat="45.28611997562124" lon="7.5832888849399"><ele>378.0</ele><time>2026-04-18T14:50:38Z</time></trkpt><trkpt lat="45.286259564309255" lon="7.5831430703402445"><ele>378.0</ele><time>2026-04-18T14:50:39Z</time></trkpt><trkpt lat="45.2864202869691" lon="7.583050750277568"><ele>378.0</ele><time>2026-04-18T14:50:40Z</time></trkpt><trkpt lat="45.286580735170354" lon="7.58295844797808"><ele>378.0</ele><time>2026-04-18T14:50:41Z</time></trkpt><trkpt lat="45.28676594480419" lon="7.582909515222473"><ele>376.3333333333333</ele><time>2026-04-18T14:50:42Z</time></trkpt><trkpt lat="45.28696312145463" lon="7.582943261586813"><ele>374.66666666666663</ele><time>2026-04-18T14:50:43.001Z</time></trkpt><trkpt lat="45.28717421593303" lon="7.582987159972622"><ele>373.0</ele><time>2026-04-18T14:50:44Z</time></trkpt><trkpt lat="45.28741102343119" lon="7.5830347980621475"><ele>373.0</ele><time>2026-04-18T14:50:45Z</time></trkpt><trkpt lat="45.28765257719914" lon="7.583100697952163"><ele>373.0</ele><time>2026-04-18T14:50:46Z</time></trkpt><trkpt lat="45.28790139871099" lon="7.583170230655706"><ele>377.5</ele><time>2026-04-18T14:50:47Z</time></trkpt><trkpt lat="45.28816957809942" lon="7.583227434419395"><ele>382.0</ele><time>2026-04-18T14:50:48Z</time></trkpt><trkpt lat="45.288415196219795" lon="7.583284895020828"><ele>382.0</ele><time>2026-04-18T14:50:49Z</time></trkpt><trkpt lat="45.28864269640406" lon="7.58331852288271"><ele>382.0</ele><time>2026-04-18T14:50:50Z</time></trkpt><trkpt lat="45.288849157823456" lon="7.583326722373589"><ele>382.0</ele><time>2026-04-18T14:50:51Z</time></trkpt><trkpt lat="45.28907351708666" lon="7.583281072496333"><ele>388.0</ele><time>2026-04-18T14:50:52Z</time></trkpt><trkpt lat="45.289306071325235" lon="7.583167121102015"><ele>394.0</ele><time>2026-04-18T14:50:53Z</time></trkpt><trkpt lat="45.28954875757922" lon="7.583068784269311"><ele>398.6666666666667</ele><time>2026-04-18T14:50:54Z</time></trkpt><trkpt lat="45.28976797991425" lon="7.583014429985507"><ele>403.33333333333337</ele><time>2026-04-18T14:50:55Z</time></trkpt><trkpt lat="45.28997892562454" lon="7.583003192357386"><ele>408.0</ele><time>2026-04-18T14:50:56Z</time></trkpt><trkpt lat="45.29019785645105" lon="7.583011860994235"><ele>408.0</ele><time>2026-04-18T14:50:57Z</time></trkpt><trkpt lat="45.29040096320047" lon="7.583015232925436"><ele>408.0</ele><time>2026-04-18T14:50:58Z</time></trkpt><trkpt lat="45.2905855778457" lon="7.5829727507929805"><ele>408.0</ele><time>2026-04-18T14:50:59Z</time></trkpt><trkpt lat="45.29075711594548" lon="7.582915471007287"><ele>405.66666666666663</ele><time>2026-04-18T14:51:00Z</time></trkpt><trkpt lat="45.29092970702868" lon="7.582847626412723"><ele>403.3333333333333</ele><time>2026-04-18T14:51:01Z</time></trkpt><trkpt lat="45.291094081528065" lon="7.582732386165463"><ele>401.0</ele><time>2026-04-18T14:51:02Z</time></trkpt><trkpt lat="45.29126817088781" lon="7.582552841803293"><ele>406.66666666666663</ele><time>2026-04-18T14:51:03Z</time></trkpt><trkpt lat="45.291435543646905" lon="7.5823896825280555"><ele>412.33333333333337</ele><time>2026-04-18T14:51:04Z</time></trkpt><trkpt lat="45.291645607603684" lon="7.582308117074352"><ele>418.0</ele><time>2026-04-18T14:51:05Z</time></trkpt><trkpt lat="45.29184027158132" lon="7.58221385928542"><ele>418.0</ele><time>2026-04-18T14:51:06Z</time></trkpt><trkpt lat="45.29202473486548" lon="7.582113074881086"><ele>418.0</ele><time>2026-04-18T14:51:07Z</time></trkpt><trkpt lat="45.29219567570548" lon="7.581940494163719"><ele>418.0</ele><time>2026-04-18T14:51:08Z</time></trkpt><trkpt lat="45.29234957436055" lon="7.581715878843889"><ele>419.33333333333337</ele><time>2026-04-18T14:51:09Z</time></trkpt><trkpt lat="45.29249531713592" lon="7.5814845112909826"><ele>420.66666666666663</ele><time>2026-04-18T14:51:10Z</time></trkpt><trkpt lat="45.29266480277737" lon="7.581350477829122"><ele>422.0</ele><time>2026-04-18T14:51:11Z</time></trkpt><trkpt lat="45.292839397527516" lon="7.581249763007691"><ele>423.3333333333333</ele><time>2026-04-18T14:51:12Z</time></trkpt><trkpt lat="45.29301617823741" lon="7.581136161055982"><ele>424.66666666666663</ele><time>2026-04-18T14:51:13Z</time></trkpt><trkpt lat="45.29317377889874" lon="7.58106454677294"><ele>426.0</ele><time>2026-04-18T14:51:14Z</time></trkpt><trkpt lat="45.293302610741414" lon="7.581022167064618"><ele>426.0</ele><time>2026-04-18T14:51:15Z</time></trkpt><trkpt lat="45.293418868805844" lon="7.581010816197575"><ele>426.0</ele><time>2026-04-18T14:51:16Z</time></trkpt><trkpt lat="45.293540040332985" lon="7.581094003743576"><ele>426.0</ele><time>2026-04-18T14:51:17Z</time></trkpt><trkpt lat="45.293688599094985" lon="7.581181118465171"><ele>426.0</ele><time>2026-04-18T14:51:18Z</time></trkpt><trkpt lat="45.293855201597296" lon="7.581275114740849"><ele>429.66666666666663</ele><time>2026-04-18T14:51:19Z</time></trkpt><trkpt lat="45.294055167642064" lon="7.5813123696359925"><ele>433.3333333333333</ele><time>2026-04-18T14:51:20Z</time></trkpt><trkpt lat="45.294252099924904" lon="7.581294910766714"><ele>437.0</ele><time>2026-04-18T14:51:21Z</time></trkpt><trkpt lat="45.294428150340394" lon="7.581269373627441"><ele>437.0</ele><time>2026-04-18T14:51:22Z</time></trkpt><trkpt lat="45.294598866619985" lon="7.581274911773903"><ele>437.0</ele><time>2026-04-18T14:51:23Z</time></trkpt><trkpt lat="45.29477929437429" lon="7.581250363693235"><ele>437.0</ele><time>2026-04-18T14:51:24Z</time></trkpt><trkpt lat="45.29495646180242" lon="7.581176830447047"><ele>438.0</ele><time>2026-04-18T14:51:25Z</time></trkpt><trkpt lat="45.29511655360764" lon="7.5810985243221225"><ele>439.0</ele><time>2026-04-18T14:51:26Z</time></trkpt><trkpt lat="45.29526572440453" lon="7.581027349456992"><ele>440.0</ele><time>2026-04-18T14:51:27Z</time></trkpt><trkpt lat="45.295390440057005" lon="7.580937968601316"><ele>440.0</ele><time>2026-04-18T14:51:28Z</time></trkpt><trkpt lat="45.295523794472174" lon="7.580840932577674"><ele>440.0</ele><time>2026-04-18T14:51:29Z</time></trkpt><trkpt lat="45.295678712718896" lon="7.580764780452426"><ele>440.0</ele><time>2026-04-18T14:51:30Z</time></trkpt><trkpt lat="45.295847538521706" lon="7.580706909302532"><ele>441.0</ele><time>2026-04-18T14:51:31Z</time></trkpt><trkpt lat="45.29602256061309" lon="7.580661273320368"><ele>442.0</ele><time>2026-04-18T14:51:32Z</time></trkpt><trkpt lat="45.296189986837106" lon="7.580600447914969"><ele>443.0</ele><time>2026-04-18T14:51:33Z</time></trkpt><trkpt lat="45.2963350755126" lon="7.580555822229091"><ele>443.59999999999997</ele><time>2026-04-18T14:51:34Z</time></trkpt><trkpt lat="45.29645403765761" lon="7.580522256157033"><ele>444.19999999999993</ele><time>2026-04-18T14:51:35Z</time></trkpt><trkpt lat="45.296553564578055" lon="7.580482724382306"><ele>444.8</ele><time>2026-04-18T14:51:36Z</time></trkpt><trkpt lat="45.29666352453016" lon="7.580449147283233"><ele>445.4</ele><time>2026-04-18T14:51:37Z</time></trkpt><trkpt lat="45.29676629411248" lon="7.580406413619569"><ele>446.0</ele><time>2026-04-18T14:51:38Z</time></trkpt><trkpt lat="45.29686894298975" lon="7.5803690324720385"><ele>446.25</ele><time>2026-04-18T14:51:39Z</time></trkpt><trkpt lat="45.296975841515476" lon="7.580325690390315"><ele>446.5</ele><time>2026-04-18T14:51:40Z</time></trkpt><trkpt lat="45.29709011132959" lon="7.580272411611167"><ele>446.75</ele><time>2026-04-18T14:51:41Z</time></trkpt><trkpt lat="45.297214740162566" lon="7.580231511515929"><ele>447.0</ele><time>2026-04-18T14:51:42Z</time></trkpt><trkpt lat="45.29734936794989" lon="7.580184147958211"><ele>448.0</ele><time>2026-04-18T14:51:43Z</time></trkpt><trkpt lat="45.29749244069233" lon="7.58014597901698"><ele>449.0</ele><time>2026-04-18T14:51:44Z</time></trkpt><trkpt lat="45.29763294005484" lon="7.58009750090007"><ele>450.0</ele><time>2026-04-18T14:51:45Z</time></trkpt><trkpt lat="45.297784542694465" lon="7.580051885327573"><ele>451.0</ele><time>2026-04-18T14:51:46Z</time></trkpt><trkpt lat="45.29794136839552" lon="7.58001678557056"><ele>451.33333333333337</ele><time>2026-04-18T14:51:47Z</time></trkpt><trkpt lat="45.298097386528084" lon="7.579983042055123"><ele>451.66666666666663</ele><time>2026-04-18T14:51:48Z</time></trkpt><trkpt lat="45.29824596154947" lon="7.5799519026311835"><ele>452.0</ele><time>2026-04-18T14:51:49Z</time></trkpt><trkpt lat="45.298404365380065" lon="7.5799163472434055"><ele>452.0</ele><time>2026-04-18T14:51:50Z</time></trkpt><trkpt lat="45.29855903770375" lon="7.579875391380513"><ele>452.0</ele><time>2026-04-18T14:51:51Z</time></trkpt><trkpt lat="45.2987126475345" lon="7.5798222167497205"><ele>452.0</ele><time>2026-04-18T14:51:52Z</time></trkpt><trkpt lat="45.29887457835804" lon="7.579747766932905"><ele>452.66666666666663</ele><time>2026-04-18T14:51:53Z</time></trkpt><trkpt lat="45.29904577165396" lon="7.5796522955433385"><ele>453.33333333333337</ele><time>2026-04-18T14:51:54Z</time></trkpt><trkpt lat="45.29920927053382" lon="7.579569607794065"><ele>454.0</ele><time>2026-04-18T14:51:55Z</time></trkpt><trkpt lat="45.29939167932841" lon="7.579511628146291"><ele>454.33333333333337</ele><time>2026-04-18T14:51:56Z</time></trkpt><trkpt lat="45.2995590579312" lon="7.5794511589062665"><ele>454.66666666666663</ele><time>2026-04-18T14:51:57Z</time></trkpt><trkpt lat="45.299722783747086" lon="7.579426272714888"><ele>455.0</ele><time>2026-04-18T14:51:58Z</time></trkpt><trkpt lat="45.29986595801473" lon="7.579430835527351"><ele>455.0</ele><time>2026-04-18T14:51:59Z</time></trkpt><trkpt lat="45.300022677985446" lon="7.579476903167726"><ele>455.0</ele><time>2026-04-18T14:52:00Z</time></trkpt><trkpt lat="45.300182937585845" lon="7.579565068000161"><ele>455.0</ele><time>2026-04-18T14:52:01Z</time></trkpt><trkpt lat="45.30034304538483" lon="7.579660642783119"><ele>455.0</ele><time>2026-04-18T14:52:02Z</time></trkpt><trkpt lat="45.30046166326485" lon="7.579756742028335"><ele>455.0</ele><time>2026-04-18T14:52:03Z</time></trkpt><trkpt lat="45.30058613831874" lon="7.579786626781077"><ele>455.0</ele><time>2026-04-18T14:52:04Z</time></trkpt><trkpt lat="45.30072427720237" lon="7.579731707761005"><ele>455.0</ele><time>2026-04-18T14:52:05Z</time></trkpt><trkpt lat="45.30086831823721" lon="7.579618709178566"><ele>455.75</ele><time>2026-04-18T14:52:06Z</time></trkpt><trkpt lat="45.30098914296014" lon="7.579566738166281"><ele>456.5</ele><time>2026-04-18T14:52:07Z</time></trkpt><trkpt lat="45.30111888766495" lon="7.579580914367174"><ele>457.25</ele><time>2026-04-18T14:52:08Z</time></trkpt><trkpt lat="45.30125339552922" lon="7.579625415948405"><ele>458.0</ele><time>2026-04-18T14:52:09Z</time></trkpt><trkpt lat="45.30138849728217" lon="7.579712794175766"><ele>458.0</ele><time>2026-04-18T14:52:10Z</time></trkpt><trkpt lat="45.30152913355679" lon="7.579713379752058"><ele>458.0</ele><time>2026-04-18T14:52:11Z</time></trkpt><trkpt lat="45.30166543064702" lon="7.5796147537251874"><ele>458.0</ele><time>2026-04-18T14:52:12Z</time></trkpt><trkpt lat="45.301792439183075" lon="7.579460781662897"><ele>459.0</ele><time>2026-04-18T14:52:13Z</time></trkpt><trkpt lat="45.3019433213017" lon="7.579336747749266"><ele>460.0</ele><time>2026-04-18T14:52:14Z</time></trkpt><trkpt lat="45.30211960126791" lon="7.5792517967462505"><ele>461.0</ele><time>2026-04-18T14:52:15Z</time></trkpt><trkpt lat="45.302291329044984" lon="7.579159627043289"><ele>461.0</ele><time>2026-04-18T14:52:16Z</time></trkpt><trkpt lat="45.302442775596646" lon="7.57905963469537"><ele>461.0</ele><time>2026-04-18T14:52:17Z</time></trkpt><trkpt lat="45.30257560942287" lon="7.579009298525278"><ele>461.0</ele><time>2026-04-18T14:52:18Z</time></trkpt><trkpt lat="45.302718312692924" lon="7.578934213019516"><ele>461.0</ele><time>2026-04-18T14:52:19Z</time></trkpt><trkpt lat="45.30283988641214" lon="7.578854641951947"><ele>461.0</ele><time>2026-04-18T14:52:20Z</time></trkpt><trkpt lat="45.30300223142903" lon="7.578856080020224"><ele>461.0</ele><time>2026-04-18T14:52:21Z</time></trkpt><trkpt lat="45.30318158940007" lon="7.578829313391986"><ele>461.25</ele><time>2026-04-18T14:52:22Z</time></trkpt><trkpt lat="45.30329132216597" lon="7.578834775099624"><ele>461.5</ele><time>2026-04-18T14:52:23Z</time></trkpt><trkpt lat="45.30339799378534" lon="7.578790904153747"><ele>461.75</ele><time>2026-04-18T14:52:24Z</time></trkpt><trkpt lat="45.30349189005985" lon="7.5786946883800566"><ele>462.0</ele><time>2026-04-18T14:52:25Z</time></trkpt><trkpt lat="45.303576042945714" lon="7.578506033518315"><ele>462.0</ele><time>2026-04-18T14:52:26Z</time></trkpt><trkpt lat="45.30362746083918" lon="7.578305230627342"><ele>462.0</ele><time>2026-04-18T14:52:27Z</time></trkpt><trkpt lat="45.30368490619452" lon="7.578142683217387"><ele>462.0</ele><time>2026-04-18T14:52:28Z</time></trkpt><trkpt lat="45.30381345670546" lon="7.578049171928518"><ele>462.0</ele><time>2026-04-18T14:52:29Z</time></trkpt><trkpt lat="45.30397071125459" lon="7.577955320214853"><ele>461.66666666666663</ele><time>2026-04-18T14:52:30Z</time></trkpt><trkpt lat="45.30415039418043" lon="7.577840432705748"><ele>461.3333333333333</ele><time>2026-04-18T14:52:31Z</time></trkpt><trkpt lat="45.304320571557476" lon="7.577752006891765"><ele>461.0</ele><time>2026-04-18T14:52:32Z</time></trkpt><trkpt lat="45.30447218778114" lon="7.577671366214864"><ele>461.0</ele><time>2026-04-18T14:52:33Z</time></trkpt><trkpt lat="45.30462975924145" lon="7.577633422848604"><ele>461.0</ele><time>2026-04-18T14:52:34Z</time></trkpt><trkpt lat="45.30478042557023" lon="7.577589042216363"><ele>461.0</ele><time>2026-04-18T14:52:35Z</time></trkpt><trkpt lat="45.30492991079155" lon="7.577566332096612"><ele>457.5</ele><time>2026-04-18T14:52:36Z</time></trkpt><trkpt lat="45.30506736348681" lon="7.57755335084964"><ele>454.0</ele><time>2026-04-18T14:52:37Z</time></trkpt><trkpt lat="45.305212799821" lon="7.577599347341942"><ele>450.5</ele><time>2026-04-18T14:52:38Z</time></trkpt><trkpt lat="45.3053454767748" lon="7.577650712639599"><ele>447.0</ele><time>2026-04-18T14:52:39Z</time></trkpt><trkpt lat="45.305475530519836" lon="7.577684734677104"><ele>447.0</ele><time>2026-04-18T14:52:40Z</time></trkpt><trkpt lat="45.30556716685417" lon="7.577658812549463"><ele>447.0</ele><time>2026-04-18T14:52:41Z</time></trkpt><trkpt lat="45.30564358816851" lon="7.577555799812443"><ele>447.0</ele><time>2026-04-18T14:52:42Z</time></trkpt><trkpt lat="45.30568855681001" lon="7.577381227791116"><ele>447.0</ele><time>2026-04-18T14:52:43Z</time></trkpt><trkpt lat="45.305732307986204" lon="7.577187888373416"><ele>446.0</ele><time>2026-04-18T14:52:44Z</time></trkpt><trkpt lat="45.305797216856" lon="7.576986455812914"><ele>445.0</ele><time>2026-04-18T14:52:45Z</time></trkpt><trkpt lat="45.30588433230785" lon="7.576783487644804"><ele>444.0</ele><time>2026-04-18T14:52:46Z</time></trkpt><trkpt lat="45.305998089287456" lon="7.576590854880639"><ele>444.0</ele><time>2026-04-18T14:52:47Z</time></trkpt><trkpt lat="45.306133000101894" lon="7.5764228304296575"><ele>444.0</ele><time>2026-04-18T14:52:48Z</time></trkpt><trkpt lat="45.30625469158569" lon="7.5762457257425115"><ele>444.0</ele><time>2026-04-18T14:52:49Z</time></trkpt><trkpt lat="45.306367064899426" lon="7.576098630532088"><ele>441.75</ele><time>2026-04-18T14:52:50Z</time></trkpt><trkpt lat="45.30648545721811" lon="7.575958074510656"><ele>439.5</ele><time>2026-04-18T14:52:51Z</time></trkpt><trkpt lat="45.306587036540066" lon="7.57585477250084"><ele>437.25</ele><time>2026-04-18T14:52:52Z</time></trkpt><trkpt lat="45.30668202356794" lon="7.575778784732497"><ele>435.0</ele><time>2026-04-18T14:52:53Z</time></trkpt><trkpt lat="45.306773245889005" lon="7.575722737875278"><ele>435.0</ele><time>2026-04-18T14:52:54Z</time></trkpt><trkpt lat="45.3068406722939" lon="7.575695122849862"><ele>435.0</ele><time>2026-04-18T14:52:55Z</time></trkpt><trkpt lat="45.306954944399635" lon="7.5757693770597045"><ele>435.0</ele><time>2026-04-18T14:52:57Z</time></trkpt><trkpt lat="45.30695159875229" lon="7.575917530088267"><ele>435.0</ele><time>2026-04-18T14:52:58Z</time></trkpt><trkpt lat="45.30692835507991" lon="7.576061542096496"><ele>435.0</ele><time>2026-04-18T14:52:59Z</time></trkpt><trkpt lat="45.30694035804598" lon="7.576213680355271"><ele>432.6666666666667</ele><time>2026-04-18T14:53:00Z</time></trkpt><trkpt lat="45.30695132174559" lon="7.576357555005448"><ele>430.33333333333337</ele><time>2026-04-18T14:53:01Z</time></trkpt><trkpt lat="45.30699152203097" lon="7.576481117277491"><ele>428.0</ele><time>2026-04-18T14:53:02Z</time></trkpt><trkpt lat="45.30704202121572" lon="7.576561484697738"><ele>425.6666666666667</ele><time>2026-04-18T14:53:03Z</time></trkpt><trkpt lat="45.307110639984806" lon="7.576598687191804"><ele>423.33333333333337</ele><time>2026-04-18T14:53:04Z</time></trkpt><trkpt lat="45.307188967988914" lon="7.576596192404314"><ele>421.0</ele><time>2026-04-18T14:53:05Z</time></trkpt><trkpt lat="45.30726902737945" lon="7.5765762034309905"><ele>419.8</ele><time>2026-04-18T14:53:06Z</time></trkpt><trkpt lat="45.307352550102905" lon="7.576567315862389"><ele>418.6</ele><time>2026-04-18T14:53:07Z</time></trkpt><trkpt lat="45.30744916087699" lon="7.576566641652724"><ele>417.4</ele><time>2026-04-18T14:53:08Z</time></trkpt><trkpt lat="45.307546850158204" lon="7.5765406068156915"><ele>416.2</ele><time>2026-04-18T14:53:09Z</time></trkpt><trkpt lat="45.30765709020188" lon="7.57653683629105"><ele>415.0</ele><time>2026-04-18T14:53:10Z</time></trkpt><trkpt lat="45.30776435551279" lon="7.576495279786264"><ele>415.0</ele><time>2026-04-18T14:53:11Z</time></trkpt><trkpt lat="45.30787556059743" lon="7.576464620310618"><ele>415.0</ele><time>2026-04-18T14:53:12Z</time></trkpt><trkpt lat="45.30798761923221" lon="7.57643742584472"><ele>415.0</ele><time>2026-04-18T14:53:13Z</time></trkpt><trkpt lat="45.30809396981748" lon="7.576406305173882"><ele>415.0</ele><time>2026-04-18T14:53:14Z</time></trkpt><trkpt lat="45.30818658400376" lon="7.576365066757587"><ele>415.0</ele><time>2026-04-18T14:53:15Z</time></trkpt><trkpt lat="45.30826332488068" lon="7.576317231098456"><ele>415.6666666666667</ele><time>2026-04-18T14:53:16Z</time></trkpt><trkpt lat="45.308331556011765" lon="7.576291358601214"><ele>416.33333333333337</ele><time>2026-04-18T14:53:17Z</time></trkpt><trkpt lat="45.30839888300789" lon="7.576263255830462"><ele>417.0</ele><time>2026-04-18T14:53:18Z</time></trkpt><trkpt lat="45.30846436787754" lon="7.576235417114374"><ele>417.66666666666663</ele><time>2026-04-18T14:53:21Z</time></trkpt><trkpt lat="45.30853399439846" lon="7.576245424843337"><ele>418.3333333333333</ele><time>2026-04-18T14:53:24Z</time></trkpt><trkpt lat="45.308538206622416" lon="7.576396401446297"><ele>419.0</ele><time>2026-04-18T14:53:25Z</time></trkpt><trkpt lat="45.308591425681044" lon="7.576534909657632"><ele>419.0</ele><time>2026-04-18T14:53:26Z</time></trkpt><trkpt lat="45.30863640643601" lon="7.576696244018566"><ele>419.0</ele><time>2026-04-18T14:53:27Z</time></trkpt><trkpt lat="45.308686498462734" lon="7.576874666554255"><ele>419.0</ele><time>2026-04-18T14:53:28Z</time></trkpt><trkpt lat="45.30873884975344" lon="7.577060451033619"><ele>419.0</ele><time>2026-04-18T14:53:29Z</time></trkpt><trkpt lat="45.30881282045122" lon="7.577279288306225"><ele>419.25</ele><time>2026-04-18T14:53:30Z</time></trkpt><trkpt lat="45.30887389077367" lon="7.577487909557106"><ele>419.5</ele><time>2026-04-18T14:53:31Z</time></trkpt><trkpt lat="45.308927580076386" lon="7.577682057731108"><ele>419.75</ele><time>2026-04-18T14:53:32Z</time></trkpt><trkpt lat="45.308989992542706" lon="7.577866169552814"><ele>420.0</ele><time>2026-04-18T14:53:33Z</time></trkpt><trkpt lat="45.30904312904122" lon="7.578040455115733"><ele>419.5</ele><time>2026-04-18T14:53:34Z</time></trkpt><trkpt lat="45.30910360762232" lon="7.578228803374234"><ele>419.0</ele><time>2026-04-18T14:53:35Z</time></trkpt><trkpt lat="45.309142767690396" lon="7.578383775508756"><ele>418.5</ele><time>2026-04-18T14:53:36Z</time></trkpt><trkpt lat="45.30918297067543" lon="7.578531561045239"><ele>418.0</ele><time>2026-04-18T14:53:37Z</time></trkpt><trkpt lat="45.30923144714129" lon="7.578679304954293"><ele>417.50000000000006</ele><time>2026-04-18T14:53:38Z</time></trkpt><trkpt lat="45.309262953246595" lon="7.578805574949793"><ele>417.0</ele><time>2026-04-18T14:53:39Z</time></trkpt><trkpt lat="45.30928984339818" lon="7.578899713552869"><ele>416.5</ele><time>2026-04-18T14:53:40Z</time></trkpt><trkpt lat="45.309313614039894" lon="7.578998929768211"><ele>416.0</ele><time>2026-04-18T14:53:42Z</time></trkpt><trkpt lat="45.30942886223488" lon="7.578929972948792"><ele>415.50000000000006</ele><time>2026-04-18T14:53:43Z</time></trkpt><trkpt lat="45.309478674508235" lon="7.57887232510528"><ele>415.0</ele><time>2026-04-18T14:53:44Z</time></trkpt><trkpt lat="45.3095913497711" lon="7.578761277011258"><ele>415.0</ele><time>2026-04-18T14:53:46Z</time></trkpt><trkpt lat="45.30968094549789" lon="7.57869987490927"><ele>415.0</ele><time>2026-04-18T14:53:47Z</time></trkpt><trkpt lat="45.309776102038875" lon="7.578642674662199"><ele>415.0</ele><time>2026-04-18T14:53:48Z</time></trkpt><trkpt lat="45.309866398827694" lon="7.578567412203973"><ele>415.0</ele><time>2026-04-18T14:53:49Z</time></trkpt><trkpt lat="45.30996470011437" lon="7.578492617497146"><ele>415.0</ele><time>2026-04-18T14:53:50Z</time></trkpt><trkpt lat="45.31006483893707" lon="7.578440943785249"><ele>416.75</ele><time>2026-04-18T14:53:51Z</time></trkpt><trkpt lat="45.310153868625314" lon="7.578393366005744"><ele>418.5</ele><time>2026-04-18T14:53:52Z</time></trkpt><trkpt lat="45.31022784929889" lon="7.578348004068752"><ele>420.25</ele><time>2026-04-18T14:53:53Z</time></trkpt><trkpt lat="45.31029846476788" lon="7.578275383911853"><ele>422.0</ele><time>2026-04-18T14:53:55Z</time></trkpt><trkpt lat="45.310251885927585" lon="7.577986105411299"><ele>422.0</ele><time>2026-04-18T14:54:00Z</time></trkpt><trkpt lat="45.31024028862815" lon="7.577855381484798"><ele>422.0</ele><time>2026-04-18T14:54:01Z</time></trkpt><trkpt lat="45.31022456883289" lon="7.577719977560875"><ele>422.0</ele><time>2026-04-18T14:54:02Z</time></trkpt><trkpt lat="45.31023746376322" lon="7.577625736595344"><ele>422.0</ele><time>2026-04-18T14:54:03Z</time></trkpt><trkpt lat="45.310249588460195" lon="7.577442206900483"><ele>422.0</ele><time>2026-04-18T14:54:04Z</time></trkpt><trkpt lat="45.31026054469385" lon="7.577292632286103"><ele>422.3333333333333</ele><time>2026-04-18T14:54:05Z</time></trkpt><trkpt lat="45.31026667495854" lon="7.577153191358658"><ele>422.66666666666663</ele><time>2026-04-18T14:54:06Z</time></trkpt><trkpt lat="45.31026404521605" lon="7.577039988432554"><ele>423.0</ele><time>2026-04-18T14:54:07Z</time></trkpt><trkpt lat="45.31025986667723" lon="7.57693530322243"><ele>423.33333333333337</ele><time>2026-04-18T14:54:08Z</time></trkpt><trkpt lat="45.31024443516136" lon="7.576830936523299"><ele>423.6666666666667</ele><time>2026-04-18T14:54:09Z</time></trkpt><trkpt lat="45.31022532369689" lon="7.576717386667424"><ele>424.0</ele><time>2026-04-18T14:54:10Z</time></trkpt><trkpt lat="45.31019405427538" lon="7.576591042506518"><ele>424.00000000000006</ele><time>2026-04-18T14:54:11Z</time></trkpt><trkpt lat="45.3101523677294" lon="7.576499786936317"><ele>424.0</ele><time>2026-04-18T14:54:12Z</time></trkpt><trkpt lat="45.31008751839394" lon="7.576446478101196"><ele>424.0</ele><time>2026-04-18T14:54:13Z</time></trkpt><trkpt lat="45.31001698135387" lon="7.576389977019785"><ele>424.0</ele><time>2026-04-18T14:54:14Z</time></trkpt><trkpt lat="45.3099635890603" lon="7.57632346863548"><ele>424.00000000000006</ele><time>2026-04-18T14:54:15Z</time></trkpt><trkpt lat="45.30988824056118" lon="7.576231429657321"><ele>424.0</ele><time>2026-04-18T14:54:16Z</time></trkpt><trkpt lat="45.30980541195724" lon="7.576152702442359"><ele>424.00000000000006</ele><time>2026-04-18T14:54:17Z</time></trkpt><trkpt lat="45.30973386830226" lon="7.576106140677433"><ele>424.0</ele><time>2026-04-18T14:54:18Z</time></trkpt><trkpt lat="45.30963706577943" lon="7.576092109573103"><ele>424.0</ele><time>2026-04-18T14:54:19Z</time></trkpt><trkpt lat="45.309552736522804" lon="7.576051869213583"><ele>424.0</ele><time>2026-04-18T14:54:20Z</time></trkpt><trkpt lat="45.30948786033914" lon="7.576006164429095"><ele>424.00000000000006</ele><time>2026-04-18T14:54:21Z</time></trkpt><trkpt lat="45.30940919255287" lon="7.575913820500179"><ele>424.0</ele><time>2026-04-18T14:54:23Z</time></trkpt><trkpt lat="45.30932554132824" lon="7.575798720588722"><ele>424.0</ele><time>2026-04-18T14:54:25Z</time></trkpt><trkpt lat="45.309263940708036" lon="7.575710483236331"><ele>424.0</ele><time>2026-04-18T14:54:27Z</time></trkpt><trkpt lat="45.30919072405186" lon="7.575606107262798"><ele>424.0</ele><time>2026-04-18T14:54:30Z</time></trkpt><trkpt lat="45.30913882795596" lon="7.575514995982165"><ele>424.0</ele><time>2026-04-18T14:54:32Z</time></trkpt><trkpt lat="45.30898471074843" lon="7.57563997589132"><ele>424.00000000000006</ele><time>2026-04-18T14:54:34Z</time></trkpt><trkpt lat="45.30892767976258" lon="7.57569538398638"><ele>424.0</ele><time>2026-04-18T14:54:35Z</time></trkpt><trkpt lat="45.308869245614424" lon="7.575739822170876"><ele>424.0</ele><time>2026-04-18T14:54:36Z</time></trkpt><trkpt lat="45.30876703812833" lon="7.575828026602826"><ele>424.0</ele><time>2026-04-18T14:54:38Z</time></trkpt><trkpt lat="45.30871395166006" lon="7.575881244895136"><ele>424.00000000000006</ele><time>2026-04-18T14:54:39Z</time></trkpt><trkpt lat="45.30865465869315" lon="7.575916111755263"><ele>424.0</ele><time>2026-04-18T14:54:40Z</time></trkpt><trkpt lat="45.30855637210996" lon="7.575977548117405"><ele>423.75</ele><time>2026-04-18T14:54:42Z</time></trkpt><trkpt lat="45.30845259709894" lon="7.575814950932923"><ele>423.5</ele><time>2026-04-18T14:54:48Z</time></trkpt><trkpt lat="45.30843954836927" lon="7.575654151740212"><ele>423.25</ele><time>2026-04-18T14:54:49Z</time></trkpt><trkpt lat="45.30841650326066" lon="7.575447680027838"><ele>423.0</ele><time>2026-04-18T14:54:50Z</time></trkpt><trkpt lat="45.30839036801499" lon="7.575235948910845"><ele>423.0</ele><time>2026-04-18T14:54:51Z</time></trkpt><trkpt lat="45.30835593855491" lon="7.575046418421368"><ele>423.0</ele><time>2026-04-18T14:54:52Z</time></trkpt><trkpt lat="45.30835053690405" lon="7.574868204500309"><ele>423.0</ele><time>2026-04-18T14:54:53Z</time></trkpt><trkpt lat="45.30832293557042" lon="7.574693599484201"><ele>423.0</ele><time>2026-04-18T14:54:54Z</time></trkpt><trkpt lat="45.3082914215239" lon="7.574515832480613"><ele>423.75</ele><time>2026-04-18T14:54:55Z</time></trkpt><trkpt lat="45.308263508030706" lon="7.574359785993743"><ele>424.5</ele><time>2026-04-18T14:54:56Z</time></trkpt><trkpt lat="45.308241379605086" lon="7.574193052701861"><ele>425.25</ele><time>2026-04-18T14:54:57Z</time></trkpt><trkpt lat="45.30822233808044" lon="7.574026994371383"><ele>426.0</ele><time>2026-04-18T14:54:58Z</time></trkpt><trkpt lat="45.30819938809068" lon="7.573882821476766"><ele>426.0</ele><time>2026-04-18T14:54:59Z</time></trkpt><trkpt lat="45.30818795092922" lon="7.573766500114399"><ele>426.0</ele><time>2026-04-18T14:55:00Z</time></trkpt><trkpt lat="45.308223191929976" lon="7.573631785948559"><ele>426.0</ele><time>2026-04-18T14:55:03Z</time></trkpt><trkpt lat="45.30833394905317" lon="7.573630484728695"><ele>426.0</ele><time>2026-04-18T14:55:04Z</time></trkpt><trkpt lat="45.308444311471234" lon="7.573589240202233"><ele>426.0</ele><time>2026-04-18T14:55:05Z</time></trkpt><trkpt lat="45.30857330113048" lon="7.573522190554217"><ele>425.75</ele><time>2026-04-18T14:55:06Z</time></trkpt><trkpt lat="45.3087037047021" lon="7.573481454821363"><ele>425.5</ele><time>2026-04-18T14:55:07Z</time></trkpt><trkpt lat="45.30884345825362" lon="7.573460736787577"><ele>425.25</ele><time>2026-04-18T14:55:08Z</time></trkpt><trkpt lat="45.30897609300354" lon="7.5734177392180575"><ele>425.0</ele><time>2026-04-18T14:55:09Z</time></trkpt><trkpt lat="45.30909471406973" lon="7.57340453838802"><ele>425.5</ele><time>2026-04-18T14:55:10Z</time></trkpt><trkpt lat="45.30921482417835" lon="7.573360527962817"><ele>426.0</ele><time>2026-04-18T14:55:11Z</time></trkpt><trkpt lat="45.30930920830275" lon="7.573300008011102"><ele>426.5</ele><time>2026-04-18T14:55:12Z</time></trkpt><trkpt lat="45.30942988690784" lon="7.573283839038518"><ele>427.0</ele><time>2026-04-18T14:55:13Z</time></trkpt><trkpt lat="45.3095599402012" lon="7.573314427214253"><ele>427.0</ele><time>2026-04-18T14:55:14Z</time></trkpt><trkpt lat="45.30971780546509" lon="7.573403451005512"><ele>427.0</ele><time>2026-04-18T14:55:15Z</time></trkpt><trkpt lat="45.309878581266766" lon="7.573463516654958"><ele>427.0</ele><time>2026-04-18T14:55:16Z</time></trkpt><trkpt lat="45.31006253164753" lon="7.573553766400102"><ele>427.6666666666667</ele><time>2026-04-18T14:55:17Z</time></trkpt><trkpt lat="45.31024026289599" lon="7.573619384270713"><ele>428.33333333333337</ele><time>2026-04-18T14:55:18Z</time></trkpt><trkpt lat="45.31040896245941" lon="7.5736727610336265"><ele>429.0</ele><time>2026-04-18T14:55:19Z</time></trkpt><trkpt lat="45.31055656579607" lon="7.573706646385043"><ele>431.5</ele><time>2026-04-18T14:55:20Z</time></trkpt><trkpt lat="45.31068364969161" lon="7.573717724366712"><ele>434.0</ele><time>2026-04-18T14:55:21Z</time></trkpt><trkpt lat="45.31078996203784" lon="7.57368956190719"><ele>436.5</ele><time>2026-04-18T14:55:22Z</time></trkpt><trkpt lat="45.31088923021226" lon="7.573597417136903"><ele>439.0</ele><time>2026-04-18T14:55:23Z</time></trkpt><trkpt lat="45.310964241434476" lon="7.573454198621976"><ele>439.0</ele><time>2026-04-18T14:55:24Z</time></trkpt><trkpt lat="45.31100741745126" lon="7.573260831212866"><ele>439.0</ele><time>2026-04-18T14:55:25Z</time></trkpt><trkpt lat="45.31103550331944" lon="7.573037824856568"><ele>439.0</ele><time>2026-04-18T14:55:26Z</time></trkpt><trkpt lat="45.31105831593721" lon="7.572762379743658"><ele>438.6666666666667</ele><time>2026-04-18T14:55:27Z</time></trkpt><trkpt lat="45.31111395385159" lon="7.572480822430363"><ele>438.33333333333337</ele><time>2026-04-18T14:55:28Z</time></trkpt><trkpt lat="45.31113381775056" lon="7.5722085974650515"><ele>438.0</ele><time>2026-04-18T14:55:29Z</time></trkpt><trkpt lat="45.3111782498382" lon="7.571967577948926"><ele>438.0</ele><time>2026-04-18T14:55:30Z</time></trkpt><trkpt lat="45.311251140246675" lon="7.571769312630727"><ele>438.0</ele><time>2026-04-18T14:55:31Z</time></trkpt><trkpt lat="45.311275778249524" lon="7.571578358898629"><ele>438.0</ele><time>2026-04-18T14:55:32Z</time></trkpt><trkpt lat="45.31127014612178" lon="7.571370597693059"><ele>438.0</ele><time>2026-04-18T14:55:33Z</time></trkpt><trkpt lat="45.311207180068806" lon="7.571121349290418"><ele>439.33333333333337</ele><time>2026-04-18T14:55:34Z</time></trkpt><trkpt lat="45.31112343138938" lon="7.57084774832539"><ele>440.6666666666667</ele><time>2026-04-18T14:55:35Z</time></trkpt><trkpt lat="45.31104479736647" lon="7.570529180808419"><ele>442.0</ele><time>2026-04-18T14:55:36Z</time></trkpt><trkpt lat="45.31097224320787" lon="7.570233153341868"><ele>444.33333333333337</ele><time>2026-04-18T14:55:37Z</time></trkpt><trkpt lat="45.310882474911516" lon="7.569960414010106"><ele>446.66666666666663</ele><time>2026-04-18T14:55:38Z</time></trkpt><trkpt lat="45.31080545354624" lon="7.569683972509358"><ele>449.0</ele><time>2026-04-18T14:55:39Z</time></trkpt><trkpt lat="45.31074031922679" lon="7.569403275118493"><ele>455.5</ele><time>2026-04-18T14:55:40Z</time></trkpt><trkpt lat="45.31069416753601" lon="7.569097062976628"><ele>462.0</ele><time>2026-04-18T14:55:41Z</time></trkpt><trkpt lat="45.31064351152515" lon="7.5687495980506405"><ele>467.0</ele><time>2026-04-18T14:55:42Z</time></trkpt><trkpt lat="45.3106325546808" lon="7.568382683775876"><ele>472.0</ele><time>2026-04-18T14:55:43Z</time></trkpt><trkpt lat="45.31059650609454" lon="7.568024388613994"><ele>472.5</ele><time>2026-04-18T14:55:44Z</time></trkpt><trkpt lat="45.310613548814736" lon="7.567671882933613"><ele>473.0</ele><time>2026-04-18T14:55:45Z</time></trkpt><trkpt lat="45.3106405822103" lon="7.567332567587163"><ele>472.0</ele><time>2026-04-18T14:55:46Z</time></trkpt><trkpt lat="45.310654501147326" lon="7.567011045451165"><ele>471.0</ele><time>2026-04-18T14:55:47Z</time></trkpt><trkpt lat="45.31065772388981" lon="7.566706391719905"><ele>470.0</ele><time>2026-04-18T14:55:48Z</time></trkpt><trkpt lat="45.310613868315734" lon="7.566357818158404"><ele>458.5</ele><time>2026-04-18T14:55:49Z</time></trkpt><trkpt lat="45.310549029615466" lon="7.565982152679361"><ele>447.0</ele><time>2026-04-18T14:55:50Z</time></trkpt><trkpt lat="45.31046820672181" lon="7.565596928158829"><ele>450.5</ele><time>2026-04-18T14:55:51Z</time></trkpt><trkpt lat="45.310368222891896" lon="7.565248618460804"><ele>454.0</ele><time>2026-04-18T14:55:52Z</time></trkpt><trkpt lat="45.31026743750591" lon="7.5649601803086695"><ele>454.0</ele><time>2026-04-18T14:55:53Z</time></trkpt><trkpt lat="45.31016348386118" lon="7.564675918950967"><ele>454.0</ele><time>2026-04-18T14:55:54Z</time></trkpt><trkpt lat="45.31005509230545" lon="7.564410783534517"><ele>454.0</ele><time>2026-04-18T14:55:55Z</time></trkpt><trkpt lat="45.309932230456994" lon="7.56418842899369"><ele>455.6666666666667</ele><time>2026-04-18T14:55:56Z</time></trkpt><trkpt lat="45.30981466751091" lon="7.5639827085159945"><ele>457.33333333333337</ele><time>2026-04-18T14:55:57Z</time></trkpt><trkpt lat="45.309729900696965" lon="7.563756140641763"><ele>459.0</ele><time>2026-04-18T14:55:58Z</time></trkpt><trkpt lat="45.309667623493084" lon="7.563512571331753"><ele>459.0</ele><time>2026-04-18T14:55:59Z</time></trkpt><trkpt lat="45.30962557785326" lon="7.56321764914772"><ele>459.0</ele><time>2026-04-18T14:56:00Z</time></trkpt><trkpt lat="45.30960137686156" lon="7.562893007091204"><ele>459.0</ele><time>2026-04-18T14:56:01Z</time></trkpt><trkpt lat="45.30960371337074" lon="7.562540184445428"><ele>458.5</ele><time>2026-04-18T14:56:02Z</time></trkpt><trkpt lat="45.30963018933993" lon="7.562161328399854"><ele>458.0</ele><time>2026-04-18T14:56:03Z</time></trkpt><trkpt lat="45.30965185011094" lon="7.561779851940318"><ele>458.0</ele><time>2026-04-18T14:56:04Z</time></trkpt><trkpt lat="45.309673984023526" lon="7.561430437067063"><ele>458.0</ele><time>2026-04-18T14:56:05Z</time></trkpt><trkpt lat="45.309681874158116" lon="7.561115946053273"><ele>458.66666666666663</ele><time>2026-04-18T14:56:06Z</time></trkpt><trkpt lat="45.309704823854986" lon="7.560849306583932"><ele>459.33333333333337</ele><time>2026-04-18T14:56:07Z</time></trkpt><trkpt lat="45.309746449474396" lon="7.5605978980854145"><ele>460.0</ele><time>2026-04-18T14:56:08Z</time></trkpt><trkpt lat="45.30980466940863" lon="7.5603774934754995"><ele>462.33333333333337</ele><time>2026-04-18T14:56:09Z</time></trkpt><trkpt lat="45.309893973938266" lon="7.560165234038463"><ele>464.66666666666663</ele><time>2026-04-18T14:56:10Z</time></trkpt><trkpt lat="45.31002235872058" lon="7.559939087588541"><ele>467.0</ele><time>2026-04-18T14:56:11Z</time></trkpt><trkpt lat="45.310163411556346" lon="7.5596849824312065"><ele>464.5</ele><time>2026-04-18T14:56:12Z</time></trkpt><trkpt lat="45.31031473059388" lon="7.559422019362872"><ele>462.0</ele><time>2026-04-18T14:56:13Z</time></trkpt><trkpt lat="45.31043981718599" lon="7.559139288325004"><ele>462.0</ele><time>2026-04-18T14:56:14Z</time></trkpt><trkpt lat="45.31055860381341" lon="7.558841580448342"><ele>462.0</ele><time>2026-04-18T14:56:15Z</time></trkpt><trkpt lat="45.31067428001201" lon="7.558522557642918"><ele>466.0</ele><time>2026-04-18T14:56:16Z</time></trkpt><trkpt lat="45.31079403941704" lon="7.558229565179581"><ele>470.0</ele><time>2026-04-18T14:56:17Z</time></trkpt><trkpt lat="45.31090778028143" lon="7.557925156984094"><ele>470.5</ele><time>2026-04-18T14:56:18Z</time></trkpt><trkpt lat="45.31102887517299" lon="7.557617592955127"><ele>471.0</ele><time>2026-04-18T14:56:19Z</time></trkpt><trkpt lat="45.31114218692828" lon="7.557314707530697"><ele>471.5</ele><time>2026-04-18T14:56:20Z</time></trkpt><trkpt lat="45.311255806556694" lon="7.557029368914517"><ele>472.0</ele><time>2026-04-18T14:56:21Z</time></trkpt><trkpt lat="45.31136352975492" lon="7.556746784188936"><ele>475.0</ele><time>2026-04-18T14:56:22Z</time></trkpt><trkpt lat="45.31147298458586" lon="7.556467778025012"><ele>478.0</ele><time>2026-04-18T14:56:23Z</time></trkpt><trkpt lat="45.31158720554455" lon="7.556183301197134"><ele>479.0</ele><time>2026-04-18T14:56:24Z</time></trkpt><trkpt lat="45.31169345432163" lon="7.555909852540708"><ele>480.0</ele><time>2026-04-18T14:56:25Z</time></trkpt><trkpt lat="45.311795108106736" lon="7.555638875087571"><ele>481.0</ele><time>2026-04-18T14:56:26Z</time></trkpt><trkpt lat="45.31189329370597" lon="7.555366337914207"><ele>481.0</ele><time>2026-04-18T14:56:27Z</time></trkpt><trkpt lat="45.31199456271112" lon="7.555098742834309"><ele>481.0</ele><time>2026-04-18T14:56:28Z</time></trkpt><trkpt lat="45.31209574098846" lon="7.554821985973746"><ele>481.0</ele><time>2026-04-18T14:56:29Z</time></trkpt><trkpt lat="45.31218313254816" lon="7.554532114791038"><ele>485.6666666666667</ele><time>2026-04-18T14:56:30Z</time></trkpt><trkpt lat="45.31225318162788" lon="7.554239769443557"><ele>490.33333333333337</ele><time>2026-04-18T14:56:31Z</time></trkpt><trkpt lat="45.312302020190565" lon="7.553982302576522"><ele>495.0</ele><time>2026-04-18T14:56:32Z</time></trkpt><trkpt lat="45.31233621287193" lon="7.553752257751683"><ele>493.25</ele><time>2026-04-18T14:56:33Z</time></trkpt><trkpt lat="45.31238118603039" lon="7.553560981253224"><ele>491.5</ele><time>2026-04-18T14:56:34Z</time></trkpt><trkpt lat="45.312455673765825" lon="7.5533938247005326"><ele>489.75</ele><time>2026-04-18T14:56:35Z</time></trkpt><trkpt lat="45.312564805630096" lon="7.553212086441341"><ele>488.0</ele><time>2026-04-18T14:56:36Z</time></trkpt><trkpt lat="45.312697657639674" lon="7.553044414702125"><ele>487.0</ele><time>2026-04-18T14:56:37Z</time></trkpt><trkpt lat="45.31281124020796" lon="7.552867068980083"><ele>486.0</ele><time>2026-04-18T14:56:38Z</time></trkpt><trkpt lat="45.312889036486396" lon="7.5526761131557825"><ele>485.0</ele><time>2026-04-18T14:56:39Z</time></trkpt><trkpt lat="45.31294421519245" lon="7.552485503165705"><ele>485.0</ele><time>2026-04-18T14:56:40Z</time></trkpt><trkpt lat="45.312978018503294" lon="7.552333945450705"><ele>485.0</ele><time>2026-04-18T14:56:41Z</time></trkpt><trkpt lat="45.31298520882238" lon="7.552190958083278"><ele>485.0</ele><time>2026-04-18T14:56:42Z</time></trkpt><trkpt lat="45.31292431321813" lon="7.55201193579643"><ele>485.0</ele><time>2026-04-18T14:56:43Z</time></trkpt><trkpt lat="45.3128622466101" lon="7.551814564070357"><ele>485.0</ele><time>2026-04-18T14:56:44Z</time></trkpt><trkpt lat="45.31285763844793" lon="7.551571196040038"><ele>485.0</ele><time>2026-04-18T14:56:45Z</time></trkpt><trkpt lat="45.31289958270727" lon="7.551298296598016"><ele>485.0</ele><time>2026-04-18T14:56:46Z</time></trkpt><trkpt lat="45.31294505913602" lon="7.551016726669931"><ele>485.0</ele><time>2026-04-18T14:56:47Z</time></trkpt><trkpt lat="45.312980003390344" lon="7.550735967328938"><ele>485.0</ele><time>2026-04-18T14:56:48Z</time></trkpt><trkpt lat="45.31301556553425" lon="7.550482654383935"><ele>485.0</ele><time>2026-04-18T14:56:49Z</time></trkpt><trkpt lat="45.313052115356186" lon="7.550236267053495"><ele>486.75</ele><time>2026-04-18T14:56:50Z</time></trkpt><trkpt lat="45.31305562809329" lon="7.550000216529459"><ele>488.5</ele><time>2026-04-18T14:56:51Z</time></trkpt><trkpt lat="45.31303698026108" lon="7.549789007973309"><ele>490.25</ele><time>2026-04-18T14:56:52Z</time></trkpt><trkpt lat="45.31301179641918" lon="7.549607649414488"><ele>492.0</ele><time>2026-04-18T14:56:53Z</time></trkpt><trkpt lat="45.312960573082016" lon="7.549474241490063"><ele>493.0</ele><time>2026-04-18T14:56:54Z</time></trkpt><trkpt lat="45.312865252604055" lon="7.549372679732599"><ele>494.0</ele><time>2026-04-18T14:56:55Z</time></trkpt><trkpt lat="45.31272599810681" lon="7.549280435519645"><ele>495.0</ele><time>2026-04-18T14:56:56Z</time></trkpt><trkpt lat="45.31257817698171" lon="7.549163880424359"><ele>496.0</ele><time>2026-04-18T14:56:57Z</time></trkpt><trkpt lat="45.31243985404065" lon="7.549035720459504"><ele>496.0</ele><time>2026-04-18T14:56:58Z</time></trkpt><trkpt lat="45.31232259510831" lon="7.54893662121808"><ele>496.0</ele><time>2026-04-18T14:56:59Z</time></trkpt><trkpt lat="45.312224472984695" lon="7.548905637434208"><ele>496.0</ele><time>2026-04-18T14:57:00Z</time></trkpt><trkpt lat="45.312113235639096" lon="7.54897433908567"><ele>496.0</ele><time>2026-04-18T14:57:01Z</time></trkpt><trkpt lat="45.31203776970172" lon="7.549110271965425"><ele>495.75</ele><time>2026-04-18T14:57:02Z</time></trkpt><trkpt lat="45.31194748082128" lon="7.549277421907477"><ele>495.5</ele><time>2026-04-18T14:57:03Z</time></trkpt><trkpt lat="45.31189552663766" lon="7.549484903723255"><ele>495.25</ele><time>2026-04-18T14:57:04Z</time></trkpt><trkpt lat="45.31180204707642" lon="7.549606693029295"><ele>495.0</ele><time>2026-04-18T14:57:05Z</time></trkpt><trkpt lat="45.31170467913649" lon="7.54964964644094"><ele>495.0</ele><time>2026-04-18T14:57:06Z</time></trkpt><trkpt lat="45.31159322616543" lon="7.549663131175933"><ele>495.0</ele><time>2026-04-18T14:57:07Z</time></trkpt><trkpt lat="45.31149853113842" lon="7.5496333294904465"><ele>495.0</ele><time>2026-04-18T14:57:08Z</time></trkpt><trkpt lat="45.31147549371163" lon="7.549531975200366"><ele>495.0</ele><time>2026-04-18T14:57:09Z</time></trkpt><trkpt lat="45.311502431344294" lon="7.5494025914602485"><ele>495.0</ele><time>2026-04-18T14:57:10Z</time></trkpt><trkpt lat="45.31152507627339" lon="7.549245570606291"><ele>496.75</ele><time>2026-04-18T14:57:11Z</time></trkpt><trkpt lat="45.31157340436225" lon="7.5490779282537845"><ele>498.5</ele><time>2026-04-18T14:57:12Z</time></trkpt><trkpt lat="45.31163349654479" lon="7.548906164433347"><ele>500.25</ele><time>2026-04-18T14:57:13Z</time></trkpt><trkpt lat="45.311714785922454" lon="7.5487587274883055"><ele>502.0</ele><time>2026-04-18T14:57:14Z</time></trkpt><trkpt lat="45.311826138871176" lon="7.548648712935408"><ele>503.8</ele><time>2026-04-18T14:57:15Z</time></trkpt><trkpt lat="45.311934559814276" lon="7.548578118700082"><ele>505.6</ele><time>2026-04-18T14:57:16Z</time></trkpt><trkpt lat="45.31200271638956" lon="7.5485045187928215"><ele>507.40000000000003</ele><time>2026-04-18T14:57:17Z</time></trkpt><trkpt lat="45.31201518099887" lon="7.5483994814464355"><ele>509.20000000000005</ele><time>2026-04-18T14:57:18Z</time></trkpt><trkpt lat="45.3119665791724" lon="7.548293506856218"><ele>511.0</ele><time>2026-04-18T14:57:19Z</time></trkpt><trkpt lat="45.311873559201175" lon="7.5482374285043745"><ele>511.0</ele><time>2026-04-18T14:57:20Z</time></trkpt><trkpt lat="45.31175837160963" lon="7.548228961843928"><ele>511.0</ele><time>2026-04-18T14:57:21Z</time></trkpt><trkpt lat="45.31161547239196" lon="7.548257154770635"><ele>511.0</ele><time>2026-04-18T14:57:22Z</time></trkpt><trkpt lat="45.311488448868026" lon="7.548267568120792"><ele>511.0</ele><time>2026-04-18T14:57:23Z</time></trkpt><trkpt lat="45.31139613812243" lon="7.548227511330449"><ele>512.5</ele><time>2026-04-18T14:57:24Z</time></trkpt><trkpt lat="45.31134279828925" lon="7.548134767283611"><ele>514.0</ele><time>2026-04-18T14:57:25Z</time></trkpt><trkpt lat="45.311310584887146" lon="7.548000390444534"><ele>515.5</ele><time>2026-04-18T14:57:26Z</time></trkpt><trkpt lat="45.31131987630612" lon="7.547815545762173"><ele>517.0</ele><time>2026-04-18T14:57:27Z</time></trkpt><trkpt lat="45.311321657629115" lon="7.547588907970755"><ele>520.3333333333334</ele><time>2026-04-18T14:57:28Z</time></trkpt><trkpt lat="45.31131800544849" lon="7.547302653561623"><ele>523.6666666666666</ele><time>2026-04-18T14:57:29Z</time></trkpt><trkpt lat="45.31132237870908" lon="7.5469901637913335"><ele>527.0</ele><time>2026-04-18T14:57:30Z</time></trkpt><trkpt lat="45.311314936809005" lon="7.546630874697334"><ele>529.5</ele><time>2026-04-18T14:57:31Z</time></trkpt><trkpt lat="45.31131377713585" lon="7.546243069878565"><ele>532.0</ele><time>2026-04-18T14:57:32Z</time></trkpt><trkpt lat="45.31131834181205" lon="7.545911916902285"><ele>534.0</ele><time>2026-04-18T14:57:33Z</time></trkpt><trkpt lat="45.311315625899915" lon="7.545632596124522"><ele>536.0</ele><time>2026-04-18T14:57:34Z</time></trkpt><trkpt lat="45.311318145161835" lon="7.545401213075689"><ele>538.0</ele><time>2026-04-18T14:57:35Z</time></trkpt><trkpt lat="45.3113150852108" lon="7.545186436222548"><ele>539.4</ele><time>2026-04-18T14:57:36Z</time></trkpt><trkpt lat="45.31132569960918" lon="7.545001891924261"><ele>540.8</ele><time>2026-04-18T14:57:37Z</time></trkpt><trkpt lat="45.311328441904536" lon="7.5448513322697845"><ele>542.2</ele><time>2026-04-18T14:57:38Z</time></trkpt><trkpt lat="45.31127986293258" lon="7.544784242328503"><ele>543.6</ele><time>2026-04-18T14:57:39Z</time></trkpt><trkpt lat="45.31118479443713" lon="7.544760225813529"><ele>545.0</ele><time>2026-04-18T14:57:40Z</time></trkpt><trkpt lat="45.31107592153571" lon="7.544800206635567"><ele>545.0</ele><time>2026-04-18T14:57:41Z</time></trkpt><trkpt lat="45.3109662625055" lon="7.544866937165721"><ele>545.0</ele><time>2026-04-18T14:57:42Z</time></trkpt><trkpt lat="45.31081243401899" lon="7.54504234704214"><ele>545.0</ele><time>2026-04-18T14:57:43Z</time></trkpt><trkpt lat="45.31065642419164" lon="7.545230101672974"><ele>550.0</ele><time>2026-04-18T14:57:44Z</time></trkpt><trkpt lat="45.31052364114208" lon="7.545430668148926"><ele>555.0</ele><time>2026-04-18T14:57:45Z</time></trkpt><trkpt lat="45.31040508409012" lon="7.545627956419735"><ele>560.0</ele><time>2026-04-18T14:57:46Z</time></trkpt><trkpt lat="45.310319322428015" lon="7.545845722278199"><ele>560.0</ele><time>2026-04-18T14:57:47Z</time></trkpt><trkpt lat="45.310277629299684" lon="7.546098695651008"><ele>560.0</ele><time>2026-04-18T14:57:48Z</time></trkpt><trkpt lat="45.310265375538215" lon="7.546328538789547"><ele>560.0</ele><time>2026-04-18T14:57:49Z</time></trkpt><trkpt lat="45.31025205956471" lon="7.5465218952454896"><ele>560.0</ele><time>2026-04-18T14:57:50Z</time></trkpt><trkpt lat="45.31022071297639" lon="7.546656893262999"><ele>560.0</ele><time>2026-04-18T14:57:51Z</time></trkpt><trkpt lat="45.31016740494924" lon="7.5467338354694915"><ele>560.0</ele><time>2026-04-18T14:57:53Z</time></trkpt><trkpt lat="45.31010815649918" lon="7.54650973416768"><ele>560.0</ele><time>2026-04-18T14:57:56Z</time></trkpt><trkpt lat="45.310122072302725" lon="7.546364242430358"><ele>560.0</ele><time>2026-04-18T14:57:57Z</time></trkpt><trkpt lat="45.31010109754852" lon="7.546181403864285"><ele>560.0</ele><time>2026-04-18T14:57:58Z</time></trkpt><trkpt lat="45.31008867050336" lon="7.545974221049905"><ele>560.0</ele><time>2026-04-18T14:57:59Z</time></trkpt><trkpt lat="45.31007093761742" lon="7.545763083302596"><ele>560.0</ele><time>2026-04-18T14:58:00Z</time></trkpt><trkpt lat="45.310028695177465" lon="7.545537474271633"><ele>561.3333333333333</ele><time>2026-04-18T14:58:01Z</time></trkpt><trkpt lat="45.30998620248113" lon="7.545304868339489"><ele>562.6666666666666</ele><time>2026-04-18T14:58:02Z</time></trkpt><trkpt lat="45.30999842661169" lon="7.545084163498575"><ele>564.0</ele><time>2026-04-18T14:58:03Z</time></trkpt><trkpt lat="45.31001964024175" lon="7.544842720224639"><ele>564.0</ele><time>2026-04-18T14:58:04Z</time></trkpt><trkpt lat="45.3100354833281" lon="7.544631463816459"><ele>564.0</ele><time>2026-04-18T14:58:05Z</time></trkpt><trkpt lat="45.31010424443145" lon="7.544447178789241"><ele>564.0</ele><time>2026-04-18T14:58:06Z</time></trkpt><trkpt lat="45.310186735908545" lon="7.544289090546026"><ele>564.0</ele><time>2026-04-18T14:58:07Z</time></trkpt><trkpt lat="45.31025253229831" lon="7.544135154421443"><ele>564.75</ele><time>2026-04-18T14:58:08Z</time></trkpt><trkpt lat="45.31026317789072" lon="7.543983753077459"><ele>565.5</ele><time>2026-04-18T14:58:09Z</time></trkpt><trkpt lat="45.310259151346315" lon="7.543792906384281"><ele>566.25</ele><time>2026-04-18T14:58:10Z</time></trkpt><trkpt lat="45.310212329165964" lon="7.54355274514202"><ele>567.0</ele><time>2026-04-18T14:58:11Z</time></trkpt><trkpt lat="45.310150736443376" lon="7.543321832487321"><ele>568.0</ele><time>2026-04-18T14:58:12Z</time></trkpt><trkpt lat="45.31016585914122" lon="7.543101859099628"><ele>569.0</ele><time>2026-04-18T14:58:13Z</time></trkpt><trkpt lat="45.31018606411075" lon="7.542813624750293"><ele>570.0</ele><time>2026-04-18T14:58:14Z</time></trkpt><trkpt lat="45.31020328966471" lon="7.542547722294601"><ele>570.0</ele><time>2026-04-18T14:58:15Z</time></trkpt><trkpt lat="45.31021882848241" lon="7.542307857105173"><ele>570.0</ele><time>2026-04-18T14:58:16Z</time></trkpt><trkpt lat="45.310236627495044" lon="7.542094221920168"><ele>570.0</ele><time>2026-04-18T14:58:17Z</time></trkpt><trkpt lat="45.31025887399693" lon="7.541896742235773"><ele>570.25</ele><time>2026-04-18T14:58:18Z</time></trkpt><trkpt lat="45.310300068856165" lon="7.541708756409582"><ele>570.5</ele><time>2026-04-18T14:58:19Z</time></trkpt><trkpt lat="45.31038115409375" lon="7.541552464828933"><ele>570.75</ele><time>2026-04-18T14:58:20Z</time></trkpt><trkpt lat="45.31049184236795" lon="7.54139641970827"><ele>571.0</ele><time>2026-04-18T14:58:21Z</time></trkpt><trkpt lat="45.310617176352984" lon="7.541230206851783"><ele>574.3333333333334</ele><time>2026-04-18T14:58:22Z</time></trkpt><trkpt lat="45.31073564554475" lon="7.541041926992347"><ele>577.6666666666666</ele><time>2026-04-18T14:58:23Z</time></trkpt><trkpt lat="45.310863113575316" lon="7.54088108407663"><ele>581.0</ele><time>2026-04-18T14:58:24Z</time></trkpt><trkpt lat="45.31098853663619" lon="7.540711534258281"><ele>581.0</ele><time>2026-04-18T14:58:25Z</time></trkpt><trkpt lat="45.311117240307844" lon="7.540536386085677"><ele>581.0</ele><time>2026-04-18T14:58:26Z</time></trkpt><trkpt lat="45.31125816887381" lon="7.540380148168192"><ele>581.0</ele><time>2026-04-18T14:58:27Z</time></trkpt><trkpt lat="45.311372844707975" lon="7.540204150914776"><ele>583.0</ele><time>2026-04-18T14:58:28Z</time></trkpt><trkpt lat="45.311493600219336" lon="7.54005678665932"><ele>585.0</ele><time>2026-04-18T14:58:29Z</time></trkpt><trkpt lat="45.31158402659047" lon="7.539922266361001"><ele>587.0</ele><time>2026-04-18T14:58:30Z</time></trkpt><trkpt lat="45.31165364394889" lon="7.539782126910995"><ele>589.0</ele><time>2026-04-18T14:58:31Z</time></trkpt><trkpt lat="45.31171223709444" lon="7.539609604773987"><ele>589.3333333333334</ele><time>2026-04-18T14:58:32Z</time></trkpt><trkpt lat="45.31174487269166" lon="7.539400737492949"><ele>589.6666666666666</ele><time>2026-04-18T14:58:33Z</time></trkpt><trkpt lat="45.31174858718142" lon="7.539131854795933"><ele>590.0</ele><time>2026-04-18T14:58:34Z</time></trkpt><trkpt lat="45.311726757388904" lon="7.538834452317509"><ele>589.6666666666666</ele><time>2026-04-18T14:58:35Z</time></trkpt><trkpt lat="45.311727484160805" lon="7.538555279977538"><ele>589.3333333333334</ele><time>2026-04-18T14:58:36Z</time></trkpt><trkpt lat="45.31172541042123" lon="7.538263253462538"><ele>589.0</ele><time>2026-04-18T14:58:37Z</time></trkpt><trkpt lat="45.31170666245569" lon="7.5380171119271315"><ele>590.0</ele><time>2026-04-18T14:58:38Z</time></trkpt><trkpt lat="45.311728293495825" lon="7.537734198450893"><ele>591.0</ele><time>2026-04-18T14:58:39Z</time></trkpt><trkpt lat="45.31176905643816" lon="7.537468885173332"><ele>592.0</ele><time>2026-04-18T14:58:40Z</time></trkpt><trkpt lat="45.31182630760173" lon="7.537252639575538"><ele>593.25</ele><time>2026-04-18T14:58:41Z</time></trkpt><trkpt lat="45.31186274036054" lon="7.537049812068432"><ele>594.5</ele><time>2026-04-18T14:58:42Z</time></trkpt><trkpt lat="45.311918521391576" lon="7.536865294538432"><ele>595.75</ele><time>2026-04-18T14:58:43Z</time></trkpt><trkpt lat="45.31197149778635" lon="7.536670952196897"><ele>597.0</ele><time>2026-04-18T14:58:44Z</time></trkpt><trkpt lat="45.31202793507013" lon="7.536472615718759"><ele>597.0</ele><time>2026-04-18T14:58:45Z</time></trkpt><trkpt lat="45.31209148036004" lon="7.536292627040143"><ele>597.0</ele><time>2026-04-18T14:58:46Z</time></trkpt><trkpt lat="45.312134895700986" lon="7.536077955109425"><ele>597.0</ele><time>2026-04-18T14:58:47Z</time></trkpt><trkpt lat="45.31218414258259" lon="7.535895349375065"><ele>597.0</ele><time>2026-04-18T14:58:48Z</time></trkpt><trkpt lat="45.312227248125794" lon="7.535696338856566"><ele>597.8333333333334</ele><time>2026-04-18T14:58:49Z</time></trkpt><trkpt lat="45.31226477782567" lon="7.535547877089479"><ele>598.6666666666666</ele><time>2026-04-18T14:58:50Z</time></trkpt><trkpt lat="45.312304485663766" lon="7.535417642333173"><ele>599.5</ele><time>2026-04-18T14:58:51Z</time></trkpt><trkpt lat="45.312336191400135" lon="7.535309830318788"><ele>600.3333333333333</ele><time>2026-04-18T14:58:52Z</time></trkpt><trkpt lat="45.312361910844274" lon="7.535211743017943"><ele>601.1666666666666</ele><time>2026-04-18T14:58:54Z</time></trkpt><trkpt lat="45.312400499002734" lon="7.535113145213356"><ele>602.0</ele><time>2026-04-18T14:59:24Z</time></trkpt><trkpt lat="45.312456891447724" lon="7.535034082380014"><ele>603.2</ele><time>2026-04-18T14:59:25Z</time></trkpt><trkpt lat="45.31250402088513" lon="7.534946892202525"><ele>604.4000000000001</ele><time>2026-04-18T14:59:26Z</time></trkpt><trkpt lat="45.31253222707835" lon="7.534817781601639"><ele>605.5999999999999</ele><time>2026-04-18T14:59:27Z</time></trkpt><trkpt lat="45.31254393924731" lon="7.534669596544322"><ele>606.8</ele><time>2026-04-18T14:59:28Z</time></trkpt><trkpt lat="45.31255810093345" lon="7.534533399639096"><ele>608.0</ele><time>2026-04-18T14:59:29Z</time></trkpt><trkpt lat="45.312606420073024" lon="7.534402150852601"><ele>610.25</ele><time>2026-04-18T14:59:30Z</time></trkpt><trkpt lat="45.31268741843249" lon="7.534274049459919"><ele>612.5</ele><time>2026-04-18T14:59:31Z</time></trkpt><trkpt lat="45.312806004267436" lon="7.534153826530067"><ele>614.75</ele><time>2026-04-18T14:59:32Z</time></trkpt><trkpt lat="45.31289874346185" lon="7.534008035295466"><ele>617.0</ele><time>2026-04-18T14:59:33Z</time></trkpt><trkpt lat="45.3129889822551" lon="7.533890423498693"><ele>616.8000000000001</ele><time>2026-04-18T14:59:34Z</time></trkpt><trkpt lat="45.31308533693221" lon="7.533762158114185"><ele>616.6</ele><time>2026-04-18T14:59:35Z</time></trkpt><trkpt lat="45.313167752496554" lon="7.533660587917792"><ele>616.4000000000001</ele><time>2026-04-18T14:59:36Z</time></trkpt><trkpt lat="45.31323175880761" lon="7.533551747016472"><ele>616.2</ele><time>2026-04-18T14:59:37Z</time></trkpt><trkpt lat="45.3132925477198" lon="7.533436460022034"><ele>616.0</ele><time>2026-04-18T14:59:38Z</time></trkpt><trkpt lat="45.31334939272729" lon="7.533323892334339"><ele>616.6</ele><time>2026-04-18T14:59:39Z</time></trkpt><trkpt lat="45.31338057820763" lon="7.53323121630066"><ele>617.2</ele><time>2026-04-18T14:59:40Z</time></trkpt><trkpt lat="45.31345026409567" lon="7.533103684730095"><ele>617.8</ele><time>2026-04-18T14:59:42Z</time></trkpt><trkpt lat="45.3135066755512" lon="7.532971569783494"><ele>618.4</ele><time>2026-04-18T14:59:44Z</time></trkpt><trkpt lat="45.31355455605955" lon="7.532849388552638"><ele>619.0</ele><time>2026-04-18T14:59:46Z</time></trkpt><trkpt lat="45.31361579923421" lon="7.53274106342293"><ele>620.0</ele><time>2026-04-18T14:59:48Z</time></trkpt><trkpt lat="45.31366852377435" lon="7.532583419263357"><ele>621.0</ele><time>2026-04-18T14:59:50Z</time></trkpt><trkpt lat="45.31370688133142" lon="7.532500098660184"><ele>622.0</ele><time>2026-04-18T14:59:51Z</time></trkpt><trkpt lat="45.31375928559328" lon="7.5324225981898945"><ele>623.0</ele><time>2026-04-18T14:59:52Z</time></trkpt><trkpt lat="45.31380134475606" lon="7.532329921430733"><ele>624.0</ele><time>2026-04-18T14:59:53Z</time></trkpt><trkpt lat="45.31384479653577" lon="7.532237197335872"><ele>625.0</ele><time>2026-04-18T14:59:54Z</time></trkpt><trkpt lat="45.31388897508258" lon="7.532142922415591"><ele>625.3333333333334</ele><time>2026-04-18T14:59:55Z</time></trkpt><trkpt lat="45.313917321468644" lon="7.532048192027192"><ele>625.6666666666667</ele><time>2026-04-18T14:59:56Z</time></trkpt><trkpt lat="45.31396138605285" lon="7.531973720601955"><ele>626.0</ele><time>2026-04-18T14:59:57Z</time></trkpt><trkpt lat="45.314043308989" lon="7.531830372191485"><ele>626.3333333333334</ele><time>2026-04-18T14:59:59Z</time></trkpt><trkpt lat="45.314082056424986" lon="7.531754477715707"><ele>626.6666666666666</ele><time>2026-04-18T15:00:00Z</time></trkpt><trkpt lat="45.314106067730926" lon="7.531655133198714"><ele>627.0</ele><time>2026-04-18T15:00:01Z</time></trkpt><trkpt lat="45.31410804256289" lon="7.531485994488745"><ele>627.0</ele><time>2026-04-18T15:00:03Z</time></trkpt><trkpt lat="45.31403687573431" lon="7.531422013890581"><ele>627.0</ele><time>2026-04-18T15:00:04Z</time></trkpt><trkpt lat="45.313956251746546" lon="7.531385956376345"><ele>627.0</ele><time>2026-04-18T15:00:05Z</time></trkpt><trkpt lat="45.31385832919687" lon="7.531332042709168"><ele>627.0</ele><time>2026-04-18T15:00:06Z</time></trkpt><trkpt lat="45.313762499694846" lon="7.53126239402903"><ele>627.0</ele><time>2026-04-18T15:00:07Z</time></trkpt><trkpt lat="45.31366512097015" lon="7.531190141181543"><ele>627.8333333333334</ele><time>2026-04-18T15:00:08Z</time></trkpt><trkpt lat="45.313578677849954" lon="7.531118794110469"><ele>628.6666666666666</ele><time>2026-04-18T15:00:09Z</time></trkpt><trkpt lat="45.31349855903811" lon="7.531059790205073"><ele>629.5</ele><time>2026-04-18T15:00:10Z</time></trkpt><trkpt lat="45.313433933059386" lon="7.530994631833828"><ele>630.3333333333333</ele><time>2026-04-18T15:00:11Z</time></trkpt><trkpt lat="45.313394892181236" lon="7.530913127733386"><ele>631.1666666666666</ele><time>2026-04-18T15:00:12Z</time></trkpt><trkpt lat="45.31337416122462" lon="7.5308205523386"><ele>632.0</ele><time>2026-04-18T15:00:13Z</time></trkpt><trkpt lat="45.313364839995884" lon="7.530708331821268"><ele>632.0</ele><time>2026-04-18T15:00:14Z</time></trkpt><trkpt lat="45.31331919400195" lon="7.5305821975449785"><ele>632.0</ele><time>2026-04-18T15:00:15Z</time></trkpt><trkpt lat="45.313239673564404" lon="7.53046804318148"><ele>632.0</ele><time>2026-04-18T15:00:16Z</time></trkpt><trkpt lat="45.31317137360303" lon="7.5303511281969735"><ele>632.0</ele><time>2026-04-18T15:00:17Z</time></trkpt><trkpt lat="45.313123061019105" lon="7.530227020241854"><ele>632.0</ele><time>2026-04-18T15:00:18Z</time></trkpt><trkpt lat="45.31310134541274" lon="7.530097995165789"><ele>632.6</ele><time>2026-04-18T15:00:19Z</time></trkpt><trkpt lat="45.313092842368775" lon="7.529979168339302"><ele>633.2</ele><time>2026-04-18T15:00:20Z</time></trkpt><trkpt lat="45.31311052400025" lon="7.5298522313588725"><ele>633.8</ele><time>2026-04-18T15:00:21Z</time></trkpt><trkpt lat="45.313160998442115" lon="7.5297115594430135"><ele>634.4</ele><time>2026-04-18T15:00:22Z</time></trkpt><trkpt lat="45.31322996793244" lon="7.529568243771382"><ele>635.0</ele><time>2026-04-18T15:00:23Z</time></trkpt><trkpt lat="45.313309135052435" lon="7.529387259422432"><ele>636.25</ele><time>2026-04-18T15:00:24Z</time></trkpt><trkpt lat="45.31338463125363" lon="7.529213883749577"><ele>637.5</ele><time>2026-04-18T15:00:25Z</time></trkpt><trkpt lat="45.31345465539675" lon="7.529051896810789"><ele>638.75</ele><time>2026-04-18T15:00:26Z</time></trkpt><trkpt lat="45.313528581301526" lon="7.528869570099784"><ele>640.0</ele><time>2026-04-18T15:00:27Z</time></trkpt><trkpt lat="45.31359830317061" lon="7.5286940935732085"><ele>641.5</ele><time>2026-04-18T15:00:28Z</time></trkpt><trkpt lat="45.31367719631369" lon="7.5285356083311905"><ele>643.0</ele><time>2026-04-18T15:00:29Z</time></trkpt><trkpt lat="45.313733873310255" lon="7.528383754417302"><ele>644.5</ele><time>2026-04-18T15:00:30Z</time></trkpt><trkpt lat="45.31380427043605" lon="7.528218130865985"><ele>646.0</ele><time>2026-04-18T15:00:31Z</time></trkpt><trkpt lat="45.31386115224692" lon="7.528081671784583"><ele>646.3333333333334</ele><time>2026-04-18T15:00:32Z</time></trkpt><trkpt lat="45.31391668417244" lon="7.527963027570558"><ele>646.6666666666667</ele><time>2026-04-18T15:00:33Z</time></trkpt><trkpt lat="45.31396355944357" lon="7.527859782051522"><ele>647.0</ele><time>2026-04-18T15:00:34Z</time></trkpt><trkpt lat="45.313998986479355" lon="7.527766869345466"><ele>647.3333333333334</ele><time>2026-04-18T15:00:35Z</time></trkpt><trkpt lat="45.31404856402362" lon="7.527677346116046"><ele>647.6666666666666</ele><time>2026-04-18T15:00:36Z</time></trkpt><trkpt lat="45.314087581434904" lon="7.5275863111800785"><ele>648.0</ele><time>2026-04-18T15:00:37Z</time></trkpt><trkpt lat="45.314130450065484" lon="7.527462116763668"><ele>649.0</ele><time>2026-04-18T15:00:38Z</time></trkpt><trkpt lat="45.31418029208742" lon="7.527347470695989"><ele>650.0</ele><time>2026-04-18T15:00:39Z</time></trkpt><trkpt lat="45.314229864311486" lon="7.52721648496211"><ele>651.0</ele><time>2026-04-18T15:00:40Z</time></trkpt><trkpt lat="45.31428939857174" lon="7.527094148658194"><ele>652.0</ele><time>2026-04-18T15:00:41Z</time></trkpt><trkpt lat="45.314344275291056" lon="7.526974548760538"><ele>653.0</ele><time>2026-04-18T15:00:42Z</time></trkpt><trkpt lat="45.314403908060854" lon="7.526855612820862"><ele>653.0</ele><time>2026-04-18T15:00:43Z</time></trkpt><trkpt lat="45.3144565045402" lon="7.5267261932908704"><ele>653.0</ele><time>2026-04-18T15:00:44Z</time></trkpt><trkpt lat="45.31450299372872" lon="7.526597273824105"><ele>653.0</ele><time>2026-04-18T15:00:45Z</time></trkpt><trkpt lat="45.31455194997773" lon="7.526479659638994"><ele>653.0</ele><time>2026-04-18T15:00:46Z</time></trkpt><trkpt lat="45.314619130736745" lon="7.526365603289891"><ele>653.0</ele><time>2026-04-18T15:00:47Z</time></trkpt><trkpt lat="45.314650121216964" lon="7.526253121309102"><ele>653.5999999999999</ele><time>2026-04-18T15:00:48Z</time></trkpt><trkpt lat="45.3146980417639" lon="7.526182819374921"><ele>654.1999999999999</ele><time>2026-04-18T15:00:49Z</time></trkpt><trkpt lat="45.314726274061314" lon="7.526100228358451"><ele>654.8</ele><time>2026-04-18T15:00:50Z</time></trkpt><trkpt lat="45.31477327189406" lon="7.525968716840206"><ele>655.4</ele><time>2026-04-18T15:00:51Z</time></trkpt><trkpt lat="45.31486575532304" lon="7.525808942196606"><ele>656.0</ele><time>2026-04-18T15:00:52Z</time></trkpt><trkpt lat="45.314962998934114" lon="7.525594947941587"><ele>662.0</ele><time>2026-04-18T15:00:53Z</time></trkpt><trkpt lat="45.315051909283554" lon="7.525386162161678"><ele>668.0</ele><time>2026-04-18T15:00:54Z</time></trkpt><trkpt lat="45.31514362086943" lon="7.525175307135131"><ele>674.0</ele><time>2026-04-18T15:00:55Z</time></trkpt><trkpt lat="45.31523837466723" lon="7.524958528413238"><ele>674.0</ele><time>2026-04-18T15:00:56Z</time></trkpt><trkpt lat="45.31532951754275" lon="7.524745442501974"><ele>674.0</ele><time>2026-04-18T15:00:57Z</time></trkpt><trkpt lat="45.31540487363538" lon="7.524545392545837"><ele>674.0</ele><time>2026-04-18T15:00:58Z</time></trkpt><trkpt lat="45.31549614982505" lon="7.524354982132059"><ele>677.0</ele><time>2026-04-18T15:00:59Z</time></trkpt><trkpt lat="45.31557750898942" lon="7.524162836322358"><ele>680.0</ele><time>2026-04-18T15:01:00Z</time></trkpt><trkpt lat="45.3156580780669" lon="7.5239591211732995"><ele>683.0</ele><time>2026-04-18T15:01:01Z</time></trkpt><trkpt lat="45.31573689996364" lon="7.523772969744422"><ele>684.5</ele><time>2026-04-18T15:01:02Z</time></trkpt><trkpt lat="45.315816403132395" lon="7.523592106447785"><ele>686.0</ele><time>2026-04-18T15:01:03Z</time></trkpt><trkpt lat="45.315887606119546" lon="7.523423229290082"><ele>687.5</ele><time>2026-04-18T15:01:04Z</time></trkpt><trkpt lat="45.31594913256139" lon="7.523284211251216"><ele>689.0</ele><time>2026-04-18T15:01:05Z</time></trkpt><trkpt lat="45.3160137937389" lon="7.5231639278466265"><ele>689.0</ele><time>2026-04-18T15:01:06Z</time></trkpt><trkpt lat="45.31605008351274" lon="7.52305574937122"><ele>689.0</ele><time>2026-04-18T15:01:07Z</time></trkpt><trkpt lat="45.316091476614794" lon="7.522949411149181"><ele>689.0</ele><time>2026-04-18T15:01:10Z</time></trkpt><trkpt lat="45.31611694334141" lon="7.5228596353991986"><ele>689.0</ele><time>2026-04-18T15:01:12Z</time></trkpt><trkpt lat="45.31603846278975" lon="7.5227468170867855"><ele>689.0</ele><time>2026-04-18T15:01:14Z</time></trkpt><trkpt lat="45.3159612972043" lon="7.522691202686668"><ele>689.0</ele><time>2026-04-18T15:01:15Z</time></trkpt><trkpt lat="45.31587100341167" lon="7.522657993253017"><ele>690.5</ele><time>2026-04-18T15:01:16Z</time></trkpt><trkpt lat="45.315737272269544" lon="7.522620754496715"><ele>692.0</ele><time>2026-04-18T15:01:17Z</time></trkpt><trkpt lat="45.31561014901196" lon="7.5225697495739166"><ele>693.5</ele><time>2026-04-18T15:01:18Z</time></trkpt><trkpt lat="45.3154857546478" lon="7.522496988615101"><ele>695.0</ele><time>2026-04-18T15:01:19Z</time></trkpt><trkpt lat="45.31536225233733" lon="7.522367533755912"><ele>695.0</ele><time>2026-04-18T15:01:20Z</time></trkpt><trkpt lat="45.31523403777483" lon="7.522171749908366"><ele>695.0</ele><time>2026-04-18T15:01:21Z</time></trkpt><trkpt lat="45.31509692042459" lon="7.52194819516373"><ele>695.0</ele><time>2026-04-18T15:01:22Z</time></trkpt><trkpt lat="45.314957459348555" lon="7.5217076205282005"><ele>700.0</ele><time>2026-04-18T15:01:23Z</time></trkpt><trkpt lat="45.31479353613062" lon="7.5214574153977125"><ele>705.0</ele><time>2026-04-18T15:01:24Z</time></trkpt><trkpt lat="45.314666598512964" lon="7.52120106311876"><ele>706.3333333333334</ele><time>2026-04-18T15:01:25Z</time></trkpt><trkpt lat="45.314534444789835" lon="7.5209977211575065"><ele>707.6666666666667</ele><time>2026-04-18T15:01:26Z</time></trkpt><trkpt lat="45.31441859408377" lon="7.520792693932917"><ele>709.0</ele><time>2026-04-18T15:01:27Z</time></trkpt><trkpt lat="45.314308522591354" lon="7.52058702898604"><ele>711.6666666666667</ele><time>2026-04-18T15:01:28Z</time></trkpt><trkpt lat="45.31419140500547" lon="7.520388812565608"><ele>714.3333333333334</ele><time>2026-04-18T15:01:29Z</time></trkpt><trkpt lat="45.31408791700942" lon="7.520210901729586"><ele>717.0</ele><time>2026-04-18T15:01:30Z</time></trkpt><trkpt lat="45.31399702893819" lon="7.520045264496336"><ele>716.75</ele><time>2026-04-18T15:01:31Z</time></trkpt><trkpt lat="45.31390392485537" lon="7.519910031762242"><ele>716.5</ele><time>2026-04-18T15:01:32Z</time></trkpt><trkpt lat="45.31382161486547" lon="7.51979122760833"><ele>716.25</ele><time>2026-04-18T15:01:33Z</time></trkpt><trkpt lat="45.31371000945108" lon="7.51972494388105"><ele>716.0</ele><time>2026-04-18T15:01:34Z</time></trkpt><trkpt lat="45.31358463719402" lon="7.519714723215701"><ele>716.0</ele><time>2026-04-18T15:01:35Z</time></trkpt><trkpt lat="45.31345430920741" lon="7.519734028514917"><ele>716.0</ele><time>2026-04-18T15:01:36Z</time></trkpt><trkpt lat="45.31333903209313" lon="7.519760657292521"><ele>716.0</ele><time>2026-04-18T15:01:37Z</time></trkpt><trkpt lat="45.31320987035192" lon="7.519796684102136"><ele>716.0</ele><time>2026-04-18T15:01:38Z</time></trkpt><trkpt lat="45.313075693703794" lon="7.519834410978471"><ele>718.75</ele><time>2026-04-18T15:01:39Z</time></trkpt><trkpt lat="45.31293598000718" lon="7.519858681755069"><ele>721.5</ele><time>2026-04-18T15:01:40Z</time></trkpt><trkpt lat="45.31281033598175" lon="7.519896003799857"><ele>724.25</ele><time>2026-04-18T15:01:41Z</time></trkpt><trkpt lat="45.312719819093694" lon="7.520005384878358"><ele>727.0</ele><time>2026-04-18T15:01:42Z</time></trkpt><trkpt lat="45.312632023602426" lon="7.520162421700391"><ele>727.0</ele><time>2026-04-18T15:01:43Z</time></trkpt><trkpt lat="45.31255716740625" lon="7.520332540766124"><ele>727.0</ele><time>2026-04-18T15:01:44Z</time></trkpt><trkpt lat="45.31246738766057" lon="7.5204413679662085"><ele>727.0</ele><time>2026-04-18T15:01:45Z</time></trkpt><trkpt lat="45.312377761980855" lon="7.52054381114579"><ele>727.0</ele><time>2026-04-18T15:01:46Z</time></trkpt><trkpt lat="45.31227126081257" lon="7.520530916000634"><ele>726.5</ele><time>2026-04-18T15:01:47Z</time></trkpt><trkpt lat="45.3121677284131" lon="7.520517239114425"><ele>726.0</ele><time>2026-04-18T15:01:48Z</time></trkpt><trkpt lat="45.312067998206345" lon="7.520431276709855"><ele>725.5</ele><time>2026-04-18T15:01:49Z</time></trkpt><trkpt lat="45.3119549256874" lon="7.520316264089861"><ele>725.0</ele><time>2026-04-18T15:01:50Z</time></trkpt><trkpt lat="45.31184770481078" lon="7.520173846105635"><ele>725.0</ele><time>2026-04-18T15:01:51Z</time></trkpt><trkpt lat="45.31177014422112" lon="7.520008208273834"><ele>725.0</ele><time>2026-04-18T15:01:52Z</time></trkpt><trkpt lat="45.311709123840515" lon="7.519817437765313"><ele>725.0</ele><time>2026-04-18T15:01:53Z</time></trkpt><trkpt lat="45.3116474359242" lon="7.519593778169759"><ele>730.6666666666666</ele><time>2026-04-18T15:01:54Z</time></trkpt><trkpt lat="45.311581357177175" lon="7.519346066415004"><ele>736.3333333333334</ele><time>2026-04-18T15:01:55Z</time></trkpt><trkpt lat="45.31150021048568" lon="7.519111002540294"><ele>742.0</ele><time>2026-04-18T15:01:56Z</time></trkpt><trkpt lat="45.31143947101234" lon="7.5188877706085036"><ele>744.5</ele><time>2026-04-18T15:01:57Z</time></trkpt><trkpt lat="45.31138772059412" lon="7.518712303088926"><ele>747.0</ele><time>2026-04-18T15:01:58Z</time></trkpt><trkpt lat="45.311317434801154" lon="7.518583907389402"><ele>749.5</ele><time>2026-04-18T15:01:59Z</time></trkpt><trkpt lat="45.31121482025967" lon="7.5185199514040395"><ele>752.0</ele><time>2026-04-18T15:02:00Z</time></trkpt><trkpt lat="45.31106849945311" lon="7.51848140385459"><ele>752.0</ele><time>2026-04-18T15:02:01Z</time></trkpt><trkpt lat="45.310907323343116" lon="7.5184764046329695"><ele>752.0</ele><time>2026-04-18T15:02:02Z</time></trkpt><trkpt lat="45.31074435600315" lon="7.518476824977829"><ele>752.0</ele><time>2026-04-18T15:02:03Z</time></trkpt><trkpt lat="45.31055688136317" lon="7.518413684845011"><ele>750.0</ele><time>2026-04-18T15:02:04Z</time></trkpt><trkpt lat="45.31036740200689" lon="7.518322737331303"><ele>748.0</ele><time>2026-04-18T15:02:05Z</time></trkpt><trkpt lat="45.31019877364706" lon="7.518239247077835"><ele>746.0</ele><time>2026-04-18T15:02:06Z</time></trkpt><trkpt lat="45.310060696710785" lon="7.518164046319127"><ele>746.0</ele><time>2026-04-18T15:02:07Z</time></trkpt><trkpt lat="45.30995540475214" lon="7.518083542786676"><ele>746.0</ele><time>2026-04-18T15:02:08Z</time></trkpt><trkpt lat="45.30987841286991" lon="7.517953343690775"><ele>746.0</ele><time>2026-04-18T15:02:09Z</time></trkpt><trkpt lat="45.30980683314493" lon="7.5177933034927715"><ele>746.0</ele><time>2026-04-18T15:02:10Z</time></trkpt><trkpt lat="45.30976047592287" lon="7.517574727063171"><ele>743.3333333333333</ele><time>2026-04-18T15:02:11Z</time></trkpt><trkpt lat="45.309688686419044" lon="7.517346336342748"><ele>740.6666666666666</ele><time>2026-04-18T15:02:12Z</time></trkpt><trkpt lat="45.309620648581074" lon="7.517109316687325"><ele>738.0</ele><time>2026-04-18T15:02:13Z</time></trkpt><trkpt lat="45.30951431830016" lon="7.516862769818899"><ele>747.5</ele><time>2026-04-18T15:02:14Z</time></trkpt><trkpt lat="45.30938489279771" lon="7.516584120645525"><ele>757.0</ele><time>2026-04-18T15:02:15Z</time></trkpt><trkpt lat="45.30925581861739" lon="7.5162954253235315"><ele>753.6666666666667</ele><time>2026-04-18T15:02:16Z</time></trkpt><trkpt lat="45.30915114249783" lon="7.516034283782503"><ele>750.3333333333334</ele><time>2026-04-18T15:02:17Z</time></trkpt><trkpt lat="45.309032101817806" lon="7.515822137378609"><ele>747.0</ele><time>2026-04-18T15:02:18Z</time></trkpt><trkpt lat="45.308898461345585" lon="7.515656737552454"><ele>747.0</ele><time>2026-04-18T15:02:19Z</time></trkpt><trkpt lat="45.308795613249174" lon="7.515489778544415"><ele>747.0</ele><time>2026-04-18T15:02:20Z</time></trkpt><trkpt lat="45.308704825620694" lon="7.515311850003928"><ele>747.0</ele><time>2026-04-18T15:02:21Z</time></trkpt><trkpt lat="45.30860753379573" lon="7.51512749197787"><ele>751.3333333333334</ele><time>2026-04-18T15:02:22Z</time></trkpt><trkpt lat="45.30854069806451" lon="7.514891533160829"><ele>755.6666666666667</ele><time>2026-04-18T15:02:23Z</time></trkpt><trkpt lat="45.30845655233324" lon="7.514673622114977"><ele>760.0</ele><time>2026-04-18T15:02:24Z</time></trkpt><trkpt lat="45.308410481874425" lon="7.514484450889261"><ele>763.5</ele><time>2026-04-18T15:02:25Z</time></trkpt><trkpt lat="45.30836437905814" lon="7.514304283277837"><ele>767.0</ele><time>2026-04-18T15:02:26Z</time></trkpt><trkpt lat="45.30834840987662" lon="7.514122144126828"><ele>770.5</ele><time>2026-04-18T15:02:27Z</time></trkpt><trkpt lat="45.30836540424284" lon="7.513940378703018"><ele>774.0</ele><time>2026-04-18T15:02:28Z</time></trkpt><trkpt lat="45.30837625249268" lon="7.5137596856710624"><ele>774.0</ele><time>2026-04-18T15:02:29Z</time></trkpt><trkpt lat="45.308375796525475" lon="7.513596584245863"><ele>774.0</ele><time>2026-04-18T15:02:30Z</time></trkpt><trkpt lat="45.308367292398145" lon="7.513457249956894"><ele>774.0</ele><time>2026-04-18T15:02:31Z</time></trkpt><trkpt lat="45.308304312218034" lon="7.513362893360351"><ele>774.0</ele><time>2026-04-18T15:02:32Z</time></trkpt><trkpt lat="45.308198241580214" lon="7.513365553928196"><ele>774.0</ele><time>2026-04-18T15:02:33Z</time></trkpt><trkpt lat="45.308075708360825" lon="7.513372901368755"><ele>774.0</ele><time>2026-04-18T15:02:34Z</time></trkpt><trkpt lat="45.30796335158202" lon="7.513302479171398"><ele>774.0</ele><time>2026-04-18T15:02:35Z</time></trkpt><trkpt lat="45.3078669113748" lon="7.513184591667635"><ele>774.0</ele><time>2026-04-18T15:02:36Z</time></trkpt><trkpt lat="45.30775714842811" lon="7.513081993240762"><ele>774.0</ele><time>2026-04-18T15:02:37Z</time></trkpt><trkpt lat="45.30763309060147" lon="7.513014022568806"><ele>774.0</ele><time>2026-04-18T15:02:38Z</time></trkpt><trkpt lat="45.30752964240841" lon="7.513047053033091"><ele>774.0</ele><time>2026-04-18T15:02:39Z</time></trkpt><trkpt lat="45.30743338365026" lon="7.513138459899399"><ele>774.0</ele><time>2026-04-18T15:02:40Z</time></trkpt><trkpt lat="45.30734339777782" lon="7.513305902794248"><ele>774.0</ele><time>2026-04-18T15:02:41Z</time></trkpt><trkpt lat="45.30727136606564" lon="7.5134802953534665"><ele>769.0</ele><time>2026-04-18T15:02:42Z</time></trkpt><trkpt lat="45.30717539003209" lon="7.5135726851595095"><ele>764.0</ele><time>2026-04-18T15:02:43Z</time></trkpt><trkpt lat="45.30708749121818" lon="7.513470720769033"><ele>759.0</ele><time>2026-04-18T15:02:45Z</time></trkpt><trkpt lat="45.30707618944483" lon="7.513315278131891"><ele>754.0</ele><time>2026-04-18T15:02:46Z</time></trkpt><trkpt lat="45.307053505542754" lon="7.513153845030282"><ele>754.0</ele><time>2026-04-18T15:02:47Z</time></trkpt><trkpt lat="45.307047895641865" lon="7.513014815386212"><ele>754.0</ele><time>2026-04-18T15:02:48Z</time></trkpt><trkpt lat="45.30708038462377" lon="7.512815619461475"><ele>754.0</ele><time>2026-04-18T15:02:49Z</time></trkpt><trkpt lat="45.30714875243809" lon="7.512643936201944"><ele>754.0</ele><time>2026-04-18T15:02:50Z</time></trkpt><trkpt lat="45.30724518608527" lon="7.512467425505378"><ele>764.3333333333334</ele><time>2026-04-18T15:02:51Z</time></trkpt><trkpt lat="45.30733633499764" lon="7.512297264925955"><ele>774.6666666666667</ele><time>2026-04-18T15:02:52Z</time></trkpt><trkpt lat="45.30746747998819" lon="7.512053944524269"><ele>785.0</ele><time>2026-04-18T15:02:54Z</time></trkpt><trkpt lat="45.30749394050014" lon="7.511848005449212"><ele>786.5</ele><time>2026-04-18T15:02:55Z</time></trkpt><trkpt lat="45.307489837314" lon="7.511688468994411"><ele>788.0</ele><time>2026-04-18T15:02:56Z</time></trkpt><trkpt lat="45.30743185403161" lon="7.511527037448514"><ele>789.5</ele><time>2026-04-18T15:02:57Z</time></trkpt><trkpt lat="45.30733154833344" lon="7.511344879941717"><ele>791.0</ele><time>2026-04-18T15:02:58Z</time></trkpt><trkpt lat="45.307225858234595" lon="7.511220744755369"><ele>793.3333333333334</ele><time>2026-04-18T15:02:59Z</time></trkpt><trkpt lat="45.307098749977996" lon="7.511135080505728"><ele>795.6666666666667</ele><time>2026-04-18T15:03:00Z</time></trkpt><trkpt lat="45.30695269142617" lon="7.511089429612222"><ele>798.0</ele><time>2026-04-18T15:03:01Z</time></trkpt><trkpt lat="45.3067722384837" lon="7.511049008881652"><ele>798.0</ele><time>2026-04-18T15:03:02Z</time></trkpt><trkpt lat="45.306619840082845" lon="7.511048532621326"><ele>798.0</ele><time>2026-04-18T15:03:03Z</time></trkpt><trkpt lat="45.306485822589636" lon="7.51101672797246"><ele>798.0</ele><time>2026-04-18T15:03:04Z</time></trkpt><trkpt lat="45.30636262224421" lon="7.510877255877213"><ele>798.0</ele><time>2026-04-18T15:03:05Z</time></trkpt><trkpt lat="45.30621338293409" lon="7.510723505514163"><ele>794.6666666666667</ele><time>2026-04-18T15:03:06Z</time></trkpt><trkpt lat="45.30606415246566" lon="7.51058834702716"><ele>791.3333333333334</ele><time>2026-04-18T15:03:07Z</time></trkpt><trkpt lat="45.3059341779688" lon="7.5105017202347275"><ele>788.0</ele><time>2026-04-18T15:03:08Z</time></trkpt><trkpt lat="45.305811212740466" lon="7.510377485549374"><ele>788.0</ele><time>2026-04-18T15:03:09Z</time></trkpt><trkpt lat="45.305733697395155" lon="7.510240696406278"><ele>788.0</ele><time>2026-04-18T15:03:10Z</time></trkpt><trkpt lat="45.305678906658976" lon="7.5100805017282655"><ele>788.0</ele><time>2026-04-18T15:03:11Z</time></trkpt><trkpt lat="45.305620835005904" lon="7.509935973238806"><ele>788.0</ele><time>2026-04-18T15:03:12Z</time></trkpt><trkpt lat="45.305584406914015" lon="7.509824620194168"><ele>788.0</ele><time>2026-04-18T15:03:13Z</time></trkpt><trkpt lat="45.30558607263364" lon="7.509687411632646"><ele>788.0</ele><time>2026-04-18T15:03:14Z</time></trkpt><trkpt lat="45.30562358463665" lon="7.509527671323849"><ele>788.0</ele><time>2026-04-18T15:03:15Z</time></trkpt><trkpt lat="45.30568849523587" lon="7.509385806219675"><ele>788.0</ele><time>2026-04-18T15:03:16Z</time></trkpt><trkpt lat="45.305780697368974" lon="7.509301378755084"><ele>788.0</ele><time>2026-04-18T15:03:17Z</time></trkpt><trkpt lat="45.30591348556161" lon="7.509163772674852"><ele>787.2</ele><time>2026-04-18T15:03:18Z</time></trkpt><trkpt lat="45.30601553078011" lon="7.509003707462309"><ele>786.4</ele><time>2026-04-18T15:03:19Z</time></trkpt><trkpt lat="45.30604907614028" lon="7.508915168297556"><ele>785.6</ele><time>2026-04-18T15:03:20Z</time></trkpt><trkpt lat="45.306080846427996" lon="7.508831314070725"><ele>784.8000000000001</ele><time>2026-04-18T15:03:21Z</time></trkpt><trkpt lat="45.306018944862885" lon="7.5087435207177045"><ele>784.0</ele><time>2026-04-18T15:03:22Z</time></trkpt><trkpt lat="45.30587405093633" lon="7.5086344835812"><ele>781.5</ele><time>2026-04-18T15:03:23Z</time></trkpt><trkpt lat="45.30576005620611" lon="7.5085496256845445"><ele>779.0</ele><time>2026-04-18T15:03:24Z</time></trkpt><trkpt lat="45.30563430552644" lon="7.508493037891954"><ele>776.5</ele><time>2026-04-18T15:03:25Z</time></trkpt><trkpt lat="45.30547959759988" lon="7.508357054705348"><ele>774.0</ele><time>2026-04-18T15:03:26Z</time></trkpt><trkpt lat="45.305354247095096" lon="7.508274931537904"><ele>774.0</ele><time>2026-04-18T15:03:27Z</time></trkpt><trkpt lat="45.305261561379595" lon="7.5081670537459235"><ele>774.0</ele><time>2026-04-18T15:03:28Z</time></trkpt><trkpt lat="45.30516710565998" lon="7.507981776826433"><ele>774.0</ele><time>2026-04-18T15:03:29Z</time></trkpt><trkpt lat="45.305089760941414" lon="7.5078026048382345"><ele>774.0</ele><time>2026-04-18T15:03:30Z</time></trkpt><trkpt lat="45.305051212530664" lon="7.5076256876933805"><ele>778.3333333333333</ele><time>2026-04-18T15:03:31Z</time></trkpt><trkpt lat="45.305037429795846" lon="7.50741529397125"><ele>782.6666666666666</ele><time>2026-04-18T15:03:32Z</time></trkpt><trkpt lat="45.30501395635401" lon="7.507197329224415"><ele>787.0</ele><time>2026-04-18T15:03:33Z</time></trkpt><trkpt lat="45.304982825637" lon="7.506971873600454"><ele>789.6666666666666</ele><time>2026-04-18T15:03:34Z</time></trkpt><trkpt lat="45.30493995181602" lon="7.506772078111454"><ele>792.3333333333333</ele><time>2026-04-18T15:03:35Z</time></trkpt><trkpt lat="45.3048945210812" lon="7.506574033419501"><ele>795.0</ele><time>2026-04-18T15:03:36Z</time></trkpt><trkpt lat="45.30478753186113" lon="7.506391899788397"><ele>792.0</ele><time>2026-04-18T15:03:37Z</time></trkpt><trkpt lat="45.304644460423475" lon="7.506253631726652"><ele>789.0</ele><time>2026-04-18T15:03:38Z</time></trkpt><trkpt lat="45.3045212672471" lon="7.506131333733356"><ele>786.0</ele><time>2026-04-18T15:03:39Z</time></trkpt><trkpt lat="45.30442639295851" lon="7.505973457472334"><ele>786.0</ele><time>2026-04-18T15:03:40Z</time></trkpt><trkpt lat="45.30435939100067" lon="7.5057747791634934"><ele>786.0</ele><time>2026-04-18T15:03:41Z</time></trkpt><trkpt lat="45.30426710950422" lon="7.505642315565809"><ele>786.0</ele><time>2026-04-18T15:03:42Z</time></trkpt><trkpt lat="45.3041879006753" lon="7.505503995195624"><ele>786.0</ele><time>2026-04-18T15:03:43Z</time></trkpt><trkpt lat="45.30408817627167" lon="7.505420288567184"><ele>786.25</ele><time>2026-04-18T15:03:44Z</time></trkpt><trkpt lat="45.303969615005634" lon="7.505367667109338"><ele>786.5</ele><time>2026-04-18T15:03:45Z</time></trkpt><trkpt lat="45.303827651258736" lon="7.5053340940464555"><ele>786.75</ele><time>2026-04-18T15:03:46Z</time></trkpt><trkpt lat="45.30368605086494" lon="7.5052930602246075"><ele>787.0</ele><time>2026-04-18T15:03:47Z</time></trkpt><trkpt lat="45.30355815967844" lon="7.5052436151623345"><ele>787.0</ele><time>2026-04-18T15:03:48Z</time></trkpt><trkpt lat="45.30343136740658" lon="7.505194382517707"><ele>787.0</ele><time>2026-04-18T15:03:49Z</time></trkpt><trkpt lat="45.3033134709387" lon="7.505152018334628"><ele>787.0</ele><time>2026-04-18T15:03:50Z</time></trkpt><trkpt lat="45.30320399171857" lon="7.5051092959627335"><ele>787.0</ele><time>2026-04-18T15:03:51Z</time></trkpt><trkpt lat="45.303098668539825" lon="7.505073720143091"><ele>785.6</ele><time>2026-04-18T15:03:52Z</time></trkpt><trkpt lat="45.30300282701249" lon="7.505040297080644"><ele>784.2</ele><time>2026-04-18T15:03:53Z</time></trkpt><trkpt lat="45.30290706774895" lon="7.505018699917989"><ele>782.8</ele><time>2026-04-18T15:03:54Z</time></trkpt><trkpt lat="45.30281081239239" lon="7.504966868676051"><ele>781.4</ele><time>2026-04-18T15:03:55Z</time></trkpt><trkpt lat="45.302727017344594" lon="7.504869937157809"><ele>780.0</ele><time>2026-04-18T15:03:56Z</time></trkpt><trkpt lat="45.30266041970692" lon="7.504739317935432"><ele>780.0</ele><time>2026-04-18T15:03:57Z</time></trkpt><trkpt lat="45.30260367590544" lon="7.504599474235517"><ele>780.0</ele><time>2026-04-18T15:03:58Z</time></trkpt><trkpt lat="45.30255170015333" lon="7.504437555928715"><ele>780.0</ele><time>2026-04-18T15:03:59Z</time></trkpt><trkpt lat="45.30249224209269" lon="7.504257418942085"><ele>780.0</ele><time>2026-04-18T15:04:00Z</time></trkpt><trkpt lat="45.302431188250026" lon="7.50407101423993"><ele>781.3333333333333</ele><time>2026-04-18T15:04:01Z</time></trkpt><trkpt lat="45.30235934765698" lon="7.503876996991283"><ele>782.6666666666666</ele><time>2026-04-18T15:04:02Z</time></trkpt><trkpt lat="45.302273575221726" lon="7.503696644335824"><ele>784.0</ele><time>2026-04-18T15:04:03Z</time></trkpt><trkpt lat="45.302195701631774" lon="7.503511935099644"><ele>784.0</ele><time>2026-04-18T15:04:04Z</time></trkpt><trkpt lat="45.302113358812186" lon="7.503327441362986"><ele>784.0</ele><time>2026-04-18T15:04:05Z</time></trkpt><trkpt lat="45.30203031172772" lon="7.503154656953106"><ele>784.0</ele><time>2026-04-18T15:04:06Z</time></trkpt><trkpt lat="45.301943364895635" lon="7.50298502143949"><ele>784.0</ele><time>2026-04-18T15:04:07Z</time></trkpt><trkpt lat="45.301870512892634" lon="7.502824885031885"><ele>786.0</ele><time>2026-04-18T15:04:08Z</time></trkpt><trkpt lat="45.30177558970911" lon="7.502654852128948"><ele>788.0</ele><time>2026-04-18T15:04:09Z</time></trkpt><trkpt lat="45.30170846157263" lon="7.5025085825788285"><ele>790.0</ele><time>2026-04-18T15:04:10Z</time></trkpt><trkpt lat="45.30167520946606" lon="7.502344229010765"><ele>792.0</ele><time>2026-04-18T15:04:11Z</time></trkpt><trkpt lat="45.30163834530012" lon="7.502154337707582"><ele>793.6666666666667</ele><time>2026-04-18T15:04:12Z</time></trkpt><trkpt lat="45.30158508360895" lon="7.50194683051057"><ele>795.3333333333334</ele><time>2026-04-18T15:04:13Z</time></trkpt><trkpt lat="45.301537999693245" lon="7.501723618982793"><ele>797.0</ele><time>2026-04-18T15:04:14Z</time></trkpt><trkpt lat="45.301469870185024" lon="7.501505680545907"><ele>795.3333333333334</ele><time>2026-04-18T15:04:15Z</time></trkpt><trkpt lat="45.3013938351106" lon="7.501298796729238"><ele>793.6666666666667</ele><time>2026-04-18T15:04:16Z</time></trkpt><trkpt lat="45.30130672504504" lon="7.501096812226744"><ele>792.0</ele><time>2026-04-18T15:04:17Z</time></trkpt><trkpt lat="45.30121189106817" lon="7.50091340562624"><ele>792.0</ele><time>2026-04-18T15:04:18Z</time></trkpt><trkpt lat="45.30113419381249" lon="7.500765041796237"><ele>792.0</ele><time>2026-04-18T15:04:19Z</time></trkpt><trkpt lat="45.30106636831804" lon="7.500633379007928"><ele>792.0</ele><time>2026-04-18T15:04:20Z</time></trkpt><trkpt lat="45.301015832932954" lon="7.5005495575451855"><ele>792.0</ele><time>2026-04-18T15:04:21Z</time></trkpt><trkpt lat="45.301030306883916" lon="7.500459544601498"><ele>792.0</ele><time>2026-04-18T15:04:22Z</time></trkpt><trkpt lat="45.30112710539095" lon="7.500305800779256"><ele>791.6</ele><time>2026-04-18T15:04:24Z</time></trkpt><trkpt lat="45.30117866519058" lon="7.500197694370652"><ele>791.2</ele><time>2026-04-18T15:04:25Z</time></trkpt><trkpt lat="45.30122764349709" lon="7.500114239473362"><ele>790.8</ele><time>2026-04-18T15:04:26Z</time></trkpt><trkpt lat="45.301292684222666" lon="7.499992912347148"><ele>790.4</ele><time>2026-04-18T15:04:27Z</time></trkpt><trkpt lat="45.301349818781524" lon="7.499832297073373"><ele>790.0</ele><time>2026-04-18T15:04:28Z</time></trkpt><trkpt lat="45.301406487593134" lon="7.49966019475415"><ele>789.5</ele><time>2026-04-18T15:04:29Z</time></trkpt><trkpt lat="45.301444373123736" lon="7.499494507803244"><ele>789.0</ele><time>2026-04-18T15:04:30Z</time></trkpt><trkpt lat="45.30143882017972" lon="7.499325536375116"><ele>788.5</ele><time>2026-04-18T15:04:31Z</time></trkpt><trkpt lat="45.30139794805671" lon="7.499136747844647"><ele>788.0</ele><time>2026-04-18T15:04:32Z</time></trkpt><trkpt lat="45.301313319259464" lon="7.49890815497449"><ele>788.0</ele><time>2026-04-18T15:04:33Z</time></trkpt><trkpt lat="45.3012386977833" lon="7.498762368000263"><ele>788.0</ele><time>2026-04-18T15:04:34Z</time></trkpt><trkpt lat="45.30117246617079" lon="7.498622720344307"><ele>788.0</ele><time>2026-04-18T15:04:35Z</time></trkpt><trkpt lat="45.301122943763396" lon="7.498489803941861"><ele>788.0</ele><time>2026-04-18T15:04:36Z</time></trkpt><trkpt lat="45.30108913368413" lon="7.498337055888756"><ele>787.6666666666667</ele><time>2026-04-18T15:04:37Z</time></trkpt><trkpt lat="45.30109230369476" lon="7.49812058136149"><ele>787.3333333333333</ele><time>2026-04-18T15:04:38Z</time></trkpt><trkpt lat="45.301085610944924" lon="7.497863406347939"><ele>787.0</ele><time>2026-04-18T15:04:39Z</time></trkpt><trkpt lat="45.30107871377149" lon="7.497580708102923"><ele>787.0</ele><time>2026-04-18T15:04:40Z</time></trkpt><trkpt lat="45.30107162071885" lon="7.4972727812292845"><ele>787.0</ele><time>2026-04-18T15:04:41Z</time></trkpt><trkpt lat="45.301063459765615" lon="7.496895932822608"><ele>787.0</ele><time>2026-04-18T15:04:42Z</time></trkpt><trkpt lat="45.301038491720526" lon="7.496483720201231"><ele>787.0</ele><time>2026-04-18T15:04:43Z</time></trkpt><trkpt lat="45.30103224361617" lon="7.496111589094667"><ele>787.0</ele><time>2026-04-18T15:04:44Z</time></trkpt><trkpt lat="45.30102089839782" lon="7.495777537334002"><ele>787.0</ele><time>2026-04-18T15:04:45Z</time></trkpt><trkpt lat="45.30102796312442" lon="7.495474320986158"><ele>787.0</ele><time>2026-04-18T15:04:46Z</time></trkpt><trkpt lat="45.30100387102193" lon="7.495197246623606"><ele>787.0</ele><time>2026-04-18T15:04:47Z</time></trkpt><trkpt lat="45.30101141965517" lon="7.494935589289147"><ele>787.0</ele><time>2026-04-18T15:04:48Z</time></trkpt><trkpt lat="45.30100461282106" lon="7.4946834387970105"><ele>787.0</ele><time>2026-04-18T15:04:49Z</time></trkpt><trkpt lat="45.30100852713462" lon="7.494416852073841"><ele>787.0</ele><time>2026-04-18T15:04:50Z</time></trkpt><trkpt lat="45.301034491139504" lon="7.49415969174639"><ele>787.0</ele><time>2026-04-18T15:04:51Z</time></trkpt><trkpt lat="45.30109414614356" lon="7.4938799116079515"><ele>787.0</ele><time>2026-04-18T15:04:52Z</time></trkpt><trkpt lat="45.30116943338935" lon="7.493578659832005"><ele>786.3333333333333</ele><time>2026-04-18T15:04:53Z</time></trkpt><trkpt lat="45.301231000294145" lon="7.4932703314583025"><ele>785.6666666666667</ele><time>2026-04-18T15:04:54Z</time></trkpt><trkpt lat="45.301295343641044" lon="7.493008596834573"><ele>785.0</ele><time>2026-04-18T15:04:55Z</time></trkpt><trkpt lat="45.301353879102926" lon="7.492769981827681"><ele>793.0</ele><time>2026-04-18T15:04:56Z</time></trkpt><trkpt lat="45.30142613070609" lon="7.49253863474864"><ele>801.0</ele><time>2026-04-18T15:04:57Z</time></trkpt><trkpt lat="45.30146574128383" lon="7.492289630656781"><ele>809.0</ele><time>2026-04-18T15:04:58Z</time></trkpt><trkpt lat="45.301520095936205" lon="7.49204432426667"><ele>809.0</ele><time>2026-04-18T15:04:59Z</time></trkpt><trkpt lat="45.30154381249206" lon="7.491760223373345"><ele>809.0</ele><time>2026-04-18T15:05:00Z</time></trkpt><trkpt lat="45.3015522137762" lon="7.491467096165174"><ele>809.0</ele><time>2026-04-18T15:05:01Z</time></trkpt><trkpt lat="45.30155244547585" lon="7.491186183990188"><ele>807.0</ele><time>2026-04-18T15:05:02Z</time></trkpt><trkpt lat="45.301551779468326" lon="7.49093567729191"><ele>805.0</ele><time>2026-04-18T15:05:03Z</time></trkpt><trkpt lat="45.3015605870606" lon="7.490711657184452"><ele>803.0</ele><time>2026-04-18T15:05:04Z</time></trkpt><trkpt lat="45.301563005105955" lon="7.490520613052724"><ele>802.0</ele><time>2026-04-18T15:05:05Z</time></trkpt><trkpt lat="45.301557312444544" lon="7.490359988687984"><ele>801.0</ele><time>2026-04-18T15:05:06Z</time></trkpt><trkpt lat="45.30155840598946" lon="7.490239174840323"><ele>800.0</ele><time>2026-04-18T15:05:07Z</time></trkpt><trkpt lat="45.30160193738211" lon="7.4901290136253955"><ele>799.0</ele><time>2026-04-18T15:05:09Z</time></trkpt><trkpt lat="45.301681573758074" lon="7.490141912108384"><ele>798.0</ele><time>2026-04-18T15:05:10Z</time></trkpt><trkpt lat="45.30175262722271" lon="7.490068127504515"><ele>798.0</ele><time>2026-04-18T15:05:11Z</time></trkpt><trkpt lat="45.30182654923249" lon="7.489996853131104"><ele>798.0</ele><time>2026-04-18T15:05:12Z</time></trkpt><trkpt lat="45.30187077584261" lon="7.4898911601789315"><ele>798.0</ele><time>2026-04-18T15:05:13Z</time></trkpt><trkpt lat="45.30188912542684" lon="7.489709754486553"><ele>798.0</ele><time>2026-04-18T15:05:14Z</time></trkpt><trkpt lat="45.30193618993504" lon="7.4895498905148745"><ele>798.0</ele><time>2026-04-18T15:05:15Z</time></trkpt><trkpt lat="45.30197901515084" lon="7.489392649922643"><ele>797.5</ele><time>2026-04-18T15:05:16Z</time></trkpt><trkpt lat="45.3020305008091" lon="7.489222778557036"><ele>797.0</ele><time>2026-04-18T15:05:17Z</time></trkpt><trkpt lat="45.30208167897098" lon="7.4890611241998455"><ele>796.5</ele><time>2026-04-18T15:05:18Z</time></trkpt><trkpt lat="45.302149766330544" lon="7.4889262126731095"><ele>796.0</ele><time>2026-04-18T15:05:19Z</time></trkpt><trkpt lat="45.30222808035793" lon="7.488810394192712"><ele>799.8</ele><time>2026-04-18T15:05:20Z</time></trkpt><trkpt lat="45.3023125995467" lon="7.488714512730175"><ele>803.5999999999999</ele><time>2026-04-18T15:05:21Z</time></trkpt><trkpt lat="45.302392266841174" lon="7.488617170980789"><ele>807.4</ele><time>2026-04-18T15:05:22Z</time></trkpt><trkpt lat="45.30245402551922" lon="7.488509634942501"><ele>811.2</ele><time>2026-04-18T15:05:23Z</time></trkpt><trkpt lat="45.30249470188897" lon="7.48839628240333"><ele>815.0</ele><time>2026-04-18T15:05:24Z</time></trkpt><trkpt lat="45.302504561448075" lon="7.488216414628794"><ele>815.0</ele><time>2026-04-18T15:05:25Z</time></trkpt><trkpt lat="45.30256599215413" lon="7.4880345569744495"><ele>815.0</ele><time>2026-04-18T15:05:26Z</time></trkpt><trkpt lat="45.30263381617943" lon="7.487857004079068"><ele>815.0</ele><time>2026-04-18T15:05:27Z</time></trkpt><trkpt lat="45.302702457071575" lon="7.487698419770845"><ele>815.0</ele><time>2026-04-18T15:05:28Z</time></trkpt><trkpt lat="45.30277825154154" lon="7.487542699263541"><ele>811.0</ele><time>2026-04-18T15:05:29Z</time></trkpt><trkpt lat="45.30284490591094" lon="7.487407913561084"><ele>807.0</ele><time>2026-04-18T15:05:30Z</time></trkpt><trkpt lat="45.302979295703146" lon="7.487154248429801"><ele>803.0</ele><time>2026-04-18T15:05:32Z</time></trkpt><trkpt lat="45.30305849802402" lon="7.48700438058059"><ele>807.25</ele><time>2026-04-18T15:05:33Z</time></trkpt><trkpt lat="45.30314812422838" lon="7.4868350277540845"><ele>811.5</ele><time>2026-04-18T15:05:34Z</time></trkpt><trkpt lat="45.30322826760197" lon="7.486657890777069"><ele>815.75</ele><time>2026-04-18T15:05:35Z</time></trkpt><trkpt lat="45.30325933774378" lon="7.486453970208419"><ele>820.0</ele><time>2026-04-18T15:05:36Z</time></trkpt><trkpt lat="45.30331515660176" lon="7.486247711899725"><ele>820.0</ele><time>2026-04-18T15:05:37Z</time></trkpt><trkpt lat="45.303358125506314" lon="7.486030348657472"><ele>820.0</ele><time>2026-04-18T15:05:38Z</time></trkpt><trkpt lat="45.30340342132433" lon="7.485823799648846"><ele>820.0</ele><time>2026-04-18T15:05:39Z</time></trkpt><trkpt lat="45.30345922583677" lon="7.485645034458161"><ele>820.0</ele><time>2026-04-18T15:05:40Z</time></trkpt><trkpt lat="45.30351331276126" lon="7.485508992165375"><ele>818.0</ele><time>2026-04-18T15:05:41Z</time></trkpt><trkpt lat="45.303656286531385" lon="7.4852284984744175"><ele>816.0</ele><time>2026-04-18T15:05:43Z</time></trkpt><trkpt lat="45.30374039848911" lon="7.485131036890181"><ele>814.0</ele><time>2026-04-18T15:05:44Z</time></trkpt><trkpt lat="45.30385704914753" lon="7.485044095747276"><ele>818.3333333333333</ele><time>2026-04-18T15:05:45Z</time></trkpt><trkpt lat="45.30399153807045" lon="7.484935991355015"><ele>822.6666666666667</ele><time>2026-04-18T15:05:46Z</time></trkpt><trkpt lat="45.30413041145904" lon="7.484809673953781"><ele>827.0</ele><time>2026-04-18T15:05:47Z</time></trkpt><trkpt lat="45.30425659532731" lon="7.484676829681648"><ele>825.0</ele><time>2026-04-18T15:05:48Z</time></trkpt><trkpt lat="45.30439172696504" lon="7.484530892573116"><ele>823.0</ele><time>2026-04-18T15:05:49Z</time></trkpt><trkpt lat="45.30451517418036" lon="7.484474897538367"><ele>821.0</ele><time>2026-04-18T15:05:50Z</time></trkpt><trkpt lat="45.30462421750213" lon="7.484401237283184"><ele>819.0</ele><time>2026-04-18T15:05:51Z</time></trkpt><trkpt lat="45.304700475623626" lon="7.484339522933109"><ele>822.5</ele><time>2026-04-18T15:05:52Z</time></trkpt><trkpt lat="45.30475774967461" lon="7.484209830042922"><ele>826.0</ele><time>2026-04-18T15:05:53Z</time></trkpt><trkpt lat="45.30483866691657" lon="7.484035575035749"><ele>829.5</ele><time>2026-04-18T15:05:54Z</time></trkpt><trkpt lat="45.304913691974946" lon="7.483836528958888"><ele>833.0</ele><time>2026-04-18T15:05:55Z</time></trkpt><trkpt lat="45.3049890388532" lon="7.483633188310009"><ele>833.0</ele><time>2026-04-18T15:05:56Z</time></trkpt><trkpt lat="45.30505523669128" lon="7.483452706176352"><ele>833.0</ele><time>2026-04-18T15:05:57Z</time></trkpt><trkpt lat="45.305113238758715" lon="7.483294358529615"><ele>833.0</ele><time>2026-04-18T15:05:58Z</time></trkpt><trkpt lat="45.30516796672314" lon="7.483147445479546"><ele>833.0</ele><time>2026-04-18T15:05:59Z</time></trkpt><trkpt lat="45.30522145845433" lon="7.4830179754748665"><ele>831.8</ele><time>2026-04-18T15:06:00Z</time></trkpt><trkpt lat="45.30527458323226" lon="7.482900431592575"><ele>830.5999999999999</ele><time>2026-04-18T15:06:01Z</time></trkpt><trkpt lat="45.305345801840616" lon="7.482780553315189"><ele>829.4000000000001</ele><time>2026-04-18T15:06:02Z</time></trkpt><trkpt lat="45.305410782420104" lon="7.482687723889421"><ele>828.2</ele><time>2026-04-18T15:06:03Z</time></trkpt><trkpt lat="45.30553941800519" lon="7.4826050563515185"><ele>827.0</ele><time>2026-04-18T15:06:04Z</time></trkpt><trkpt lat="45.30560036341644" lon="7.482493287446575"><ele>831.0</ele><time>2026-04-18T15:06:05Z</time></trkpt><trkpt lat="45.305673132454274" lon="7.482354206484095"><ele>835.0</ele><time>2026-04-18T15:06:06Z</time></trkpt><trkpt lat="45.30575744032792" lon="7.482183249781781"><ele>839.0</ele><time>2026-04-18T15:06:07Z</time></trkpt><trkpt lat="45.305830310328865" lon="7.481994611230457"><ele>843.0</ele><time>2026-04-18T15:06:08Z</time></trkpt><trkpt lat="45.305909826054844" lon="7.481799767522656"><ele>843.0</ele><time>2026-04-18T15:06:09Z</time></trkpt><trkpt lat="45.30598680284063" lon="7.481629015913351"><ele>843.0</ele><time>2026-04-18T15:06:10Z</time></trkpt><trkpt lat="45.30606333578799" lon="7.481495072812083"><ele>843.0</ele><time>2026-04-18T15:06:11Z</time></trkpt><trkpt lat="45.306148211122576" lon="7.4813543367575965"><ele>843.0</ele><time>2026-04-18T15:06:12Z</time></trkpt><trkpt lat="45.306200522516434" lon="7.481269078308875"><ele>841.5</ele><time>2026-04-18T15:06:13Z</time></trkpt><trkpt lat="45.30629601409349" lon="7.4811815345461055"><ele>840.0</ele><time>2026-04-18T15:06:14Z</time></trkpt><trkpt lat="45.306417150095896" lon="7.481107260159877"><ele>838.5</ele><time>2026-04-18T15:06:15Z</time></trkpt><trkpt lat="45.30654094396128" lon="7.48103178638277"><ele>837.0</ele><time>2026-04-18T15:06:16Z</time></trkpt><trkpt lat="45.306655299143266" lon="7.48094023603914"><ele>840.75</ele><time>2026-04-18T15:06:17Z</time></trkpt><trkpt lat="45.3067394185772" lon="7.480856810660028"><ele>844.5</ele><time>2026-04-18T15:06:18Z</time></trkpt><trkpt lat="45.306847586312045" lon="7.480733519461633"><ele>848.25</ele><time>2026-04-18T15:06:19Z</time></trkpt><trkpt lat="45.30696765249587" lon="7.480635026671498"><ele>852.0</ele><time>2026-04-18T15:06:20Z</time></trkpt><trkpt lat="45.30710615012148" lon="7.4805319771510215"><ele>852.25</ele><time>2026-04-18T15:06:21Z</time></trkpt><trkpt lat="45.30725405172942" lon="7.480472678871473"><ele>852.5</ele><time>2026-04-18T15:06:22Z</time></trkpt><trkpt lat="45.30736935105935" lon="7.480381755155482"><ele>852.75</ele><time>2026-04-18T15:06:23Z</time></trkpt><trkpt lat="45.307480241457725" lon="7.480340251147194"><ele>853.0</ele><time>2026-04-18T15:06:24Z</time></trkpt><trkpt lat="45.30753642647788" lon="7.48027670813057"><ele>853.0</ele><time>2026-04-18T15:06:25Z</time></trkpt><trkpt lat="45.30759398829568" lon="7.480212523934099"><ele>853.0</ele><time>2026-04-18T15:06:26Z</time></trkpt><trkpt lat="45.307630337123335" lon="7.479973774188422"><ele>853.0</ele><time>2026-04-18T15:06:28Z</time></trkpt><trkpt lat="45.307668581443494" lon="7.479839313745004"><ele>853.0</ele><time>2026-04-18T15:06:29Z</time></trkpt><trkpt lat="45.30775105926483" lon="7.479746151367223"><ele>853.0</ele><time>2026-04-18T15:06:30Z</time></trkpt><trkpt lat="45.30786077506761" lon="7.479708642038777"><ele>853.0</ele><time>2026-04-18T15:06:31Z</time></trkpt><trkpt lat="45.307956718830255" lon="7.4796788472568005"><ele>853.0</ele><time>2026-04-18T15:06:32Z</time></trkpt><trkpt lat="45.30803928548358" lon="7.479641763440925"><ele>853.0</ele><time>2026-04-18T15:06:33Z</time></trkpt><trkpt lat="45.30812922407999" lon="7.479639435286472"><ele>853.0</ele><time>2026-04-18T15:06:34Z</time></trkpt><trkpt lat="45.3082315330165" lon="7.47966054204702"><ele>854.5</ele><time>2026-04-18T15:06:35Z</time></trkpt><trkpt lat="45.30835202919979" lon="7.479675095864248"><ele>856.0</ele><time>2026-04-18T15:06:36Z</time></trkpt><trkpt lat="45.308465758985214" lon="7.479691640031856"><ele>857.5</ele><time>2026-04-18T15:06:37Z</time></trkpt><trkpt lat="45.30856267404294" lon="7.479717232002279"><ele>859.0</ele><time>2026-04-18T15:06:38Z</time></trkpt><trkpt lat="45.30869133958477" lon="7.479712872267598"><ele>859.0</ele><time>2026-04-18T15:06:39Z</time></trkpt><trkpt lat="45.30882244863973" lon="7.479737702351795"><ele>859.0</ele><time>2026-04-18T15:06:40Z</time></trkpt><trkpt lat="45.30893439419798" lon="7.479758593233913"><ele>859.0</ele><time>2026-04-18T15:06:41Z</time></trkpt><trkpt lat="45.30905427593612" lon="7.479774242725308"><ele>859.0</ele><time>2026-04-18T15:06:42Z</time></trkpt><trkpt lat="45.3091700944224" lon="7.479848642288756"><ele>857.0</ele><time>2026-04-18T15:06:43Z</time></trkpt><trkpt lat="45.30932206152936" lon="7.479896816871728"><ele>855.0</ele><time>2026-04-18T15:06:44Z</time></trkpt><trkpt lat="45.30945041068111" lon="7.479939823150959"><ele>853.0</ele><time>2026-04-18T15:06:45Z</time></trkpt><trkpt lat="45.30958429111583" lon="7.479919987215355"><ele>851.0</ele><time>2026-04-18T15:06:46Z</time></trkpt><trkpt lat="45.30972606657628" lon="7.4799082057821105"><ele>849.75</ele><time>2026-04-18T15:06:47Z</time></trkpt><trkpt lat="45.309869412065254" lon="7.479873742611463"><ele>848.5</ele><time>2026-04-18T15:06:48Z</time></trkpt><trkpt lat="45.310012189842105" lon="7.479847554411456"><ele>847.25</ele><time>2026-04-18T15:06:49Z</time></trkpt><trkpt lat="45.31015431333009" lon="7.479847734373693"><ele>846.0</ele><time>2026-04-18T15:06:50Z</time></trkpt><trkpt lat="45.31029563944956" lon="7.4798134342627005"><ele>846.0</ele><time>2026-04-18T15:06:51Z</time></trkpt><trkpt lat="45.31040008489207" lon="7.479826217712261"><ele>846.0</ele><time>2026-04-18T15:06:52Z</time></trkpt><trkpt lat="45.310516571629826" lon="7.47979933209021"><ele>846.0</ele><time>2026-04-18T15:06:53Z</time></trkpt><trkpt lat="45.310634686503775" lon="7.479816634288583"><ele>846.0</ele><time>2026-04-18T15:06:54Z</time></trkpt><trkpt lat="45.31073815821836" lon="7.479829094724382"><ele>846.0</ele><time>2026-04-18T15:06:55Z</time></trkpt><trkpt lat="45.31081728304825" lon="7.479831588058381"><ele>843.6666666666666</ele><time>2026-04-18T15:06:56Z</time></trkpt><trkpt lat="45.31088687681293" lon="7.479836492434583"><ele>841.3333333333333</ele><time>2026-04-18T15:06:57Z</time></trkpt><trkpt lat="45.31095230422649" lon="7.479862793549637"><ele>839.0</ele><time>2026-04-18T15:06:58Z</time></trkpt><trkpt lat="45.311010937412505" lon="7.479934491130281"><ele>836.6666666666666</ele><time>2026-04-18T15:06:59Z</time></trkpt><trkpt lat="45.31106046872108" lon="7.480038956621552"><ele>834.3333333333333</ele><time>2026-04-18T15:07:00Z</time></trkpt><trkpt lat="45.311084546752156" lon="7.480157057587652"><ele>832.0</ele><time>2026-04-18T15:07:01Z</time></trkpt><trkpt lat="45.311129427961205" lon="7.480398826240107"><ele>833.8</ele><time>2026-04-18T15:07:03Z</time></trkpt><trkpt lat="45.31115184646865" lon="7.480539433646721"><ele>835.6</ele><time>2026-04-18T15:07:05Z</time></trkpt><trkpt lat="45.31120102325621" lon="7.480636470713995"><ele>837.4</ele><time>2026-04-18T15:07:08Z</time></trkpt><trkpt lat="45.311318135798125" lon="7.480716803554629"><ele>839.1999999999999</ele><time>2026-04-18T15:07:10Z</time></trkpt><trkpt lat="45.31142334477425" lon="7.480739648833248"><ele>841.0</ele><time>2026-04-18T15:07:11Z</time></trkpt><trkpt lat="45.311530180389006" lon="7.480696639592302"><ele>841.25</ele><time>2026-04-18T15:07:12Z</time></trkpt><trkpt lat="45.31162953764495" lon="7.480585321570646"><ele>841.5</ele><time>2026-04-18T15:07:13Z</time></trkpt><trkpt lat="45.311709655157635" lon="7.480474067828756"><ele>841.75</ele><time>2026-04-18T15:07:14Z</time></trkpt><trkpt lat="45.311810704673455" lon="7.480395048948252"><ele>842.0</ele><time>2026-04-18T15:07:15Z</time></trkpt><trkpt lat="45.311913825676164" lon="7.480371101416602"><ele>842.0</ele><time>2026-04-18T15:07:16Z</time></trkpt><trkpt lat="45.312027112048234" lon="7.480456650971375"><ele>842.0</ele><time>2026-04-18T15:07:17Z</time></trkpt><trkpt lat="45.31215610147615" lon="7.480528885541958"><ele>842.0</ele><time>2026-04-18T15:07:18Z</time></trkpt><trkpt lat="45.312274544648304" lon="7.480539224158829"><ele>842.0</ele><time>2026-04-18T15:07:19Z</time></trkpt><trkpt lat="45.31237594231786" lon="7.480486963813459"><ele>841.0</ele><time>2026-04-18T15:07:20Z</time></trkpt><trkpt lat="45.31245940527593" lon="7.480369713385704"><ele>840.0</ele><time>2026-04-18T15:07:21Z</time></trkpt><trkpt lat="45.312510124477726" lon="7.48022560384119"><ele>839.0</ele><time>2026-04-18T15:07:22Z</time></trkpt><trkpt lat="45.31252216775365" lon="7.480062477137553"><ele>838.0</ele><time>2026-04-18T15:07:23Z</time></trkpt><trkpt lat="45.312470775039856" lon="7.479891493031678"><ele>838.0</ele><time>2026-04-18T15:07:24Z</time></trkpt><trkpt lat="45.31238191357044" lon="7.47973884937451"><ele>838.0</ele><time>2026-04-18T15:07:25Z</time></trkpt><trkpt lat="45.31227325653663" lon="7.479611847677511"><ele>838.0</ele><time>2026-04-18T15:07:26Z</time></trkpt><trkpt lat="45.312173140418665" lon="7.479488884970804"><ele>838.0</ele><time>2026-04-18T15:07:27Z</time></trkpt><trkpt lat="45.31211956218129" lon="7.479252635285621"><ele>838.0</ele><time>2026-04-18T15:07:29Z</time></trkpt><trkpt lat="45.31213063178303" lon="7.479136001452749"><ele>838.0</ele><time>2026-04-18T15:07:30Z</time></trkpt><trkpt lat="45.31215120247403" lon="7.479016882866675"><ele>838.0</ele><time>2026-04-18T15:07:31Z</time></trkpt><trkpt lat="45.31223459981541" lon="7.478885998853038"><ele>838.0</ele><time>2026-04-18T15:07:32Z</time></trkpt><trkpt lat="45.31244099218022" lon="7.478667978581597"><ele>838.0</ele><time>2026-04-18T15:07:34Z</time></trkpt><trkpt lat="45.31251030345017" lon="7.478557519390377"><ele>838.0</ele><time>2026-04-18T15:07:35Z</time></trkpt><trkpt lat="45.31257728691703" lon="7.478406717973388"><ele>838.0</ele><time>2026-04-18T15:07:37Z</time></trkpt><trkpt lat="45.31257582365672" lon="7.478266901510402"><ele>838.0</ele><time>2026-04-18T15:07:39Z</time></trkpt><trkpt lat="45.31256050241619" lon="7.478385294299757"><ele>838.0</ele><time>2026-04-18T15:08:02Z</time></trkpt><trkpt lat="45.312537043497436" lon="7.478482764819622"><ele>838.0</ele><time>2026-04-18T15:08:13Z</time></trkpt><trkpt lat="45.312538011531814" lon="7.478333239738275"><ele>838.0</ele><time>2026-04-18T15:08:19Z</time></trkpt><trkpt lat="45.31254875343258" lon="7.478225371159547"><ele>838.0</ele><time>2026-04-18T15:08:20Z</time></trkpt><trkpt lat="45.31253950468906" lon="7.4780948813500485"><ele>838.0</ele><time>2026-04-18T15:08:21Z</time></trkpt><trkpt lat="45.31251348367233" lon="7.477943766508401"><ele>838.0</ele><time>2026-04-18T15:08:22Z</time></trkpt><trkpt lat="45.312509293268484" lon="7.477767514465692"><ele>837.0</ele><time>2026-04-18T15:08:23Z</time></trkpt><trkpt lat="45.31248882628767" lon="7.4775770640470896"><ele>836.0</ele><time>2026-04-18T15:08:24Z</time></trkpt><trkpt lat="45.31245884186938" lon="7.47739302227871"><ele>835.0</ele><time>2026-04-18T15:08:25Z</time></trkpt><trkpt lat="45.3124363413174" lon="7.477206480609455"><ele>834.0</ele><time>2026-04-18T15:08:26Z</time></trkpt><trkpt lat="45.3124159983034" lon="7.477018971046104"><ele>833.0</ele><time>2026-04-18T15:08:27Z</time></trkpt><trkpt lat="45.312396378446174" lon="7.476839378796418"><ele>832.0</ele><time>2026-04-18T15:08:28Z</time></trkpt><trkpt lat="45.31237425368813" lon="7.476657863437652"><ele>831.0</ele><time>2026-04-18T15:08:29Z</time></trkpt><trkpt lat="45.312354960365894" lon="7.476479185357779"><ele>830.0</ele><time>2026-04-18T15:08:30Z</time></trkpt><trkpt lat="45.312333837852755" lon="7.476301129368652"><ele>827.8</ele><time>2026-04-18T15:08:31Z</time></trkpt><trkpt lat="45.31234108147502" lon="7.476130068364353"><ele>825.6</ele><time>2026-04-18T15:08:32Z</time></trkpt><trkpt lat="45.31234594781878" lon="7.475989643288408"><ele>823.4000000000001</ele><time>2026-04-18T15:08:33Z</time></trkpt><trkpt lat="45.3123616558933" lon="7.4758646679106455"><ele>821.2</ele><time>2026-04-18T15:08:34Z</time></trkpt><trkpt lat="45.312395754788284" lon="7.475749076060477"><ele>819.0</ele><time>2026-04-18T15:08:35Z</time></trkpt><trkpt lat="45.31246737443485" lon="7.475668852461514"><ele>819.0</ele><time>2026-04-18T15:08:36Z</time></trkpt><trkpt lat="45.31257341905859" lon="7.475637533988954"><ele>819.0</ele><time>2026-04-18T15:08:37Z</time></trkpt><trkpt lat="45.312705221716755" lon="7.475624667770049"><ele>819.0</ele><time>2026-04-18T15:08:38Z</time></trkpt><trkpt lat="45.3128378295149" lon="7.475629141049574"><ele>819.0</ele><time>2026-04-18T15:08:39Z</time></trkpt><trkpt lat="45.31295183057199" lon="7.475670436978445"><ele>819.0</ele><time>2026-04-18T15:08:40Z</time></trkpt><trkpt lat="45.313059531221526" lon="7.475748082570248"><ele>819.0</ele><time>2026-04-18T15:08:41Z</time></trkpt><trkpt lat="45.31317413160971" lon="7.475874144857789"><ele>819.0</ele><time>2026-04-18T15:08:42Z</time></trkpt><trkpt lat="45.313293307914975" lon="7.47598508078395"><ele>819.0</ele><time>2026-04-18T15:08:43Z</time></trkpt><trkpt lat="45.31337270257297" lon="7.476124974956737"><ele>821.8000000000001</ele><time>2026-04-18T15:08:44Z</time></trkpt><trkpt lat="45.31341600897" lon="7.476276497227308"><ele>824.6</ele><time>2026-04-18T15:08:45Z</time></trkpt><trkpt lat="45.31343180852985" lon="7.4764246254061355"><ele>827.4</ele><time>2026-04-18T15:08:46Z</time></trkpt><trkpt lat="45.313449352550734" lon="7.476535317220848"><ele>830.2</ele><time>2026-04-18T15:08:47Z</time></trkpt><trkpt lat="45.31350505812179" lon="7.476610137773082"><ele>833.0</ele><time>2026-04-18T15:08:48Z</time></trkpt><trkpt lat="45.313673499004246" lon="7.47650962938547"><ele>833.0</ele><time>2026-04-18T15:08:50Z</time></trkpt><trkpt lat="45.313724307526165" lon="7.476390977079441"><ele>833.0</ele><time>2026-04-18T15:08:51Z</time></trkpt><trkpt lat="45.31373041496543" lon="7.476235592238956"><ele>833.0</ele><time>2026-04-18T15:08:52Z</time></trkpt><trkpt lat="45.31373634832146" lon="7.476032023438761"><ele>833.0</ele><time>2026-04-18T15:08:53Z</time></trkpt><trkpt lat="45.31376427129703" lon="7.475814999269983"><ele>828.0</ele><time>2026-04-18T15:08:54Z</time></trkpt><trkpt lat="45.3137795597035" lon="7.475592136459064"><ele>823.0</ele><time>2026-04-18T15:08:55Z</time></trkpt><trkpt lat="45.31376761214783" lon="7.475346967975088"><ele>818.0</ele><time>2026-04-18T15:08:56Z</time></trkpt><trkpt lat="45.31373033989704" lon="7.475067455050107"><ele>812.6666666666667</ele><time>2026-04-18T15:08:57Z</time></trkpt><trkpt lat="45.313693234501685" lon="7.474798672773533"><ele>807.3333333333333</ele><time>2026-04-18T15:08:58Z</time></trkpt><trkpt lat="45.31365241303005" lon="7.474542878424492"><ele>802.0</ele><time>2026-04-18T15:08:59Z</time></trkpt><trkpt lat="45.313620552354074" lon="7.474302842648146"><ele>801.0</ele><time>2026-04-18T15:09:00Z</time></trkpt><trkpt lat="45.31357975643442" lon="7.474066042895226"><ele>800.0</ele><time>2026-04-18T15:09:01Z</time></trkpt><trkpt lat="45.31350690201343" lon="7.4739051720099985"><ele>799.0</ele><time>2026-04-18T15:09:02Z</time></trkpt><trkpt lat="45.31343580369245" lon="7.473695162662605"><ele>799.0</ele><time>2026-04-18T15:09:03Z</time></trkpt><trkpt lat="45.31339877226347" lon="7.473500082467961"><ele>799.0</ele><time>2026-04-18T15:09:04Z</time></trkpt><trkpt lat="45.31337202148204" lon="7.473359218817497"><ele>799.0</ele><time>2026-04-18T15:09:05Z</time></trkpt><trkpt lat="45.313388212375315" lon="7.473204290726397"><ele>799.0</ele><time>2026-04-18T15:09:06Z</time></trkpt><trkpt lat="45.313439608045" lon="7.473077398266275"><ele>799.0</ele><time>2026-04-18T15:09:07Z</time></trkpt><trkpt lat="45.31354775310806" lon="7.472992633934017"><ele>799.0</ele><time>2026-04-18T15:09:08Z</time></trkpt><trkpt lat="45.313659378156984" lon="7.472954219945019"><ele>799.0</ele><time>2026-04-18T15:09:09Z</time></trkpt><trkpt lat="45.31379190770412" lon="7.472904896656014"><ele>799.0</ele><time>2026-04-18T15:09:10Z</time></trkpt><trkpt lat="45.31394654798292" lon="7.472830031368149"><ele>794.3333333333333</ele><time>2026-04-18T15:09:11Z</time></trkpt><trkpt lat="45.31411342923462" lon="7.472796775290724"><ele>789.6666666666667</ele><time>2026-04-18T15:09:12Z</time></trkpt><trkpt lat="45.314276807544275" lon="7.472762718506316"><ele>785.0</ele><time>2026-04-18T15:09:13Z</time></trkpt><trkpt lat="45.31442680152382" lon="7.472719180205569"><ele>785.0</ele><time>2026-04-18T15:09:14Z</time></trkpt><trkpt lat="45.314549695113236" lon="7.472712564453391"><ele>785.0</ele><time>2026-04-18T15:09:15Z</time></trkpt><trkpt lat="45.314656837956505" lon="7.472732662689665"><ele>785.0</ele><time>2026-04-18T15:09:16Z</time></trkpt><trkpt lat="45.314783347562816" lon="7.47281419565972"><ele>785.0</ele><time>2026-04-18T15:09:17Z</time></trkpt><trkpt lat="45.3149188387436" lon="7.472906728318143"><ele>789.25</ele><time>2026-04-18T15:09:18Z</time></trkpt><trkpt lat="45.31503035275566" lon="7.473040533257731"><ele>793.5</ele><time>2026-04-18T15:09:19Z</time></trkpt><trkpt lat="45.31515634373325" lon="7.473136202405628"><ele>797.75</ele><time>2026-04-18T15:09:20Z</time></trkpt><trkpt lat="45.31526196393542" lon="7.473199332068834"><ele>802.0</ele><time>2026-04-18T15:09:21Z</time></trkpt><trkpt lat="45.31533678262979" lon="7.4731837312249025"><ele>802.0</ele><time>2026-04-18T15:09:22Z</time></trkpt><trkpt lat="45.315410426390336" lon="7.473096067271974"><ele>802.0</ele><time>2026-04-18T15:09:23Z</time></trkpt><trkpt lat="45.31544860303392" lon="7.472967273467398"><ele>802.0</ele><time>2026-04-18T15:09:24Z</time></trkpt><trkpt lat="45.315480351437714" lon="7.472836858048164"><ele>802.0</ele><time>2026-04-18T15:09:25Z</time></trkpt><trkpt lat="45.31545374087613" lon="7.472681488363328"><ele>802.0</ele><time>2026-04-18T15:09:26Z</time></trkpt><trkpt lat="45.31538893403448" lon="7.472546451070793"><ele>798.0</ele><time>2026-04-18T15:09:27Z</time></trkpt><trkpt lat="45.315296337118546" lon="7.472416309310627"><ele>794.0</ele><time>2026-04-18T15:09:28Z</time></trkpt><trkpt lat="45.31522298883784" lon="7.472295791709654"><ele>790.0</ele><time>2026-04-18T15:09:29Z</time></trkpt><trkpt lat="45.31517510737428" lon="7.472158496180845"><ele>786.0</ele><time>2026-04-18T15:09:30Z</time></trkpt><trkpt lat="45.315168568746664" lon="7.472001686792549"><ele>783.25</ele><time>2026-04-18T15:09:31Z</time></trkpt><trkpt lat="45.315227464980595" lon="7.471892347394142"><ele>780.5</ele><time>2026-04-18T15:09:32Z</time></trkpt><trkpt lat="45.31531732591089" lon="7.471795825356901"><ele>777.75</ele><time>2026-04-18T15:09:33Z</time></trkpt><trkpt lat="45.31542516825472" lon="7.471717122192519"><ele>775.0</ele><time>2026-04-18T15:09:34Z</time></trkpt><trkpt lat="45.31554551041434" lon="7.471617365460981"><ele>778.75</ele><time>2026-04-18T15:09:35Z</time></trkpt><trkpt lat="45.315658487056446" lon="7.471560709327578"><ele>782.5</ele><time>2026-04-18T15:09:36Z</time></trkpt><trkpt lat="45.315821735155474" lon="7.471358730554672"><ele>786.25</ele><time>2026-04-18T15:09:38Z</time></trkpt><trkpt lat="45.31584486877466" lon="7.471252960420219"><ele>790.0</ele><time>2026-04-18T15:09:39Z</time></trkpt><trkpt lat="45.31581378326315" lon="7.4710735302407985"><ele>790.25</ele><time>2026-04-18T15:09:40Z</time></trkpt><trkpt lat="45.31575750969816" lon="7.470945370184373"><ele>790.5</ele><time>2026-04-18T15:09:41Z</time></trkpt><trkpt lat="45.31567972802892" lon="7.470862405282595"><ele>790.75</ele><time>2026-04-18T15:09:42Z</time></trkpt><trkpt lat="45.31554999185301" lon="7.470829956518727"><ele>791.0</ele><time>2026-04-18T15:09:43Z</time></trkpt><trkpt lat="45.31542477118551" lon="7.470833924679638"><ele>791.0</ele><time>2026-04-18T15:09:44Z</time></trkpt><trkpt lat="45.31528226425245" lon="7.470840387887035"><ele>791.0</ele><time>2026-04-18T15:09:45Z</time></trkpt><trkpt lat="45.315134678771365" lon="7.470839422984597"><ele>791.0</ele><time>2026-04-18T15:09:46Z</time></trkpt><trkpt lat="45.3149914325604" lon="7.470804572097019"><ele>791.0</ele><time>2026-04-18T15:09:47Z</time></trkpt><trkpt lat="45.314858662599185" lon="7.470709869767957"><ele>790.5</ele><time>2026-04-18T15:09:48Z</time></trkpt><trkpt lat="45.31473597314704" lon="7.4706334897952065"><ele>790.0</ele><time>2026-04-18T15:09:49Z</time></trkpt><trkpt lat="45.31462656516151" lon="7.470560880434878"><ele>789.5</ele><time>2026-04-18T15:09:50Z</time></trkpt><trkpt lat="45.3145103072296" lon="7.470549641450843"><ele>789.0</ele><time>2026-04-18T15:09:51Z</time></trkpt><trkpt lat="45.31438402486832" lon="7.4705701051348035"><ele>789.0</ele><time>2026-04-18T15:09:52Z</time></trkpt><trkpt lat="45.31426118657191" lon="7.470685087935637"><ele>789.0</ele><time>2026-04-18T15:09:53Z</time></trkpt><trkpt lat="45.314128786527" lon="7.470762987547521"><ele>789.0</ele><time>2026-04-18T15:09:54Z</time></trkpt><trkpt lat="45.31402651902746" lon="7.4708188889786316"><ele>789.0</ele><time>2026-04-18T15:09:55Z</time></trkpt><trkpt lat="45.31392153342514" lon="7.470837556792153"><ele>788.0</ele><time>2026-04-18T15:09:56Z</time></trkpt><trkpt lat="45.313793388861946" lon="7.47082580782283"><ele>787.0</ele><time>2026-04-18T15:09:57Z</time></trkpt><trkpt lat="45.31364511760049" lon="7.470827734477535"><ele>786.0</ele><time>2026-04-18T15:09:58Z</time></trkpt><trkpt lat="45.31353603598421" lon="7.470775177561567"><ele>785.0</ele><time>2026-04-18T15:09:59Z</time></trkpt><trkpt lat="45.31343496329393" lon="7.47070015431791"><ele>785.0</ele><time>2026-04-18T15:10:00Z</time></trkpt><trkpt lat="45.313357186005526" lon="7.470600139594411"><ele>785.0</ele><time>2026-04-18T15:10:01Z</time></trkpt><trkpt lat="45.31328321750233" lon="7.470485484007163"><ele>785.0</ele><time>2026-04-18T15:10:02Z</time></trkpt><trkpt lat="45.313219701150246" lon="7.470375077056284"><ele>785.0</ele><time>2026-04-18T15:10:03Z</time></trkpt><trkpt lat="45.313151670127716" lon="7.470240257532765"><ele>785.0</ele><time>2026-04-18T15:10:04Z</time></trkpt><trkpt lat="45.31328067295251" lon="7.470185796724371"><ele>785.0</ele><time>2026-04-18T15:10:10Z</time></trkpt><trkpt lat="45.31336214463773" lon="7.4702905232701395"><ele>785.0</ele><time>2026-04-18T15:10:11Z</time></trkpt><trkpt lat="45.313459006949074" lon="7.47036441176058"><ele>785.0</ele><time>2026-04-18T15:10:12Z</time></trkpt><trkpt lat="45.31353051876268" lon="7.470461186384259"><ele>785.0</ele><time>2026-04-18T15:10:13Z</time></trkpt><trkpt lat="45.31360383934595" lon="7.47052149089495"><ele>785.0</ele><time>2026-04-18T15:10:14Z</time></trkpt><trkpt lat="45.31372340120048" lon="7.470545241596344"><ele>785.0</ele><time>2026-04-18T15:10:15Z</time></trkpt><trkpt lat="45.31385018783612" lon="7.470536343558055"><ele>785.0</ele><time>2026-04-18T15:10:16Z</time></trkpt><trkpt lat="45.313982791196864" lon="7.4705052248212125"><ele>785.0</ele><time>2026-04-18T15:10:17Z</time></trkpt><trkpt lat="45.314067792685634" lon="7.470468017294283"><ele>785.0</ele><time>2026-04-18T15:10:18Z</time></trkpt><trkpt lat="45.31410556715136" lon="7.4703700414227185"><ele>785.0</ele><time>2026-04-18T15:10:20Z</time></trkpt><trkpt lat="45.31403811189898" lon="7.470247273255813"><ele>787.3333333333334</ele><time>2026-04-18T15:10:23Z</time></trkpt><trkpt lat="45.313946495129436" lon="7.47022724486602"><ele>789.6666666666667</ele><time>2026-04-18T15:10:24Z</time></trkpt><trkpt lat="45.31386084696086" lon="7.47019471597705"><ele>792.0</ele><time>2026-04-18T15:10:25Z</time></trkpt><trkpt lat="45.31377848413533" lon="7.4701369775744135"><ele>794.3333333333333</ele><time>2026-04-18T15:10:26Z</time></trkpt><trkpt lat="45.31371404929287" lon="7.470079455838714"><ele>796.6666666666666</ele><time>2026-04-18T15:10:27Z</time></trkpt><trkpt lat="45.31367651151475" lon="7.469988427718503"><ele>799.0</ele><time>2026-04-18T15:10:28Z</time></trkpt><trkpt lat="45.31365602359912" lon="7.469840662697535"><ele>799.0</ele><time>2026-04-18T15:10:29Z</time></trkpt><trkpt lat="45.31365943096241" lon="7.469644018287998"><ele>799.0</ele><time>2026-04-18T15:10:30Z</time></trkpt><trkpt lat="45.313654052176084" lon="7.469453199033767"><ele>799.0</ele><time>2026-04-18T15:10:31Z</time></trkpt><trkpt lat="45.31361368054577" lon="7.469259720289434"><ele>799.0</ele><time>2026-04-18T15:10:32Z</time></trkpt><trkpt lat="45.31355034248878" lon="7.4690800317311625"><ele>803.0</ele><time>2026-04-18T15:10:33Z</time></trkpt><trkpt lat="45.313457577405906" lon="7.468937295484275"><ele>807.0</ele><time>2026-04-18T15:10:34Z</time></trkpt><trkpt lat="45.313352424202684" lon="7.468834704902434"><ele>811.0</ele><time>2026-04-18T15:10:35Z</time></trkpt><trkpt lat="45.313214567240365" lon="7.4687609028313116"><ele>815.0</ele><time>2026-04-18T15:10:36Z</time></trkpt><trkpt lat="45.313060630218885" lon="7.468730303993199"><ele>822.3333333333334</ele><time>2026-04-18T15:10:37Z</time></trkpt><trkpt lat="45.3128897465331" lon="7.4686910224009075"><ele>829.6666666666667</ele><time>2026-04-18T15:10:38Z</time></trkpt><trkpt lat="45.312715093247405" lon="7.468677182420694"><ele>837.0</ele><time>2026-04-18T15:10:39Z</time></trkpt><trkpt lat="45.312538068108026" lon="7.468667120937806"><ele>837.0</ele><time>2026-04-18T15:10:40Z</time></trkpt><trkpt lat="45.312361290975986" lon="7.4686439427742295"><ele>837.0</ele><time>2026-04-18T15:10:41Z</time></trkpt><trkpt lat="45.312187641624654" lon="7.468612382865911"><ele>837.0</ele><time>2026-04-18T15:10:42Z</time></trkpt><trkpt lat="45.3120271943475" lon="7.468570664653636"><ele>835.0</ele><time>2026-04-18T15:10:43Z</time></trkpt><trkpt lat="45.311907016365225" lon="7.468534907418606"><ele>833.0</ele><time>2026-04-18T15:10:44Z</time></trkpt><trkpt lat="45.311816626281704" lon="7.468478325003903"><ele>831.0</ele><time>2026-04-18T15:10:45Z</time></trkpt><trkpt lat="45.311743339866936" lon="7.468398531478012"><ele>829.0</ele><time>2026-04-18T15:10:46Z</time></trkpt><trkpt lat="45.311672525766525" lon="7.468283383262915"><ele>827.0</ele><time>2026-04-18T15:10:47Z</time></trkpt><trkpt lat="45.3115874965845" lon="7.4681361868699145"><ele>827.0</ele><time>2026-04-18T15:10:48Z</time></trkpt><trkpt lat="45.311509112414704" lon="7.467981631718583"><ele>827.0</ele><time>2026-04-18T15:10:49Z</time></trkpt><trkpt lat="45.311451883530985" lon="7.467850627556648"><ele>827.0</ele><time>2026-04-18T15:10:50Z</time></trkpt><trkpt lat="45.31141964246017" lon="7.467727314596632"><ele>827.0</ele><time>2026-04-18T15:10:51Z</time></trkpt><trkpt lat="45.311410036454426" lon="7.467599880862332"><ele>827.0</ele><time>2026-04-18T15:10:52Z</time></trkpt><trkpt lat="45.311457968068936" lon="7.4674588903238"><ele>830.0</ele><time>2026-04-18T15:10:53Z</time></trkpt><trkpt lat="45.3115090605839" lon="7.467289964576406"><ele>833.0</ele><time>2026-04-18T15:10:54Z</time></trkpt><trkpt lat="45.3115483513158" lon="7.4671586589983105"><ele>836.0</ele><time>2026-04-18T15:10:55Z</time></trkpt><trkpt lat="45.31152504200206" lon="7.4670116613573825"><ele>839.0</ele><time>2026-04-18T15:10:56Z</time></trkpt><trkpt lat="45.31146058003162" lon="7.466874815887169"><ele>836.6666666666667</ele><time>2026-04-18T15:10:57Z</time></trkpt><trkpt lat="45.31136093324895" lon="7.466751178543204"><ele>834.3333333333333</ele><time>2026-04-18T15:10:58Z</time></trkpt><trkpt lat="45.31122551024764" lon="7.466627166478168"><ele>832.0</ele><time>2026-04-18T15:10:59Z</time></trkpt><trkpt lat="45.311067794223405" lon="7.466511457736053"><ele>832.0</ele><time>2026-04-18T15:11:00Z</time></trkpt><trkpt lat="45.31094368680192" lon="7.466419091316867"><ele>832.0</ele><time>2026-04-18T15:11:01Z</time></trkpt><trkpt lat="45.31083914079207" lon="7.466324529437445"><ele>832.0</ele><time>2026-04-18T15:11:02Z</time></trkpt><trkpt lat="45.31076667626028" lon="7.466221555190072"><ele>832.0</ele><time>2026-04-18T15:11:03Z</time></trkpt><trkpt lat="45.31070740951827" lon="7.466099114083149"><ele>833.5</ele><time>2026-04-18T15:11:04Z</time></trkpt><trkpt lat="45.31064057437356" lon="7.4659448254180525"><ele>835.0</ele><time>2026-04-18T15:11:05Z</time></trkpt><trkpt lat="45.31059938394803" lon="7.465804402206326"><ele>836.5</ele><time>2026-04-18T15:11:06Z</time></trkpt><trkpt lat="45.3105813576918" lon="7.465689406973098"><ele>838.0</ele><time>2026-04-18T15:11:07Z</time></trkpt><trkpt lat="45.31041152588098" lon="7.465644014952817"><ele>838.0</ele><time>2026-04-18T15:11:08Z</time></trkpt><trkpt lat="45.310297921777114" lon="7.4655647804218335"><ele>838.0</ele><time>2026-04-18T15:11:09Z</time></trkpt><trkpt lat="45.310226916420284" lon="7.465476121618554"><ele>838.0</ele><time>2026-04-18T15:11:10Z</time></trkpt><trkpt lat="45.31014919915205" lon="7.465384234633992"><ele>838.0</ele><time>2026-04-18T15:11:11Z</time></trkpt><trkpt lat="45.31009297189477" lon="7.465285198933428"><ele>838.0</ele><time>2026-04-18T15:11:12Z</time></trkpt><trkpt lat="45.31002240619362" lon="7.465241592938148"><ele>839.4</ele><time>2026-04-18T15:11:13Z</time></trkpt><trkpt lat="45.30995388976856" lon="7.46526873467478"><ele>840.8</ele><time>2026-04-18T15:11:14Z</time></trkpt><trkpt lat="45.30987490143134" lon="7.4653001795829255"><ele>842.2</ele><time>2026-04-18T15:11:15Z</time></trkpt><trkpt lat="45.30976272372815" lon="7.4653653195079634"><ele>843.6</ele><time>2026-04-18T15:11:16Z</time></trkpt><trkpt lat="45.30962574314623" lon="7.465459232083119"><ele>845.0</ele><time>2026-04-18T15:11:17Z</time></trkpt><trkpt lat="45.309474767993386" lon="7.4655488668385965"><ele>845.0</ele><time>2026-04-18T15:11:18Z</time></trkpt><trkpt lat="45.309326889461786" lon="7.465643606354386"><ele>845.0</ele><time>2026-04-18T15:11:19Z</time></trkpt><trkpt lat="45.30918570467101" lon="7.465739301073761"><ele>845.0</ele><time>2026-04-18T15:11:20Z</time></trkpt><trkpt lat="45.30905540808846" lon="7.465850156809319"><ele>845.0</ele><time>2026-04-18T15:11:21Z</time></trkpt><trkpt lat="45.30892689048983" lon="7.465922052548441"><ele>845.0</ele><time>2026-04-18T15:11:22Z</time></trkpt><trkpt lat="45.30882728796478" lon="7.465954096042575"><ele>845.0</ele><time>2026-04-18T15:11:23Z</time></trkpt><trkpt lat="45.30872176145551" lon="7.466008107415144"><ele>845.0</ele><time>2026-04-18T15:11:24Z</time></trkpt><trkpt lat="45.30861725097378" lon="7.4660421121943505"><ele>843.5000000000001</ele><time>2026-04-18T15:11:25Z</time></trkpt><trkpt lat="45.30852353305483" lon="7.466043069568108"><ele>842.0</ele><time>2026-04-18T15:11:26Z</time></trkpt><trkpt lat="45.30844184239523" lon="7.465985211075223"><ele>840.5</ele><time>2026-04-18T15:11:27Z</time></trkpt><trkpt lat="45.30839415302589" lon="7.465904197655728"><ele>839.0</ele><time>2026-04-18T15:11:28Z</time></trkpt><trkpt lat="45.308362781504144" lon="7.46579134669925"><ele>837.5000000000001</ele><time>2026-04-18T15:11:29Z</time></trkpt><trkpt lat="45.308335142529906" lon="7.465658565256445"><ele>836.0</ele><time>2026-04-18T15:11:30Z</time></trkpt><trkpt lat="45.30822694436425" lon="7.465469072018235"><ele>838.6666666666667</ele><time>2026-04-18T15:11:31Z</time></trkpt><trkpt lat="45.30813074510245" lon="7.465257350089009"><ele>841.3333333333333</ele><time>2026-04-18T15:11:32Z</time></trkpt><trkpt lat="45.30802889993345" lon="7.46502418598389"><ele>844.0</ele><time>2026-04-18T15:11:33Z</time></trkpt><trkpt lat="45.30794193387383" lon="7.4648073911917345"><ele>833.6666666666666</ele><time>2026-04-18T15:11:34Z</time></trkpt><trkpt lat="45.30784217002331" lon="7.464619635448975"><ele>823.3333333333333</ele><time>2026-04-18T15:11:35Z</time></trkpt><trkpt lat="45.307764042097986" lon="7.4644281983252725"><ele>813.0</ele><time>2026-04-18T15:11:36Z</time></trkpt><trkpt lat="45.30768777703665" lon="7.464250007753116"><ele>813.0</ele><time>2026-04-18T15:11:37Z</time></trkpt><trkpt lat="45.307613855816875" lon="7.464075332470969"><ele>813.0</ele><time>2026-04-18T15:11:38Z</time></trkpt><trkpt lat="45.307555918355796" lon="7.463903102925028"><ele>813.0</ele><time>2026-04-18T15:11:39Z</time></trkpt><trkpt lat="45.30750325643835" lon="7.463679025628174"><ele>813.0</ele><time>2026-04-18T15:11:40Z</time></trkpt><trkpt lat="45.307440750252056" lon="7.4634437243119445"><ele>815.6666666666667</ele><time>2026-04-18T15:11:41Z</time></trkpt><trkpt lat="45.307407396376846" lon="7.463179383724505"><ele>818.3333333333334</ele><time>2026-04-18T15:11:42Z</time></trkpt><trkpt lat="45.30735377908194" lon="7.46291287967"><ele>821.0</ele><time>2026-04-18T15:11:43Z</time></trkpt><trkpt lat="45.30731654484453" lon="7.4626890654879325"><ele>822.5</ele><time>2026-04-18T15:11:44Z</time></trkpt><trkpt lat="45.30727794791" lon="7.462484936171862"><ele>824.0</ele><time>2026-04-18T15:11:45Z</time></trkpt><trkpt lat="45.30723453429195" lon="7.462303659846607"><ele>825.5</ele><time>2026-04-18T15:11:46Z</time></trkpt><trkpt lat="45.307147529486095" lon="7.462160237813789"><ele>827.0</ele><time>2026-04-18T15:11:47Z</time></trkpt><trkpt lat="45.30705212674142" lon="7.462057162961755"><ele>827.0</ele><time>2026-04-18T15:11:48Z</time></trkpt><trkpt lat="45.30694124325138" lon="7.461991273752377"><ele>827.0</ele><time>2026-04-18T15:11:49Z</time></trkpt><trkpt lat="45.30686777012677" lon="7.461975346771882"><ele>827.0</ele><time>2026-04-18T15:11:50Z</time></trkpt><trkpt lat="45.30673736928844" lon="7.462052365967222"><ele>827.0</ele><time>2026-04-18T15:11:51Z</time></trkpt><trkpt lat="45.30661316188201" lon="7.462180194072142"><ele>821.0</ele><time>2026-04-18T15:11:52Z</time></trkpt><trkpt lat="45.30647704465676" lon="7.4623201123425735"><ele>815.0</ele><time>2026-04-18T15:11:53Z</time></trkpt><trkpt lat="45.30634810683722" lon="7.462428841684321"><ele>809.0</ele><time>2026-04-18T15:11:54Z</time></trkpt><trkpt lat="45.30621291566446" lon="7.462582402199542"><ele>805.4000000000001</ele><time>2026-04-18T15:11:55Z</time></trkpt><trkpt lat="45.306099338217166" lon="7.46269046938774"><ele>801.8</ele><time>2026-04-18T15:11:56Z</time></trkpt><trkpt lat="45.3060253727806" lon="7.462720268127021"><ele>798.2</ele><time>2026-04-18T15:11:57Z</time></trkpt><trkpt lat="45.30595402526087" lon="7.462618222914263"><ele>794.5999999999999</ele><time>2026-04-18T15:11:59Z</time></trkpt><trkpt lat="45.30596688339177" lon="7.462497280100351"><ele>791.0</ele><time>2026-04-18T15:12:00Z</time></trkpt><trkpt lat="45.30598103202562" lon="7.462363526604135"><ele>791.0</ele><time>2026-04-18T15:12:01Z</time></trkpt><trkpt lat="45.30598469284091" lon="7.462162116820884"><ele>791.0</ele><time>2026-04-18T15:12:02Z</time></trkpt><trkpt lat="45.30601800277316" lon="7.461946474780667"><ele>791.0</ele><time>2026-04-18T15:12:03Z</time></trkpt><trkpt lat="45.30604478716034" lon="7.461729998842468"><ele>792.0</ele><time>2026-04-18T15:12:04Z</time></trkpt><trkpt lat="45.306063785901785" lon="7.461516722447381"><ele>793.0</ele><time>2026-04-18T15:12:05Z</time></trkpt><trkpt lat="45.306075902040355" lon="7.461301630879821"><ele>794.0</ele><time>2026-04-18T15:12:06Z</time></trkpt><trkpt lat="45.3060640605195" lon="7.461090109313393"><ele>794.25</ele><time>2026-04-18T15:12:07Z</time></trkpt><trkpt lat="45.306022425712115" lon="7.460878048751762"><ele>794.5</ele><time>2026-04-18T15:12:08Z</time></trkpt><trkpt lat="45.30596528522248" lon="7.460688698748842"><ele>794.75</ele><time>2026-04-18T15:12:09Z</time></trkpt><trkpt lat="45.30589728677983" lon="7.460527595286395"><ele>795.0</ele><time>2026-04-18T15:12:10Z</time></trkpt><trkpt lat="45.30589398858865" lon="7.4604078893235775"><ele>794.0</ele><time>2026-04-18T15:12:11Z</time></trkpt><trkpt lat="45.3058855953503" lon="7.460310841503396"><ele>793.0</ele><time>2026-04-18T15:12:12Z</time></trkpt><trkpt lat="45.3059013838883" lon="7.460200237662573"><ele>792.0</ele><time>2026-04-18T15:12:13Z</time></trkpt><trkpt lat="45.30597705341417" lon="7.460083936526057"><ele>791.0</ele><time>2026-04-18T15:12:14Z</time></trkpt><trkpt lat="45.3060752175489" lon="7.4599784767364445"><ele>790.0</ele><time>2026-04-18T15:12:15Z</time></trkpt><trkpt lat="45.30617733219101" lon="7.459856507694289"><ele>790.0</ele><time>2026-04-18T15:12:16Z</time></trkpt><trkpt lat="45.30626701026059" lon="7.459731909523026"><ele>790.0</ele><time>2026-04-18T15:12:17Z</time></trkpt><trkpt lat="45.30635082109151" lon="7.459624749890149"><ele>790.0</ele><time>2026-04-18T15:12:18Z</time></trkpt><trkpt lat="45.30640023750615" lon="7.459417759193898"><ele>790.0</ele><time>2026-04-18T15:12:20Z</time></trkpt><trkpt lat="45.30638154142037" lon="7.459280538551391"><ele>787.8</ele><time>2026-04-18T15:12:21Z</time></trkpt><trkpt lat="45.30631337341015" lon="7.459150862160441"><ele>785.6</ele><time>2026-04-18T15:12:22Z</time></trkpt><trkpt lat="45.3062445284302" lon="7.4590433266126945"><ele>783.4000000000001</ele><time>2026-04-18T15:12:23Z</time></trkpt><trkpt lat="45.306206511993466" lon="7.458933910643118"><ele>781.2</ele><time>2026-04-18T15:12:24Z</time></trkpt><trkpt lat="45.30616751380792" lon="7.458821216430413"><ele>779.0</ele><time>2026-04-18T15:12:25Z</time></trkpt><trkpt lat="45.30612947287854" lon="7.458706742577964"><ele>779.0</ele><time>2026-04-18T15:12:27Z</time></trkpt><trkpt lat="45.30603086616864" lon="7.45886959086182"><ele>779.0</ele><time>2026-04-18T15:12:29Z</time></trkpt><trkpt lat="45.30606746253321" lon="7.458975664523036"><ele>779.0</ele><time>2026-04-18T15:12:30Z</time></trkpt><trkpt lat="45.306101650127836" lon="7.459093873275494"><ele>779.0</ele><time>2026-04-18T15:12:31Z</time></trkpt><trkpt lat="45.30611724320237" lon="7.459196984852933"><ele>779.0</ele><time>2026-04-18T15:12:32Z</time></trkpt><trkpt lat="45.30612311280251" lon="7.459303799676133"><ele>779.0</ele><time>2026-04-18T15:12:33Z</time></trkpt><trkpt lat="45.306052477882666" lon="7.4594203471492"><ele>779.0</ele><time>2026-04-18T15:12:34Z</time></trkpt><trkpt lat="45.3059376834043" lon="7.459474610040663"><ele>779.0</ele><time>2026-04-18T15:12:35Z</time></trkpt><trkpt lat="45.30582345246804" lon="7.459499303286302"><ele>779.0</ele><time>2026-04-18T15:12:36Z</time></trkpt><trkpt lat="45.3057189562475" lon="7.459502713272071"><ele>779.0</ele><time>2026-04-18T15:12:37Z</time></trkpt><trkpt lat="45.30559313490229" lon="7.459482240191955"><ele>775.75</ele><time>2026-04-18T15:12:38Z</time></trkpt><trkpt lat="45.30546104557155" lon="7.45945567152883"><ele>772.5</ele><time>2026-04-18T15:12:39Z</time></trkpt><trkpt lat="45.30534497340434" lon="7.459422159284685"><ele>769.25</ele><time>2026-04-18T15:12:40Z</time></trkpt><trkpt lat="45.30522422135959" lon="7.459414508555556"><ele>766.0</ele><time>2026-04-18T15:12:41Z</time></trkpt><trkpt lat="45.30511024506533" lon="7.459404672096365"><ele>766.0</ele><time>2026-04-18T15:12:42Z</time></trkpt><trkpt lat="45.30502941818592" lon="7.459400098209101"><ele>766.0</ele><time>2026-04-18T15:12:43Z</time></trkpt><trkpt lat="45.30495292864405" lon="7.459395108154167"><ele>766.0</ele><time>2026-04-18T15:12:44Z</time></trkpt><trkpt lat="45.30484249150616" lon="7.45937454705677"><ele>766.0</ele><time>2026-04-18T15:12:46Z</time></trkpt><trkpt lat="45.30477315829056" lon="7.4593602135646"><ele>766.0</ele><time>2026-04-18T15:12:48Z</time></trkpt><trkpt lat="45.30480396333258" lon="7.459239975747367"><ele>766.0</ele><time>2026-04-18T15:12:53Z</time></trkpt><trkpt lat="45.304886916911414" lon="7.459236729809916"><ele>766.0</ele><time>2026-04-18T15:12:54Z</time></trkpt><trkpt lat="45.304960929307036" lon="7.459226312204779"><ele>766.0</ele><time>2026-04-18T15:12:55Z</time></trkpt><trkpt lat="45.30504267376758" lon="7.459241386767943"><ele>766.0</ele><time>2026-04-18T15:12:56Z</time></trkpt><trkpt lat="45.30515126421037" lon="7.459232373996889"><ele>766.0</ele><time>2026-04-18T15:12:57Z</time></trkpt><trkpt lat="45.305217246239025" lon="7.459252032777573"><ele>766.0</ele><time>2026-04-18T15:12:58Z</time></trkpt><trkpt lat="45.30531183928972" lon="7.45922336681279"><ele>766.0</ele><time>2026-04-18T15:13:00Z</time></trkpt><trkpt lat="45.30534564772877" lon="7.459107159435212"><ele>766.0</ele><time>2026-04-18T15:13:02Z</time></trkpt><trkpt lat="45.30525638055879" lon="7.459017961178286"><ele>766.0</ele><time>2026-04-18T15:13:04Z</time></trkpt><trkpt lat="45.305146139503414" lon="7.458994256051258"><ele>766.0</ele><time>2026-04-18T15:13:05Z</time></trkpt><trkpt lat="45.30502482848002" lon="7.458974757158976"><ele>766.0</ele><time>2026-04-18T15:13:06Z</time></trkpt><trkpt lat="45.30488872710035" lon="7.458955488982063"><ele>766.0</ele><time>2026-04-18T15:13:07Z</time></trkpt><trkpt lat="45.30475566395321" lon="7.458933924841725"><ele>766.0</ele><time>2026-04-18T15:13:08Z</time></trkpt><trkpt lat="45.304675778645816" lon="7.458918162843101"><ele>766.0</ele><time>2026-04-18T15:13:09Z</time></trkpt><trkpt lat="45.30458178711601" lon="7.458899617624559"><ele>766.0</ele><time>2026-04-18T15:13:10Z</time></trkpt><trkpt lat="45.30445510823376" lon="7.458913731434394"><ele>766.0</ele><time>2026-04-18T15:13:11Z</time></trkpt><trkpt lat="45.30435101898535" lon="7.458923905071263"><ele>762.0</ele><time>2026-04-18T15:13:12Z</time></trkpt><trkpt lat="45.30424672515019" lon="7.45898889081482"><ele>758.0</ele><time>2026-04-18T15:13:13Z</time></trkpt><trkpt lat="45.30409989677354" lon="7.459114266511744"><ele>754.0</ele><time>2026-04-18T15:13:14Z</time></trkpt><trkpt lat="45.30399634802403" lon="7.459240914667632"><ele>750.0</ele><time>2026-04-18T15:13:15Z</time></trkpt><trkpt lat="45.30389894799734" lon="7.459366151120595"><ele>746.5</ele><time>2026-04-18T15:13:16Z</time></trkpt><trkpt lat="45.3038369607076" lon="7.4595122536097875"><ele>743.0</ele><time>2026-04-18T15:13:17Z</time></trkpt><trkpt lat="45.30374916271745" lon="7.459632020357944"><ele>739.5</ele><time>2026-04-18T15:13:18Z</time></trkpt><trkpt lat="45.303684134609384" lon="7.459779543322051"><ele>736.0</ele><time>2026-04-18T15:13:19Z</time></trkpt><trkpt lat="45.30364082375839" lon="7.459949021932392"><ele>736.0</ele><time>2026-04-18T15:13:20Z</time></trkpt><trkpt lat="45.30362457658993" lon="7.4601205492967955"><ele>736.0</ele><time>2026-04-18T15:13:21Z</time></trkpt><trkpt lat="45.30356516808039" lon="7.460266626300232"><ele>736.0</ele><time>2026-04-18T15:13:22Z</time></trkpt><trkpt lat="45.30348634200945" lon="7.460383162681731"><ele>736.0</ele><time>2026-04-18T15:13:23Z</time></trkpt><trkpt lat="45.3033770602654" lon="7.460439953162163"><ele>735.0</ele><time>2026-04-18T15:13:24Z</time></trkpt><trkpt lat="45.303242366364174" lon="7.460484880385116"><ele>734.0</ele><time>2026-04-18T15:13:25Z</time></trkpt><trkpt lat="45.303100444447715" lon="7.460521326341105"><ele>733.0</ele><time>2026-04-18T15:13:26Z</time></trkpt><trkpt lat="45.30298002545077" lon="7.460557430771874"><ele>732.0</ele><time>2026-04-18T15:13:27Z</time></trkpt><trkpt lat="45.302858933847546" lon="7.460605779918949"><ele>732.0</ele><time>2026-04-18T15:13:28Z</time></trkpt><trkpt lat="45.30274522739535" lon="7.460663774238522"><ele>732.0</ele><time>2026-04-18T15:13:29Z</time></trkpt><trkpt lat="45.30267694935663" lon="7.46075731515671"><ele>732.0</ele><time>2026-04-18T15:13:30Z</time></trkpt><trkpt lat="45.30259690939585" lon="7.460855877334973"><ele>732.0</ele><time>2026-04-18T15:13:31Z</time></trkpt><trkpt lat="45.30252884584851" lon="7.460925980991777"><ele>732.0</ele><time>2026-04-18T15:13:32Z</time></trkpt><trkpt lat="45.30246547087595" lon="7.460990810120851"><ele>732.0</ele><time>2026-04-18T15:13:33Z</time></trkpt><trkpt lat="45.30240381238787" lon="7.461073179302578"><ele>732.0</ele><time>2026-04-18T15:13:34Z</time></trkpt><trkpt lat="45.302312794667735" lon="7.461126721971867"><ele>732.0</ele><time>2026-04-18T15:13:36Z</time></trkpt><trkpt lat="45.30224974127033" lon="7.46115201009375"><ele>732.0</ele><time>2026-04-18T15:13:37Z</time></trkpt><trkpt lat="45.30217266440077" lon="7.461152215524845"><ele>732.0</ele><time>2026-04-18T15:13:38Z</time></trkpt><trkpt lat="45.30209740995791" lon="7.461135143487231"><ele>732.0</ele><time>2026-04-18T15:13:39Z</time></trkpt><trkpt lat="45.30198438938845" lon="7.461114874435538"><ele>730.4000000000001</ele><time>2026-04-18T15:13:40Z</time></trkpt><trkpt lat="45.30184897994305" lon="7.461095592756227"><ele>728.8000000000001</ele><time>2026-04-18T15:13:41Z</time></trkpt><trkpt lat="45.301774261572945" lon="7.461073541715513"><ele>727.2</ele><time>2026-04-18T15:13:42Z</time></trkpt><trkpt lat="45.301652608123476" lon="7.461062455240643"><ele>725.6</ele><time>2026-04-18T15:13:43Z</time></trkpt><trkpt lat="45.30153909826793" lon="7.461039312962133"><ele>724.0</ele><time>2026-04-18T15:13:44Z</time></trkpt><trkpt lat="45.30142632405812" lon="7.46100946639391"><ele>723.6</ele><time>2026-04-18T15:13:45Z</time></trkpt><trkpt lat="45.30132315043556" lon="7.460981375073958"><ele>723.2</ele><time>2026-04-18T15:13:46Z</time></trkpt><trkpt lat="45.30123803535935" lon="7.460950138388028"><ele>722.8000000000001</ele><time>2026-04-18T15:13:47Z</time></trkpt><trkpt lat="45.30112803367909" lon="7.460930790856816"><ele>722.4000000000001</ele><time>2026-04-18T15:13:48Z</time></trkpt><trkpt lat="45.30102692384381" lon="7.460898000774492"><ele>722.0</ele><time>2026-04-18T15:13:49Z</time></trkpt><trkpt lat="45.30093801749065" lon="7.460845785709258"><ele>722.0</ele><time>2026-04-18T15:13:50Z</time></trkpt><trkpt lat="45.30085079902426" lon="7.460804503577147"><ele>722.0</ele><time>2026-04-18T15:13:51Z</time></trkpt><trkpt lat="45.30074185091475" lon="7.460736216434129"><ele>722.0</ele><time>2026-04-18T15:13:52Z</time></trkpt><trkpt lat="45.30062558216591" lon="7.460743496937436"><ele>722.0</ele><time>2026-04-18T15:13:53Z</time></trkpt><trkpt lat="45.30057475923104" lon="7.460607365843004"><ele>722.0</ele><time>2026-04-18T15:13:55Z</time></trkpt><trkpt lat="45.30057257180335" lon="7.4604911382873"><ele>720.4000000000001</ele><time>2026-04-18T15:13:56Z</time></trkpt><trkpt lat="45.300633794729634" lon="7.460379595420127"><ele>718.8000000000001</ele><time>2026-04-18T15:13:57Z</time></trkpt><trkpt lat="45.30064353347659" lon="7.4602511111566665"><ele>717.2</ele><time>2026-04-18T15:13:58Z</time></trkpt><trkpt lat="45.30064066641004" lon="7.460089097588564"><ele>715.6</ele><time>2026-04-18T15:13:59Z</time></trkpt><trkpt lat="45.30067877867153" lon="7.4599158666035885"><ele>714.0</ele><time>2026-04-18T15:14:00Z</time></trkpt><trkpt lat="45.30066302708249" lon="7.4597614064062805"><ele>714.0</ele><time>2026-04-18T15:14:01Z</time></trkpt><trkpt lat="45.30065907779216" lon="7.4596284603658365"><ele>714.0</ele><time>2026-04-18T15:14:02Z</time></trkpt><trkpt lat="45.30058991039886" lon="7.459515671656766"><ele>714.0</ele><time>2026-04-18T15:14:04Z</time></trkpt><trkpt lat="45.30049706408927" lon="7.459506162078265"><ele>714.0</ele><time>2026-04-18T15:14:05Z</time></trkpt><trkpt lat="45.300429643556434" lon="7.459546961865589"><ele>714.0</ele><time>2026-04-18T15:14:06Z</time></trkpt><trkpt lat="45.30032955449145" lon="7.459681706254848"><ele>712.25</ele><time>2026-04-18T15:14:07Z</time></trkpt><trkpt lat="45.30023764418226" lon="7.459815232231628"><ele>710.5</ele><time>2026-04-18T15:14:08Z</time></trkpt><trkpt lat="45.300148234919305" lon="7.459942566049111"><ele>708.75</ele><time>2026-04-18T15:14:09Z</time></trkpt><trkpt lat="45.30004420107954" lon="7.460036483023284"><ele>707.0</ele><time>2026-04-18T15:14:10Z</time></trkpt><trkpt lat="45.2999367467265" lon="7.460103775846532"><ele>707.0</ele><time>2026-04-18T15:14:11Z</time></trkpt><trkpt lat="45.29981048603145" lon="7.460161289026038"><ele>707.0</ele><time>2026-04-18T15:14:12Z</time></trkpt><trkpt lat="45.29967563410638" lon="7.460220828539919"><ele>707.0</ele><time>2026-04-18T15:14:13Z</time></trkpt><trkpt lat="45.29954890965526" lon="7.460298221687879"><ele>707.0</ele><time>2026-04-18T15:14:14Z</time></trkpt><trkpt lat="45.29942298413924" lon="7.4603489249935295"><ele>705.0</ele><time>2026-04-18T15:14:15Z</time></trkpt><trkpt lat="45.299299817590615" lon="7.460407914799638"><ele>703.0</ele><time>2026-04-18T15:14:16Z</time></trkpt><trkpt lat="45.29917377307668" lon="7.460443011753801"><ele>701.0</ele><time>2026-04-18T15:14:17Z</time></trkpt><trkpt lat="45.2990511381335" lon="7.460498768392135"><ele>699.0</ele><time>2026-04-18T15:14:18Z</time></trkpt><trkpt lat="45.29893147652844" lon="7.460551812869148"><ele>697.25</ele><time>2026-04-18T15:14:19Z</time></trkpt><trkpt lat="45.298807261042704" lon="7.4605895637365105"><ele>695.5</ele><time>2026-04-18T15:14:20Z</time></trkpt><trkpt lat="45.2986695495031" lon="7.460556812172693"><ele>693.75</ele><time>2026-04-18T15:14:21Z</time></trkpt><trkpt lat="45.298535003975275" lon="7.460530379766483"><ele>692.0</ele><time>2026-04-18T15:14:22Z</time></trkpt><trkpt lat="45.298398805362275" lon="7.4605090279144415"><ele>692.0</ele><time>2026-04-18T15:14:23Z</time></trkpt><trkpt lat="45.298257316303925" lon="7.460525485330994"><ele>692.0</ele><time>2026-04-18T15:14:24Z</time></trkpt><trkpt lat="45.29811224045348" lon="7.4605767886864225"><ele>692.0</ele><time>2026-04-18T15:14:25Z</time></trkpt><trkpt lat="45.297969613980754" lon="7.460634767421052"><ele>692.0</ele><time>2026-04-18T15:14:26Z</time></trkpt><trkpt lat="45.2978382663164" lon="7.460675355914743"><ele>689.75</ele><time>2026-04-18T15:14:27Z</time></trkpt><trkpt lat="45.29770425596403" lon="7.460691378311933"><ele>687.5</ele><time>2026-04-18T15:14:28Z</time></trkpt><trkpt lat="45.29758115092888" lon="7.460735055893414"><ele>685.25</ele><time>2026-04-18T15:14:29Z</time></trkpt><trkpt lat="45.29745655599884" lon="7.4608107351772075"><ele>683.0</ele><time>2026-04-18T15:14:30Z</time></trkpt><trkpt lat="45.297364989436495" lon="7.460916002482311"><ele>683.0</ele><time>2026-04-18T15:14:31Z</time></trkpt><trkpt lat="45.297255318173825" lon="7.461017955943467"><ele>683.0</ele><time>2026-04-18T15:14:32Z</time></trkpt><trkpt lat="45.297138884447" lon="7.461184398243284"><ele>683.0</ele><time>2026-04-18T15:14:33Z</time></trkpt><trkpt lat="45.297035348627205" lon="7.461344091120125"><ele>683.0</ele><time>2026-04-18T15:14:34Z</time></trkpt><trkpt lat="45.296945364253986" lon="7.461522633275005"><ele>681.0</ele><time>2026-04-18T15:14:35Z</time></trkpt><trkpt lat="45.29683461430811" lon="7.461675943393335"><ele>679.0</ele><time>2026-04-18T15:14:36Z</time></trkpt><trkpt lat="45.29672917063701" lon="7.461825232398237"><ele>677.0</ele><time>2026-04-18T15:14:37Z</time></trkpt><trkpt lat="45.29663111519622" lon="7.461981864593862"><ele>676.5</ele><time>2026-04-18T15:14:38Z</time></trkpt><trkpt lat="45.29654568722304" lon="7.462144401962389"><ele>676.0</ele><time>2026-04-18T15:14:39Z</time></trkpt><trkpt lat="45.29644559783827" lon="7.462287176169465"><ele>675.5</ele><time>2026-04-18T15:14:40Z</time></trkpt><trkpt lat="45.29636129885051" lon="7.462429773536549"><ele>675.0</ele><time>2026-04-18T15:14:41Z</time></trkpt><trkpt lat="45.29625409115172" lon="7.462603637991347"><ele>673.75</ele><time>2026-04-18T15:14:42Z</time></trkpt><trkpt lat="45.29614796229698" lon="7.46277349867013"><ele>672.5</ele><time>2026-04-18T15:14:43Z</time></trkpt><trkpt lat="45.29603685830335" lon="7.462905092660423"><ele>671.25</ele><time>2026-04-18T15:14:44Z</time></trkpt><trkpt lat="45.295916130130585" lon="7.463015795351731"><ele>670.0</ele><time>2026-04-18T15:14:45Z</time></trkpt><trkpt lat="45.29577852547931" lon="7.463088099817482"><ele>668.25</ele><time>2026-04-18T15:14:46Z</time></trkpt><trkpt lat="45.29565855943904" lon="7.463193380858281"><ele>666.5</ele><time>2026-04-18T15:14:47Z</time></trkpt><trkpt lat="45.29553523995593" lon="7.46327557849602"><ele>664.75</ele><time>2026-04-18T15:14:48Z</time></trkpt><trkpt lat="45.29542398573296" lon="7.463363835916921"><ele>663.0</ele><time>2026-04-18T15:14:49Z</time></trkpt><trkpt lat="45.295322275414435" lon="7.463458921395806"><ele>661.3333333333334</ele><time>2026-04-18T15:14:50Z</time></trkpt><trkpt lat="45.29509823886155" lon="7.463583226899764"><ele>659.6666666666667</ele><time>2026-04-18T15:14:52Z</time></trkpt><trkpt lat="45.29497899952852" lon="7.463708544491928"><ele>658.0</ele><time>2026-04-18T15:14:53Z</time></trkpt><trkpt lat="45.29484961005632" lon="7.463819262256053"><ele>654.75</ele><time>2026-04-18T15:14:54Z</time></trkpt><trkpt lat="45.294717875937124" lon="7.463918736591708"><ele>651.5</ele><time>2026-04-18T15:14:55Z</time></trkpt><trkpt lat="45.29458268927592" lon="7.464023732367184"><ele>648.25</ele><time>2026-04-18T15:14:56Z</time></trkpt><trkpt lat="45.2944680688316" lon="7.464130331390201"><ele>645.0</ele><time>2026-04-18T15:14:57Z</time></trkpt><trkpt lat="45.29434063549155" lon="7.464315801489731"><ele>645.0</ele><time>2026-04-18T15:14:58Z</time></trkpt><trkpt lat="45.294250292381435" lon="7.464501212087765"><ele>645.0</ele><time>2026-04-18T15:14:59Z</time></trkpt><trkpt lat="45.294176530592594" lon="7.4647311320102"><ele>645.0</ele><time>2026-04-18T15:15:00Z</time></trkpt><trkpt lat="45.29412003531422" lon="7.46498377915447"><ele>642.0</ele><time>2026-04-18T15:15:01Z</time></trkpt><trkpt lat="45.29407399230427" lon="7.465230914620524"><ele>639.0</ele><time>2026-04-18T15:15:02Z</time></trkpt><trkpt lat="45.293981376289175" lon="7.4654384666150015"><ele>636.0</ele><time>2026-04-18T15:15:03Z</time></trkpt><trkpt lat="45.29388031882318" lon="7.465649605243258"><ele>636.0</ele><time>2026-04-18T15:15:04Z</time></trkpt><trkpt lat="45.29375859153138" lon="7.465871577069563"><ele>636.0</ele><time>2026-04-18T15:15:05Z</time></trkpt><trkpt lat="45.29364671986116" lon="7.466082169253475"><ele>636.0</ele><time>2026-04-18T15:15:06Z</time></trkpt><trkpt lat="45.29350035926345" lon="7.466285265563437"><ele>635.0</ele><time>2026-04-18T15:15:07Z</time></trkpt><trkpt lat="45.293365362250924" lon="7.466503414493878"><ele>634.0</ele><time>2026-04-18T15:15:08Z</time></trkpt><trkpt lat="45.29320344202732" lon="7.466692039720729"><ele>633.0</ele><time>2026-04-18T15:15:09Z</time></trkpt><trkpt lat="45.29304990988968" lon="7.466903407409038"><ele>633.0</ele><time>2026-04-18T15:15:10Z</time></trkpt><trkpt lat="45.29294260606601" lon="7.467047062011953"><ele>633.0</ele><time>2026-04-18T15:15:11Z</time></trkpt><trkpt lat="45.292812271611815" lon="7.467209152643585"><ele>633.0</ele><time>2026-04-18T15:15:12Z</time></trkpt><trkpt lat="45.292675432469736" lon="7.46734782277676"><ele>627.0</ele><time>2026-04-18T15:15:13Z</time></trkpt><trkpt lat="45.29251981577965" lon="7.4674650533290095"><ele>621.0</ele><time>2026-04-18T15:15:14Z</time></trkpt><trkpt lat="45.29234045081031" lon="7.467563715267879"><ele>615.0</ele><time>2026-04-18T15:15:15Z</time></trkpt><trkpt lat="45.29216347713218" lon="7.467643354263593"><ele>613.6666666666666</ele><time>2026-04-18T15:15:16Z</time></trkpt><trkpt lat="45.291987295419396" lon="7.46774925776352"><ele>612.3333333333333</ele><time>2026-04-18T15:15:17Z</time></trkpt><trkpt lat="45.29179466957752" lon="7.4678426180724164"><ele>611.0</ele><time>2026-04-18T15:15:18Z</time></trkpt><trkpt lat="45.29162779491311" lon="7.46796288422527"><ele>601.5</ele><time>2026-04-18T15:15:19Z</time></trkpt><trkpt lat="45.291465097021444" lon="7.468055489834047"><ele>592.0</ele><time>2026-04-18T15:15:20Z</time></trkpt><trkpt lat="45.29115371848096" lon="7.4682344984264875"><ele>592.0</ele><time>2026-04-18T15:15:22Z</time></trkpt><trkpt lat="45.29100478527427" lon="7.4683494829168175"><ele>592.0</ele><time>2026-04-18T15:15:23Z</time></trkpt><trkpt lat="45.29087690097186" lon="7.468473090736566"><ele>592.0</ele><time>2026-04-18T15:15:24Z</time></trkpt><trkpt lat="45.290766075899384" lon="7.468601441192278"><ele>592.0</ele><time>2026-04-18T15:15:25Z</time></trkpt><trkpt lat="45.29066056481929" lon="7.468669261288328"><ele>592.0</ele><time>2026-04-18T15:15:26Z</time></trkpt><trkpt lat="45.29057842120644" lon="7.468723134544134"><ele>592.0</ele><time>2026-04-18T15:15:27Z</time></trkpt><trkpt lat="45.29048684950079" lon="7.468736157945193"><ele>592.0</ele><time>2026-04-18T15:15:28Z</time></trkpt><trkpt lat="45.29040262180386" lon="7.468692124543764"><ele>592.0</ele><time>2026-04-18T15:15:29Z</time></trkpt><trkpt lat="45.290313684193876" lon="7.4686006604642"><ele>587.75</ele><time>2026-04-18T15:15:30Z</time></trkpt><trkpt lat="45.290208757918506" lon="7.46844477962971"><ele>583.5</ele><time>2026-04-18T15:15:31Z</time></trkpt><trkpt lat="45.290127965018165" lon="7.468286752384748"><ele>579.25</ele><time>2026-04-18T15:15:32Z</time></trkpt><trkpt lat="45.29002777060369" lon="7.468133876753077"><ele>575.0</ele><time>2026-04-18T15:15:33Z</time></trkpt><trkpt lat="45.28992818063058" lon="7.46801726013666"><ele>576.0</ele><time>2026-04-18T15:15:34Z</time></trkpt><trkpt lat="45.2898754935415" lon="7.467860379987534"><ele>577.0</ele><time>2026-04-18T15:15:35Z</time></trkpt><trkpt lat="45.28988926176867" lon="7.467728292332304"><ele>578.0</ele><time>2026-04-18T15:15:36Z</time></trkpt><trkpt lat="45.28987767473512" lon="7.467614063209581"><ele>579.0</ele><time>2026-04-18T15:15:37Z</time></trkpt><trkpt lat="45.289872799928375" lon="7.4674949850981625"><ele>580.0</ele><time>2026-04-18T15:15:39Z</time></trkpt><trkpt lat="45.28980868376577" lon="7.467514984915203"><ele>581.0</ele><time>2026-04-18T15:15:40Z</time></trkpt><trkpt lat="45.28973901637886" lon="7.4676279600117335"><ele>574.5</ele><time>2026-04-18T15:15:42Z</time></trkpt><trkpt lat="45.28968844655295" lon="7.4678677747241995"><ele>568.0</ele><time>2026-04-18T15:15:43Z</time></trkpt><trkpt lat="45.289647932448005" lon="7.468028669319745"><ele>561.5</ele><time>2026-04-18T15:15:44Z</time></trkpt><trkpt lat="45.28961567207085" lon="7.468178350463151"><ele>555.0</ele><time>2026-04-18T15:15:45Z</time></trkpt><trkpt lat="45.28958638227418" lon="7.468309021372625"><ele>555.0</ele><time>2026-04-18T15:15:46Z</time></trkpt><trkpt lat="45.28952205005449" lon="7.4684239696207655"><ele>555.0</ele><time>2026-04-18T15:15:47Z</time></trkpt><trkpt lat="45.289414714566774" lon="7.468495409725979"><ele>555.0</ele><time>2026-04-18T15:15:48Z</time></trkpt><trkpt lat="45.289317940391605" lon="7.468596742783269"><ele>555.0</ele><time>2026-04-18T15:15:49Z</time></trkpt><trkpt lat="45.28922516524412" lon="7.468699121785789"><ele>554.4</ele><time>2026-04-18T15:15:50Z</time></trkpt><trkpt lat="45.2891424549425" lon="7.46879719055977"><ele>553.8</ele><time>2026-04-18T15:15:51Z</time></trkpt><trkpt lat="45.28908183401525" lon="7.468869613682903"><ele>553.2</ele><time>2026-04-18T15:15:52Z</time></trkpt><trkpt lat="45.28902826068305" lon="7.46892418232547"><ele>552.6</ele><time>2026-04-18T15:15:53Z</time></trkpt><trkpt lat="45.288971278668456" lon="7.468998884600283"><ele>552.0</ele><time>2026-04-18T15:15:55Z</time></trkpt><trkpt lat="45.288855154894065" lon="7.4688965905883915"><ele>549.0</ele><time>2026-04-18T15:16:02Z</time></trkpt><trkpt lat="45.28883092726437" lon="7.468750085286682"><ele>546.0</ele><time>2026-04-18T15:16:03Z</time></trkpt><trkpt lat="45.28881894131781" lon="7.46857502094164"><ele>543.0</ele><time>2026-04-18T15:16:04Z</time></trkpt><trkpt lat="45.28880864927173" lon="7.468410985822584"><ele>540.0</ele><time>2026-04-18T15:16:05Z</time></trkpt><trkpt lat="45.28879467768023" lon="7.468235806443253"><ele>540.0</ele><time>2026-04-18T15:16:06Z</time></trkpt><trkpt lat="45.28877755886102" lon="7.468040590737073"><ele>540.0</ele><time>2026-04-18T15:16:07Z</time></trkpt><trkpt lat="45.28876308483382" lon="7.467832819090587"><ele>540.0</ele><time>2026-04-18T15:16:08Z</time></trkpt><trkpt lat="45.28876720630714" lon="7.467638055818984"><ele>540.0</ele><time>2026-04-18T15:16:09Z</time></trkpt><trkpt lat="45.28877350159143" lon="7.467453174806599"><ele>540.0</ele><time>2026-04-18T15:16:10Z</time></trkpt><trkpt lat="45.28877409173073" lon="7.467271786639498"><ele>540.0</ele><time>2026-04-18T15:16:11Z</time></trkpt><trkpt lat="45.28877924483266" lon="7.467114178079192"><ele>540.0</ele><time>2026-04-18T15:16:12Z</time></trkpt><trkpt lat="45.2887928267728" lon="7.466970888348227"><ele>540.0</ele><time>2026-04-18T15:16:13Z</time></trkpt><trkpt lat="45.288773815011396" lon="7.466777672265243"><ele>540.0</ele><time>2026-04-18T15:16:15Z</time></trkpt><trkpt lat="45.28882647550284" lon="7.466725538715877"><ele>540.0</ele><time>2026-04-18T15:16:16Z</time></trkpt><trkpt lat="45.28877201800481" lon="7.466843346726339"><ele>540.0</ele><time>2026-04-18T15:16:23Z</time></trkpt><trkpt lat="45.28871243980985" lon="7.466894349656894"><ele>540.0</ele><time>2026-04-18T15:16:25Z</time></trkpt><trkpt lat="45.28879960201717" lon="7.46713824641119"><ele>540.0</ele><time>2026-04-18T15:16:27Z</time></trkpt><trkpt lat="45.28885187439573" lon="7.467015276589891"><ele>540.0</ele><time>2026-04-18T15:18:44Z</time></trkpt><trkpt lat="45.28880183818197" lon="7.467071333902525"><ele>540.0</ele><time>2026-04-18T15:18:48Z</time></trkpt><trkpt lat="45.28873254814585" lon="7.467053558134111"><ele>540.0</ele><time>2026-04-18T15:18:53Z</time></trkpt><trkpt lat="45.28879499595691" lon="7.467015640764754"><ele>540.0</ele><time>2026-04-18T15:19:03Z</time></trkpt></trkseg><trkseg><trkpt lat="45.2889328869116" lon="7.467166338081383"><ele>549.6</ele><time>2026-04-18T15:36:39.999Z</time></trkpt><trkpt lat="45.288860065632655" lon="7.4671994312714585"><ele>547.2</ele><time>2026-04-18T15:36:41.999Z</time></trkpt><trkpt lat="45.288813151247375" lon="7.46713966925372"><ele>544.8</ele><time>2026-04-18T15:36:49.999Z</time></trkpt><trkpt lat="45.288792240208466" lon="7.46697975662092"><ele>542.4</ele><time>2026-04-18T15:37:04.999Z</time></trkpt><trkpt lat="45.288756290349205" lon="7.466840781508665"><ele>540.0</ele><time>2026-04-18T15:37:06.999Z</time></trkpt><trkpt lat="45.288664065305476" lon="7.466804828019271"><ele>540.0</ele><time>2026-04-18T15:37:07.999Z</time></trkpt><trkpt lat="45.28859679482973" lon="7.466750336040185"><ele>540.0</ele><time>2026-04-18T15:37:08.999Z</time></trkpt><trkpt lat="45.28847883729266" lon="7.466766152016449"><ele>540.0</ele><time>2026-04-18T15:37:09.999Z</time></trkpt><trkpt lat="45.2883903755253" lon="7.466700542276742"><ele>540.0</ele><time>2026-04-18T15:37:10.999Z</time></trkpt><trkpt lat="45.288285434659834" lon="7.466712251125322"><ele>540.0</ele><time>2026-04-18T15:37:11.999Z</time></trkpt><trkpt lat="45.28817685036349" lon="7.466749641932972"><ele>539.4</ele><time>2026-04-18T15:37:12.999Z</time></trkpt><trkpt lat="45.28807775814844" lon="7.466826493135244"><ele>538.8</ele><time>2026-04-18T15:37:14Z</time></trkpt><trkpt lat="45.28800054509025" lon="7.46693544170758"><ele>538.2</ele><time>2026-04-18T15:37:15Z</time></trkpt><trkpt lat="45.28792416688842" lon="7.467041534752703"><ele>537.6</ele><time>2026-04-18T15:37:16Z</time></trkpt><trkpt lat="45.287839923205425" lon="7.467124308126835"><ele>537.0</ele><time>2026-04-18T15:37:17Z</time></trkpt><trkpt lat="45.287742119186504" lon="7.467211265689126"><ele>537.0</ele><time>2026-04-18T15:37:18Z</time></trkpt><trkpt lat="45.28763287871423" lon="7.4672958712147235"><ele>537.0</ele><time>2026-04-18T15:37:19Z</time></trkpt><trkpt lat="45.28751041342519" lon="7.467381496714335"><ele>537.0</ele><time>2026-04-18T15:37:20Z</time></trkpt><trkpt lat="45.28737574673544" lon="7.46744998484954"><ele>537.0</ele><time>2026-04-18T15:37:21Z</time></trkpt><trkpt lat="45.2872603942215" lon="7.467524687117396"><ele>539.6666666666666</ele><time>2026-04-18T15:37:22Z</time></trkpt><trkpt lat="45.287131931046545" lon="7.467621391856768"><ele>542.3333333333333</ele><time>2026-04-18T15:37:23Z</time></trkpt><trkpt lat="45.286991874262746" lon="7.46769836185156"><ele>545.0</ele><time>2026-04-18T15:37:24Z</time></trkpt><trkpt lat="45.28679048775616" lon="7.467811919028497"><ele>545.0</ele><time>2026-04-18T15:37:25Z</time></trkpt><trkpt lat="45.28670505218143" lon="7.467846872692341"><ele>545.0</ele><time>2026-04-18T15:37:26Z</time></trkpt><trkpt lat="45.286584009004756" lon="7.467925135494928"><ele>545.0</ele><time>2026-04-18T15:37:27Z</time></trkpt><trkpt lat="45.28646239998554" lon="7.468004428971324"><ele>545.0</ele><time>2026-04-18T15:37:28Z</time></trkpt><trkpt lat="45.28635529116284" lon="7.468065947943197"><ele>542.75</ele><time>2026-04-18T15:37:29Z</time></trkpt><trkpt lat="45.286237925174404" lon="7.468115292685705"><ele>540.5</ele><time>2026-04-18T15:37:30Z</time></trkpt><trkpt lat="45.286122486782006" lon="7.468178128368115"><ele>538.25</ele><time>2026-04-18T15:37:31Z</time></trkpt><trkpt lat="45.28600270114099" lon="7.468235624744867"><ele>536.0</ele><time>2026-04-18T15:37:32Z</time></trkpt><trkpt lat="45.28589086634249" lon="7.468302940713087"><ele>536.0</ele><time>2026-04-18T15:37:33Z</time></trkpt><trkpt lat="45.28577133666441" lon="7.4683867099174135"><ele>536.0</ele><time>2026-04-18T15:37:34Z</time></trkpt><trkpt lat="45.285650122893394" lon="7.468460865907057"><ele>536.0</ele><time>2026-04-18T15:37:35Z</time></trkpt><trkpt lat="45.28553492796694" lon="7.468539755022098"><ele>536.0</ele><time>2026-04-18T15:37:36Z</time></trkpt><trkpt lat="45.28541634371856" lon="7.468612309936603"><ele>536.25</ele><time>2026-04-18T15:37:37Z</time></trkpt><trkpt lat="45.285305708682976" lon="7.468666596432445"><ele>536.5</ele><time>2026-04-18T15:37:38Z</time></trkpt><trkpt lat="45.28518650685548" lon="7.468738867332757"><ele>536.75</ele><time>2026-04-18T15:37:39Z</time></trkpt><trkpt lat="45.28507617554404" lon="7.468805760082818"><ele>537.0</ele><time>2026-04-18T15:37:40Z</time></trkpt><trkpt lat="45.284966071286135" lon="7.468890290815017"><ele>535.75</ele><time>2026-04-18T15:37:41Z</time></trkpt><trkpt lat="45.284845411295464" lon="7.468967489284216"><ele>534.5</ele><time>2026-04-18T15:37:42Z</time></trkpt><trkpt lat="45.28472386094568" lon="7.469038611377992"><ele>533.25</ele><time>2026-04-18T15:37:43Z</time></trkpt><trkpt lat="45.2846310666344" lon="7.469099245257582"><ele>532.0</ele><time>2026-04-18T15:37:44Z</time></trkpt><trkpt lat="45.284514182930074" lon="7.469157581935693"><ele>531.5</ele><time>2026-04-18T15:37:45Z</time></trkpt><trkpt lat="45.28436931880576" lon="7.4692300159005764"><ele>531.0</ele><time>2026-04-18T15:37:46Z</time></trkpt><trkpt lat="45.28422819917037" lon="7.469311967295789"><ele>530.5</ele><time>2026-04-18T15:37:47Z</time></trkpt><trkpt lat="45.28410460762644" lon="7.469383739617608"><ele>530.0</ele><time>2026-04-18T15:37:48Z</time></trkpt><trkpt lat="45.28399008238977" lon="7.469454387112914"><ele>530.5</ele><time>2026-04-18T15:37:49Z</time></trkpt><trkpt lat="45.28387216298243" lon="7.469528420333231"><ele>531.0</ele><time>2026-04-18T15:37:50Z</time></trkpt><trkpt lat="45.28374934602376" lon="7.4696055284149265"><ele>531.5</ele><time>2026-04-18T15:37:51Z</time></trkpt><trkpt lat="45.28363339525368" lon="7.469696599546625"><ele>532.0</ele><time>2026-04-18T15:37:52Z</time></trkpt><trkpt lat="45.28350671229464" lon="7.469731155610322"><ele>530.5</ele><time>2026-04-18T15:37:53Z</time></trkpt><trkpt lat="45.28337985897569" lon="7.469777684501408"><ele>529.0</ele><time>2026-04-18T15:37:54Z</time></trkpt><trkpt lat="45.283248480582586" lon="7.469820627883234"><ele>527.5</ele><time>2026-04-18T15:37:55Z</time></trkpt><trkpt lat="45.28312558430912" lon="7.469863023581872"><ele>526.0</ele><time>2026-04-18T15:37:56Z</time></trkpt><trkpt lat="45.2830067816035" lon="7.469904146213667"><ele>526.0</ele><time>2026-04-18T15:37:57Z</time></trkpt><trkpt lat="45.282896476999674" lon="7.469964063183639"><ele>526.0</ele><time>2026-04-18T15:37:58Z</time></trkpt><trkpt lat="45.282756022876534" lon="7.469985735427892"><ele>526.0</ele><time>2026-04-18T15:37:59Z</time></trkpt><trkpt lat="45.28265749482805" lon="7.4700217834596865"><ele>526.0</ele><time>2026-04-18T15:38:00Z</time></trkpt><trkpt lat="45.2825383331757" lon="7.470034179623584"><ele>526.0</ele><time>2026-04-18T15:38:00.999Z</time></trkpt><trkpt lat="45.28241060742169" lon="7.470058117122544"><ele>526.0</ele><time>2026-04-18T15:38:01.999Z</time></trkpt><trkpt lat="45.28233092620889" lon="7.470084138729771"><ele>526.0</ele><time>2026-04-18T15:38:02.999Z</time></trkpt><trkpt lat="45.28224235170268" lon="7.470171563988154"><ele>526.0</ele><time>2026-04-18T15:38:03.999Z</time></trkpt><trkpt lat="45.28205991240152" lon="7.470195716571513"><ele>525.75</ele><time>2026-04-18T15:38:04.999Z</time></trkpt><trkpt lat="45.28190947409091" lon="7.4702314312349944"><ele>525.5</ele><time>2026-04-18T15:38:05.999Z</time></trkpt><trkpt lat="45.28176360403272" lon="7.470214799596897"><ele>525.25</ele><time>2026-04-18T15:38:06.999Z</time></trkpt><trkpt lat="45.28164889881175" lon="7.470196394800239"><ele>525.0</ele><time>2026-04-18T15:38:07.999Z</time></trkpt><trkpt lat="45.28150693268706" lon="7.470155920635472"><ele>523.6666666666666</ele><time>2026-04-18T15:38:08.999Z</time></trkpt><trkpt lat="45.28134556107331" lon="7.470100953618318"><ele>522.3333333333333</ele><time>2026-04-18T15:38:09.999Z</time></trkpt><trkpt lat="45.28119907732238" lon="7.470049883503138"><ele>521.0</ele><time>2026-04-18T15:38:10.999Z</time></trkpt><trkpt lat="45.28105684708193" lon="7.469998481477781"><ele>521.0</ele><time>2026-04-18T15:38:11.999Z</time></trkpt><trkpt lat="45.280902852339004" lon="7.46994672980526"><ele>521.0</ele><time>2026-04-18T15:38:12.999Z</time></trkpt><trkpt lat="45.2807521837621" lon="7.469888852002047"><ele>521.0</ele><time>2026-04-18T15:38:13.999Z</time></trkpt><trkpt lat="45.28058884578006" lon="7.469825515998975"><ele>519.6666666666666</ele><time>2026-04-18T15:38:14.999Z</time></trkpt><trkpt lat="45.280420160787436" lon="7.469762489702466"><ele>518.3333333333334</ele><time>2026-04-18T15:38:15.999Z</time></trkpt><trkpt lat="45.28026329091603" lon="7.469740306415555"><ele>517.0</ele><time>2026-04-18T15:38:16.999Z</time></trkpt><trkpt lat="45.28011052072113" lon="7.469699721754338"><ele>517.0</ele><time>2026-04-18T15:38:17.999Z</time></trkpt><trkpt lat="45.279941093255154" lon="7.46969219896761"><ele>517.0</ele><time>2026-04-18T15:38:18.999Z</time></trkpt><trkpt lat="45.27976576869671" lon="7.469714629918711"><ele>517.0</ele><time>2026-04-18T15:38:19.999Z</time></trkpt><trkpt lat="45.27959095983606" lon="7.46976506528998"><ele>516.5</ele><time>2026-04-18T15:38:20.999Z</time></trkpt><trkpt lat="45.279441824774665" lon="7.469798627379288"><ele>516.0</ele><time>2026-04-18T15:38:21.999Z</time></trkpt><trkpt lat="45.27933121021982" lon="7.469836887922848"><ele>515.5</ele><time>2026-04-18T15:38:22.999Z</time></trkpt><trkpt lat="45.2792205911411" lon="7.4698601704527805"><ele>515.0</ele><time>2026-04-18T15:38:23.999Z</time></trkpt><trkpt lat="45.27913067010826" lon="7.469872176666452"><ele>515.0</ele><time>2026-04-18T15:38:24.999Z</time></trkpt><trkpt lat="45.27903824058362" lon="7.469871407046907"><ele>515.0</ele><time>2026-04-18T15:38:25.999Z</time></trkpt><trkpt lat="45.27890335598502" lon="7.469903289076572"><ele>515.0</ele><time>2026-04-18T15:38:26.999Z</time></trkpt><trkpt lat="45.278761459573744" lon="7.469949511615887"><ele>515.0</ele><time>2026-04-18T15:38:27.999Z</time></trkpt><trkpt lat="45.278606447547794" lon="7.469998958991713"><ele>515.3333333333333</ele><time>2026-04-18T15:38:28.999Z</time></trkpt><trkpt lat="45.27842042017313" lon="7.470124139117954"><ele>515.6666666666666</ele><time>2026-04-18T15:38:29.999Z</time></trkpt><trkpt lat="45.27824810443385" lon="7.470246077076259"><ele>516.0</ele><time>2026-04-18T15:38:30.999Z</time></trkpt><trkpt lat="45.278089726069396" lon="7.4703441157680786"><ele>515.0</ele><time>2026-04-18T15:38:31.999Z</time></trkpt><trkpt lat="45.2779410930047" lon="7.470452450635994"><ele>514.0</ele><time>2026-04-18T15:38:32.999Z</time></trkpt><trkpt lat="45.27781208072977" lon="7.470512959383023"><ele>513.0</ele><time>2026-04-18T15:38:33.999Z</time></trkpt><trkpt lat="45.27768033587667" lon="7.470621426789326"><ele>513.0</ele><time>2026-04-18T15:38:34.999Z</time></trkpt><trkpt lat="45.27753216976605" lon="7.470712304766761"><ele>513.0</ele><time>2026-04-18T15:38:35.999Z</time></trkpt><trkpt lat="45.277362768138715" lon="7.470801919297733"><ele>513.0</ele><time>2026-04-18T15:38:36.999Z</time></trkpt><trkpt lat="45.277267472445956" lon="7.470860460912548"><ele>513.0</ele><time>2026-04-18T15:38:37.999Z</time></trkpt><trkpt lat="45.277191661082455" lon="7.470912714545508"><ele>513.75</ele><time>2026-04-18T15:38:38.999Z</time></trkpt><trkpt lat="45.27699174743736" lon="7.471149661514972"><ele>514.5</ele><time>2026-04-18T15:38:40.999Z</time></trkpt><trkpt lat="45.276922813069994" lon="7.471192648257739"><ele>515.25</ele><time>2026-04-18T15:38:41.999Z</time></trkpt><trkpt lat="45.27683608766318" lon="7.471292906121049"><ele>516.0</ele><time>2026-04-18T15:38:42.999Z</time></trkpt><trkpt lat="45.276753817236674" lon="7.47139532868314"><ele>514.5</ele><time>2026-04-18T15:38:43.999Z</time></trkpt><trkpt lat="45.2766585320542" lon="7.471502539617292"><ele>513.0</ele><time>2026-04-18T15:38:44.999Z</time></trkpt><trkpt lat="45.276540659895794" lon="7.471605211371333"><ele>511.5</ele><time>2026-04-18T15:38:45.999Z</time></trkpt><trkpt lat="45.27643194541758" lon="7.47171576709353"><ele>510.0</ele><time>2026-04-18T15:38:46.999Z</time></trkpt><trkpt lat="45.2763264300139" lon="7.47184610281036"><ele>510.0</ele><time>2026-04-18T15:38:47.999Z</time></trkpt><trkpt lat="45.27621510417082" lon="7.471931496248233"><ele>510.0</ele><time>2026-04-18T15:38:48.999Z</time></trkpt><trkpt lat="45.27611747367871" lon="7.47203136515185"><ele>510.0</ele><time>2026-04-18T15:38:49.999Z</time></trkpt><trkpt lat="45.27600432243588" lon="7.4721455846662455"><ele>510.0</ele><time>2026-04-18T15:38:50.999Z</time></trkpt><trkpt lat="45.27591648597041" lon="7.472231477312808"><ele>510.0</ele><time>2026-04-18T15:38:51.999Z</time></trkpt><trkpt lat="45.275849075022485" lon="7.472309319355293"><ele>510.0</ele><time>2026-04-18T15:38:52.999Z</time></trkpt><trkpt lat="45.275781946662924" lon="7.472393370445439"><ele>510.0</ele><time>2026-04-18T15:38:53.999Z</time></trkpt><trkpt lat="45.27571304908128" lon="7.472449423720611"><ele>510.0</ele><time>2026-04-18T15:38:54.999Z</time></trkpt><trkpt lat="45.275641348156206" lon="7.472519044842925"><ele>510.0</ele><time>2026-04-18T15:38:55.999Z</time></trkpt><trkpt lat="45.27555868069105" lon="7.4725973304370505"><ele>510.0</ele><time>2026-04-18T15:38:56.999Z</time></trkpt><trkpt lat="45.27547277511492" lon="7.472691065144639"><ele>510.0</ele><time>2026-04-18T15:38:57.999Z</time></trkpt><trkpt lat="45.275387210278794" lon="7.47277930567856"><ele>510.0</ele><time>2026-04-18T15:38:58.999Z</time></trkpt><trkpt lat="45.275297961418886" lon="7.4728682977938155"><ele>510.0</ele><time>2026-04-18T15:38:59.999Z</time></trkpt><trkpt lat="45.275216827911656" lon="7.472952240815985"><ele>510.0</ele><time>2026-04-18T15:39:00.999Z</time></trkpt><trkpt lat="45.275127543274266" lon="7.473035804582338"><ele>510.0</ele><time>2026-04-18T15:39:01.999Z</time></trkpt><trkpt lat="45.275047356308974" lon="7.473122457054242"><ele>510.3333333333333</ele><time>2026-04-18T15:39:02.999Z</time></trkpt><trkpt lat="45.27496937373338" lon="7.473195672444904"><ele>510.66666666666663</ele><time>2026-04-18T15:39:03.999Z</time></trkpt><trkpt lat="45.27489157455344" lon="7.473274073120294"><ele>511.0</ele><time>2026-04-18T15:39:04.999Z</time></trkpt><trkpt lat="45.274819629093294" lon="7.4733586084181445"><ele>511.3333333333333</ele><time>2026-04-18T15:39:05.999Z</time></trkpt><trkpt lat="45.27476429204826" lon="7.4734236271791445"><ele>511.66666666666663</ele><time>2026-04-18T15:39:06.999Z</time></trkpt><trkpt lat="45.274707764581734" lon="7.4734841577815105"><ele>512.0</ele><time>2026-04-18T15:39:07.999Z</time></trkpt><trkpt lat="45.274640893829016" lon="7.473565804688718"><ele>512.0</ele><time>2026-04-18T15:39:09.999Z</time></trkpt><trkpt lat="45.27459984045106" lon="7.473640278634033"><ele>512.0</ele><time>2026-04-18T15:39:12.999Z</time></trkpt><trkpt lat="45.274508055485875" lon="7.473730110324815"><ele>512.0</ele><time>2026-04-18T15:39:15.999Z</time></trkpt><trkpt lat="45.274425261831574" lon="7.4738002783359"><ele>512.0</ele><time>2026-04-18T15:39:16.999Z</time></trkpt><trkpt lat="45.27435017279056" lon="7.473910532395237"><ele>512.0</ele><time>2026-04-18T15:39:17.999Z</time></trkpt><trkpt lat="45.27425022955262" lon="7.474002711426533"><ele>510.5</ele><time>2026-04-18T15:39:18.999Z</time></trkpt><trkpt lat="45.274134697513496" lon="7.474087935753883"><ele>509.0</ele><time>2026-04-18T15:39:19.999Z</time></trkpt><trkpt lat="45.27401573371192" lon="7.474173994721981"><ele>507.5</ele><time>2026-04-18T15:39:20.999Z</time></trkpt><trkpt lat="45.27392048245821" lon="7.4742867721352715"><ele>506.0</ele><time>2026-04-18T15:39:21.999Z</time></trkpt><trkpt lat="45.27382458576357" lon="7.4743839234445035"><ele>506.0</ele><time>2026-04-18T15:39:22.999Z</time></trkpt><trkpt lat="45.27374214030856" lon="7.474460710313"><ele>506.0</ele><time>2026-04-18T15:39:23.999Z</time></trkpt><trkpt lat="45.273644850645944" lon="7.474554431603026"><ele>506.0</ele><time>2026-04-18T15:39:24.999Z</time></trkpt><trkpt lat="45.27356941527226" lon="7.474636422432818"><ele>506.0</ele><time>2026-04-18T15:39:25.999Z</time></trkpt><trkpt lat="45.27350084181508" lon="7.474689679926284"><ele>506.0</ele><time>2026-04-18T15:39:26.999Z</time></trkpt><trkpt lat="45.273443805343724" lon="7.474759114222393"><ele>505.99999999999994</ele><time>2026-04-18T15:39:27.999Z</time></trkpt><trkpt lat="45.27336888589848" lon="7.474818385868138"><ele>506.0</ele><time>2026-04-18T15:39:28.999Z</time></trkpt><trkpt lat="45.27324240818071" lon="7.4749094935459794"><ele>506.0</ele><time>2026-04-18T15:39:31Z</time></trkpt><trkpt lat="45.27317505491366" lon="7.4749700029668436"><ele>506.0</ele><time>2026-04-18T15:39:33Z</time></trkpt><trkpt lat="45.27311676700813" lon="7.474925953271191"><ele>505.99999999999994</ele><time>2026-04-18T15:39:34Z</time></trkpt><trkpt lat="45.27305835977971" lon="7.47485909903617"><ele>506.0</ele><time>2026-04-18T15:39:35Z</time></trkpt><trkpt lat="45.27295112823134" lon="7.4747963875672285"><ele>504.0</ele><time>2026-04-18T15:39:36Z</time></trkpt><trkpt lat="45.27287926116819" lon="7.474791196897838"><ele>502.0</ele><time>2026-04-18T15:39:37Z</time></trkpt><trkpt lat="45.27274388493459" lon="7.474823543973131"><ele>500.0</ele><time>2026-04-18T15:39:39Z</time></trkpt><trkpt lat="45.272698790780424" lon="7.474920147385767"><ele>498.0</ele><time>2026-04-18T15:39:40Z</time></trkpt><trkpt lat="45.27265198654563" lon="7.475000455450469"><ele>496.0</ele><time>2026-04-18T15:39:41Z</time></trkpt><trkpt lat="45.27258636905837" lon="7.475098559021614"><ele>496.0</ele><time>2026-04-18T15:39:42Z</time></trkpt><trkpt lat="45.27250035744137" lon="7.4752319439995185"><ele>496.0</ele><time>2026-04-18T15:39:43Z</time></trkpt><trkpt lat="45.27242919515124" lon="7.475342068139701"><ele>496.0</ele><time>2026-04-18T15:39:44Z</time></trkpt><trkpt lat="45.272376733815946" lon="7.475456410768437"><ele>496.0</ele><time>2026-04-18T15:39:45Z</time></trkpt><trkpt lat="45.27230682092962" lon="7.475546613287062"><ele>496.0</ele><time>2026-04-18T15:39:46Z</time></trkpt><trkpt lat="45.27224310832365" lon="7.475632066237445"><ele>493.5</ele><time>2026-04-18T15:39:47Z</time></trkpt><trkpt lat="45.27217932477657" lon="7.475722744010684"><ele>491.0</ele><time>2026-04-18T15:39:48Z</time></trkpt><trkpt lat="45.272104471240496" lon="7.475842811386697"><ele>488.5</ele><time>2026-04-18T15:39:49Z</time></trkpt><trkpt lat="45.27202500759058" lon="7.475977787276026"><ele>486.0</ele><time>2026-04-18T15:39:50Z</time></trkpt><trkpt lat="45.271933152963356" lon="7.4761158002028765"><ele>486.0</ele><time>2026-04-18T15:39:51Z</time></trkpt><trkpt lat="45.27184725602602" lon="7.4762368699689175"><ele>486.0</ele><time>2026-04-18T15:39:52Z</time></trkpt><trkpt lat="45.27176889441809" lon="7.476352314887721"><ele>486.0</ele><time>2026-04-18T15:39:53Z</time></trkpt><trkpt lat="45.27169889503183" lon="7.47645467023137"><ele>486.0</ele><time>2026-04-18T15:39:54Z</time></trkpt><trkpt lat="45.27164410374941" lon="7.476530637967071"><ele>486.0</ele><time>2026-04-18T15:39:55Z</time></trkpt><trkpt lat="45.271593730696345" lon="7.476604661821413"><ele>485.0</ele><time>2026-04-18T15:39:56Z</time></trkpt><trkpt lat="45.27153380630432" lon="7.476679671161087"><ele>484.0</ele><time>2026-04-18T15:39:57Z</time></trkpt><trkpt lat="45.27146384460277" lon="7.4767720050080575"><ele>483.0</ele><time>2026-04-18T15:39:58Z</time></trkpt><trkpt lat="45.27136822274783" lon="7.476858853279864"><ele>482.0</ele><time>2026-04-18T15:39:59Z</time></trkpt><trkpt lat="45.271262805664215" lon="7.476946867818693"><ele>481.0</ele><time>2026-04-18T15:40:00Z</time></trkpt><trkpt lat="45.271148618267354" lon="7.47702950143406"><ele>483.20000000000005</ele><time>2026-04-18T15:40:01Z</time></trkpt><trkpt lat="45.27103478043637" lon="7.477111922706306"><ele>485.40000000000003</ele><time>2026-04-18T15:40:02Z</time></trkpt><trkpt lat="45.270936741833864" lon="7.4771898548145055"><ele>487.6</ele><time>2026-04-18T15:40:03Z</time></trkpt><trkpt lat="45.27083985449128" lon="7.47726369965663"><ele>489.8</ele><time>2026-04-18T15:40:04Z</time></trkpt><trkpt lat="45.27075082028293" lon="7.477322875254134"><ele>492.0</ele><time>2026-04-18T15:40:05Z</time></trkpt><trkpt lat="45.270684437181" lon="7.477329195114738"><ele>492.0</ele><time>2026-04-18T15:40:06Z</time></trkpt><trkpt lat="45.270719842517785" lon="7.4774806223694315"><ele>492.00000000000006</ele><time>2026-04-18T15:40:10Z</time></trkpt><trkpt lat="45.27072897176757" lon="7.477605461278249"><ele>492.00000000000006</ele><time>2026-04-18T15:40:14Z</time></trkpt><trkpt lat="45.27065144145525" lon="7.477667222724494"><ele>492.0</ele><time>2026-04-18T15:40:15Z</time></trkpt><trkpt lat="45.27059919962943" lon="7.477770766734287"><ele>492.0</ele><time>2026-04-18T15:40:16Z</time></trkpt><trkpt lat="45.27051250136051" lon="7.47786701589065"><ele>492.3333333333333</ele><time>2026-04-18T15:40:17Z</time></trkpt><trkpt lat="45.27042870876331" lon="7.477968235709219"><ele>492.66666666666663</ele><time>2026-04-18T15:40:18Z</time></trkpt><trkpt lat="45.270359978116005" lon="7.478042343321983"><ele>493.0</ele><time>2026-04-18T15:40:19Z</time></trkpt><trkpt lat="45.27029761236954" lon="7.478078896065926"><ele>493.3333333333333</ele><time>2026-04-18T15:40:20Z</time></trkpt><trkpt lat="45.27019607036619" lon="7.478153242463807"><ele>493.66666666666663</ele><time>2026-04-18T15:40:22Z</time></trkpt><trkpt lat="45.27014004132102" lon="7.478207833467835"><ele>494.0</ele><time>2026-04-18T15:40:23Z</time></trkpt><trkpt lat="45.27008720524991" lon="7.478259502210934"><ele>494.0</ele><time>2026-04-18T15:40:24Z</time></trkpt><trkpt lat="45.270032749369086" lon="7.478304663711954"><ele>494.0</ele><time>2026-04-18T15:40:25Z</time></trkpt><trkpt lat="45.269928803755796" lon="7.47838111870875"><ele>494.0</ele><time>2026-04-18T15:40:27Z</time></trkpt><trkpt lat="45.269824816598856" lon="7.478463500785982"><ele>494.0</ele><time>2026-04-18T15:40:29Z</time></trkpt><trkpt lat="45.269729140834926" lon="7.478526615139176"><ele>494.0</ele><time>2026-04-18T15:40:31Z</time></trkpt><trkpt lat="45.26966852998893" lon="7.478562532806552"><ele>493.99999999999994</ele><time>2026-04-18T15:40:33Z</time></trkpt><trkpt lat="45.269706258028116" lon="7.478473818950723"><ele>494.0</ele><time>2026-04-18T15:40:39Z</time></trkpt><trkpt lat="45.26976659542572" lon="7.478384271391142"><ele>494.0</ele><time>2026-04-18T15:40:40Z</time></trkpt><trkpt lat="45.2698425488439" lon="7.478313991338113"><ele>494.0</ele><time>2026-04-18T15:40:41Z</time></trkpt><trkpt lat="45.26991891879933" lon="7.478235722192356"><ele>493.99999999999994</ele><time>2026-04-18T15:40:42Z</time></trkpt><trkpt lat="45.26999033848646" lon="7.478152595264545"><ele>494.0</ele><time>2026-04-18T15:40:43Z</time></trkpt><trkpt lat="45.270060457258296" lon="7.478074508614138"><ele>493.99999999999994</ele><time>2026-04-18T15:40:44Z</time></trkpt><trkpt lat="45.27011127381318" lon="7.478021399838343"><ele>494.0</ele><time>2026-04-18T15:40:45Z</time></trkpt><trkpt lat="45.27019008102284" lon="7.477925151937912"><ele>494.0</ele><time>2026-04-18T15:40:47Z</time></trkpt><trkpt lat="45.270251884492524" lon="7.477857923790135"><ele>494.0</ele><time>2026-04-18T15:40:50Z</time></trkpt><trkpt lat="45.270203045682265" lon="7.477916980108853"><ele>493.99999999999994</ele><time>2026-04-18T15:41:20Z</time></trkpt><trkpt lat="45.27009601768784" lon="7.478045528231771"><ele>494.0</ele><time>2026-04-18T15:41:22Z</time></trkpt><trkpt lat="45.26994826068907" lon="7.478159087048687"><ele>494.0</ele><time>2026-04-18T15:41:23Z</time></trkpt><trkpt lat="45.269855063708434" lon="7.478258426804929"><ele>494.0</ele><time>2026-04-18T15:41:24Z</time></trkpt><trkpt lat="45.26977586106669" lon="7.478346586893756"><ele>494.0</ele><time>2026-04-18T15:41:25Z</time></trkpt><trkpt lat="45.269700312471684" lon="7.478428562107189"><ele>494.0</ele><time>2026-04-18T15:41:26Z</time></trkpt><trkpt lat="45.26964236868292" lon="7.478494402395836"><ele>494.0</ele><time>2026-04-18T15:41:27Z</time></trkpt><trkpt lat="45.26960490684011" lon="7.478582689198807"><ele>494.0</ele><time>2026-04-18T15:41:30Z</time></trkpt><trkpt lat="45.2697914374706" lon="7.478541302237975"><ele>494.0</ele><time>2026-04-18T15:41:34Z</time></trkpt><trkpt lat="45.26988038039609" lon="7.47845493686199"><ele>494.0</ele><time>2026-04-18T15:41:35Z</time></trkpt><trkpt lat="45.26998279823572" lon="7.478375297055307"><ele>494.0</ele><time>2026-04-18T15:41:36Z</time></trkpt><trkpt lat="45.2700829340954" lon="7.478298887088159"><ele>494.0</ele><time>2026-04-18T15:41:37Z</time></trkpt><trkpt lat="45.2701834318555" lon="7.478215951537951"><ele>494.0</ele><time>2026-04-18T15:41:38Z</time></trkpt><trkpt lat="45.27028044109267" lon="7.478138091112077"><ele>494.0</ele><time>2026-04-18T15:41:39Z</time></trkpt><trkpt lat="45.270377773829615" lon="7.478055549067447"><ele>494.0</ele><time>2026-04-18T15:41:40Z</time></trkpt><trkpt lat="45.27046626909024" lon="7.4779788926098965"><ele>494.0</ele><time>2026-04-18T15:41:41Z</time></trkpt><trkpt lat="45.27054400331769" lon="7.477887385965152"><ele>493.66666666666663</ele><time>2026-04-18T15:41:42Z</time></trkpt><trkpt lat="45.27061269904239" lon="7.4777885554123005"><ele>493.3333333333333</ele><time>2026-04-18T15:41:43Z</time></trkpt><trkpt lat="45.27067708079399" lon="7.477688212242416"><ele>493.0</ele><time>2026-04-18T15:41:44Z</time></trkpt><trkpt lat="45.27073562350676" lon="7.477602691273238"><ele>492.66666666666663</ele><time>2026-04-18T15:41:45Z</time></trkpt><trkpt lat="45.270777747085255" lon="7.477524801269942"><ele>492.3333333333333</ele><time>2026-04-18T15:41:46Z</time></trkpt><trkpt lat="45.27079039135022" lon="7.477391786607213"><ele>492.0</ele><time>2026-04-18T15:41:48Z</time></trkpt><trkpt lat="45.27076734440431" lon="7.477292403814158"><ele>488.25</ele><time>2026-04-18T15:41:58Z</time></trkpt><trkpt lat="45.27055458511913" lon="7.477371891268746"><ele>484.5</ele><time>2026-04-18T15:42:00Z</time></trkpt><trkpt lat="45.270459358432376" lon="7.477399595158541"><ele>480.75</ele><time>2026-04-18T15:42:01Z</time></trkpt><trkpt lat="45.27036836594609" lon="7.477410766709764"><ele>477.0</ele><time>2026-04-18T15:42:02Z</time></trkpt><trkpt lat="45.27029084289654" lon="7.477404951954013"><ele>477.0</ele><time>2026-04-18T15:42:03Z</time></trkpt><trkpt lat="45.270219061986225" lon="7.477390889952606"><ele>477.0</ele><time>2026-04-18T15:42:04Z</time></trkpt><trkpt lat="45.27014414575765" lon="7.477379460278114"><ele>477.0</ele><time>2026-04-18T15:42:05Z</time></trkpt><trkpt lat="45.27006700840369" lon="7.477365241391012"><ele>477.0</ele><time>2026-04-18T15:42:06Z</time></trkpt><trkpt lat="45.269988174411836" lon="7.477349037444778"><ele>477.0</ele><time>2026-04-18T15:42:07Z</time></trkpt><trkpt lat="45.26989156351768" lon="7.4773286858848165"><ele>477.0</ele><time>2026-04-18T15:42:08Z</time></trkpt><trkpt lat="45.26978845912842" lon="7.477305961326247"><ele>475.0</ele><time>2026-04-18T15:42:09Z</time></trkpt><trkpt lat="45.26967460927582" lon="7.4772673947768755"><ele>473.0</ele><time>2026-04-18T15:42:10Z</time></trkpt><trkpt lat="45.26953115013303" lon="7.477215979712085"><ele>471.0</ele><time>2026-04-18T15:42:11Z</time></trkpt><trkpt lat="45.269363345714424" lon="7.477163856142359"><ele>469.0</ele><time>2026-04-18T15:42:12Z</time></trkpt><trkpt lat="45.269193077446474" lon="7.477116829074446"><ele>471.6666666666667</ele><time>2026-04-18T15:42:13Z</time></trkpt><trkpt lat="45.26904446015408" lon="7.477079702243767"><ele>474.33333333333337</ele><time>2026-04-18T15:42:14Z</time></trkpt><trkpt lat="45.26889363090481" lon="7.477039837948121"><ele>477.0</ele><time>2026-04-18T15:42:15Z</time></trkpt><trkpt lat="45.26876202380931" lon="7.4769521688430025"><ele>477.0</ele><time>2026-04-18T15:42:16Z</time></trkpt><trkpt lat="45.2686373998029" lon="7.476849512178222"><ele>477.0</ele><time>2026-04-18T15:42:17Z</time></trkpt><trkpt lat="45.26850584513196" lon="7.476726731583467"><ele>477.0</ele><time>2026-04-18T15:42:18Z</time></trkpt><trkpt lat="45.268383284550715" lon="7.476568080134404"><ele>477.0</ele><time>2026-04-18T15:42:19Z</time></trkpt><trkpt lat="45.268266738054216" lon="7.476391773025311"><ele>477.0</ele><time>2026-04-18T15:42:20Z</time></trkpt><trkpt lat="45.268143489907516" lon="7.476224153575244"><ele>477.0</ele><time>2026-04-18T15:42:21Z</time></trkpt><trkpt lat="45.26802250939445" lon="7.476073289862651"><ele>475.33333333333337</ele><time>2026-04-18T15:42:22Z</time></trkpt><trkpt lat="45.267902490664184" lon="7.475915505417478"><ele>473.6666666666667</ele><time>2026-04-18T15:42:23Z</time></trkpt><trkpt lat="45.26778276375483" lon="7.475774091339354"><ele>472.0</ele><time>2026-04-18T15:42:24Z</time></trkpt><trkpt lat="45.26767059945914" lon="7.475631983485983"><ele>472.0</ele><time>2026-04-18T15:42:25Z</time></trkpt><trkpt lat="45.267560796336866" lon="7.47547817740771"><ele>472.0</ele><time>2026-04-18T15:42:26Z</time></trkpt><trkpt lat="45.26744922368486" lon="7.475337356707521"><ele>472.0</ele><time>2026-04-18T15:42:27Z</time></trkpt><trkpt lat="45.26734653467433" lon="7.475204015295039"><ele>472.0</ele><time>2026-04-18T15:42:28Z</time></trkpt><trkpt lat="45.26724677619492" lon="7.475079470686501"><ele>472.0</ele><time>2026-04-18T15:42:29Z</time></trkpt><trkpt lat="45.26715044380669" lon="7.474955179519361"><ele>472.0</ele><time>2026-04-18T15:42:30Z</time></trkpt><trkpt lat="45.2670567541394" lon="7.474834583901581"><ele>472.0</ele><time>2026-04-18T15:42:31Z</time></trkpt><trkpt lat="45.266972728133744" lon="7.474731657073647"><ele>472.0</ele><time>2026-04-18T15:42:32Z</time></trkpt><trkpt lat="45.266896871156106" lon="7.474634084602385"><ele>473.20000000000005</ele><time>2026-04-18T15:42:33Z</time></trkpt><trkpt lat="45.2668349327639" lon="7.474540968442629"><ele>474.40000000000003</ele><time>2026-04-18T15:42:34Z</time></trkpt><trkpt lat="45.26680163657178" lon="7.474438454632752"><ele>475.59999999999997</ele><time>2026-04-18T15:42:35Z</time></trkpt><trkpt lat="45.26678759632081" lon="7.474304207978125"><ele>476.79999999999995</ele><time>2026-04-18T15:42:36Z</time></trkpt><trkpt lat="45.2667768668149" lon="7.474141755507148"><ele>478.0</ele><time>2026-04-18T15:42:37Z</time></trkpt><trkpt lat="45.266697292350266" lon="7.474016531646583"><ele>478.0</ele><time>2026-04-18T15:42:38Z</time></trkpt><trkpt lat="45.26663042001438" lon="7.473840030901966"><ele>478.0</ele><time>2026-04-18T15:42:39Z</time></trkpt><trkpt lat="45.26656547173592" lon="7.473655473851851"><ele>478.0</ele><time>2026-04-18T15:42:40Z</time></trkpt><trkpt lat="45.266503679459106" lon="7.473489691279058"><ele>478.0</ele><time>2026-04-18T15:42:41Z</time></trkpt><trkpt lat="45.26644840121645" lon="7.4733421133794735"><ele>478.2</ele><time>2026-04-18T15:42:42Z</time></trkpt><trkpt lat="45.26640784301104" lon="7.473207189660557"><ele>478.4</ele><time>2026-04-18T15:42:43Z</time></trkpt><trkpt lat="45.26637461861347" lon="7.473091459751555"><ele>478.59999999999997</ele><time>2026-04-18T15:42:44Z</time></trkpt><trkpt lat="45.26634653237886" lon="7.4729934746116164"><ele>478.79999999999995</ele><time>2026-04-18T15:42:45Z</time></trkpt><trkpt lat="45.26630995062488" lon="7.472876487839652"><ele>479.0</ele><time>2026-04-18T15:42:46Z</time></trkpt><trkpt lat="45.26622939946424" lon="7.472699903123617"><ele>479.75</ele><time>2026-04-18T15:42:47Z</time></trkpt><trkpt lat="45.266158283483485" lon="7.472585371065964"><ele>480.5</ele><time>2026-04-18T15:42:48Z</time></trkpt><trkpt lat="45.26608647198655" lon="7.472442454901327"><ele>481.25</ele><time>2026-04-18T15:42:49Z</time></trkpt><trkpt lat="45.26602236732862" lon="7.4723088702927445"><ele>482.0</ele><time>2026-04-18T15:42:50Z</time></trkpt><trkpt lat="45.26595469946395" lon="7.472168664904813"><ele>482.75</ele><time>2026-04-18T15:42:51Z</time></trkpt><trkpt lat="45.26589657171583" lon="7.47202020296134"><ele>483.5</ele><time>2026-04-18T15:42:52Z</time></trkpt><trkpt lat="45.265813130127384" lon="7.471851858650697"><ele>484.25</ele><time>2026-04-18T15:42:53Z</time></trkpt><trkpt lat="45.26574147908839" lon="7.4717008340420215"><ele>485.0</ele><time>2026-04-18T15:42:54Z</time></trkpt><trkpt lat="45.265666893943475" lon="7.47154166055601"><ele>484.6</ele><time>2026-04-18T15:42:55Z</time></trkpt><trkpt lat="45.26558836594821" lon="7.471412938106156"><ele>484.2</ele><time>2026-04-18T15:42:56Z</time></trkpt><trkpt lat="45.26552254127752" lon="7.471262125763799"><ele>483.79999999999995</ele><time>2026-04-18T15:42:57Z</time></trkpt><trkpt lat="45.2654753302364" lon="7.471157179550121"><ele>483.4</ele><time>2026-04-18T15:42:58Z</time></trkpt><trkpt lat="45.265433534329205" lon="7.471086210849"><ele>483.0</ele><time>2026-04-18T15:42:59Z</time></trkpt><trkpt lat="45.26537735624424" lon="7.470968982570962"><ele>484.0</ele><time>2026-04-18T15:43:01Z</time></trkpt><trkpt lat="45.26533826831651" lon="7.470888281057939"><ele>484.99999999999994</ele><time>2026-04-18T15:43:02Z</time></trkpt><trkpt lat="45.26528773008406" lon="7.470787896355958"><ele>485.99999999999994</ele><time>2026-04-18T15:43:03Z</time></trkpt><trkpt lat="45.26522964213359" lon="7.470673869528267"><ele>487.0</ele><time>2026-04-18T15:43:04Z</time></trkpt><trkpt lat="45.265167117214226" lon="7.470543900899476"><ele>488.0</ele><time>2026-04-18T15:43:05Z</time></trkpt><trkpt lat="45.26509566313509" lon="7.4704077775112205"><ele>488.2</ele><time>2026-04-18T15:43:06Z</time></trkpt><trkpt lat="45.265039559077096" lon="7.470288204564312"><ele>488.4</ele><time>2026-04-18T15:43:07Z</time></trkpt><trkpt lat="45.26499383614236" lon="7.4701863379904445"><ele>488.59999999999997</ele><time>2026-04-18T15:43:08Z</time></trkpt><trkpt lat="45.26495412477778" lon="7.4700930224627085"><ele>488.79999999999995</ele><time>2026-04-18T15:43:09Z</time></trkpt><trkpt lat="45.26487969834345" lon="7.47001265447533"><ele>489.0</ele><time>2026-04-18T15:43:10Z</time></trkpt><trkpt lat="45.264781584580035" lon="7.469921071784638"><ele>488.75</ele><time>2026-04-18T15:43:11Z</time></trkpt><trkpt lat="45.264610691589965" lon="7.4697548152635065"><ele>488.5</ele><time>2026-04-18T15:43:13Z</time></trkpt><trkpt lat="45.26452026999701" lon="7.469649589834819"><ele>488.25</ele><time>2026-04-18T15:43:14Z</time></trkpt><trkpt lat="45.264435298924404" lon="7.469589528198717"><ele>488.0</ele><time>2026-04-18T15:43:15Z</time></trkpt><trkpt lat="45.2643449343859" lon="7.469538112775884"><ele>488.0</ele><time>2026-04-18T15:43:16Z</time></trkpt><trkpt lat="45.264251555858436" lon="7.469466203427064"><ele>488.0</ele><time>2026-04-18T15:43:17Z</time></trkpt><trkpt lat="45.2640580616756" lon="7.469315263805089"><ele>488.0</ele><time>2026-04-18T15:43:19Z</time></trkpt><trkpt lat="45.26394080078987" lon="7.469244774103354"><ele>487.2</ele><time>2026-04-18T15:43:20Z</time></trkpt><trkpt lat="45.26383654801616" lon="7.469166254543887"><ele>486.4</ele><time>2026-04-18T15:43:22Z</time></trkpt><trkpt lat="45.263758483474724" lon="7.46908782339469"><ele>485.59999999999997</ele><time>2026-04-18T15:43:23Z</time></trkpt><trkpt lat="45.26369166504172" lon="7.468996413777177"><ele>484.79999999999995</ele><time>2026-04-18T15:43:24Z</time></trkpt><trkpt lat="45.26364074411381" lon="7.468889124507447"><ele>484.0</ele><time>2026-04-18T15:43:25Z</time></trkpt><trkpt lat="45.26358149010473" lon="7.4687953573420005"><ele>484.4</ele><time>2026-04-18T15:43:26Z</time></trkpt><trkpt lat="45.26351420181218" lon="7.468699207243364"><ele>484.79999999999995</ele><time>2026-04-18T15:43:28Z</time></trkpt><trkpt lat="45.2634883351234" lon="7.46859501775733"><ele>485.20000000000005</ele><time>2026-04-18T15:43:36Z</time></trkpt><trkpt lat="45.26337652669442" lon="7.468490767482778"><ele>485.6</ele><time>2026-04-18T15:43:38Z</time></trkpt><trkpt lat="45.26329557640495" lon="7.468412090978641"><ele>486.0</ele><time>2026-04-18T15:43:39Z</time></trkpt><trkpt lat="45.26323197635279" lon="7.468316569188324"><ele>486.0</ele><time>2026-04-18T15:43:40Z</time></trkpt><trkpt lat="45.26316076818089" lon="7.46820405854938"><ele>486.0</ele><time>2026-04-18T15:43:41Z</time></trkpt><trkpt lat="45.2631065891699" lon="7.4681009150554045"><ele>486.0</ele><time>2026-04-18T15:43:42Z</time></trkpt><trkpt lat="45.263044514972414" lon="7.4680474316823995"><ele>486.0</ele><time>2026-04-18T15:43:43Z</time></trkpt><trkpt lat="45.26300356111245" lon="7.467979056189973"><ele>486.0</ele><time>2026-04-18T15:43:44Z</time></trkpt><trkpt lat="45.26293212125648" lon="7.467875569889747"><ele>486.0</ele><time>2026-04-18T15:43:45Z</time></trkpt><trkpt lat="45.262853343968246" lon="7.467794894658214"><ele>486.20000000000005</ele><time>2026-04-18T15:43:46Z</time></trkpt><trkpt lat="45.26277941090746" lon="7.467686859672147"><ele>486.40000000000003</ele><time>2026-04-18T15:43:47Z</time></trkpt><trkpt lat="45.26271558594743" lon="7.467605368047653"><ele>486.6</ele><time>2026-04-18T15:43:48Z</time></trkpt><trkpt lat="45.262678043424685" lon="7.4674946595842595"><ele>486.8</ele><time>2026-04-18T15:43:50Z</time></trkpt><trkpt lat="45.26260053817609" lon="7.467392575125262"><ele>487.0</ele><time>2026-04-18T15:43:52Z</time></trkpt><trkpt lat="45.26255452702792" lon="7.467298775252643"><ele>487.0</ele><time>2026-04-18T15:43:53Z</time></trkpt><trkpt lat="45.26243792337592" lon="7.467210576461517"><ele>487.0</ele><time>2026-04-18T15:43:54Z</time></trkpt><trkpt lat="45.26235439663729" lon="7.467116724388189"><ele>487.0</ele><time>2026-04-18T15:43:55Z</time></trkpt><trkpt lat="45.26227081419292" lon="7.4670228059576695"><ele>487.0</ele><time>2026-04-18T15:43:56Z</time></trkpt><trkpt lat="45.26217871531528" lon="7.466941214600842"><ele>487.20000000000005</ele><time>2026-04-18T15:43:57Z</time></trkpt><trkpt lat="45.26208860385095" lon="7.466883671832388"><ele>487.40000000000003</ele><time>2026-04-18T15:43:58Z</time></trkpt><trkpt lat="45.261975505433675" lon="7.466756427621658"><ele>487.59999999999997</ele><time>2026-04-18T15:43:59Z</time></trkpt><trkpt lat="45.26190888742765" lon="7.4667161747923325"><ele>487.79999999999995</ele><time>2026-04-18T15:44:00Z</time></trkpt><trkpt lat="45.261809682864644" lon="7.4666544480821955"><ele>488.0</ele><time>2026-04-18T15:44:02Z</time></trkpt><trkpt lat="45.261744668258814" lon="7.466645983850269"><ele>488.0</ele><time>2026-04-18T15:44:03Z</time></trkpt><trkpt lat="45.26168153376454" lon="7.46660985805469"><ele>487.99999999999994</ele><time>2026-04-18T15:44:04Z</time></trkpt><trkpt lat="45.261596511071154" lon="7.466583141799124"><ele>487.99999999999994</ele><time>2026-04-18T15:44:05Z</time></trkpt><trkpt lat="45.26153161823101" lon="7.466565548292236"><ele>488.0</ele><time>2026-04-18T15:44:06Z</time></trkpt><trkpt lat="45.26142416083017" lon="7.4665150220899115"><ele>488.0</ele><time>2026-04-18T15:44:08Z</time></trkpt><trkpt lat="45.26133078727011" lon="7.466379663571521"><ele>487.79999999999995</ele><time>2026-04-18T15:44:10Z</time></trkpt><trkpt lat="45.26127401153623" lon="7.46632008549751"><ele>487.59999999999997</ele><time>2026-04-18T15:44:11Z</time></trkpt><trkpt lat="45.261194533060745" lon="7.466263801644354"><ele>487.40000000000003</ele><time>2026-04-18T15:44:12Z</time></trkpt><trkpt lat="45.26110548351216" lon="7.466210816783873"><ele>487.20000000000005</ele><time>2026-04-18T15:44:13Z</time></trkpt><trkpt lat="45.2610073954972" lon="7.466153667560475"><ele>487.0</ele><time>2026-04-18T15:44:14Z</time></trkpt><trkpt lat="45.260915194175084" lon="7.466100693247672"><ele>486.33333333333337</ele><time>2026-04-18T15:44:15Z</time></trkpt><trkpt lat="45.26083251837901" lon="7.466055933384893"><ele>485.6666666666667</ele><time>2026-04-18T15:44:16Z</time></trkpt><trkpt lat="45.26074907369675" lon="7.466021471600516"><ele>485.0</ele><time>2026-04-18T15:44:17Z</time></trkpt><trkpt lat="45.26067091662932" lon="7.465998337827858"><ele>484.33333333333337</ele><time>2026-04-18T15:44:18Z</time></trkpt><trkpt lat="45.26059888551239" lon="7.465976430001215"><ele>483.6666666666667</ele><time>2026-04-18T15:44:19Z</time></trkpt><trkpt lat="45.26052906108336" lon="7.46595519337577"><ele>483.0</ele><time>2026-04-18T15:44:22Z</time></trkpt><trkpt lat="45.26052801239756" lon="7.465821492267111"><ele>483.0</ele><time>2026-04-18T15:44:26Z</time></trkpt><trkpt lat="45.260578721339556" lon="7.46566786426828"><ele>482.99999999999994</ele><time>2026-04-18T15:44:27Z</time></trkpt><trkpt lat="45.26063684256779" lon="7.465488392107826"><ele>482.99999999999994</ele><time>2026-04-18T15:44:28Z</time></trkpt><trkpt lat="45.26065572652607" lon="7.465357928259277"><ele>483.0</ele><time>2026-04-18T15:44:29Z</time></trkpt><trkpt lat="45.26070178969091" lon="7.465265887672685"><ele>483.0</ele><time>2026-04-18T15:44:30Z</time></trkpt><trkpt lat="45.260652015031624" lon="7.465122213214419"><ele>484.0</ele><time>2026-04-18T15:44:31Z</time></trkpt><trkpt lat="45.260624089889895" lon="7.46498889989871"><ele>485.0</ele><time>2026-04-18T15:44:32Z</time></trkpt><trkpt lat="45.260571488642576" lon="7.464724231660975"><ele>486.0</ele><time>2026-04-18T15:44:33Z</time></trkpt><trkpt lat="45.260588000162336" lon="7.464422873328641"><ele>492.0</ele><time>2026-04-18T15:44:34Z</time></trkpt><trkpt lat="45.26061977954341" lon="7.464086140556717"><ele>498.0</ele><time>2026-04-18T15:44:35Z</time></trkpt><trkpt lat="45.260643646360656" lon="7.463718395043567"><ele>498.0</ele><time>2026-04-18T15:44:36Z</time></trkpt><trkpt lat="45.2606614792976" lon="7.463389798134394"><ele>498.0</ele><time>2026-04-18T15:44:37Z</time></trkpt><trkpt lat="45.26067917058541" lon="7.463100870053832"><ele>498.0</ele><time>2026-04-18T15:44:38Z</time></trkpt><trkpt lat="45.26069185579331" lon="7.462840522704632"><ele>498.66666666666663</ele><time>2026-04-18T15:44:39Z</time></trkpt><trkpt lat="45.260711489339265" lon="7.4625989244732756"><ele>499.3333333333333</ele><time>2026-04-18T15:44:40Z</time></trkpt><trkpt lat="45.26072460671358" lon="7.462355787803048"><ele>500.0</ele><time>2026-04-18T15:44:41Z</time></trkpt><trkpt lat="45.26074167303499" lon="7.462119646964626"><ele>500.3333333333333</ele><time>2026-04-18T15:44:42Z</time></trkpt><trkpt lat="45.26075923669604" lon="7.461892058075122"><ele>500.66666666666663</ele><time>2026-04-18T15:44:43Z</time></trkpt><trkpt lat="45.26077436728256" lon="7.461669603563638"><ele>501.0</ele><time>2026-04-18T15:44:44Z</time></trkpt><trkpt lat="45.260789884944025" lon="7.46145248694332"><ele>499.4</ele><time>2026-04-18T15:44:45Z</time></trkpt><trkpt lat="45.260803513326756" lon="7.461253444521047"><ele>497.8</ele><time>2026-04-18T15:44:46Z</time></trkpt><trkpt lat="45.26081058419102" lon="7.461068097784663"><ele>496.19999999999993</ele><time>2026-04-18T15:44:47Z</time></trkpt><trkpt lat="45.26081625520986" lon="7.460915921371926"><ele>494.59999999999997</ele><time>2026-04-18T15:44:48Z</time></trkpt><trkpt lat="45.26081979205478" lon="7.46081700792243"><ele>493.0</ele><time>2026-04-18T15:44:49Z</time></trkpt><trkpt lat="45.26085408222095" lon="7.460492691552164"><ele>491.0</ele><time>2026-04-18T15:44:52Z</time></trkpt><trkpt lat="45.26095029193282" lon="7.460361944992827"><ele>489.0</ele><time>2026-04-18T15:44:53Z</time></trkpt><trkpt lat="45.26103723652861" lon="7.460262534017228"><ele>487.0</ele><time>2026-04-18T15:44:54Z</time></trkpt><trkpt lat="45.261130561310075" lon="7.460177964210341"><ele>485.0</ele><time>2026-04-18T15:44:55Z</time></trkpt><trkpt lat="45.26121911669524" lon="7.460088408527887"><ele>485.0</ele><time>2026-04-18T15:44:56Z</time></trkpt><trkpt lat="45.261304603959076" lon="7.4599927869501945"><ele>485.0</ele><time>2026-04-18T15:44:57Z</time></trkpt><trkpt lat="45.26139856820598" lon="7.459898381097218"><ele>485.0</ele><time>2026-04-18T15:44:58Z</time></trkpt><trkpt lat="45.261498146348245" lon="7.459814952504688"><ele>485.0</ele><time>2026-04-18T15:44:59Z</time></trkpt><trkpt lat="45.26161852491877" lon="7.459747565913419"><ele>486.3333333333333</ele><time>2026-04-18T15:45:00Z</time></trkpt><trkpt lat="45.2617538966429" lon="7.459645846068084"><ele>487.66666666666663</ele><time>2026-04-18T15:45:01Z</time></trkpt><trkpt lat="45.261900183999074" lon="7.459525082343121"><ele>489.0</ele><time>2026-04-18T15:45:02Z</time></trkpt><trkpt lat="45.26208320979597" lon="7.4593381293477155"><ele>489.0</ele><time>2026-04-18T15:45:03Z</time></trkpt><trkpt lat="45.26226772296506" lon="7.459135913213866"><ele>489.0</ele><time>2026-04-18T15:45:04Z</time></trkpt><trkpt lat="45.26246991580113" lon="7.458891494444066"><ele>489.0</ele><time>2026-04-18T15:45:05Z</time></trkpt><trkpt lat="45.26265647922011" lon="7.458644196925908"><ele>489.0</ele><time>2026-04-18T15:45:06Z</time></trkpt><trkpt lat="45.26284293835972" lon="7.458452576919527"><ele>489.0</ele><time>2026-04-18T15:45:07Z</time></trkpt><trkpt lat="45.263024244260215" lon="7.458260481130028"><ele>489.0</ele><time>2026-04-18T15:45:08Z</time></trkpt><trkpt lat="45.26319676107997" lon="7.458069607225386"><ele>489.0</ele><time>2026-04-18T15:45:09Z</time></trkpt><trkpt lat="45.263358242368206" lon="7.457888675740179"><ele>490.66666666666663</ele><time>2026-04-18T15:45:10Z</time></trkpt><trkpt lat="45.26353067087599" lon="7.457699522290436"><ele>492.3333333333333</ele><time>2026-04-18T15:45:11Z</time></trkpt><trkpt lat="45.2636972411299" lon="7.457544292423589"><ele>494.0</ele><time>2026-04-18T15:45:12Z</time></trkpt><trkpt lat="45.263849997977864" lon="7.457429333404807"><ele>498.66666666666663</ele><time>2026-04-18T15:45:13Z</time></trkpt><trkpt lat="45.26400068388086" lon="7.457346980542618"><ele>503.33333333333337</ele><time>2026-04-18T15:45:14Z</time></trkpt><trkpt lat="45.26416389450344" lon="7.457313391489111"><ele>508.0</ele><time>2026-04-18T15:45:15Z</time></trkpt><trkpt lat="45.26434261367806" lon="7.45732358557378"><ele>508.0</ele><time>2026-04-18T15:45:16Z</time></trkpt><trkpt lat="45.26454580951884" lon="7.457371575237023"><ele>508.0</ele><time>2026-04-18T15:45:17Z</time></trkpt><trkpt lat="45.26477763642577" lon="7.457417460140032"><ele>508.0</ele><time>2026-04-18T15:45:18Z</time></trkpt><trkpt lat="45.26499166070734" lon="7.457491386816007"><ele>506.6666666666667</ele><time>2026-04-18T15:45:19Z</time></trkpt><trkpt lat="45.265193418664" lon="7.457560480212888"><ele>505.33333333333337</ele><time>2026-04-18T15:45:20Z</time></trkpt><trkpt lat="45.26539634629545" lon="7.457634333201927"><ele>504.0</ele><time>2026-04-18T15:45:21Z</time></trkpt><trkpt lat="45.26560202490106" lon="7.457688436694343"><ele>502.5</ele><time>2026-04-18T15:45:22Z</time></trkpt><trkpt lat="45.26582532213061" lon="7.457714898883335"><ele>501.0</ele><time>2026-04-18T15:45:23Z</time></trkpt><trkpt lat="45.2660511750104" lon="7.457714220956882"><ele>501.0</ele><time>2026-04-18T15:45:24Z</time></trkpt><trkpt lat="45.26627024769964" lon="7.457693423026118"><ele>501.0</ele><time>2026-04-18T15:45:25Z</time></trkpt><trkpt lat="45.26648675929984" lon="7.4576352840445965"><ele>501.0</ele><time>2026-04-18T15:45:26Z</time></trkpt><trkpt lat="45.266680683760455" lon="7.457517708382072"><ele>506.0</ele><time>2026-04-18T15:45:27Z</time></trkpt><trkpt lat="45.266882020844804" lon="7.457358702349747"><ele>511.0</ele><time>2026-04-18T15:45:28Z</time></trkpt><trkpt lat="45.26707237511452" lon="7.457181902890563"><ele>512.0</ele><time>2026-04-18T15:45:29Z</time></trkpt><trkpt lat="45.26723737391226" lon="7.456999683716115"><ele>513.0</ele><time>2026-04-18T15:45:30Z</time></trkpt><trkpt lat="45.26738064709836" lon="7.456770629117005"><ele>514.0</ele><time>2026-04-18T15:45:31Z</time></trkpt><trkpt lat="45.2675044926271" lon="7.4564755963935445"><ele>507.0</ele><time>2026-04-18T15:45:32Z</time></trkpt><trkpt lat="45.26761815151797" lon="7.456144149759403"><ele>500.0</ele><time>2026-04-18T15:45:33Z</time></trkpt><trkpt lat="45.26771405784774" lon="7.455844978360413"><ele>500.0</ele><time>2026-04-18T15:45:34Z</time></trkpt><trkpt lat="45.26780368310143" lon="7.455608225860569"><ele>500.0</ele><time>2026-04-18T15:45:35Z</time></trkpt><trkpt lat="45.26788058296538" lon="7.455381875361117"><ele>500.0</ele><time>2026-04-18T15:45:36Z</time></trkpt><trkpt lat="45.267975950630856" lon="7.455193976263761"><ele>498.3333333333333</ele><time>2026-04-18T15:45:37Z</time></trkpt><trkpt lat="45.26808326570925" lon="7.455043382100874"><ele>496.66666666666663</ele><time>2026-04-18T15:45:38Z</time></trkpt><trkpt lat="45.26822446269159" lon="7.454883643517142"><ele>495.0</ele><time>2026-04-18T15:45:39Z</time></trkpt><trkpt lat="45.268384272683015" lon="7.454705572399987"><ele>495.33333333333337</ele><time>2026-04-18T15:45:40Z</time></trkpt><trkpt lat="45.26853606879094" lon="7.45453674829431"><ele>495.6666666666667</ele><time>2026-04-18T15:45:41Z</time></trkpt><trkpt lat="45.26868507263349" lon="7.454381830999912"><ele>496.0</ele><time>2026-04-18T15:45:42Z</time></trkpt><trkpt lat="45.26885328470988" lon="7.454239659133772"><ele>500.6666666666667</ele><time>2026-04-18T15:45:43Z</time></trkpt><trkpt lat="45.269043066400165" lon="7.454114831469625"><ele>505.33333333333337</ele><time>2026-04-18T15:45:44Z</time></trkpt><trkpt lat="45.269231774563195" lon="7.454004459318899"><ele>510.0</ele><time>2026-04-18T15:45:45Z</time></trkpt><trkpt lat="45.269401457880846" lon="7.453921076369214"><ele>510.0</ele><time>2026-04-18T15:45:46Z</time></trkpt><trkpt lat="45.269558029695986" lon="7.453853766683615"><ele>510.0</ele><time>2026-04-18T15:45:47Z</time></trkpt><trkpt lat="45.2697063879219" lon="7.45379820954828"><ele>510.0</ele><time>2026-04-18T15:45:48Z</time></trkpt><trkpt lat="45.26983690806448" lon="7.453767860718314"><ele>510.0</ele><time>2026-04-18T15:45:49Z</time></trkpt><trkpt lat="45.269969468807375" lon="7.453784663878711"><ele>508.5</ele><time>2026-04-18T15:45:50Z</time></trkpt><trkpt lat="45.27008976119395" lon="7.453792203473858"><ele>507.0</ele><time>2026-04-18T15:45:51Z</time></trkpt><trkpt lat="45.27023329516561" lon="7.453657019484349"><ele>505.5</ele><time>2026-04-18T15:45:52Z</time></trkpt><trkpt lat="45.270344659245005" lon="7.453572027658947"><ele>504.0</ele><time>2026-04-18T15:45:53Z</time></trkpt><trkpt lat="45.270461185410646" lon="7.453382571677453"><ele>504.0</ele><time>2026-04-18T15:45:54Z</time></trkpt><trkpt lat="45.2706008849372" lon="7.453223972062599"><ele>504.0</ele><time>2026-04-18T15:45:55Z</time></trkpt><trkpt lat="45.27073342103331" lon="7.453061433392337"><ele>504.0</ele><time>2026-04-18T15:45:56Z</time></trkpt><trkpt lat="45.27085927503635" lon="7.452907089452404"><ele>501.0</ele><time>2026-04-18T15:45:57Z</time></trkpt><trkpt lat="45.27096629447733" lon="7.4527758437093405"><ele>498.0</ele><time>2026-04-18T15:45:58Z</time></trkpt><trkpt lat="45.270411225413184" lon="7.452308632659973"><ele>498.0</ele><time>2026-04-18T15:45:59Z</time></trkpt><trkpt lat="45.27046513248081" lon="7.452150952408652"><ele>498.0</ele><time>2026-04-18T15:46:00Z</time></trkpt><trkpt lat="45.27051885096639" lon="7.452029415840947"><ele>498.0</ele><time>2026-04-18T15:46:01Z</time></trkpt><trkpt lat="45.27057784784751" lon="7.451891146193835"><ele>498.0</ele><time>2026-04-18T15:46:02Z</time></trkpt><trkpt lat="45.270640340510504" lon="7.451726280247088"><ele>501.75</ele><time>2026-04-18T15:46:03Z</time></trkpt><trkpt lat="45.27070055558394" lon="7.451589846089469"><ele>505.5</ele><time>2026-04-18T15:46:04Z</time></trkpt><trkpt lat="45.270758911277476" lon="7.451424532351742"><ele>509.25</ele><time>2026-04-18T15:46:05Z</time></trkpt><trkpt lat="45.27080403504733" lon="7.4512931163437175"><ele>513.0</ele><time>2026-04-18T15:46:06Z</time></trkpt><trkpt lat="45.27124549514812" lon="7.451184550628817"><ele>513.5</ele><time>2026-04-18T15:46:07Z</time></trkpt><trkpt lat="45.2712230839531" lon="7.451007876047017"><ele>514.0</ele><time>2026-04-18T15:46:08Z</time></trkpt><trkpt lat="45.27121591806433" lon="7.450811714498623"><ele>514.5</ele><time>2026-04-18T15:46:09Z</time></trkpt><trkpt lat="45.271211147325474" lon="7.45064679332044"><ele>515.0</ele><time>2026-04-18T15:46:10Z</time></trkpt><trkpt lat="45.271199747184674" lon="7.450459178975932"><ele>516.0</ele><time>2026-04-18T15:46:11Z</time></trkpt><trkpt lat="45.27118573304269" lon="7.450285028457928"><ele>517.0</ele><time>2026-04-18T15:46:12Z</time></trkpt><trkpt lat="45.2711626746262" lon="7.450093248688734"><ele>518.0</ele><time>2026-04-18T15:46:13Z</time></trkpt><trkpt lat="45.271139951324045" lon="7.449900641758417"><ele>519.0</ele><time>2026-04-18T15:46:14Z</time></trkpt><trkpt lat="45.27111575244295" lon="7.449718540547126"><ele>520.75</ele><time>2026-04-18T15:46:15Z</time></trkpt><trkpt lat="45.271092796232345" lon="7.449550902601335"><ele>522.5</ele><time>2026-04-18T15:46:16Z</time></trkpt><trkpt lat="45.2710744094545" lon="7.449390863040812"><ele>524.25</ele><time>2026-04-18T15:46:17Z</time></trkpt><trkpt lat="45.27105351943723" lon="7.449235771641679"><ele>526.0</ele><time>2026-04-18T15:46:18Z</time></trkpt><trkpt lat="45.27103078766916" lon="7.449085604757213"><ele>526.0</ele><time>2026-04-18T15:46:19Z</time></trkpt><trkpt lat="45.271000733446726" lon="7.448940603207975"><ele>526.0</ele><time>2026-04-18T15:46:20Z</time></trkpt><trkpt lat="45.27094987168354" lon="7.448815910631501"><ele>526.0</ele><time>2026-04-18T15:46:21Z</time></trkpt><trkpt lat="45.270890588017494" lon="7.448700761659807"><ele>526.0</ele><time>2026-04-18T15:46:22Z</time></trkpt><trkpt lat="45.27083280672441" lon="7.448578896515364"><ele>526.0</ele><time>2026-04-18T15:46:23Z</time></trkpt><trkpt lat="45.270779723453586" lon="7.44842380094752"><ele>527.0</ele><time>2026-04-18T15:46:24Z</time></trkpt><trkpt lat="45.27075405647979" lon="7.448263444681772"><ele>528.0</ele><time>2026-04-18T15:46:25Z</time></trkpt><trkpt lat="45.27075803615465" lon="7.448106892258058"><ele>529.0</ele><time>2026-04-18T15:46:26Z</time></trkpt><trkpt lat="45.2707669500203" lon="7.447951799863672"><ele>530.0</ele><time>2026-04-18T15:46:27Z</time></trkpt><trkpt lat="45.27076479744783" lon="7.447821318623818"><ele>531.0</ele><time>2026-04-18T15:46:28Z</time></trkpt><trkpt lat="45.27076403081662" lon="7.447703059183781"><ele>531.0</ele><time>2026-04-18T15:46:29Z</time></trkpt><trkpt lat="45.270775899859956" lon="7.447584024410578"><ele>531.0</ele><time>2026-04-18T15:46:30Z</time></trkpt><trkpt lat="45.2707928695742" lon="7.447481686198558"><ele>531.0</ele><time>2026-04-18T15:46:31Z</time></trkpt><trkpt lat="45.27083072756509" lon="7.447372199716056"><ele>531.0</ele><time>2026-04-18T15:46:32Z</time></trkpt><trkpt lat="45.27090408254857" lon="7.4472756905013195"><ele>531.0</ele><time>2026-04-18T15:46:33Z</time></trkpt><trkpt lat="45.270987559712076" lon="7.4472049135697675"><ele>531.0</ele><time>2026-04-18T15:46:34Z</time></trkpt><trkpt lat="45.27109913156221" lon="7.447159082561782"><ele>532.8</ele><time>2026-04-18T15:46:35Z</time></trkpt><trkpt lat="45.27120719235399" lon="7.447104647375426"><ele>534.6</ele><time>2026-04-18T15:46:36Z</time></trkpt><trkpt lat="45.27130603287246" lon="7.447062404266565"><ele>536.4</ele><time>2026-04-18T15:46:37Z</time></trkpt><trkpt lat="45.27141615873921" lon="7.447023004294572"><ele>538.2</ele><time>2026-04-18T15:46:38Z</time></trkpt><trkpt lat="45.271517662044026" lon="7.446988840244172"><ele>540.0</ele><time>2026-04-18T15:46:39Z</time></trkpt><trkpt lat="45.271610772942715" lon="7.446965134155002"><ele>540.0</ele><time>2026-04-18T15:46:40Z</time></trkpt><trkpt lat="45.271700643738065" lon="7.446928798815917"><ele>540.0</ele><time>2026-04-18T15:46:41Z</time></trkpt><trkpt lat="45.271754421776336" lon="7.446773019448753"><ele>540.0</ele><time>2026-04-18T15:46:42Z</time></trkpt><trkpt lat="45.27177142972739" lon="7.446623373437845"><ele>540.0</ele><time>2026-04-18T15:46:43Z</time></trkpt><trkpt lat="45.271765497167216" lon="7.446451167566409"><ele>540.0</ele><time>2026-04-18T15:46:44Z</time></trkpt><trkpt lat="45.27175623234844" lon="7.446293603645917"><ele>537.6</ele><time>2026-04-18T15:46:45Z</time></trkpt><trkpt lat="45.27176325887229" lon="7.446141844999428"><ele>535.2</ele><time>2026-04-18T15:46:46Z</time></trkpt><trkpt lat="45.271790055526616" lon="7.445994459197197"><ele>532.8</ele><time>2026-04-18T15:46:47Z</time></trkpt><trkpt lat="45.27184407496683" lon="7.445854953319395"><ele>530.4</ele><time>2026-04-18T15:46:48Z</time></trkpt><trkpt lat="45.27189261803844" lon="7.445721626307221"><ele>528.0</ele><time>2026-04-18T15:46:49Z</time></trkpt><trkpt lat="45.271904067774514" lon="7.445570088194941"><ele>528.0</ele><time>2026-04-18T15:46:50Z</time></trkpt><trkpt lat="45.27188866634176" lon="7.445411811914008"><ele>528.0</ele><time>2026-04-18T15:46:51Z</time></trkpt><trkpt lat="45.27185785896886" lon="7.445256964911554"><ele>528.0</ele><time>2026-04-18T15:46:52Z</time></trkpt><trkpt lat="45.27182127482324" lon="7.44511554270017"><ele>528.0</ele><time>2026-04-18T15:46:53Z</time></trkpt><trkpt lat="45.27179087026557" lon="7.444963899263613"><ele>528.0</ele><time>2026-04-18T15:46:54Z</time></trkpt><trkpt lat="45.27176686254574" lon="7.444800047661106"><ele>528.0</ele><time>2026-04-18T15:46:55Z</time></trkpt><trkpt lat="45.271736349686435" lon="7.444649067931223"><ele>528.0</ele><time>2026-04-18T15:46:56Z</time></trkpt><trkpt lat="45.2717062667116" lon="7.444503233879182"><ele>528.0</ele><time>2026-04-18T15:46:57Z</time></trkpt><trkpt lat="45.271671892549286" lon="7.4443612502844685"><ele>528.0</ele><time>2026-04-18T15:46:58Z</time></trkpt><trkpt lat="45.27164051997869" lon="7.444232122808799"><ele>528.0</ele><time>2026-04-18T15:46:59Z</time></trkpt><trkpt lat="45.27160538685311" lon="7.444112080450934"><ele>526.0</ele><time>2026-04-18T15:47:00Z</time></trkpt><trkpt lat="45.27157948147653" lon="7.4439798970202595"><ele>524.0</ele><time>2026-04-18T15:47:01Z</time></trkpt><trkpt lat="45.27154783049987" lon="7.443850974327862"><ele>522.0</ele><time>2026-04-18T15:47:02Z</time></trkpt><trkpt lat="45.27148569799819" lon="7.443735368864073"><ele>520.0</ele><time>2026-04-18T15:47:03Z</time></trkpt><trkpt lat="45.27141183221362" lon="7.443656487351278"><ele>518.0</ele><time>2026-04-18T15:47:04Z</time></trkpt><trkpt lat="45.27134589916596" lon="7.4435945390807445"><ele>518.0</ele><time>2026-04-18T15:47:05Z</time></trkpt><trkpt lat="45.27127116772712" lon="7.443524574114065"><ele>518.0</ele><time>2026-04-18T15:47:06Z</time></trkpt><trkpt lat="45.27119386498855" lon="7.443414064781203"><ele>518.0</ele><time>2026-04-18T15:47:07Z</time></trkpt><trkpt lat="45.2711109749378" lon="7.443282242453746"><ele>518.0</ele><time>2026-04-18T15:47:08Z</time></trkpt><trkpt lat="45.27104921437956" lon="7.4431267843058775"><ele>518.0</ele><time>2026-04-18T15:47:09Z</time></trkpt><trkpt lat="45.27096731448959" lon="7.442989048040724"><ele>520.6</ele><time>2026-04-18T15:47:10Z</time></trkpt><trkpt lat="45.27090177603218" lon="7.44286389233893"><ele>523.1999999999999</ele><time>2026-04-18T15:47:11Z</time></trkpt><trkpt lat="45.270843496739516" lon="7.442732780147744"><ele>525.8</ele><time>2026-04-18T15:47:12Z</time></trkpt><trkpt lat="45.27079197125779" lon="7.442594368762621"><ele>528.4</ele><time>2026-04-18T15:47:13Z</time></trkpt><trkpt lat="45.27074928526217" lon="7.442440182329231"><ele>531.0</ele><time>2026-04-18T15:47:14Z</time></trkpt><trkpt lat="45.27071129723855" lon="7.44229369671205"><ele>531.0</ele><time>2026-04-18T15:47:15.001Z</time></trkpt><trkpt lat="45.27065834416675" lon="7.442137395688214"><ele>531.0</ele><time>2026-04-18T15:47:16.001Z</time></trkpt><trkpt lat="45.2706155880193" lon="7.442000924735755"><ele>531.0</ele><time>2026-04-18T15:47:17.001Z</time></trkpt><trkpt lat="45.27057753996268" lon="7.441876239732871"><ele>531.0</ele><time>2026-04-18T15:47:18.001Z</time></trkpt><trkpt lat="45.270544985812236" lon="7.441766971574789"><ele>531.0</ele><time>2026-04-18T15:47:19.001Z</time></trkpt><trkpt lat="45.27052229837986" lon="7.44165273092726"><ele>528.0</ele><time>2026-04-18T15:47:20.001Z</time></trkpt><trkpt lat="45.27048654722873" lon="7.441535398285946"><ele>525.0</ele><time>2026-04-18T15:47:21.001Z</time></trkpt><trkpt lat="45.27044979048519" lon="7.441410745708712"><ele>522.0</ele><time>2026-04-18T15:47:22.001Z</time></trkpt><trkpt lat="45.27044483864294" lon="7.441264268240779"><ele>519.0</ele><time>2026-04-18T15:47:23.001Z</time></trkpt><trkpt lat="45.270431576432145" lon="7.441112115353548"><ele>516.0</ele><time>2026-04-18T15:47:24.001Z</time></trkpt><trkpt lat="45.270417588904785" lon="7.440971156116292"><ele>516.0</ele><time>2026-04-18T15:47:25.001Z</time></trkpt><trkpt lat="45.270402916151426" lon="7.440851280111212"><ele>516.0</ele><time>2026-04-18T15:47:26.001Z</time></trkpt><trkpt lat="45.27038290650784" lon="7.44069641059216"><ele>516.0</ele><time>2026-04-18T15:47:27.001Z</time></trkpt><trkpt lat="45.27038271163967" lon="7.440541584523771"><ele>516.0</ele><time>2026-04-18T15:47:28.001Z</time></trkpt><trkpt lat="45.27043998857772" lon="7.4404203605314745"><ele>516.0</ele><time>2026-04-18T15:47:29Z</time></trkpt><trkpt lat="45.27050831289165" lon="7.4402983489974215"><ele>515.0</ele><time>2026-04-18T15:47:30Z</time></trkpt><trkpt lat="45.27058209047945" lon="7.440181230483704"><ele>514.0</ele><time>2026-04-18T15:47:31Z</time></trkpt><trkpt lat="45.27065676495196" lon="7.440065203683426"><ele>513.0</ele><time>2026-04-18T15:47:32Z</time></trkpt><trkpt lat="45.270723046373625" lon="7.439955416422193"><ele>512.0</ele><time>2026-04-18T15:47:33Z</time></trkpt><trkpt lat="45.27078045952534" lon="7.439848494375775"><ele>511.0</ele><time>2026-04-18T15:47:34Z</time></trkpt><trkpt lat="45.2708234483527" lon="7.439733819393113"><ele>512.5</ele><time>2026-04-18T15:47:35Z</time></trkpt><trkpt lat="45.27089134018767" lon="7.439617492538656"><ele>514.0</ele><time>2026-04-18T15:47:36Z</time></trkpt><trkpt lat="45.270965938071285" lon="7.439457897807944"><ele>515.5</ele><time>2026-04-18T15:47:37Z</time></trkpt><trkpt lat="45.27106022776441" lon="7.439321316194451"><ele>517.0</ele><time>2026-04-18T15:47:38Z</time></trkpt><trkpt lat="45.2711661337406" lon="7.439195450395346"><ele>517.0</ele><time>2026-04-18T15:47:39Z</time></trkpt><trkpt lat="45.2712750997513" lon="7.43908535936381"><ele>517.0</ele><time>2026-04-18T15:47:40Z</time></trkpt><trkpt lat="45.271372368179854" lon="7.438988466805012"><ele>517.0</ele><time>2026-04-18T15:47:41Z</time></trkpt><trkpt lat="45.27145893512781" lon="7.438880652004728"><ele>517.0</ele><time>2026-04-18T15:47:42Z</time></trkpt><trkpt lat="45.271535733695636" lon="7.438729389986045"><ele>521.25</ele><time>2026-04-18T15:47:43Z</time></trkpt><trkpt lat="45.2715579852743" lon="7.43853209929177"><ele>525.5</ele><time>2026-04-18T15:47:44Z</time></trkpt><trkpt lat="45.27161761304184" lon="7.438366461377687"><ele>529.75</ele><time>2026-04-18T15:47:45Z</time></trkpt><trkpt lat="45.27165693638273" lon="7.4382000792358065"><ele>534.0</ele><time>2026-04-18T15:47:46Z</time></trkpt><trkpt lat="45.27172479181393" lon="7.43804950770133"><ele>532.5</ele><time>2026-04-18T15:47:47Z</time></trkpt><trkpt lat="45.27177231381585" lon="7.437905334415194"><ele>531.0</ele><time>2026-04-18T15:47:48Z</time></trkpt><trkpt lat="45.27180898348442" lon="7.437752909630259"><ele>529.5</ele><time>2026-04-18T15:47:49Z</time></trkpt><trkpt lat="45.27182320930122" lon="7.437581878907311"><ele>528.0</ele><time>2026-04-18T15:47:50Z</time></trkpt><trkpt lat="45.27182358084408" lon="7.437429077362867"><ele>528.0</ele><time>2026-04-18T15:47:51Z</time></trkpt><trkpt lat="45.27182506234625" lon="7.437251690551736"><ele>528.0</ele><time>2026-04-18T15:47:52Z</time></trkpt><trkpt lat="45.27182143199665" lon="7.437061355614474"><ele>528.0</ele><time>2026-04-18T15:47:53Z</time></trkpt><trkpt lat="45.27183224926237" lon="7.43691753025398"><ele>528.0</ele><time>2026-04-18T15:47:54Z</time></trkpt><trkpt lat="45.27184264960166" lon="7.436752890934508"><ele>527.5</ele><time>2026-04-18T15:47:55Z</time></trkpt><trkpt lat="45.27185183607451" lon="7.43657659976294"><ele>527.0</ele><time>2026-04-18T15:47:56Z</time></trkpt><trkpt lat="45.271856220369756" lon="7.436462150786232"><ele>526.5</ele><time>2026-04-18T15:47:57Z</time></trkpt><trkpt lat="45.2718363071206" lon="7.436321754239046"><ele>526.0</ele><time>2026-04-18T15:47:58Z</time></trkpt><trkpt lat="45.2718774926017" lon="7.43611174901654"><ele>524.75</ele><time>2026-04-18T15:47:59Z</time></trkpt><trkpt lat="45.27191479675866" lon="7.4359530332637815"><ele>523.5</ele><time>2026-04-18T15:48:00Z</time></trkpt><trkpt lat="45.27196055590072" lon="7.435801676235766"><ele>522.25</ele><time>2026-04-18T15:48:01Z</time></trkpt><trkpt lat="45.272008951355936" lon="7.435650943670804"><ele>521.0</ele><time>2026-04-18T15:48:02Z</time></trkpt><trkpt lat="45.27206163307971" lon="7.435510334330858"><ele>520.5</ele><time>2026-04-18T15:48:03Z</time></trkpt><trkpt lat="45.272117616377734" lon="7.435350862920547"><ele>520.0</ele><time>2026-04-18T15:48:04Z</time></trkpt><trkpt lat="45.272189849765745" lon="7.4352013981758285"><ele>519.5</ele><time>2026-04-18T15:48:05Z</time></trkpt><trkpt lat="45.272263709907314" lon="7.435044919079434"><ele>519.0</ele><time>2026-04-18T15:48:06Z</time></trkpt><trkpt lat="45.272327248596184" lon="7.434901730066543"><ele>521.75</ele><time>2026-04-18T15:48:07Z</time></trkpt><trkpt lat="45.27238073714327" lon="7.43475569649068"><ele>524.5</ele><time>2026-04-18T15:48:08Z</time></trkpt><trkpt lat="45.27243592385646" lon="7.434601485396765"><ele>527.25</ele><time>2026-04-18T15:48:09Z</time></trkpt><trkpt lat="45.272496661243196" lon="7.43445301212296"><ele>530.0</ele><time>2026-04-18T15:48:10Z</time></trkpt><trkpt lat="45.27255145950253" lon="7.434301682861883"><ele>530.0</ele><time>2026-04-18T15:48:11Z</time></trkpt><trkpt lat="45.272610452211175" lon="7.434142842209487"><ele>530.0</ele><time>2026-04-18T15:48:12Z</time></trkpt><trkpt lat="45.27268418594911" lon="7.433989390266663"><ele>530.0</ele><time>2026-04-18T15:48:13Z</time></trkpt><trkpt lat="45.27277066617807" lon="7.433851632058252"><ele>530.0</ele><time>2026-04-18T15:48:14Z</time></trkpt><trkpt lat="45.272866255489035" lon="7.4337388213182445"><ele>529.0</ele><time>2026-04-18T15:48:15Z</time></trkpt><trkpt lat="45.27296215529348" lon="7.4336201331445535"><ele>528.0</ele><time>2026-04-18T15:48:16Z</time></trkpt><trkpt lat="45.27305374647674" lon="7.433492289848425"><ele>527.0</ele><time>2026-04-18T15:48:17Z</time></trkpt><trkpt lat="45.27314131341722" lon="7.433356455391607"><ele>526.0</ele><time>2026-04-18T15:48:18Z</time></trkpt><trkpt lat="45.27321713543841" lon="7.433219848377738"><ele>528.0</ele><time>2026-04-18T15:48:19Z</time></trkpt><trkpt lat="45.27327012058163" lon="7.433088861344933"><ele>530.0</ele><time>2026-04-18T15:48:20Z</time></trkpt><trkpt lat="45.27330863297945" lon="7.432962788938553"><ele>532.0</ele><time>2026-04-18T15:48:21Z</time></trkpt><trkpt lat="45.27334232865236" lon="7.432826219560798"><ele>534.0</ele><time>2026-04-18T15:48:22Z</time></trkpt><trkpt lat="45.273369694321886" lon="7.432703480723083"><ele>536.0</ele><time>2026-04-18T15:48:23Z</time></trkpt><trkpt lat="45.27340072620809" lon="7.432584373628319"><ele>536.0</ele><time>2026-04-18T15:48:24Z</time></trkpt><trkpt lat="45.273449986015" lon="7.432445201422207"><ele>536.0</ele><time>2026-04-18T15:48:25Z</time></trkpt><trkpt lat="45.2735039515928" lon="7.432290843618441"><ele>536.0</ele><time>2026-04-18T15:48:26Z</time></trkpt><trkpt lat="45.27354978425935" lon="7.4321122223988665"><ele>536.0</ele><time>2026-04-18T15:48:27Z</time></trkpt><trkpt lat="45.27358393919389" lon="7.431920901752571"><ele>534.75</ele><time>2026-04-18T15:48:28Z</time></trkpt><trkpt lat="45.273601795022294" lon="7.431722433454703"><ele>533.5</ele><time>2026-04-18T15:48:29Z</time></trkpt><trkpt lat="45.27360229484175" lon="7.431528323355233"><ele>532.25</ele><time>2026-04-18T15:48:30Z</time></trkpt><trkpt lat="45.27359395700581" lon="7.431335024103458"><ele>531.0</ele><time>2026-04-18T15:48:31Z</time></trkpt><trkpt lat="45.273594739189576" lon="7.431142865335216"><ele>531.0</ele><time>2026-04-18T15:48:32Z</time></trkpt><trkpt lat="45.273590701077126" lon="7.430955991650803"><ele>531.0</ele><time>2026-04-18T15:48:33Z</time></trkpt><trkpt lat="45.27358332389748" lon="7.430775575964318"><ele>531.0</ele><time>2026-04-18T15:48:34Z</time></trkpt><trkpt lat="45.27357650889725" lon="7.430604717614177"><ele>531.0</ele><time>2026-04-18T15:48:35Z</time></trkpt><trkpt lat="45.27358198407682" lon="7.430457193417088"><ele>530.75</ele><time>2026-04-18T15:48:36Z</time></trkpt><trkpt lat="45.27361334224633" lon="7.4302606853571405"><ele>530.5</ele><time>2026-04-18T15:48:37Z</time></trkpt><trkpt lat="45.273651385759386" lon="7.430104326718122"><ele>530.25</ele><time>2026-04-18T15:48:38Z</time></trkpt><trkpt lat="45.27369148741521" lon="7.429961828934176"><ele>530.0</ele><time>2026-04-18T15:48:39Z</time></trkpt><trkpt lat="45.27374895631166" lon="7.4298063845435545"><ele>530.0</ele><time>2026-04-18T15:48:40Z</time></trkpt><trkpt lat="45.27382915141079" lon="7.429657343067569"><ele>530.0</ele><time>2026-04-18T15:48:41Z</time></trkpt><trkpt lat="45.273911410019416" lon="7.429514593770928"><ele>530.0</ele><time>2026-04-18T15:48:42Z</time></trkpt><trkpt lat="45.273983650701425" lon="7.4293845739058115"><ele>530.0</ele><time>2026-04-18T15:48:43Z</time></trkpt><trkpt lat="45.2740770298592" lon="7.429288339021108"><ele>531.25</ele><time>2026-04-18T15:48:44Z</time></trkpt><trkpt lat="45.27418373185125" lon="7.42919052033944"><ele>532.5</ele><time>2026-04-18T15:48:45Z</time></trkpt><trkpt lat="45.27428171410705" lon="7.429091948107997"><ele>533.75</ele><time>2026-04-18T15:48:46Z</time></trkpt><trkpt lat="45.27440702282611" lon="7.429000553705131"><ele>535.0</ele><time>2026-04-18T15:48:47Z</time></trkpt><trkpt lat="45.274515530182114" lon="7.428913298064222"><ele>535.0</ele><time>2026-04-18T15:48:48Z</time></trkpt><trkpt lat="45.27462444535657" lon="7.428836510841914"><ele>535.0</ele><time>2026-04-18T15:48:49Z</time></trkpt><trkpt lat="45.27473961613197" lon="7.428814239636748"><ele>535.0</ele><time>2026-04-18T15:48:50Z</time></trkpt><trkpt lat="45.27484410341009" lon="7.428778201291096"><ele>535.0</ele><time>2026-04-18T15:48:51Z</time></trkpt><trkpt lat="45.27494048278292" lon="7.428750764796076"><ele>535.0</ele><time>2026-04-18T15:48:52Z</time></trkpt><trkpt lat="45.275032645425554" lon="7.428665373166034"><ele>536.0</ele><time>2026-04-18T15:48:53Z</time></trkpt><trkpt lat="45.2751129000497" lon="7.428523635343381"><ele>537.0</ele><time>2026-04-18T15:48:54Z</time></trkpt><trkpt lat="45.27519215969517" lon="7.428359878632676"><ele>538.0</ele><time>2026-04-18T15:48:55Z</time></trkpt><trkpt lat="45.275299719580325" lon="7.4281362921128125"><ele>537.0</ele><time>2026-04-18T15:48:56Z</time></trkpt><trkpt lat="45.275423543021404" lon="7.427937538691691"><ele>536.0</ele><time>2026-04-18T15:48:57Z</time></trkpt><trkpt lat="45.275556018608945" lon="7.427787873349029"><ele>535.0</ele><time>2026-04-18T15:48:58Z</time></trkpt><trkpt lat="45.2756445213496" lon="7.427624644861739"><ele>537.25</ele><time>2026-04-18T15:48:59Z</time></trkpt><trkpt lat="45.27574305638497" lon="7.427510469391814"><ele>539.5</ele><time>2026-04-18T15:49:00Z</time></trkpt><trkpt lat="45.27582425257898" lon="7.427393178025547"><ele>541.75</ele><time>2026-04-18T15:49:01Z</time></trkpt><trkpt lat="45.275896543884244" lon="7.427283332951043"><ele>544.0</ele><time>2026-04-18T15:49:02Z</time></trkpt><trkpt lat="45.2759758158977" lon="7.427168604602615"><ele>542.5</ele><time>2026-04-18T15:49:03Z</time></trkpt><trkpt lat="45.276052503795015" lon="7.427054426124904"><ele>541.0</ele><time>2026-04-18T15:49:04Z</time></trkpt><trkpt lat="45.27615821627934" lon="7.4269562362460935"><ele>539.5</ele><time>2026-04-18T15:49:05Z</time></trkpt><trkpt lat="45.27624907063727" lon="7.426833098610789"><ele>538.0</ele><time>2026-04-18T15:49:06Z</time></trkpt><trkpt lat="45.2763509658107" lon="7.426739646638791"><ele>540.5</ele><time>2026-04-18T15:49:07Z</time></trkpt><trkpt lat="45.2764421872299" lon="7.426632445872841"><ele>543.0</ele><time>2026-04-18T15:49:08Z</time></trkpt><trkpt lat="45.27654776048965" lon="7.426561426014765"><ele>545.5</ele><time>2026-04-18T15:49:09Z</time></trkpt><trkpt lat="45.27667701234201" lon="7.426546010218391"><ele>548.0</ele><time>2026-04-18T15:49:10Z</time></trkpt><trkpt lat="45.27682095421853" lon="7.4265447422728075"><ele>548.0</ele><time>2026-04-18T15:49:11Z</time></trkpt><trkpt lat="45.276975310123895" lon="7.4265472535389625"><ele>548.0</ele><time>2026-04-18T15:49:12Z</time></trkpt><trkpt lat="45.277141068682326" lon="7.426551100931798"><ele>548.0</ele><time>2026-04-18T15:49:13Z</time></trkpt><trkpt lat="45.27734480538862" lon="7.426555829825626"><ele>552.3333333333333</ele><time>2026-04-18T15:49:14Z</time></trkpt><trkpt lat="45.277559892809734" lon="7.426557266366292"><ele>556.6666666666666</ele><time>2026-04-18T15:49:15Z</time></trkpt><trkpt lat="45.27773497006353" lon="7.426556446179603"><ele>561.0</ele><time>2026-04-18T15:49:16Z</time></trkpt><trkpt lat="45.27788138697207" lon="7.426538652905251"><ele>561.0</ele><time>2026-04-18T15:49:17Z</time></trkpt><trkpt lat="45.2779928649661" lon="7.426547132013686"><ele>561.0</ele><time>2026-04-18T15:49:18Z</time></trkpt><trkpt lat="45.27810516012916" lon="7.426552263894735"><ele>561.0</ele><time>2026-04-18T15:49:19Z</time></trkpt><trkpt lat="45.27820143939404" lon="7.426518942941721"><ele>561.0</ele><time>2026-04-18T15:49:20Z</time></trkpt><trkpt lat="45.27831891274883" lon="7.426436171125518"><ele>553.3333333333334</ele><time>2026-04-18T15:49:21.001Z</time></trkpt><trkpt lat="45.27847731120147" lon="7.426308395835122"><ele>545.6666666666667</ele><time>2026-04-18T15:49:22.001Z</time></trkpt><trkpt lat="45.27867457272456" lon="7.426185081909507"><ele>538.0</ele><time>2026-04-18T15:49:23.001Z</time></trkpt><trkpt lat="45.278830917460446" lon="7.4260656218288155"><ele>541.0</ele><time>2026-04-18T15:49:24.001Z</time></trkpt><trkpt lat="45.278963658029404" lon="7.425945158025783"><ele>544.0</ele><time>2026-04-18T15:49:25.001Z</time></trkpt><trkpt lat="45.27908119489559" lon="7.425864291497464"><ele>547.0</ele><time>2026-04-18T15:49:26.001Z</time></trkpt><trkpt lat="45.279159490737115" lon="7.425804084599466"><ele>550.0</ele><time>2026-04-18T15:49:27.001Z</time></trkpt><trkpt lat="45.27926491570345" lon="7.425693731522161"><ele>550.0</ele><time>2026-04-18T15:49:28.001Z</time></trkpt><trkpt lat="45.27932004963668" lon="7.4255251028992975"><ele>550.0</ele><time>2026-04-18T15:49:29.001Z</time></trkpt><trkpt lat="45.27936401046506" lon="7.425371904700853"><ele>550.0</ele><time>2026-04-18T15:49:30.001Z</time></trkpt><trkpt lat="45.27940714556796" lon="7.425182052725447"><ele>550.0</ele><time>2026-04-18T15:49:31Z</time></trkpt><trkpt lat="45.279438328598964" lon="7.42503450101559"><ele>547.25</ele><time>2026-04-18T15:49:32Z</time></trkpt><trkpt lat="45.2794833618137" lon="7.424861866430344"><ele>544.5</ele><time>2026-04-18T15:49:33Z</time></trkpt><trkpt lat="45.27956155027316" lon="7.424711513427142"><ele>541.75</ele><time>2026-04-18T15:49:34Z</time></trkpt><trkpt lat="45.279637883008604" lon="7.424571179615216"><ele>539.0</ele><time>2026-04-18T15:49:35Z</time></trkpt><trkpt lat="45.2797044625124" lon="7.424419468702861"><ele>541.25</ele><time>2026-04-18T15:49:36Z</time></trkpt><trkpt lat="45.27978826338388" lon="7.4243002216758756"><ele>543.5</ele><time>2026-04-18T15:49:37Z</time></trkpt><trkpt lat="45.279861086796686" lon="7.424162496567806"><ele>545.75</ele><time>2026-04-18T15:49:38Z</time></trkpt><trkpt lat="45.27993785072943" lon="7.424023497540462"><ele>548.0</ele><time>2026-04-18T15:49:39Z</time></trkpt><trkpt lat="45.280012229131145" lon="7.423891650693365"><ele>547.25</ele><time>2026-04-18T15:49:40Z</time></trkpt><trkpt lat="45.280090758791665" lon="7.423763713715862"><ele>546.5</ele><time>2026-04-18T15:49:41Z</time></trkpt><trkpt lat="45.280176820798815" lon="7.423640386001169"><ele>545.75</ele><time>2026-04-18T15:49:42Z</time></trkpt><trkpt lat="45.28027487429759" lon="7.423525280571609"><ele>545.0</ele><time>2026-04-18T15:49:43Z</time></trkpt><trkpt lat="45.28037869639636" lon="7.423417144038511"><ele>545.0</ele><time>2026-04-18T15:49:44Z</time></trkpt><trkpt lat="45.280484685042296" lon="7.423301324003441"><ele>545.0</ele><time>2026-04-18T15:49:45Z</time></trkpt><trkpt lat="45.28059010404222" lon="7.423179116164908"><ele>545.0</ele><time>2026-04-18T15:49:46Z</time></trkpt><trkpt lat="45.28069454285816" lon="7.4230500745300905"><ele>545.0</ele><time>2026-04-18T15:49:47Z</time></trkpt><trkpt lat="45.280798272616224" lon="7.422918407598351"><ele>546.0</ele><time>2026-04-18T15:49:48Z</time></trkpt><trkpt lat="45.280898681150944" lon="7.4227889582404085"><ele>547.0</ele><time>2026-04-18T15:49:49Z</time></trkpt><trkpt lat="45.28099956799707" lon="7.422655544189749"><ele>548.0</ele><time>2026-04-18T15:49:50Z</time></trkpt><trkpt lat="45.281098546130806" lon="7.4225296201651725"><ele>549.0</ele><time>2026-04-18T15:49:51Z</time></trkpt><trkpt lat="45.28119182817904" lon="7.422395601999223"><ele>549.0</ele><time>2026-04-18T15:49:52Z</time></trkpt><trkpt lat="45.28127897037753" lon="7.422272163155405"><ele>549.0</ele><time>2026-04-18T15:49:53Z</time></trkpt><trkpt lat="45.281358365966476" lon="7.422158147559132"><ele>549.0</ele><time>2026-04-18T15:49:54Z</time></trkpt><trkpt lat="45.281433039323666" lon="7.422056280749978"><ele>549.0</ele><time>2026-04-18T15:49:55Z</time></trkpt><trkpt lat="45.28150294380512" lon="7.421987597672042"><ele>549.0</ele><time>2026-04-18T15:49:56Z</time></trkpt><trkpt lat="45.28159875622963" lon="7.421966279428425"><ele>549.0</ele><time>2026-04-18T15:49:57Z</time></trkpt><trkpt lat="45.281706091914636" lon="7.4219463086861985"><ele>549.0</ele><time>2026-04-18T15:49:58Z</time></trkpt><trkpt lat="45.28181575611373" lon="7.421941021703612"><ele>549.0</ele><time>2026-04-18T15:49:59Z</time></trkpt><trkpt lat="45.281916510604034" lon="7.4219205528461085"><ele>549.0</ele><time>2026-04-18T15:50:00Z</time></trkpt><trkpt lat="45.28202723385652" lon="7.421894708340543"><ele>549.0</ele><time>2026-04-18T15:50:01Z</time></trkpt><trkpt lat="45.282162907399325" lon="7.4218043612870686"><ele>549.0</ele><time>2026-04-18T15:50:02Z</time></trkpt><trkpt lat="45.28231191903645" lon="7.421662836790073"><ele>549.0</ele><time>2026-04-18T15:50:03Z</time></trkpt><trkpt lat="45.282455010344684" lon="7.421484236388495"><ele>549.0</ele><time>2026-04-18T15:50:04Z</time></trkpt><trkpt lat="45.28260034534233" lon="7.421277031248464"><ele>549.0</ele><time>2026-04-18T15:50:05Z</time></trkpt><trkpt lat="45.282752229081055" lon="7.421038719429996"><ele>549.0</ele><time>2026-04-18T15:50:06Z</time></trkpt><trkpt lat="45.28289828640056" lon="7.420775900755311"><ele>549.0</ele><time>2026-04-18T15:50:07Z</time></trkpt><trkpt lat="45.28303257719959" lon="7.420514568875426"><ele>549.0</ele><time>2026-04-18T15:50:08Z</time></trkpt><trkpt lat="45.28314041836667" lon="7.420226412799791"><ele>554.5</ele><time>2026-04-18T15:50:09Z</time></trkpt><trkpt lat="45.28323158661907" lon="7.419905969159548"><ele>560.0</ele><time>2026-04-18T15:50:10Z</time></trkpt><trkpt lat="45.28332747267411" lon="7.419624553260149"><ele>560.0</ele><time>2026-04-18T15:50:11Z</time></trkpt><trkpt lat="45.28340980198702" lon="7.419368397588502"><ele>560.0</ele><time>2026-04-18T15:50:12Z</time></trkpt><trkpt lat="45.28345365609256" lon="7.41907126246813"><ele>560.0</ele><time>2026-04-18T15:50:13Z</time></trkpt><trkpt lat="45.28346822384199" lon="7.418751386302792"><ele>559.0</ele><time>2026-04-18T15:50:14Z</time></trkpt><trkpt lat="45.28347904093135" lon="7.418432066175477"><ele>558.0</ele><time>2026-04-18T15:50:15Z</time></trkpt><trkpt lat="45.283499370947844" lon="7.418142264238368"><ele>557.0</ele><time>2026-04-18T15:50:16Z</time></trkpt><trkpt lat="45.28351896839982" lon="7.417850461286601"><ele>556.6666666666666</ele><time>2026-04-18T15:50:17Z</time></trkpt><trkpt lat="45.28352663923316" lon="7.4175584494240505"><ele>556.3333333333334</ele><time>2026-04-18T15:50:18Z</time></trkpt><trkpt lat="45.28356534914076" lon="7.417269052936787"><ele>556.0</ele><time>2026-04-18T15:50:19Z</time></trkpt><trkpt lat="45.283585892144885" lon="7.41693755842534"><ele>556.0</ele><time>2026-04-18T15:50:20Z</time></trkpt><trkpt lat="45.283603960093075" lon="7.416657682836715"><ele>556.0</ele><time>2026-04-18T15:50:21Z</time></trkpt><trkpt lat="45.283626849221086" lon="7.416348708252914"><ele>556.0</ele><time>2026-04-18T15:50:22Z</time></trkpt><trkpt lat="45.283626125476204" lon="7.416047324663115"><ele>556.3333333333334</ele><time>2026-04-18T15:50:23Z</time></trkpt><trkpt lat="45.28361663863647" lon="7.41574714364338"><ele>556.6666666666666</ele><time>2026-04-18T15:50:24Z</time></trkpt><trkpt lat="45.283633220834474" lon="7.415456654529502"><ele>557.0</ele><time>2026-04-18T15:50:25Z</time></trkpt><trkpt lat="45.283665505267486" lon="7.415179864422934"><ele>557.0</ele><time>2026-04-18T15:50:26Z</time></trkpt><trkpt lat="45.28371717247505" lon="7.414919489806008"><ele>557.0</ele><time>2026-04-18T15:50:27Z</time></trkpt><trkpt lat="45.283790955046385" lon="7.4146896713220665"><ele>557.0</ele><time>2026-04-18T15:50:28Z</time></trkpt><trkpt lat="45.283893457786206" lon="7.41448573780018"><ele>559.3333333333333</ele><time>2026-04-18T15:50:29Z</time></trkpt><trkpt lat="45.2840160216932" lon="7.414242994098621"><ele>561.6666666666666</ele><time>2026-04-18T15:50:30Z</time></trkpt><trkpt lat="45.28414419985056" lon="7.413990496179899"><ele>564.0</ele><time>2026-04-18T15:50:31Z</time></trkpt><trkpt lat="45.28426457944671" lon="7.413738003286342"><ele>564.0</ele><time>2026-04-18T15:50:32Z</time></trkpt><trkpt lat="45.28439048778222" lon="7.4134939472439285"><ele>564.0</ele><time>2026-04-18T15:50:33Z</time></trkpt><trkpt lat="45.284502514841726" lon="7.4132875731018295"><ele>564.0</ele><time>2026-04-18T15:50:34Z</time></trkpt><trkpt lat="45.284609769370775" lon="7.413096664677768"><ele>562.3333333333334</ele><time>2026-04-18T15:50:35Z</time></trkpt><trkpt lat="45.28475594924231" lon="7.412934856632558"><ele>560.6666666666667</ele><time>2026-04-18T15:50:36Z</time></trkpt><trkpt lat="45.28491318048638" lon="7.412775974620942"><ele>559.0</ele><time>2026-04-18T15:50:37Z</time></trkpt><trkpt lat="45.28507257237975" lon="7.412623024643295"><ele>564.0</ele><time>2026-04-18T15:50:38Z</time></trkpt><trkpt lat="45.285231138026475" lon="7.412446395487534"><ele>569.0</ele><time>2026-04-18T15:50:39Z</time></trkpt><trkpt lat="45.28538839955356" lon="7.412305635900394"><ele>574.0</ele><time>2026-04-18T15:50:40Z</time></trkpt><trkpt lat="45.28555233114753" lon="7.412158538520008"><ele>574.6666666666667</ele><time>2026-04-18T15:50:41Z</time></trkpt><trkpt lat="45.28571135013149" lon="7.412025795375417"><ele>575.3333333333334</ele><time>2026-04-18T15:50:42Z</time></trkpt><trkpt lat="45.28585943703106" lon="7.411872499690511"><ele>576.0</ele><time>2026-04-18T15:50:43Z</time></trkpt><trkpt lat="45.28600439366377" lon="7.411674713940028"><ele>576.0</ele><time>2026-04-18T15:50:44Z</time></trkpt><trkpt lat="45.28611720196892" lon="7.411482279728435"><ele>576.0</ele><time>2026-04-18T15:50:45Z</time></trkpt><trkpt lat="45.28627176010863" lon="7.411368789899672"><ele>576.0</ele><time>2026-04-18T15:50:46Z</time></trkpt><trkpt lat="45.28643145278879" lon="7.41130917391064"><ele>575.0</ele><time>2026-04-18T15:50:47Z</time></trkpt><trkpt lat="45.28657697635533" lon="7.411196631085954"><ele>574.0</ele><time>2026-04-18T15:50:48Z</time></trkpt><trkpt lat="45.286698878687915" lon="7.411098108119064"><ele>573.0</ele><time>2026-04-18T15:50:49Z</time></trkpt><trkpt lat="45.28682967312804" lon="7.410987886519733"><ele>573.0</ele><time>2026-04-18T15:50:50Z</time></trkpt><trkpt lat="45.28696359220897" lon="7.410870779956022"><ele>573.0</ele><time>2026-04-18T15:50:51Z</time></trkpt><trkpt lat="45.28702543515235" lon="7.410815786423813"><ele>573.0</ele><time>2026-04-18T15:50:52Z</time></trkpt><trkpt lat="45.28708469957856" lon="7.410754603550286"><ele>573.0</ele><time>2026-04-18T15:50:53Z</time></trkpt><trkpt lat="45.28719335974126" lon="7.410675948796021"><ele>573.0</ele><time>2026-04-18T15:50:54Z</time></trkpt><trkpt lat="45.28727520246745" lon="7.410603418403605"><ele>572.0</ele><time>2026-04-18T15:50:55Z</time></trkpt><trkpt lat="45.28739208836965" lon="7.410484600583279"><ele>571.0</ele><time>2026-04-18T15:50:56Z</time></trkpt><trkpt lat="45.28748472059901" lon="7.410415939608349"><ele>570.0</ele><time>2026-04-18T15:50:57Z</time></trkpt><trkpt lat="45.287582166567255" lon="7.410329591848078"><ele>569.0</ele><time>2026-04-18T15:50:58Z</time></trkpt><trkpt lat="45.28765898389367" lon="7.4102243527242475"><ele>569.0</ele><time>2026-04-18T15:50:59Z</time></trkpt><trkpt lat="45.28772473103119" lon="7.410150266013879"><ele>569.0</ele><time>2026-04-18T15:51:00Z</time></trkpt><trkpt lat="45.28781883297261" lon="7.410037036956838"><ele>569.0</ele><time>2026-04-18T15:51:01Z</time></trkpt><trkpt lat="45.28789630510587" lon="7.409969057914636"><ele>569.0</ele><time>2026-04-18T15:51:02Z</time></trkpt><trkpt lat="45.287988464822924" lon="7.409924470399618"><ele>569.0</ele><time>2026-04-18T15:51:03Z</time></trkpt><trkpt lat="45.288076784304266" lon="7.409875184699398"><ele>571.3333333333333</ele><time>2026-04-18T15:51:04Z</time></trkpt><trkpt lat="45.2881545751794" lon="7.409807739244667"><ele>573.6666666666666</ele><time>2026-04-18T15:51:05Z</time></trkpt><trkpt lat="45.288204592233605" lon="7.409724829467994"><ele>576.0</ele><time>2026-04-18T15:51:06Z</time></trkpt><trkpt lat="45.28825672771438" lon="7.409629329711885"><ele>578.3333333333334</ele><time>2026-04-18T15:51:07Z</time></trkpt><trkpt lat="45.28830555386919" lon="7.409512875992455"><ele>580.6666666666667</ele><time>2026-04-18T15:51:08Z</time></trkpt><trkpt lat="45.28833815011182" lon="7.409378663457837"><ele>583.0</ele><time>2026-04-18T15:51:09Z</time></trkpt><trkpt lat="45.288357541513854" lon="7.40920410305935"><ele>583.0</ele><time>2026-04-18T15:51:10Z</time></trkpt><trkpt lat="45.2883593045408" lon="7.409098376806387"><ele>583.0</ele><time>2026-04-18T15:51:11Z</time></trkpt><trkpt lat="45.28834633297609" lon="7.408983983672737"><ele>583.0</ele><time>2026-04-18T15:51:12Z</time></trkpt><trkpt lat="45.28833297812681" lon="7.408835007300244"><ele>583.0</ele><time>2026-04-18T15:51:13Z</time></trkpt><trkpt lat="45.288315970162735" lon="7.40864148355933"><ele>583.0</ele><time>2026-04-18T15:51:14Z</time></trkpt><trkpt lat="45.28829929844207" lon="7.408461690589207"><ele>584.1999999999999</ele><time>2026-04-18T15:51:15Z</time></trkpt><trkpt lat="45.2882777979376" lon="7.408301833023683"><ele>585.4</ele><time>2026-04-18T15:51:16Z</time></trkpt><trkpt lat="45.28824321423752" lon="7.408165601527919"><ele>586.5999999999999</ele><time>2026-04-18T15:51:17Z</time></trkpt><trkpt lat="45.288205261857314" lon="7.408031877974136"><ele>587.8</ele><time>2026-04-18T15:51:18Z</time></trkpt><trkpt lat="45.28817056101763" lon="7.407913409334668"><ele>589.0</ele><time>2026-04-18T15:51:19Z</time></trkpt><trkpt lat="45.28814232001399" lon="7.407779043044505"><ele>586.6</ele><time>2026-04-18T15:51:20Z</time></trkpt><trkpt lat="45.288054289807576" lon="7.407617050270105"><ele>584.2</ele><time>2026-04-18T15:51:22Z</time></trkpt><trkpt lat="45.2880402226476" lon="7.4074886076938675"><ele>581.8000000000001</ele><time>2026-04-18T15:51:23Z</time></trkpt><trkpt lat="45.28800748967846" lon="7.407352914441801"><ele>579.4</ele><time>2026-04-18T15:51:24Z</time></trkpt><trkpt lat="45.28800629755901" lon="7.407209026138563"><ele>577.0</ele><time>2026-04-18T15:51:25Z</time></trkpt><trkpt lat="45.28799719633153" lon="7.407055428539393"><ele>577.0</ele><time>2026-04-18T15:51:26Z</time></trkpt><trkpt lat="45.28799614258272" lon="7.4069034695713185"><ele>577.0</ele><time>2026-04-18T15:51:27Z</time></trkpt><trkpt lat="45.28800832220851" lon="7.406755651902611"><ele>577.0</ele><time>2026-04-18T15:51:28Z</time></trkpt><trkpt lat="45.288015939493576" lon="7.4066167169080686"><ele>577.0</ele><time>2026-04-18T15:51:29Z</time></trkpt><trkpt lat="45.28802159497354" lon="7.4064939292117655"><ele>577.0</ele><time>2026-04-18T15:51:30Z</time></trkpt><trkpt lat="45.28802330926029" lon="7.406379438710761"><ele>577.1666666666667</ele><time>2026-04-18T15:51:31Z</time></trkpt><trkpt lat="45.288023357722174" lon="7.4062682774914785"><ele>577.3333333333334</ele><time>2026-04-18T15:51:32Z</time></trkpt><trkpt lat="45.288026121712164" lon="7.406175189251944"><ele>577.5</ele><time>2026-04-18T15:51:33Z</time></trkpt><trkpt lat="45.28801245676155" lon="7.406025582595251"><ele>577.6666666666666</ele><time>2026-04-18T15:51:34Z</time></trkpt><trkpt lat="45.28802764510205" lon="7.405904484432457"><ele>577.8333333333333</ele><time>2026-04-18T15:51:35Z</time></trkpt><trkpt lat="45.28801109184962" lon="7.405788430812634"><ele>578.0</ele><time>2026-04-18T15:51:36Z</time></trkpt><trkpt lat="45.28796600252543" lon="7.405646471013218"><ele>578.0</ele><time>2026-04-18T15:51:37Z</time></trkpt><trkpt lat="45.287906261465025" lon="7.40549585314298"><ele>578.0</ele><time>2026-04-18T15:51:38Z</time></trkpt><trkpt lat="45.28787794841268" lon="7.405341026810573"><ele>578.0</ele><time>2026-04-18T15:51:39Z</time></trkpt><trkpt lat="45.28785880083406" lon="7.405211902130046"><ele>578.0</ele><time>2026-04-18T15:51:40Z</time></trkpt><trkpt lat="45.287833493171725" lon="7.405079740231762"><ele>578.0</ele><time>2026-04-18T15:51:41Z</time></trkpt><trkpt lat="45.287799287241484" lon="7.4049781413523785"><ele>578.0</ele><time>2026-04-18T15:51:42Z</time></trkpt><trkpt lat="45.287784720355575" lon="7.40487735256388"><ele>578.0</ele><time>2026-04-18T15:51:43Z</time></trkpt><trkpt lat="45.287776569261595" lon="7.404770038648131"><ele>578.0</ele><time>2026-04-18T15:51:44Z</time></trkpt><trkpt lat="45.28778274392399" lon="7.404656400348141"><ele>578.0</ele><time>2026-04-18T15:51:45Z</time></trkpt><trkpt lat="45.287845719095046" lon="7.404560092744085"><ele>578.0</ele><time>2026-04-18T15:51:46Z</time></trkpt><trkpt lat="45.28792176139224" lon="7.404480100767291"><ele>578.0</ele><time>2026-04-18T15:51:47Z</time></trkpt><trkpt lat="45.28799020526721" lon="7.404388535487101"><ele>577.5</ele><time>2026-04-18T15:51:48Z</time></trkpt><trkpt lat="45.28807442532628" lon="7.404366242626853"><ele>577.0</ele><time>2026-04-18T15:51:49Z</time></trkpt><trkpt lat="45.288143849307026" lon="7.404305103650745"><ele>576.5</ele><time>2026-04-18T15:51:50Z</time></trkpt><trkpt lat="45.28822524480964" lon="7.404214197554232"><ele>576.0</ele><time>2026-04-18T15:51:51Z</time></trkpt><trkpt lat="45.28828830870567" lon="7.404156146122915"><ele>575.5</ele><time>2026-04-18T15:51:52Z</time></trkpt><trkpt lat="45.288371847524786" lon="7.404093831869456"><ele>575.0</ele><time>2026-04-18T15:51:53Z</time></trkpt><trkpt lat="45.28846496946074" lon="7.4040589460450015"><ele>575.2</ele><time>2026-04-18T15:51:54Z</time></trkpt><trkpt lat="45.28856067386036" lon="7.404014200616952"><ele>575.4</ele><time>2026-04-18T15:51:55Z</time></trkpt><trkpt lat="45.28866708363387" lon="7.403984030495885"><ele>575.6</ele><time>2026-04-18T15:51:56Z</time></trkpt><trkpt lat="45.288760031791675" lon="7.403925806744494"><ele>575.8</ele><time>2026-04-18T15:51:57Z</time></trkpt><trkpt lat="45.288831307173304" lon="7.403874398890679"><ele>576.0</ele><time>2026-04-18T15:51:58Z</time></trkpt><trkpt lat="45.288889916908744" lon="7.403813010737357"><ele>577.6666666666666</ele><time>2026-04-18T15:51:59Z</time></trkpt><trkpt lat="45.2889606526542" lon="7.403762319806851"><ele>579.3333333333334</ele><time>2026-04-18T15:52:00Z</time></trkpt><trkpt lat="45.289043373389205" lon="7.403718043148036"><ele>581.0</ele><time>2026-04-18T15:52:01Z</time></trkpt><trkpt lat="45.28910820486662" lon="7.403685479841392"><ele>582.6666666666667</ele><time>2026-04-18T15:52:02Z</time></trkpt><trkpt lat="45.289186113285474" lon="7.403633888713096"><ele>584.3333333333334</ele><time>2026-04-18T15:52:03Z</time></trkpt><trkpt lat="45.28928962111387" lon="7.403630956882625"><ele>586.0</ele><time>2026-04-18T15:52:04Z</time></trkpt><trkpt lat="45.28938043357151" lon="7.403621100596786"><ele>586.0</ele><time>2026-04-18T15:52:05Z</time></trkpt><trkpt lat="45.28947703214103" lon="7.403645950845448"><ele>586.0</ele><time>2026-04-18T15:52:07Z</time></trkpt><trkpt lat="45.28961455373635" lon="7.403624879843664"><ele>586.0</ele><time>2026-04-18T15:52:09Z</time></trkpt><trkpt lat="45.28974213067258" lon="7.40361331130737"><ele>586.0</ele><time>2026-04-18T15:52:11Z</time></trkpt><trkpt lat="45.2898305547456" lon="7.403627158986138"><ele>588.0</ele><time>2026-04-18T15:52:12Z</time></trkpt><trkpt lat="45.28993468854747" lon="7.403527232786352"><ele>590.0</ele><time>2026-04-18T15:52:13Z</time></trkpt><trkpt lat="45.29002256195627" lon="7.403458415953594"><ele>592.0</ele><time>2026-04-18T15:52:14Z</time></trkpt><trkpt lat="45.290110920177774" lon="7.403399000974563"><ele>594.0</ele><time>2026-04-18T15:52:15Z</time></trkpt><trkpt lat="45.29018833946258" lon="7.403340583588654"><ele>596.0</ele><time>2026-04-18T15:52:16Z</time></trkpt><trkpt lat="45.290263121547625" lon="7.403272444455504"><ele>596.0</ele><time>2026-04-18T15:52:17Z</time></trkpt><trkpt lat="45.29031246584521" lon="7.403165201947983"><ele>596.0</ele><time>2026-04-18T15:52:18Z</time></trkpt><trkpt lat="45.29037022340885" lon="7.40308563389815"><ele>596.0</ele><time>2026-04-18T15:52:19Z</time></trkpt><trkpt lat="45.290408008453106" lon="7.402991306251961"><ele>596.0</ele><time>2026-04-18T15:52:20Z</time></trkpt><trkpt lat="45.29044237988855" lon="7.402881907147728"><ele>596.0</ele><time>2026-04-18T15:52:21Z</time></trkpt><trkpt lat="45.2904725039431" lon="7.4027927618394465"><ele>596.0</ele><time>2026-04-18T15:52:22Z</time></trkpt><trkpt lat="45.29050359869759" lon="7.4027109614677915"><ele>595.8333333333333</ele><time>2026-04-18T15:52:23Z</time></trkpt><trkpt lat="45.2905346860685" lon="7.402611341281062"><ele>595.6666666666666</ele><time>2026-04-18T15:52:24Z</time></trkpt><trkpt lat="45.290572401540395" lon="7.4024847162069"><ele>595.5</ele><time>2026-04-18T15:52:25Z</time></trkpt><trkpt lat="45.29061107501742" lon="7.402360496863911"><ele>595.3333333333334</ele><time>2026-04-18T15:52:26Z</time></trkpt><trkpt lat="45.290644672081925" lon="7.402244397451971"><ele>595.1666666666667</ele><time>2026-04-18T15:52:27Z</time></trkpt><trkpt lat="45.29067212963629" lon="7.402149179718441"><ele>595.0</ele><time>2026-04-18T15:52:28Z</time></trkpt><trkpt lat="45.29069938873594" lon="7.402050906746396"><ele>595.0</ele><time>2026-04-18T15:52:29Z</time></trkpt><trkpt lat="45.29073098448592" lon="7.401957052396001"><ele>595.0</ele><time>2026-04-18T15:52:30Z</time></trkpt><trkpt lat="45.290762196458914" lon="7.40185985069131"><ele>595.0</ele><time>2026-04-18T15:52:31Z</time></trkpt><trkpt lat="45.29079420182781" lon="7.401759140397784"><ele>595.0</ele><time>2026-04-18T15:52:32Z</time></trkpt><trkpt lat="45.29081291403425" lon="7.4016522441541905"><ele>595.0</ele><time>2026-04-18T15:52:33Z</time></trkpt><trkpt lat="45.29083946039099" lon="7.4015425164813715"><ele>595.0</ele><time>2026-04-18T15:52:34Z</time></trkpt><trkpt lat="45.290865010302824" lon="7.401439615247276"><ele>594.0</ele><time>2026-04-18T15:52:35Z</time></trkpt><trkpt lat="45.290900314328624" lon="7.401331673800126"><ele>593.0</ele><time>2026-04-18T15:52:36Z</time></trkpt><trkpt lat="45.290933665527874" lon="7.401228221958673"><ele>592.0</ele><time>2026-04-18T15:52:37Z</time></trkpt><trkpt lat="45.29101490949605" lon="7.401072426792932"><ele>591.0</ele><time>2026-04-18T15:52:39Z</time></trkpt><trkpt lat="45.29106110299543" lon="7.400980373502813"><ele>590.0</ele><time>2026-04-18T15:52:40Z</time></trkpt><trkpt lat="45.29113069636058" lon="7.4008209908043785"><ele>590.0</ele><time>2026-04-18T15:52:42Z</time></trkpt><trkpt lat="45.2911837968718" lon="7.400753586662533"><ele>590.0</ele><time>2026-04-18T15:52:43Z</time></trkpt><trkpt lat="45.291262707329444" lon="7.400680550203275"><ele>590.0</ele><time>2026-04-18T15:52:45Z</time></trkpt><trkpt lat="45.29133826028051" lon="7.400654303770766"><ele>590.0</ele><time>2026-04-18T15:52:46Z</time></trkpt><trkpt lat="45.29141388174769" lon="7.400584502459079"><ele>590.0</ele><time>2026-04-18T15:52:47Z</time></trkpt><trkpt lat="45.29149324206186" lon="7.400503387135602"><ele>590.0</ele><time>2026-04-18T15:52:48Z</time></trkpt><trkpt lat="45.29160886549562" lon="7.400433397263099"><ele>590.8</ele><time>2026-04-18T15:52:50Z</time></trkpt><trkpt lat="45.29169509592689" lon="7.400407902971842"><ele>591.6</ele><time>2026-04-18T15:52:52Z</time></trkpt><trkpt lat="45.291814253228246" lon="7.400389714783552"><ele>592.4</ele><time>2026-04-18T15:52:53Z</time></trkpt><trkpt lat="45.291903237941675" lon="7.400392486977838"><ele>593.2</ele><time>2026-04-18T15:52:54Z</time></trkpt><trkpt lat="45.29199227042298" lon="7.400422958468312"><ele>594.0</ele><time>2026-04-18T15:52:55Z</time></trkpt><trkpt lat="45.29208168884712" lon="7.400458783004827"><ele>594.0</ele><time>2026-04-18T15:52:56Z</time></trkpt><trkpt lat="45.29219180746811" lon="7.40047949642359"><ele>594.0</ele><time>2026-04-18T15:52:57Z</time></trkpt><trkpt lat="45.2923182378975" lon="7.4005745842628405"><ele>594.0</ele><time>2026-04-18T15:52:58Z</time></trkpt><trkpt lat="45.292413166991466" lon="7.4006652555383345"><ele>594.0</ele><time>2026-04-18T15:52:59Z</time></trkpt><trkpt lat="45.29253775123805" lon="7.400745710981198"><ele>596.75</ele><time>2026-04-18T15:53:00Z</time></trkpt><trkpt lat="45.292646159618506" lon="7.400839461050509"><ele>599.5</ele><time>2026-04-18T15:53:01Z</time></trkpt><trkpt lat="45.29276753802087" lon="7.4009261276509415"><ele>602.25</ele><time>2026-04-18T15:53:02Z</time></trkpt><trkpt lat="45.2929414821622" lon="7.400996359667638"><ele>605.0</ele><time>2026-04-18T15:53:03Z</time></trkpt><trkpt lat="45.29309753068242" lon="7.401021124966228"><ele>605.0</ele><time>2026-04-18T15:53:04Z</time></trkpt><trkpt lat="45.29325080169087" lon="7.401056622194111"><ele>605.0</ele><time>2026-04-18T15:53:05Z</time></trkpt><trkpt lat="45.293384379146424" lon="7.401107323362469"><ele>605.0</ele><time>2026-04-18T15:53:06Z</time></trkpt><trkpt lat="45.29352022274582" lon="7.4012091738182235"><ele>605.0</ele><time>2026-04-18T15:53:07Z</time></trkpt><trkpt lat="45.29366236207718" lon="7.401308403770349"><ele>611.4</ele><time>2026-04-18T15:53:08Z</time></trkpt><trkpt lat="45.2937843596903" lon="7.401357592508245"><ele>617.8</ele><time>2026-04-18T15:53:09Z</time></trkpt><trkpt lat="45.29387299319213" lon="7.401396168555031"><ele>624.2</ele><time>2026-04-18T15:53:10Z</time></trkpt><trkpt lat="45.293975936841555" lon="7.401412826301174"><ele>630.6</ele><time>2026-04-18T15:53:11Z</time></trkpt><trkpt lat="45.29409002230779" lon="7.401438263411484"><ele>637.0</ele><time>2026-04-18T15:53:12Z</time></trkpt><trkpt lat="45.294211845238436" lon="7.401428566948525"><ele>637.0</ele><time>2026-04-18T15:53:13Z</time></trkpt><trkpt lat="45.29433097222907" lon="7.40141213376903"><ele>637.0</ele><time>2026-04-18T15:53:14Z</time></trkpt><trkpt lat="45.294434140455365" lon="7.401400685835195"><ele>637.0</ele><time>2026-04-18T15:53:15Z</time></trkpt><trkpt lat="45.29451816172408" lon="7.401392129579667"><ele>637.0</ele><time>2026-04-18T15:53:16Z</time></trkpt><trkpt lat="45.29463014871091" lon="7.401382893286922"><ele>637.0</ele><time>2026-04-18T15:53:17Z</time></trkpt><trkpt lat="45.29474776575741" lon="7.401398262208227"><ele>634.75</ele><time>2026-04-18T15:53:18Z</time></trkpt><trkpt lat="45.294875102721214" lon="7.401440020686094"><ele>632.5</ele><time>2026-04-18T15:53:19Z</time></trkpt><trkpt lat="45.29499775778623" lon="7.401512402890489"><ele>630.25</ele><time>2026-04-18T15:53:20Z</time></trkpt><trkpt lat="45.295108681582875" lon="7.401589586672379"><ele>628.0</ele><time>2026-04-18T15:53:21Z</time></trkpt><trkpt lat="45.295219256395384" lon="7.401645984923261"><ele>628.0</ele><time>2026-04-18T15:53:22Z</time></trkpt><trkpt lat="45.29532133157164" lon="7.401722510182709"><ele>628.0</ele><time>2026-04-18T15:53:23Z</time></trkpt><trkpt lat="45.295437354281304" lon="7.401797210300622"><ele>628.0</ele><time>2026-04-18T15:53:24Z</time></trkpt><trkpt lat="45.29554112563557" lon="7.401857972091829"><ele>628.0</ele><time>2026-04-18T15:53:25Z</time></trkpt><trkpt lat="45.29562831224082" lon="7.401915821191058"><ele>625.1999999999999</ele><time>2026-04-18T15:53:26Z</time></trkpt><trkpt lat="45.295720313645425" lon="7.401945144256518"><ele>622.4</ele><time>2026-04-18T15:53:27Z</time></trkpt><trkpt lat="45.29582594964405" lon="7.401956766946601"><ele>619.5999999999999</ele><time>2026-04-18T15:53:28Z</time></trkpt><trkpt lat="45.29593643552598" lon="7.401948471033951"><ele>616.8</ele><time>2026-04-18T15:53:29Z</time></trkpt><trkpt lat="45.296057053565896" lon="7.401943047503824"><ele>614.0</ele><time>2026-04-18T15:53:30Z</time></trkpt><trkpt lat="45.296187888858725" lon="7.401928753916815"><ele>614.0</ele><time>2026-04-18T15:53:31Z</time></trkpt><trkpt lat="45.29631709657103" lon="7.401927557896832"><ele>614.0</ele><time>2026-04-18T15:53:32Z</time></trkpt><trkpt lat="45.29645357135588" lon="7.401893057226207"><ele>614.0</ele><time>2026-04-18T15:53:33Z</time></trkpt><trkpt lat="45.296565763343544" lon="7.401852348498097"><ele>614.0</ele><time>2026-04-18T15:53:34Z</time></trkpt><trkpt lat="45.29668647761309" lon="7.4017940665618704"><ele>614.75</ele><time>2026-04-18T15:53:35Z</time></trkpt><trkpt lat="45.29681424373388" lon="7.40173386247234"><ele>615.5</ele><time>2026-04-18T15:53:36Z</time></trkpt><trkpt lat="45.2969408814133" lon="7.401671248054782"><ele>616.25</ele><time>2026-04-18T15:53:37Z</time></trkpt><trkpt lat="45.29707463101875" lon="7.401617919325466"><ele>617.0</ele><time>2026-04-18T15:53:38Z</time></trkpt><trkpt lat="45.29719285978164" lon="7.401553239271837"><ele>620.0</ele><time>2026-04-18T15:53:39Z</time></trkpt><trkpt lat="45.29730202437098" lon="7.4014931751744415"><ele>623.0</ele><time>2026-04-18T15:53:40Z</time></trkpt><trkpt lat="45.297409373374315" lon="7.401431508596081"><ele>626.0</ele><time>2026-04-18T15:53:41Z</time></trkpt><trkpt lat="45.29752238092997" lon="7.401375281031577"><ele>629.0</ele><time>2026-04-18T15:53:42Z</time></trkpt><trkpt lat="45.29763205754298" lon="7.4013200336886955"><ele>623.0</ele><time>2026-04-18T15:53:43Z</time></trkpt><trkpt lat="45.297742462166774" lon="7.4012780742271636"><ele>617.0</ele><time>2026-04-18T15:53:44Z</time></trkpt><trkpt lat="45.297858461228195" lon="7.401264165833236"><ele>611.0</ele><time>2026-04-18T15:53:45Z</time></trkpt><trkpt lat="45.29796777850978" lon="7.401227812698608"><ele>605.0</ele><time>2026-04-18T15:53:46Z</time></trkpt><trkpt lat="45.298077429391576" lon="7.401193902304534"><ele>606.75</ele><time>2026-04-18T15:53:47Z</time></trkpt><trkpt lat="45.298197187026744" lon="7.401154712554147"><ele>608.5</ele><time>2026-04-18T15:53:48Z</time></trkpt><trkpt lat="45.29833590935609" lon="7.401113951735975"><ele>610.25</ele><time>2026-04-18T15:53:49Z</time></trkpt><trkpt lat="45.29844576504326" lon="7.401080543377688"><ele>612.0</ele><time>2026-04-18T15:53:50Z</time></trkpt><trkpt lat="45.29855667713471" lon="7.401042590913674"><ele>612.0</ele><time>2026-04-18T15:53:51Z</time></trkpt><trkpt lat="45.29866563658239" lon="7.401014337706215"><ele>612.0</ele><time>2026-04-18T15:53:52Z</time></trkpt><trkpt lat="45.29876068667732" lon="7.400980616265811"><ele>612.0</ele><time>2026-04-18T15:53:53Z</time></trkpt><trkpt lat="45.29885045884461" lon="7.4009229949754385"><ele>612.0</ele><time>2026-04-18T15:53:54Z</time></trkpt><trkpt lat="45.29892707564685" lon="7.4008320155245935"><ele>612.0</ele><time>2026-04-18T15:53:55Z</time></trkpt><trkpt lat="45.29899954024614" lon="7.400736242946083"><ele>612.25</ele><time>2026-04-18T15:53:56Z</time></trkpt><trkpt lat="45.29907823771819" lon="7.4006520793841934"><ele>612.5</ele><time>2026-04-18T15:53:57Z</time></trkpt><trkpt lat="45.29917999219771" lon="7.400563101370991"><ele>612.75</ele><time>2026-04-18T15:53:58Z</time></trkpt><trkpt lat="45.299284398296244" lon="7.400479587762292"><ele>613.0</ele><time>2026-04-18T15:53:59Z</time></trkpt><trkpt lat="45.29939173034214" lon="7.400392393095302"><ele>613.0</ele><time>2026-04-18T15:54:00Z</time></trkpt><trkpt lat="45.29949553015122" lon="7.400308263919549"><ele>613.0</ele><time>2026-04-18T15:54:01Z</time></trkpt><trkpt lat="45.29958171318645" lon="7.400228482913037"><ele>613.0</ele><time>2026-04-18T15:54:02Z</time></trkpt><trkpt lat="45.29966156986827" lon="7.400155969244075"><ele>613.0</ele><time>2026-04-18T15:54:03Z</time></trkpt><trkpt lat="45.29973571182632" lon="7.400087516715591"><ele>613.0</ele><time>2026-04-18T15:54:04Z</time></trkpt><trkpt lat="45.29979500029655" lon="7.400028495991235"><ele>615.3333333333334</ele><time>2026-04-18T15:54:05Z</time></trkpt><trkpt lat="45.29985865773673" lon="7.3999845472450865"><ele>617.6666666666667</ele><time>2026-04-18T15:54:06Z</time></trkpt><trkpt lat="45.299926589565565" lon="7.399933854122819"><ele>620.0</ele><time>2026-04-18T15:54:07Z</time></trkpt><trkpt lat="45.300007004437134" lon="7.399870568456208"><ele>622.3333333333334</ele><time>2026-04-18T15:54:08Z</time></trkpt><trkpt lat="45.30008793151781" lon="7.399802233842749"><ele>624.6666666666666</ele><time>2026-04-18T15:54:09Z</time></trkpt><trkpt lat="45.30015120186827" lon="7.399750130790776"><ele>627.0</ele><time>2026-04-18T15:54:10Z</time></trkpt><trkpt lat="45.30020342697517" lon="7.3996874772723435"><ele>626.25</ele><time>2026-04-18T15:54:11Z</time></trkpt><trkpt lat="45.300313132546634" lon="7.39960568429405"><ele>625.5</ele><time>2026-04-18T15:54:13Z</time></trkpt><trkpt lat="45.30040067318778" lon="7.399533677177338"><ele>624.75</ele><time>2026-04-18T15:54:14Z</time></trkpt><trkpt lat="45.300501407731325" lon="7.3994512286570595"><ele>624.0</ele><time>2026-04-18T15:54:15Z</time></trkpt><trkpt lat="45.30061230937835" lon="7.399356323341765"><ele>624.0</ele><time>2026-04-18T15:54:16Z</time></trkpt><trkpt lat="45.30068490259927" lon="7.399284564301253"><ele>624.0</ele><time>2026-04-18T15:54:17Z</time></trkpt><trkpt lat="45.300792913828424" lon="7.399198978378143"><ele>624.0</ele><time>2026-04-18T15:54:18Z</time></trkpt><trkpt lat="45.30087266808582" lon="7.399108243185355"><ele>624.0</ele><time>2026-04-18T15:54:19Z</time></trkpt><trkpt lat="45.300952000853805" lon="7.399088930570173"><ele>624.0</ele><time>2026-04-18T15:54:20Z</time></trkpt><trkpt lat="45.30103770393988" lon="7.399132178452877"><ele>624.0</ele><time>2026-04-18T15:54:21Z</time></trkpt><trkpt lat="45.301144840255795" lon="7.399197868833111"><ele>624.0</ele><time>2026-04-18T15:54:22Z</time></trkpt><trkpt lat="45.3012624319529" lon="7.399197380563089"><ele>624.0</ele><time>2026-04-18T15:54:23Z</time></trkpt><trkpt lat="45.30160757493101" lon="7.399005284875224"><ele>624.0</ele><time>2026-04-18T15:54:25Z</time></trkpt><trkpt lat="45.30181142553372" lon="7.398891104889367"><ele>624.0</ele><time>2026-04-18T15:54:26Z</time></trkpt><trkpt lat="45.30201100389437" lon="7.398719137979748"><ele>624.0</ele><time>2026-04-18T15:54:27Z</time></trkpt><trkpt lat="45.30218567582831" lon="7.398559979839963"><ele>624.0</ele><time>2026-04-18T15:54:28Z</time></trkpt><trkpt lat="45.30233598930879" lon="7.3984352669941185"><ele>624.0</ele><time>2026-04-18T15:54:29Z</time></trkpt><trkpt lat="45.30248309510506" lon="7.398344683074479"><ele>629.0</ele><time>2026-04-18T15:54:30Z</time></trkpt><trkpt lat="45.30267494970667" lon="7.398367989991381"><ele>634.0</ele><time>2026-04-18T15:54:31Z</time></trkpt><trkpt lat="45.30284414541175" lon="7.398316181935836"><ele>639.0</ele><time>2026-04-18T15:54:32Z</time></trkpt><trkpt lat="45.30303839664856" lon="7.398308070356284"><ele>646.0</ele><time>2026-04-18T15:54:33Z</time></trkpt><trkpt lat="45.30323864930394" lon="7.398201955998974"><ele>653.0</ele><time>2026-04-18T15:54:34Z</time></trkpt><trkpt lat="45.303448526298766" lon="7.3980241708297365"><ele>642.0</ele><time>2026-04-18T15:54:35Z</time></trkpt><trkpt lat="45.303673819429754" lon="7.3978868021863615"><ele>631.0</ele><time>2026-04-18T15:54:36Z</time></trkpt><trkpt lat="45.30387771501697" lon="7.397783563269663"><ele>635.6666666666667</ele><time>2026-04-18T15:54:37Z</time></trkpt><trkpt lat="45.30408300497533" lon="7.397707056811994"><ele>640.3333333333334</ele><time>2026-04-18T15:54:38Z</time></trkpt><trkpt lat="45.304278418126444" lon="7.397608183006375"><ele>645.0</ele><time>2026-04-18T15:54:39Z</time></trkpt><trkpt lat="45.304460611372036" lon="7.397475922768656"><ele>645.0</ele><time>2026-04-18T15:54:40Z</time></trkpt><trkpt lat="45.304615461798136" lon="7.397350920294268"><ele>645.0</ele><time>2026-04-18T15:54:41Z</time></trkpt><trkpt lat="45.30475048018717" lon="7.397250991847516"><ele>645.0</ele><time>2026-04-18T15:54:42Z</time></trkpt><trkpt lat="45.304913259070574" lon="7.3971901647839395"><ele>646.0</ele><time>2026-04-18T15:54:43Z</time></trkpt><trkpt lat="45.30501032719902" lon="7.397131742550766"><ele>647.0</ele><time>2026-04-18T15:54:44Z</time></trkpt><trkpt lat="45.30514037602353" lon="7.397225686851438"><ele>648.0</ele><time>2026-04-18T15:54:45Z</time></trkpt><trkpt lat="45.305278006571484" lon="7.3972487217971326"><ele>649.0</ele><time>2026-04-18T15:54:46Z</time></trkpt><trkpt lat="45.305505072864506" lon="7.397270239742451"><ele>652.25</ele><time>2026-04-18T15:54:47Z</time></trkpt><trkpt lat="45.30565648933867" lon="7.397281626452175"><ele>655.5</ele><time>2026-04-18T15:54:48Z</time></trkpt><trkpt lat="45.305799523721944" lon="7.397299955330983"><ele>658.75</ele><time>2026-04-18T15:54:49Z</time></trkpt><trkpt lat="45.30591674134616" lon="7.397333564210422"><ele>662.0</ele><time>2026-04-18T15:54:50Z</time></trkpt><trkpt lat="45.30598512205189" lon="7.397389445425584"><ele>662.0</ele><time>2026-04-18T15:54:51Z</time></trkpt><trkpt lat="45.30603897289468" lon="7.397547542352981"><ele>662.0</ele><time>2026-04-18T15:54:52Z</time></trkpt><trkpt lat="45.306100136053026" lon="7.397714008424817"><ele>662.0</ele><time>2026-04-18T15:54:53Z</time></trkpt><trkpt lat="45.30613666065148" lon="7.3978655172215815"><ele>662.0</ele><time>2026-04-18T15:54:54Z</time></trkpt><trkpt lat="45.306274512293975" lon="7.397919931105471"><ele>664.6666666666666</ele><time>2026-04-18T15:54:55Z</time></trkpt><trkpt lat="45.30643639611304" lon="7.397832729354781"><ele>667.3333333333334</ele><time>2026-04-18T15:54:56Z</time></trkpt><trkpt lat="45.30657892148516" lon="7.397789262317496"><ele>670.0</ele><time>2026-04-18T15:54:57Z</time></trkpt><trkpt lat="45.306751255205214" lon="7.397694363857193"><ele>670.0</ele><time>2026-04-18T15:54:58Z</time></trkpt><trkpt lat="45.30689636268752" lon="7.39762782839244"><ele>670.0</ele><time>2026-04-18T15:54:59Z</time></trkpt><trkpt lat="45.30701868110597" lon="7.397544493407848"><ele>670.0</ele><time>2026-04-18T15:55:00Z</time></trkpt><trkpt lat="45.30710880991402" lon="7.397485298779054"><ele>670.0</ele><time>2026-04-18T15:55:01Z</time></trkpt><trkpt lat="45.30715733613613" lon="7.397382449663808"><ele>670.0</ele><time>2026-04-18T15:55:02Z</time></trkpt><trkpt lat="45.307158845235" lon="7.39723926271443"><ele>670.0</ele><time>2026-04-18T15:55:03Z</time></trkpt><trkpt lat="45.30710385538389" lon="7.397075804143734"><ele>670.0</ele><time>2026-04-18T15:55:04Z</time></trkpt><trkpt lat="45.30706670924619" lon="7.396887603034354"><ele>670.0</ele><time>2026-04-18T15:55:05Z</time></trkpt><trkpt lat="45.30704849816653" lon="7.396721832401697"><ele>670.75</ele><time>2026-04-18T15:55:06Z</time></trkpt><trkpt lat="45.30703435405641" lon="7.396569913562821"><ele>671.5</ele><time>2026-04-18T15:55:07Z</time></trkpt><trkpt lat="45.30700696198448" lon="7.396460491128991"><ele>672.25</ele><time>2026-04-18T15:55:08Z</time></trkpt><trkpt lat="45.30692981972619" lon="7.396387726071638"><ele>673.0</ele><time>2026-04-18T15:55:09Z</time></trkpt><trkpt lat="45.30676912946784" lon="7.396288518974112"><ele>673.5999999999999</ele><time>2026-04-18T15:55:10Z</time></trkpt><trkpt lat="45.30664079147639" lon="7.39619682389352"><ele>674.1999999999999</ele><time>2026-04-18T15:55:11Z</time></trkpt><trkpt lat="45.306556112850366" lon="7.396096154865173"><ele>674.8</ele><time>2026-04-18T15:55:12Z</time></trkpt><trkpt lat="45.306488462362644" lon="7.395990960946172"><ele>675.4</ele><time>2026-04-18T15:55:13Z</time></trkpt><trkpt lat="45.306464027086044" lon="7.3958738415439464"><ele>676.0</ele><time>2026-04-18T15:55:14Z</time></trkpt><trkpt lat="45.30647357070925" lon="7.395743803727654"><ele>676.0</ele><time>2026-04-18T15:55:15Z</time></trkpt><trkpt lat="45.30654739923849" lon="7.395593843194232"><ele>676.0</ele><time>2026-04-18T15:55:16Z</time></trkpt><trkpt lat="45.306623835218424" lon="7.39543127246288"><ele>676.0</ele><time>2026-04-18T15:55:17Z</time></trkpt><trkpt lat="45.30673457449608" lon="7.395309851423831"><ele>676.0</ele><time>2026-04-18T15:55:18Z</time></trkpt><trkpt lat="45.30686434555286" lon="7.395167348159306"><ele>677.3333333333334</ele><time>2026-04-18T15:55:19Z</time></trkpt><trkpt lat="45.307033584435914" lon="7.395091919864294"><ele>678.6666666666666</ele><time>2026-04-18T15:55:20Z</time></trkpt><trkpt lat="45.307219800140636" lon="7.394985370553145"><ele>680.0</ele><time>2026-04-18T15:55:21Z</time></trkpt><trkpt lat="45.30742114294979" lon="7.394918267329972"><ele>680.0</ele><time>2026-04-18T15:55:22Z</time></trkpt><trkpt lat="45.3075992569447" lon="7.394884397240122"><ele>680.0</ele><time>2026-04-18T15:55:23Z</time></trkpt><trkpt lat="45.30776128340903" lon="7.394858770542347"><ele>680.0</ele><time>2026-04-18T15:55:24Z</time></trkpt><trkpt lat="45.30793401073828" lon="7.394874548128606"><ele>681.0</ele><time>2026-04-18T15:55:25Z</time></trkpt><trkpt lat="45.30813230759869" lon="7.394948526155262"><ele>682.0</ele><time>2026-04-18T15:55:26Z</time></trkpt><trkpt lat="45.30834726024197" lon="7.395018263758553"><ele>683.0</ele><time>2026-04-18T15:55:27Z</time></trkpt><trkpt lat="45.308628709065836" lon="7.395052175946756"><ele>683.0</ele><time>2026-04-18T15:55:28Z</time></trkpt><trkpt lat="45.30890267239149" lon="7.39509734125498"><ele>683.0</ele><time>2026-04-18T15:55:29Z</time></trkpt><trkpt lat="45.30919213859159" lon="7.395158788030728"><ele>681.5</ele><time>2026-04-18T15:55:30Z</time></trkpt><trkpt lat="45.30946587477522" lon="7.395205430242394"><ele>680.0</ele><time>2026-04-18T15:55:31Z</time></trkpt><trkpt lat="45.309715940215256" lon="7.395241832265232"><ele>680.0</ele><time>2026-04-18T15:55:32Z</time></trkpt><trkpt lat="45.309949918572926" lon="7.395264420436824"><ele>680.0</ele><time>2026-04-18T15:55:33Z</time></trkpt><trkpt lat="45.31020334207875" lon="7.3953031052568665"><ele>680.0</ele><time>2026-04-18T15:55:34Z</time></trkpt><trkpt lat="45.310447224735086" lon="7.3953719414512"><ele>680.0</ele><time>2026-04-18T15:55:35Z</time></trkpt><trkpt lat="45.310690073298645" lon="7.39542819566385"><ele>683.5</ele><time>2026-04-18T15:55:36Z</time></trkpt><trkpt lat="45.3109359739907" lon="7.395462024439067"><ele>687.0</ele><time>2026-04-18T15:55:37Z</time></trkpt><trkpt lat="45.31118847581173" lon="7.395451282037832"><ele>690.0</ele><time>2026-04-18T15:55:38Z</time></trkpt><trkpt lat="45.31143719972036" lon="7.395423925147333"><ele>693.0</ele><time>2026-04-18T15:55:39Z</time></trkpt><trkpt lat="45.31167103866726" lon="7.395362390912666"><ele>693.0</ele><time>2026-04-18T15:55:40Z</time></trkpt><trkpt lat="45.3118795998072" lon="7.395341289502225"><ele>693.0</ele><time>2026-04-18T15:55:41Z</time></trkpt><trkpt lat="45.31206473445214" lon="7.39527483035586"><ele>693.0</ele><time>2026-04-18T15:55:42Z</time></trkpt><trkpt lat="45.31223367518368" lon="7.395226704480413"><ele>695.6666666666666</ele><time>2026-04-18T15:55:43Z</time></trkpt><trkpt lat="45.31238116899777" lon="7.395151649582868"><ele>698.3333333333333</ele><time>2026-04-18T15:55:44Z</time></trkpt><trkpt lat="45.31250250815306" lon="7.394979308235704"><ele>701.0</ele><time>2026-04-18T15:55:45Z</time></trkpt><trkpt lat="45.31257830899325" lon="7.39480768570116"><ele>701.0</ele><time>2026-04-18T15:55:46Z</time></trkpt><trkpt lat="45.31267280936091" lon="7.394715749467381"><ele>701.0</ele><time>2026-04-18T15:55:47Z</time></trkpt><trkpt lat="45.312815487140426" lon="7.394645501116117"><ele>701.0</ele><time>2026-04-18T15:55:48Z</time></trkpt><trkpt lat="45.312938313206566" lon="7.394715728304122"><ele>701.0</ele><time>2026-04-18T15:55:49Z</time></trkpt><trkpt lat="45.31307136481116" lon="7.394874571246932"><ele>702.6666666666666</ele><time>2026-04-18T15:55:50Z</time></trkpt><trkpt lat="45.31323568075415" lon="7.394884573880784"><ele>704.3333333333334</ele><time>2026-04-18T15:55:51Z</time></trkpt><trkpt lat="45.31343218228961" lon="7.394891355633502"><ele>706.0</ele><time>2026-04-18T15:55:52Z</time></trkpt><trkpt lat="45.31360281457094" lon="7.39486829011394"><ele>706.0</ele><time>2026-04-18T15:55:53Z</time></trkpt><trkpt lat="45.31372949194923" lon="7.394884216836811"><ele>706.0</ele><time>2026-04-18T15:55:54Z</time></trkpt><trkpt lat="45.313843931193695" lon="7.3948991503325985"><ele>706.0</ele><time>2026-04-18T15:55:55Z</time></trkpt><trkpt lat="45.31393777217872" lon="7.394959159979412"><ele>706.0</ele><time>2026-04-18T15:55:56Z</time></trkpt><trkpt lat="45.31402161217887" lon="7.395089014641783"><ele>705.0</ele><time>2026-04-18T15:55:57Z</time></trkpt><trkpt lat="45.31414649738965" lon="7.395273500040327"><ele>704.0</ele><time>2026-04-18T15:55:58Z</time></trkpt><trkpt lat="45.314278025635694" lon="7.395404557744295"><ele>703.0</ele><time>2026-04-18T15:55:59Z</time></trkpt><trkpt lat="45.31443232321435" lon="7.3955489992993915"><ele>706.0</ele><time>2026-04-18T15:56:00Z</time></trkpt><trkpt lat="45.314585880211936" lon="7.395623678522128"><ele>709.0</ele><time>2026-04-18T15:56:01Z</time></trkpt><trkpt lat="45.314755588566506" lon="7.395662542260751"><ele>712.0</ele><time>2026-04-18T15:56:02Z</time></trkpt><trkpt lat="45.31490980234376" lon="7.3956652675249455"><ele>712.0</ele><time>2026-04-18T15:56:03Z</time></trkpt><trkpt lat="45.31501621943691" lon="7.395727064683793"><ele>712.0</ele><time>2026-04-18T15:56:04Z</time></trkpt><trkpt lat="45.315097008193966" lon="7.395837232829375"><ele>712.0</ele><time>2026-04-18T15:56:05Z</time></trkpt><trkpt lat="45.3151895743766" lon="7.3960184554880115"><ele>712.0</ele><time>2026-04-18T15:56:06Z</time></trkpt><trkpt lat="45.31529803963744" lon="7.396210435834458"><ele>715.0</ele><time>2026-04-18T15:56:07Z</time></trkpt><trkpt lat="45.315373805712454" lon="7.396387788894544"><ele>718.0</ele><time>2026-04-18T15:56:08Z</time></trkpt><trkpt lat="45.31547169850729" lon="7.396514507541038"><ele>721.0</ele><time>2026-04-18T15:56:09Z</time></trkpt><trkpt lat="45.31559814069085" lon="7.396590361517042"><ele>724.0</ele><time>2026-04-18T15:56:10Z</time></trkpt><trkpt lat="45.31575142070499" lon="7.396588287050319"><ele>724.6666666666667</ele><time>2026-04-18T15:56:11Z</time></trkpt><trkpt lat="45.315915446482705" lon="7.396525749852202"><ele>725.3333333333334</ele><time>2026-04-18T15:56:12Z</time></trkpt><trkpt lat="45.31609729741857" lon="7.396437984326037"><ele>726.0</ele><time>2026-04-18T15:56:13Z</time></trkpt><trkpt lat="45.316308106626686" lon="7.3963983453232"><ele>718.3333333333334</ele><time>2026-04-18T15:56:14Z</time></trkpt><trkpt lat="45.316521120293466" lon="7.396313638110202"><ele>710.6666666666667</ele><time>2026-04-18T15:56:15Z</time></trkpt><trkpt lat="45.31674591741038" lon="7.396266377130625"><ele>703.0</ele><time>2026-04-18T15:56:16Z</time></trkpt><trkpt lat="45.316996620513905" lon="7.396242381132035"><ele>703.0</ele><time>2026-04-18T15:56:17Z</time></trkpt><trkpt lat="45.31725089894015" lon="7.396252873646019"><ele>703.0</ele><time>2026-04-18T15:56:18Z</time></trkpt><trkpt lat="45.317490277707655" lon="7.39630524777292"><ele>703.0</ele><time>2026-04-18T15:56:19Z</time></trkpt><trkpt lat="45.317730147520095" lon="7.396361568014886"><ele>703.0</ele><time>2026-04-18T15:56:20Z</time></trkpt><trkpt lat="45.31797072864392" lon="7.396304443751809"><ele>705.0</ele><time>2026-04-18T15:56:21Z</time></trkpt><trkpt lat="45.31821410394667" lon="7.396269876533471"><ele>707.0</ele><time>2026-04-18T15:56:22Z</time></trkpt><trkpt lat="45.31844122191481" lon="7.3961478516304995"><ele>707.0</ele><time>2026-04-18T15:56:23Z</time></trkpt><trkpt lat="45.31866081506838" lon="7.396060212634721"><ele>707.0</ele><time>2026-04-18T15:56:24Z</time></trkpt><trkpt lat="45.318864149888405" lon="7.395975408334611"><ele>707.0</ele><time>2026-04-18T15:56:25Z</time></trkpt><trkpt lat="45.31905505295567" lon="7.395938661429522"><ele>711.6666666666666</ele><time>2026-04-18T15:56:26Z</time></trkpt><trkpt lat="45.31925413586445" lon="7.395876754100894"><ele>716.3333333333334</ele><time>2026-04-18T15:56:27Z</time></trkpt><trkpt lat="45.31945300425831" lon="7.395798369327183"><ele>721.0</ele><time>2026-04-18T15:56:28Z</time></trkpt><trkpt lat="45.319628730317305" lon="7.39575461969427"><ele>721.0</ele><time>2026-04-18T15:56:29Z</time></trkpt><trkpt lat="45.3197866991641" lon="7.395762110454234"><ele>721.0</ele><time>2026-04-18T15:56:30Z</time></trkpt><trkpt lat="45.3199135420551" lon="7.395813309095744"><ele>721.0</ele><time>2026-04-18T15:56:31Z</time></trkpt><trkpt lat="45.32001583075434" lon="7.395895952866609"><ele>721.0</ele><time>2026-04-18T15:56:32Z</time></trkpt><trkpt lat="45.32011287359944" lon="7.396072324030434"><ele>721.0</ele><time>2026-04-18T15:56:33Z</time></trkpt><trkpt lat="45.320251414081284" lon="7.396215640607669"><ele>721.0</ele><time>2026-04-18T15:56:34Z</time></trkpt><trkpt lat="45.32038487529802" lon="7.396384824216201"><ele>721.0</ele><time>2026-04-18T15:56:35Z</time></trkpt><trkpt lat="45.32055252071574" lon="7.396525876835452"><ele>723.3333333333334</ele><time>2026-04-18T15:56:36Z</time></trkpt><trkpt lat="45.320754966470616" lon="7.396650155435217"><ele>725.6666666666666</ele><time>2026-04-18T15:56:37Z</time></trkpt><trkpt lat="45.320939074162034" lon="7.396761006493756"><ele>728.0</ele><time>2026-04-18T15:56:38Z</time></trkpt><trkpt lat="45.32109605661796" lon="7.396874100468174"><ele>728.0</ele><time>2026-04-18T15:56:39Z</time></trkpt><trkpt lat="45.32125981944776" lon="7.397004070419233"><ele>728.0</ele><time>2026-04-18T15:56:40Z</time></trkpt><trkpt lat="45.32138493161813" lon="7.397094932386536"><ele>728.0</ele><time>2026-04-18T15:56:41Z</time></trkpt><trkpt lat="45.32150697139216" lon="7.397159162343996"><ele>725.0</ele><time>2026-04-18T15:56:42Z</time></trkpt><trkpt lat="45.32167650712734" lon="7.397176321831264"><ele>722.0</ele><time>2026-04-18T15:56:43Z</time></trkpt><trkpt lat="45.32186266480023" lon="7.397124121301688"><ele>719.0</ele><time>2026-04-18T15:56:44Z</time></trkpt><trkpt lat="45.32204041476969" lon="7.39704316107282"><ele>719.0</ele><time>2026-04-18T15:56:45Z</time></trkpt><trkpt lat="45.3221877728846" lon="7.396950006004232"><ele>719.0</ele><time>2026-04-18T15:56:46Z</time></trkpt><trkpt lat="45.32229942906137" lon="7.396930029059329"><ele>719.0</ele><time>2026-04-18T15:56:47Z</time></trkpt><trkpt lat="45.32244200092346" lon="7.396970539124097"><ele>719.0</ele><time>2026-04-18T15:56:48Z</time></trkpt><trkpt lat="45.32254578505027" lon="7.39708698100099"><ele>722.75</ele><time>2026-04-18T15:56:49Z</time></trkpt><trkpt lat="45.322623711439654" lon="7.3972380134009175"><ele>726.5</ele><time>2026-04-18T15:56:50Z</time></trkpt><trkpt lat="45.322704907856114" lon="7.3974222693357765"><ele>730.25</ele><time>2026-04-18T15:56:51Z</time></trkpt><trkpt lat="45.322801471975616" lon="7.3975631965552"><ele>734.0</ele><time>2026-04-18T15:56:52Z</time></trkpt><trkpt lat="45.322907592657806" lon="7.397657181561824"><ele>734.0</ele><time>2026-04-18T15:56:53Z</time></trkpt><trkpt lat="45.32305757417427" lon="7.397661146830676"><ele>734.0</ele><time>2026-04-18T15:56:54Z</time></trkpt><trkpt lat="45.32322745199779" lon="7.397603535006684"><ele>734.0</ele><time>2026-04-18T15:56:55Z</time></trkpt><trkpt lat="45.32340782262543" lon="7.397521290451609"><ele>733.3333333333333</ele><time>2026-04-18T15:56:56Z</time></trkpt><trkpt lat="45.32358325411143" lon="7.397540375415008"><ele>732.6666666666666</ele><time>2026-04-18T15:56:57Z</time></trkpt><trkpt lat="45.32375200007632" lon="7.397528822085237"><ele>732.0</ele><time>2026-04-18T15:56:58Z</time></trkpt><trkpt lat="45.32390108795019" lon="7.397503272457311"><ele>732.0</ele><time>2026-04-18T15:56:59Z</time></trkpt><trkpt lat="45.32405432213206" lon="7.397374344490342"><ele>732.0</ele><time>2026-04-18T15:57:00Z</time></trkpt><trkpt lat="45.32419446775059" lon="7.397192141687717"><ele>732.0</ele><time>2026-04-18T15:57:01Z</time></trkpt><trkpt lat="45.32431250693067" lon="7.397011785414627"><ele>728.3333333333334</ele><time>2026-04-18T15:57:02Z</time></trkpt><trkpt lat="45.32444219280737" lon="7.396902179938192"><ele>724.6666666666667</ele><time>2026-04-18T15:57:03Z</time></trkpt><trkpt lat="45.3245910612103" lon="7.396795755737581"><ele>721.0</ele><time>2026-04-18T15:57:04Z</time></trkpt><trkpt lat="45.32475250943066" lon="7.396722467888928"><ele>721.0</ele><time>2026-04-18T15:57:05Z</time></trkpt><trkpt lat="45.3249171714778" lon="7.39668281949492"><ele>721.0</ele><time>2026-04-18T15:57:06Z</time></trkpt><trkpt lat="45.32504710171317" lon="7.396688176968823"><ele>721.0</ele><time>2026-04-18T15:57:07Z</time></trkpt><trkpt lat="45.325178291974" lon="7.396748476781373"><ele>721.0</ele><time>2026-04-18T15:57:08Z</time></trkpt><trkpt lat="45.32534085496278" lon="7.3968544957003335"><ele>721.0</ele><time>2026-04-18T15:57:09Z</time></trkpt><trkpt lat="45.325529653605535" lon="7.396947855224954"><ele>721.0</ele><time>2026-04-18T15:57:10Z</time></trkpt><trkpt lat="45.32571982231601" lon="7.397025594671915"><ele>721.0</ele><time>2026-04-18T15:57:11Z</time></trkpt><trkpt lat="45.32590132261676" lon="7.397096889649106"><ele>727.6666666666667</ele><time>2026-04-18T15:57:12Z</time></trkpt><trkpt lat="45.32608956105642" lon="7.39716999340384"><ele>734.3333333333334</ele><time>2026-04-18T15:57:13Z</time></trkpt><trkpt lat="45.326268122114115" lon="7.3972179962700215"><ele>741.0</ele><time>2026-04-18T15:57:14Z</time></trkpt><trkpt lat="45.32643793079865" lon="7.397232518840464"><ele>744.3333333333334</ele><time>2026-04-18T15:57:15Z</time></trkpt><trkpt lat="45.32660019833062" lon="7.397191293968157"><ele>747.6666666666667</ele><time>2026-04-18T15:57:16Z</time></trkpt><trkpt lat="45.3267532914523" lon="7.397092261573701"><ele>751.0</ele><time>2026-04-18T15:57:17Z</time></trkpt><trkpt lat="45.32688641644309" lon="7.39694394175657"><ele>743.3333333333334</ele><time>2026-04-18T15:57:18Z</time></trkpt><trkpt lat="45.32699559539311" lon="7.396753740095747"><ele>735.6666666666666</ele><time>2026-04-18T15:57:19Z</time></trkpt><trkpt lat="45.32707306549036" lon="7.396508840210029"><ele>728.0</ele><time>2026-04-18T15:57:20Z</time></trkpt><trkpt lat="45.32713210790335" lon="7.396259481326233"><ele>729.6666666666666</ele><time>2026-04-18T15:57:21Z</time></trkpt><trkpt lat="45.32723301707016" lon="7.396060836907352"><ele>731.3333333333334</ele><time>2026-04-18T15:57:22Z</time></trkpt><trkpt lat="45.327352557166435" lon="7.395904876436088"><ele>733.0</ele><time>2026-04-18T15:57:23Z</time></trkpt><trkpt lat="45.32749777884029" lon="7.395740003778522"><ele>733.0</ele><time>2026-04-18T15:57:24Z</time></trkpt><trkpt lat="45.32767592091757" lon="7.395575929746117"><ele>733.0</ele><time>2026-04-18T15:57:25Z</time></trkpt><trkpt lat="45.32784506295659" lon="7.395392743829517"><ele>733.0</ele><time>2026-04-18T15:57:26Z</time></trkpt><trkpt lat="45.3280018990023" lon="7.395214265409628"><ele>734.0</ele><time>2026-04-18T15:57:27Z</time></trkpt><trkpt lat="45.3281446293162" lon="7.395057522213856"><ele>735.0</ele><time>2026-04-18T15:57:28Z</time></trkpt><trkpt lat="45.32830339946661" lon="7.394937549824497"><ele>736.0</ele><time>2026-04-18T15:57:29Z</time></trkpt><trkpt lat="45.32841156137834" lon="7.3948715017370015"><ele>736.0</ele><time>2026-04-18T15:57:30Z</time></trkpt><trkpt lat="45.328537597889095" lon="7.394829927146329"><ele>736.0</ele><time>2026-04-18T15:57:31Z</time></trkpt><trkpt lat="45.328639423325555" lon="7.394814981790012"><ele>736.0</ele><time>2026-04-18T15:57:32Z</time></trkpt><trkpt lat="45.328729481269995" lon="7.394809347313179"><ele>736.0</ele><time>2026-04-18T15:57:33Z</time></trkpt><trkpt lat="45.32881974563333" lon="7.394809185486386"><ele>736.0</ele><time>2026-04-18T15:57:34Z</time></trkpt><trkpt lat="45.328896283482365" lon="7.394812006943709"><ele>736.5999999999999</ele><time>2026-04-18T15:57:35Z</time></trkpt><trkpt lat="45.32896910321399" lon="7.394815809690043"><ele>737.2</ele><time>2026-04-18T15:57:36Z</time></trkpt><trkpt lat="45.32903697788471" lon="7.394819876420924"><ele>737.8</ele><time>2026-04-18T15:57:37Z</time></trkpt><trkpt lat="45.329142851801976" lon="7.39482634333019"><ele>738.4000000000001</ele><time>2026-04-18T15:57:38Z</time></trkpt><trkpt lat="45.32930471727629" lon="7.394829710572153"><ele>739.0</ele><time>2026-04-18T15:57:39Z</time></trkpt><trkpt lat="45.329500191754384" lon="7.39482230100846"><ele>739.0</ele><time>2026-04-18T15:57:40Z</time></trkpt><trkpt lat="45.3296851592096" lon="7.394797189682235"><ele>739.0</ele><time>2026-04-18T15:57:41Z</time></trkpt><trkpt lat="45.329871636229285" lon="7.394782567435555"><ele>739.0</ele><time>2026-04-18T15:57:42Z</time></trkpt><trkpt lat="45.33004330449289" lon="7.394733393101653"><ele>740.0</ele><time>2026-04-18T15:57:43Z</time></trkpt><trkpt lat="45.330231998153124" lon="7.394605990084896"><ele>741.0</ele><time>2026-04-18T15:57:44Z</time></trkpt><trkpt lat="45.330418273393256" lon="7.394423671262969"><ele>742.0</ele><time>2026-04-18T15:57:45Z</time></trkpt><trkpt lat="45.33060422018325" lon="7.394226307657932"><ele>742.0</ele><time>2026-04-18T15:57:46Z</time></trkpt><trkpt lat="45.330790345327586" lon="7.39404650813927"><ele>742.0</ele><time>2026-04-18T15:57:47Z</time></trkpt><trkpt lat="45.33096119828936" lon="7.393890551485808"><ele>742.0</ele><time>2026-04-18T15:57:48Z</time></trkpt><trkpt lat="45.33111204566224" lon="7.3936858113878845"><ele>742.6666666666667</ele><time>2026-04-18T15:57:49Z</time></trkpt><trkpt lat="45.3312516386018" lon="7.393471502444384"><ele>743.3333333333334</ele><time>2026-04-18T15:57:50Z</time></trkpt><trkpt lat="45.331371876721384" lon="7.39325877572999"><ele>744.0</ele><time>2026-04-18T15:57:51Z</time></trkpt><trkpt lat="45.33146808177145" lon="7.393118059025709"><ele>744.0</ele><time>2026-04-18T15:57:52Z</time></trkpt><trkpt lat="45.33155679082022" lon="7.393034968040332"><ele>744.0</ele><time>2026-04-18T15:57:53Z</time></trkpt><trkpt lat="45.33168853531644" lon="7.393036624035665"><ele>744.0</ele><time>2026-04-18T15:57:54Z</time></trkpt><trkpt lat="45.33183581910628" lon="7.3929994832378885"><ele>744.0</ele><time>2026-04-18T15:57:55Z</time></trkpt><trkpt lat="45.33201846743195" lon="7.392949357356584"><ele>743.3333333333334</ele><time>2026-04-18T15:57:56Z</time></trkpt><trkpt lat="45.332201628289475" lon="7.392846640301052"><ele>742.6666666666667</ele><time>2026-04-18T15:57:57Z</time></trkpt><trkpt lat="45.33237131392331" lon="7.392747208765527"><ele>742.0</ele><time>2026-04-18T15:57:58Z</time></trkpt><trkpt lat="45.33253579860334" lon="7.392688207079229"><ele>742.0</ele><time>2026-04-18T15:57:59Z</time></trkpt><trkpt lat="45.33271271268117" lon="7.392647518378366"><ele>742.0</ele><time>2026-04-18T15:58:00Z</time></trkpt><trkpt lat="45.33288219415264" lon="7.392629620375153"><ele>742.0</ele><time>2026-04-18T15:58:01Z</time></trkpt><trkpt lat="45.33304501309475" lon="7.392601959051596"><ele>744.0</ele><time>2026-04-18T15:58:02Z</time></trkpt><trkpt lat="45.333194410553716" lon="7.392547417309018"><ele>746.0</ele><time>2026-04-18T15:58:03Z</time></trkpt><trkpt lat="45.333321316868556" lon="7.392470922977046"><ele>748.0</ele><time>2026-04-18T15:58:04Z</time></trkpt><trkpt lat="45.33341715858243" lon="7.392350620596121"><ele>750.0</ele><time>2026-04-18T15:58:05Z</time></trkpt><trkpt lat="45.33349627481755" lon="7.39219070364063"><ele>747.6666666666666</ele><time>2026-04-18T15:58:06Z</time></trkpt><trkpt lat="45.333589934827714" lon="7.392019291879902"><ele>745.3333333333333</ele><time>2026-04-18T15:58:07Z</time></trkpt><trkpt lat="45.3336781188084" lon="7.391820296017933"><ele>743.0</ele><time>2026-04-18T15:58:08Z</time></trkpt><trkpt lat="45.333747595122034" lon="7.391590241759631"><ele>743.0</ele><time>2026-04-18T15:58:09Z</time></trkpt><trkpt lat="45.33384816033075" lon="7.391394166553455"><ele>743.0</ele><time>2026-04-18T15:58:10Z</time></trkpt><trkpt lat="45.33396864393584" lon="7.391195686875024"><ele>743.0</ele><time>2026-04-18T15:58:11Z</time></trkpt><trkpt lat="45.334086380983564" lon="7.390989724038146"><ele>743.6666666666666</ele><time>2026-04-18T15:58:12Z</time></trkpt><trkpt lat="45.33420354127318" lon="7.390785176311255"><ele>744.3333333333334</ele><time>2026-04-18T15:58:13Z</time></trkpt><trkpt lat="45.33429708016424" lon="7.39057003521594"><ele>745.0</ele><time>2026-04-18T15:58:14Z</time></trkpt><trkpt lat="45.33436875787115" lon="7.390354367165823"><ele>745.0</ele><time>2026-04-18T15:58:15Z</time></trkpt><trkpt lat="45.3344269058775" lon="7.3901161672045035"><ele>745.0</ele><time>2026-04-18T15:58:16Z</time></trkpt><trkpt lat="45.334441192018794" lon="7.3898712206454675"><ele>745.0</ele><time>2026-04-18T15:58:17Z</time></trkpt><trkpt lat="45.33448201964399" lon="7.389575410445614"><ele>743.0</ele><time>2026-04-18T15:58:18Z</time></trkpt><trkpt lat="45.334545288806574" lon="7.389322854933302"><ele>741.0</ele><time>2026-04-18T15:58:19Z</time></trkpt><trkpt lat="45.33460299438774" lon="7.3890789558039485"><ele>739.0</ele><time>2026-04-18T15:58:20Z</time></trkpt><trkpt lat="45.33465363055695" lon="7.388866640019136"><ele>738.75</ele><time>2026-04-18T15:58:21Z</time></trkpt><trkpt lat="45.33470076697217" lon="7.388671065233902"><ele>738.5</ele><time>2026-04-18T15:58:22Z</time></trkpt><trkpt lat="45.334786343452286" lon="7.388503135867744"><ele>738.25</ele><time>2026-04-18T15:58:23Z</time></trkpt><trkpt lat="45.334923414754016" lon="7.388399052905955"><ele>738.0</ele><time>2026-04-18T15:58:24Z</time></trkpt><trkpt lat="45.33507449675944" lon="7.38829619535371"><ele>740.0</ele><time>2026-04-18T15:58:25Z</time></trkpt><trkpt lat="45.335263262592704" lon="7.388185848034855"><ele>742.0</ele><time>2026-04-18T15:58:26Z</time></trkpt><trkpt lat="45.33543032131737" lon="7.388073320107337"><ele>744.0</ele><time>2026-04-18T15:58:27Z</time></trkpt><trkpt lat="45.335585448993484" lon="7.387991944580448"><ele>744.0</ele><time>2026-04-18T15:58:28Z</time></trkpt><trkpt lat="45.335714307347324" lon="7.387889941081531"><ele>744.0</ele><time>2026-04-18T15:58:29Z</time></trkpt><trkpt lat="45.33584095494997" lon="7.387796820713333"><ele>744.0</ele><time>2026-04-18T15:58:30Z</time></trkpt><trkpt lat="45.33598657568765" lon="7.387719790243521"><ele>744.0</ele><time>2026-04-18T15:58:31Z</time></trkpt><trkpt lat="45.33613987364802" lon="7.387617297962446"><ele>744.0</ele><time>2026-04-18T15:58:32Z</time></trkpt><trkpt lat="45.33629505462817" lon="7.387485554124762"><ele>744.0</ele><time>2026-04-18T15:58:33Z</time></trkpt><trkpt lat="45.336453136952706" lon="7.387365191972973"><ele>744.0</ele><time>2026-04-18T15:58:34Z</time></trkpt><trkpt lat="45.336608500277144" lon="7.387243817665749"><ele>743.3333333333334</ele><time>2026-04-18T15:58:35Z</time></trkpt><trkpt lat="45.33674853965784" lon="7.38712585713973"><ele>742.6666666666667</ele><time>2026-04-18T15:58:36Z</time></trkpt><trkpt lat="45.3368945337521" lon="7.387054956585743"><ele>742.0</ele><time>2026-04-18T15:58:37Z</time></trkpt><trkpt lat="45.33703969224776" lon="7.386985202575333"><ele>742.0</ele><time>2026-04-18T15:58:38Z</time></trkpt><trkpt lat="45.33718823427942" lon="7.386947470682463"><ele>742.0</ele><time>2026-04-18T15:58:39Z</time></trkpt><trkpt lat="45.33733587541306" lon="7.38695298154848"><ele>742.0</ele><time>2026-04-18T15:58:40Z</time></trkpt><trkpt lat="45.33752083281612" lon="7.386976660171835"><ele>742.0</ele><time>2026-04-18T15:58:41Z</time></trkpt><trkpt lat="45.337707401231384" lon="7.387018030572581"><ele>742.0</ele><time>2026-04-18T15:58:42Z</time></trkpt><trkpt lat="45.33789667051523" lon="7.38704082477216"><ele>742.0</ele><time>2026-04-18T15:58:43Z</time></trkpt><trkpt lat="45.33810028541517" lon="7.387079657118548"><ele>742.0</ele><time>2026-04-18T15:58:44Z</time></trkpt><trkpt lat="45.338299428871885" lon="7.387082922768329"><ele>742.0</ele><time>2026-04-18T15:58:45Z</time></trkpt><trkpt lat="45.33848961751689" lon="7.387093151645679"><ele>742.0</ele><time>2026-04-18T15:58:46Z</time></trkpt><trkpt lat="45.338687096039536" lon="7.387078758851935"><ele>742.0</ele><time>2026-04-18T15:58:47Z</time></trkpt><trkpt lat="45.338868314346136" lon="7.387065031469222"><ele>742.0</ele><time>2026-04-18T15:58:48Z</time></trkpt><trkpt lat="45.339047759205926" lon="7.3869880674960315"><ele>742.0</ele><time>2026-04-18T15:58:49Z</time></trkpt><trkpt lat="45.33922068076513" lon="7.38687716152836"><ele>744.0</ele><time>2026-04-18T15:58:50Z</time></trkpt><trkpt lat="45.339385363857005" lon="7.38675630332066"><ele>746.0</ele><time>2026-04-18T15:58:51Z</time></trkpt><trkpt lat="45.339526108410176" lon="7.386639029165628"><ele>748.0</ele><time>2026-04-18T15:58:52Z</time></trkpt><trkpt lat="45.33963763380046" lon="7.386523050671473"><ele>748.0</ele><time>2026-04-18T15:58:53Z</time></trkpt><trkpt lat="45.33975658308221" lon="7.386379307625397"><ele>748.0</ele><time>2026-04-18T15:58:54Z</time></trkpt><trkpt lat="45.33986959041552" lon="7.386188306682932"><ele>748.0</ele><time>2026-04-18T15:58:55Z</time></trkpt><trkpt lat="45.33998454092949" lon="7.3859659957036605"><ele>748.0</ele><time>2026-04-18T15:58:56Z</time></trkpt><trkpt lat="45.34009344331778" lon="7.385776870765525"><ele>748.0</ele><time>2026-04-18T15:58:57Z</time></trkpt><trkpt lat="45.340198060515206" lon="7.385578633928652"><ele>748.0</ele><time>2026-04-18T15:58:58Z</time></trkpt><trkpt lat="45.340279893909866" lon="7.385408470800676"><ele>746.6666666666667</ele><time>2026-04-18T15:58:59Z</time></trkpt><trkpt lat="45.34038839385561" lon="7.385210299854105"><ele>745.3333333333334</ele><time>2026-04-18T15:59:00Z</time></trkpt><trkpt lat="45.34045343035726" lon="7.385043654396917"><ele>744.0</ele><time>2026-04-18T15:59:01Z</time></trkpt><trkpt lat="45.34051330002676" lon="7.384808611582367"><ele>746.0</ele><time>2026-04-18T15:59:02Z</time></trkpt><trkpt lat="45.34058931849742" lon="7.384585908290511"><ele>748.0</ele><time>2026-04-18T15:59:03Z</time></trkpt><trkpt lat="45.34060609215719" lon="7.384336208103213"><ele>750.0</ele><time>2026-04-18T15:59:04Z</time></trkpt><trkpt lat="45.34064478411037" lon="7.384129067289645"><ele>750.0</ele><time>2026-04-18T15:59:05Z</time></trkpt><trkpt lat="45.340699663978704" lon="7.383932771830465"><ele>750.0</ele><time>2026-04-18T15:59:06Z</time></trkpt><trkpt lat="45.340787042667976" lon="7.3837369443421785"><ele>750.0</ele><time>2026-04-18T15:59:07Z</time></trkpt><trkpt lat="45.340891868917126" lon="7.383523581950373"><ele>748.0</ele><time>2026-04-18T15:59:08Z</time></trkpt><trkpt lat="45.3409997550817" lon="7.383321211522422"><ele>746.0</ele><time>2026-04-18T15:59:09Z</time></trkpt><trkpt lat="45.34111278871537" lon="7.383130752925423"><ele>744.0</ele><time>2026-04-18T15:59:10Z</time></trkpt><trkpt lat="45.341237989602256" lon="7.38294029091158"><ele>745.0</ele><time>2026-04-18T15:59:11Z</time></trkpt><trkpt lat="45.341348527045874" lon="7.382764313350904"><ele>746.0</ele><time>2026-04-18T15:59:12Z</time></trkpt><trkpt lat="45.341463423714416" lon="7.382599405583785"><ele>747.0</ele><time>2026-04-18T15:59:13Z</time></trkpt><trkpt lat="45.3415830491603" lon="7.382427446262472"><ele>747.0</ele><time>2026-04-18T15:59:14Z</time></trkpt><trkpt lat="45.34169086396683" lon="7.382243295632424"><ele>747.0</ele><time>2026-04-18T15:59:15Z</time></trkpt><trkpt lat="45.341807169085676" lon="7.38205417766455"><ele>747.0</ele><time>2026-04-18T15:59:16Z</time></trkpt><trkpt lat="45.34194024540024" lon="7.38183888732509"><ele>747.6666666666666</ele><time>2026-04-18T15:59:17Z</time></trkpt><trkpt lat="45.342081688840445" lon="7.381610060879878"><ele>748.3333333333333</ele><time>2026-04-18T15:59:18Z</time></trkpt><trkpt lat="45.34221204857828" lon="7.381399515476206"><ele>749.0</ele><time>2026-04-18T15:59:19Z</time></trkpt><trkpt lat="45.342326794041234" lon="7.381215026776559"><ele>751.5</ele><time>2026-04-18T15:59:20Z</time></trkpt><trkpt lat="45.34243592863606" lon="7.3810477894059705"><ele>754.0</ele><time>2026-04-18T15:59:21Z</time></trkpt><trkpt lat="45.34265760060827" lon="7.380708925332729"><ele>754.0</ele><time>2026-04-18T15:59:23Z</time></trkpt><trkpt lat="45.34277353482308" lon="7.380531385408874"><ele>754.0</ele><time>2026-04-18T15:59:24Z</time></trkpt><trkpt lat="45.34289681828047" lon="7.3803425910422185"><ele>754.0</ele><time>2026-04-18T15:59:25Z</time></trkpt><trkpt lat="45.34302105972684" lon="7.380150482826205"><ele>755.6666666666667</ele><time>2026-04-18T15:59:26Z</time></trkpt><trkpt lat="45.34312591282243" lon="7.37995524943736"><ele>757.3333333333334</ele><time>2026-04-18T15:59:27Z</time></trkpt><trkpt lat="45.343248239013924" lon="7.379773816701827"><ele>759.0</ele><time>2026-04-18T15:59:28Z</time></trkpt><trkpt lat="45.343365024753815" lon="7.37961451531263"><ele>759.0</ele><time>2026-04-18T15:59:29Z</time></trkpt><trkpt lat="45.34347863064889" lon="7.379437495866405"><ele>759.0</ele><time>2026-04-18T15:59:30Z</time></trkpt><trkpt lat="45.34359022979176" lon="7.3792561134486885"><ele>759.0</ele><time>2026-04-18T15:59:31Z</time></trkpt><trkpt lat="45.34370782981665" lon="7.379069086040987"><ele>759.0</ele><time>2026-04-18T15:59:32Z</time></trkpt><trkpt lat="45.34382505378578" lon="7.378891570082142"><ele>759.0</ele><time>2026-04-18T15:59:33Z</time></trkpt><trkpt lat="45.34393508440277" lon="7.37874940595597"><ele>759.0</ele><time>2026-04-18T15:59:34Z</time></trkpt><trkpt lat="45.344048549368615" lon="7.378605231937936"><ele>759.75</ele><time>2026-04-18T15:59:35Z</time></trkpt><trkpt lat="45.34418086160759" lon="7.378478481083828"><ele>760.5</ele><time>2026-04-18T15:59:36Z</time></trkpt><trkpt lat="45.34430055178221" lon="7.378346985328102"><ele>761.25</ele><time>2026-04-18T15:59:37Z</time></trkpt><trkpt lat="45.3444049501772" lon="7.3782229078711845"><ele>762.0</ele><time>2026-04-18T15:59:38Z</time></trkpt><trkpt lat="45.34448579124946" lon="7.378123554742708"><ele>762.0</ele><time>2026-04-18T15:59:39Z</time></trkpt><trkpt lat="45.34454100606679" lon="7.378038998424414"><ele>762.0</ele><time>2026-04-18T15:59:40Z</time></trkpt><trkpt lat="45.34458875431498" lon="7.3780996769931875"><ele>762.0</ele><time>2026-04-18T15:59:51Z</time></trkpt><trkpt lat="45.34451866048129" lon="7.378234331238168"><ele>762.0</ele><time>2026-04-18T15:59:53Z</time></trkpt><trkpt lat="45.34449172765941" lon="7.378336741750422"><ele>762.0</ele><time>2026-04-18T15:59:54Z</time></trkpt><trkpt lat="45.344569572949965" lon="7.378470779977367"><ele>762.0</ele><time>2026-04-18T15:59:55Z</time></trkpt><trkpt lat="45.34459818940902" lon="7.378574774199693"><ele>762.0</ele><time>2026-04-18T15:59:56Z</time></trkpt><trkpt lat="45.34466778437446" lon="7.378638201291596"><ele>762.0</ele><time>2026-04-18T15:59:57Z</time></trkpt><trkpt lat="45.34475288306745" lon="7.37871177571817"><ele>762.0</ele><time>2026-04-18T15:59:58Z</time></trkpt><trkpt lat="45.34487862674948" lon="7.378663496337693"><ele>762.0</ele><time>2026-04-18T15:59:59Z</time></trkpt><trkpt lat="45.34497717026415" lon="7.378645747604955"><ele>764.3333333333334</ele><time>2026-04-18T16:00:00Z</time></trkpt><trkpt lat="45.34506197694224" lon="7.378650538943529"><ele>766.6666666666667</ele><time>2026-04-18T16:00:01Z</time></trkpt><trkpt lat="45.34518451826974" lon="7.37870715982745"><ele>769.0</ele><time>2026-04-18T16:00:03Z</time></trkpt><trkpt lat="45.345241362945536" lon="7.378775621372759"><ele>771.3333333333334</ele><time>2026-04-18T16:00:04Z</time></trkpt><trkpt lat="45.3452619636912" lon="7.378886074197059"><ele>773.6666666666667</ele><time>2026-04-18T16:00:05Z</time></trkpt><trkpt lat="45.34529208782691" lon="7.378977546661756"><ele>776.0</ele><time>2026-04-18T16:00:06Z</time></trkpt><trkpt lat="45.345275776081365" lon="7.379084572175229"><ele>777.0</ele><time>2026-04-18T16:00:07Z</time></trkpt><trkpt lat="45.345209370754915" lon="7.379186205468027"><ele>778.0</ele><time>2026-04-18T16:00:08Z</time></trkpt><trkpt lat="45.34513750146729" lon="7.3793167060875815"><ele>779.0</ele><time>2026-04-18T16:00:09Z</time></trkpt><trkpt lat="45.34505839994713" lon="7.379464658882615"><ele>780.0</ele><time>2026-04-18T16:00:10Z</time></trkpt><trkpt lat="45.344976195350334" lon="7.379615124322474"><ele>778.6666666666667</ele><time>2026-04-18T16:00:11Z</time></trkpt><trkpt lat="45.344890904086775" lon="7.379789122685226"><ele>777.3333333333334</ele><time>2026-04-18T16:00:12Z</time></trkpt><trkpt lat="45.344786676374255" lon="7.379963359621246"><ele>776.0</ele><time>2026-04-18T16:00:13Z</time></trkpt><trkpt lat="45.3446772659669" lon="7.380114128408082"><ele>776.0</ele><time>2026-04-18T16:00:14Z</time></trkpt><trkpt lat="45.344559699173665" lon="7.380266675789426"><ele>776.0</ele><time>2026-04-18T16:00:15Z</time></trkpt><trkpt lat="45.34445453972166" lon="7.380424595082419"><ele>776.0</ele><time>2026-04-18T16:00:16Z</time></trkpt><trkpt lat="45.344364574600924" lon="7.380569564478805"><ele>776.0</ele><time>2026-04-18T16:00:17Z</time></trkpt><trkpt lat="45.34429844557155" lon="7.3807064261857525"><ele>778.25</ele><time>2026-04-18T16:00:18Z</time></trkpt><trkpt lat="45.344242145755544" lon="7.380829797164082"><ele>780.5</ele><time>2026-04-18T16:00:19Z</time></trkpt><trkpt lat="45.344213994939906" lon="7.380950617605218"><ele>782.75</ele><time>2026-04-18T16:00:20Z</time></trkpt><trkpt lat="45.34421489734495" lon="7.3811186289187685"><ele>785.0</ele><time>2026-04-18T16:00:21Z</time></trkpt><trkpt lat="45.34422666645398" lon="7.38132606785351"><ele>787.4</ele><time>2026-04-18T16:00:22Z</time></trkpt><trkpt lat="45.34419705701917" lon="7.381502098064851"><ele>789.8</ele><time>2026-04-18T16:00:23Z</time></trkpt><trkpt lat="45.344158662269585" lon="7.38165763430051"><ele>792.2</ele><time>2026-04-18T16:00:24Z</time></trkpt><trkpt lat="45.34413636651955" lon="7.381814276820495"><ele>794.6</ele><time>2026-04-18T16:00:25Z</time></trkpt><trkpt lat="45.34412057038772" lon="7.381940620079691"><ele>797.0</ele><time>2026-04-18T16:00:26Z</time></trkpt><trkpt lat="45.34416970131794" lon="7.382005585505833"><ele>797.0</ele><time>2026-04-18T16:00:27Z</time></trkpt><trkpt lat="45.34424105774065" lon="7.382038739980958"><ele>797.0</ele><time>2026-04-18T16:00:28Z</time></trkpt><trkpt lat="45.344322256461126" lon="7.382028408773883"><ele>797.0</ele><time>2026-04-18T16:00:29Z</time></trkpt><trkpt lat="45.344395531045066" lon="7.381935441973727"><ele>797.0</ele><time>2026-04-18T16:00:30Z</time></trkpt><trkpt lat="45.3444580359662" lon="7.38178571256769"><ele>797.0</ele><time>2026-04-18T16:00:31Z</time></trkpt><trkpt lat="45.34451494629205" lon="7.38159000824122"><ele>797.0</ele><time>2026-04-18T16:00:32Z</time></trkpt><trkpt lat="45.34458239992251" lon="7.381392315931629"><ele>797.0</ele><time>2026-04-18T16:00:33Z</time></trkpt><trkpt lat="45.3446638763652" lon="7.381246033701559"><ele>797.0</ele><time>2026-04-18T16:00:34Z</time></trkpt><trkpt lat="45.34473385223754" lon="7.381127012075923"><ele>797.0</ele><time>2026-04-18T16:00:35Z</time></trkpt><trkpt lat="45.344816532645865" lon="7.381038552658801"><ele>801.3333333333334</ele><time>2026-04-18T16:00:36Z</time></trkpt><trkpt lat="45.34493448250395" lon="7.38098460221985"><ele>805.6666666666667</ele><time>2026-04-18T16:00:37Z</time></trkpt><trkpt lat="45.34509655425567" lon="7.380910526342087"><ele>810.0</ele><time>2026-04-18T16:00:38Z</time></trkpt><trkpt lat="45.3452618448503" lon="7.380838504609222"><ele>810.0</ele><time>2026-04-18T16:00:39Z</time></trkpt><trkpt lat="45.34541385706784" lon="7.380739768468572"><ele>810.0</ele><time>2026-04-18T16:00:40Z</time></trkpt><trkpt lat="45.34551658851811" lon="7.380557444983745"><ele>810.0</ele><time>2026-04-18T16:00:41Z</time></trkpt><trkpt lat="45.345588671775815" lon="7.380365664450728"><ele>813.5</ele><time>2026-04-18T16:00:42Z</time></trkpt><trkpt lat="45.34567702021779" lon="7.3802539285474476"><ele>817.0</ele><time>2026-04-18T16:00:43Z</time></trkpt><trkpt lat="45.34576905466988" lon="7.380169745456772"><ele>820.5</ele><time>2026-04-18T16:00:44Z</time></trkpt><trkpt lat="45.34587838282172" lon="7.380123202555952"><ele>824.0</ele><time>2026-04-18T16:00:45Z</time></trkpt><trkpt lat="45.34596752037728" lon="7.379995705956885"><ele>824.0</ele><time>2026-04-18T16:00:46Z</time></trkpt><trkpt lat="45.346048210603804" lon="7.379795952464451"><ele>824.0</ele><time>2026-04-18T16:00:47Z</time></trkpt><trkpt lat="45.34614312101082" lon="7.379557937553557"><ele>824.0</ele><time>2026-04-18T16:00:48Z</time></trkpt><trkpt lat="45.34624652781765" lon="7.379333077443388"><ele>824.6666666666667</ele><time>2026-04-18T16:00:49Z</time></trkpt><trkpt lat="45.34635183551496" lon="7.379110801047059"><ele>825.3333333333333</ele><time>2026-04-18T16:00:50Z</time></trkpt><trkpt lat="45.34642958897565" lon="7.378910936705028"><ele>826.0</ele><time>2026-04-18T16:00:51Z</time></trkpt><trkpt lat="45.346508685459796" lon="7.378765374521611"><ele>826.0</ele><time>2026-04-18T16:00:52Z</time></trkpt><trkpt lat="45.3465560136926" lon="7.378646700969286"><ele>826.0</ele><time>2026-04-18T16:00:53Z</time></trkpt><trkpt lat="45.34664880107642" lon="7.378541082739479"><ele>826.0</ele><time>2026-04-18T16:00:55Z</time></trkpt><trkpt lat="45.34670584168328" lon="7.378612331030721"><ele>826.0</ele><time>2026-04-18T16:00:56Z</time></trkpt><trkpt lat="45.34671406241566" lon="7.378754345266768"><ele>826.0</ele><time>2026-04-18T16:00:58Z</time></trkpt><trkpt lat="45.34664147399381" lon="7.378846718519254"><ele>818.6666666666666</ele><time>2026-04-18T16:00:59Z</time></trkpt><trkpt lat="45.34657099500843" lon="7.37900251709784"><ele>811.3333333333333</ele><time>2026-04-18T16:01:00Z</time></trkpt><trkpt lat="45.346465580987534" lon="7.379175357329958"><ele>804.0</ele><time>2026-04-18T16:01:01Z</time></trkpt><trkpt lat="45.3463689828703" lon="7.379405325894042"><ele>804.0</ele><time>2026-04-18T16:01:02Z</time></trkpt><trkpt lat="45.346270010934994" lon="7.3796603738134765"><ele>804.0</ele><time>2026-04-18T16:01:03Z</time></trkpt><trkpt lat="45.346200499491694" lon="7.379872090316241"><ele>804.0</ele><time>2026-04-18T16:01:04Z</time></trkpt><trkpt lat="45.346166382801265" lon="7.380093107289444"><ele>809.0</ele><time>2026-04-18T16:01:05Z</time></trkpt><trkpt lat="45.34615665457117" lon="7.380286091113473"><ele>814.0</ele><time>2026-04-18T16:01:06Z</time></trkpt><trkpt lat="45.34613098577454" lon="7.380461207924678"><ele>819.0</ele><time>2026-04-18T16:01:07Z</time></trkpt><trkpt lat="45.34600820634807" lon="7.380571863656367"><ele>824.0</ele><time>2026-04-18T16:01:08Z</time></trkpt><trkpt lat="45.345921751507426" lon="7.380749857627495"><ele>830.0</ele><time>2026-04-18T16:01:09Z</time></trkpt><trkpt lat="45.34583005107114" lon="7.380943914922968"><ele>836.0</ele><time>2026-04-18T16:01:10Z</time></trkpt><trkpt lat="45.345766407352386" lon="7.3811259721238045"><ele>842.0</ele><time>2026-04-18T16:01:11Z</time></trkpt><trkpt lat="45.3457244792851" lon="7.381318793721615"><ele>848.0</ele><time>2026-04-18T16:01:12Z</time></trkpt><trkpt lat="45.34572238897518" lon="7.381519844494685"><ele>851.5</ele><time>2026-04-18T16:01:13Z</time></trkpt><trkpt lat="45.34573653395666" lon="7.38173852397341"><ele>855.0</ele><time>2026-04-18T16:01:14Z</time></trkpt><trkpt lat="45.34575478864778" lon="7.381935108415098"><ele>858.5</ele><time>2026-04-18T16:01:15Z</time></trkpt><trkpt lat="45.34578610059049" lon="7.382115042103642"><ele>862.0</ele><time>2026-04-18T16:01:16Z</time></trkpt><trkpt lat="45.34579136271813" lon="7.382211083845264"><ele>859.6</ele><time>2026-04-18T16:01:17Z</time></trkpt><trkpt lat="45.34577127621332" lon="7.38231207592465"><ele>857.2</ele><time>2026-04-18T16:01:18Z</time></trkpt><trkpt lat="45.34568672428615" lon="7.382348598618877"><ele>854.8</ele><time>2026-04-18T16:01:19Z</time></trkpt><trkpt lat="45.345586222090255" lon="7.382349837612819"><ele>852.4</ele><time>2026-04-18T16:01:20Z</time></trkpt><trkpt lat="45.34545257602713" lon="7.382391068815469"><ele>850.0</ele><time>2026-04-18T16:01:21Z</time></trkpt><trkpt lat="45.34531627778356" lon="7.382426133898217"><ele>850.0</ele><time>2026-04-18T16:01:22Z</time></trkpt><trkpt lat="45.34518752258072" lon="7.382514137765485"><ele>850.0</ele><time>2026-04-18T16:01:23Z</time></trkpt><trkpt lat="45.345102386162345" lon="7.382589364930589"><ele>850.0</ele><time>2026-04-18T16:01:24Z</time></trkpt><trkpt lat="45.3450007983344" lon="7.3827206096219395"><ele>850.0</ele><time>2026-04-18T16:01:25Z</time></trkpt><trkpt lat="45.34492476061261" lon="7.38285422088885"><ele>850.0</ele><time>2026-04-18T16:01:26Z</time></trkpt><trkpt lat="45.344875128344626" lon="7.383003197340263"><ele>850.0</ele><time>2026-04-18T16:01:27Z</time></trkpt><trkpt lat="45.34487694857094" lon="7.383180899805462"><ele>850.0</ele><time>2026-04-18T16:01:28Z</time></trkpt><trkpt lat="45.344866542324944" lon="7.38333813436858"><ele>850.0</ele><time>2026-04-18T16:01:29Z</time></trkpt><trkpt lat="45.34479283390921" lon="7.383465280307084"><ele>846.3333333333333</ele><time>2026-04-18T16:01:30Z</time></trkpt><trkpt lat="45.34467328318267" lon="7.3835963917597125"><ele>842.6666666666667</ele><time>2026-04-18T16:01:31Z</time></trkpt><trkpt lat="45.34454571378012" lon="7.383736900226793"><ele>839.0</ele><time>2026-04-18T16:01:32Z</time></trkpt><trkpt lat="45.344434579335335" lon="7.383902636239329"><ele>850.6666666666667</ele><time>2026-04-18T16:01:33Z</time></trkpt><trkpt lat="45.344361214699376" lon="7.384117636006558"><ele>862.3333333333333</ele><time>2026-04-18T16:01:34Z</time></trkpt><trkpt lat="45.3442687013224" lon="7.384331222771312"><ele>874.0</ele><time>2026-04-18T16:01:35Z</time></trkpt><trkpt lat="45.3441569482026" lon="7.384491518956005"><ele>874.0</ele><time>2026-04-18T16:01:36Z</time></trkpt><trkpt lat="45.344026894610224" lon="7.384556375307448"><ele>874.0</ele><time>2026-04-18T16:01:37Z</time></trkpt><trkpt lat="45.34396127733006" lon="7.384671466107793"><ele>874.0</ele><time>2026-04-18T16:01:38Z</time></trkpt><trkpt lat="45.343919846929" lon="7.3848270041388515"><ele>874.0</ele><time>2026-04-18T16:01:39Z</time></trkpt><trkpt lat="45.34387450085239" lon="7.385019848139212"><ele>871.0</ele><time>2026-04-18T16:01:40Z</time></trkpt><trkpt lat="45.34382293768225" lon="7.385180956700943"><ele>868.0</ele><time>2026-04-18T16:01:41Z</time></trkpt><trkpt lat="45.343730755971066" lon="7.385270330944159"><ele>865.0</ele><time>2026-04-18T16:01:42Z</time></trkpt><trkpt lat="45.343622649607305" lon="7.385377472943087"><ele>862.0</ele><time>2026-04-18T16:01:43Z</time></trkpt><trkpt lat="45.34354632822388" lon="7.385545763416757"><ele>870.5</ele><time>2026-04-18T16:01:44Z</time></trkpt><trkpt lat="45.3435155330097" lon="7.3857432743400775"><ele>879.0</ele><time>2026-04-18T16:01:45Z</time></trkpt><trkpt lat="45.343494435230824" lon="7.38593202768792"><ele>887.5</ele><time>2026-04-18T16:01:46Z</time></trkpt><trkpt lat="45.343528436314095" lon="7.386091716717599"><ele>896.0</ele><time>2026-04-18T16:01:47Z</time></trkpt><trkpt lat="45.343509400321764" lon="7.3861994255722"><ele>896.0</ele><time>2026-04-18T16:01:48Z</time></trkpt><trkpt lat="45.34344622166717" lon="7.386271194977955"><ele>896.0</ele><time>2026-04-18T16:01:49Z</time></trkpt><trkpt lat="45.343291712249886" lon="7.386207509332926"><ele>896.0</ele><time>2026-04-18T16:01:50Z</time></trkpt><trkpt lat="45.34314910762881" lon="7.386190475500458"><ele>896.0</ele><time>2026-04-18T16:01:50.999Z</time></trkpt><trkpt lat="45.34301805814037" lon="7.386177890718446"><ele>892.1999999999999</ele><time>2026-04-18T16:01:51.999Z</time></trkpt><trkpt lat="45.34290757324871" lon="7.386199122265992"><ele>888.3999999999999</ele><time>2026-04-18T16:01:52.999Z</time></trkpt><trkpt lat="45.3428389185933" lon="7.386244423093996"><ele>884.6</ele><time>2026-04-18T16:01:53.999Z</time></trkpt><trkpt lat="45.34281882243745" lon="7.386392815382244"><ele>880.8</ele><time>2026-04-18T16:01:54.999Z</time></trkpt><trkpt lat="45.34284704840552" lon="7.386512543555752"><ele>877.0</ele><time>2026-04-18T16:01:56Z</time></trkpt><trkpt lat="45.342831536920826" lon="7.386628363930811"><ele>877.0</ele><time>2026-04-18T16:01:57Z</time></trkpt><trkpt lat="45.34282677951631" lon="7.386785290009994"><ele>877.0</ele><time>2026-04-18T16:01:58Z</time></trkpt><trkpt lat="45.342791391373844" lon="7.386944689844078"><ele>877.0</ele><time>2026-04-18T16:01:59Z</time></trkpt><trkpt lat="45.34275571130718" lon="7.387101757875015"><ele>877.0</ele><time>2026-04-18T16:02:00Z</time></trkpt><trkpt lat="45.342727615854514" lon="7.387244750323482"><ele>877.0</ele><time>2026-04-18T16:02:01Z</time></trkpt><trkpt lat="45.34265288264022" lon="7.387379906454759"><ele>884.25</ele><time>2026-04-18T16:02:02Z</time></trkpt><trkpt lat="45.34254352818917" lon="7.387513718656766"><ele>891.5</ele><time>2026-04-18T16:02:03Z</time></trkpt><trkpt lat="45.34243088186729" lon="7.387669080030639"><ele>898.75</ele><time>2026-04-18T16:02:04Z</time></trkpt><trkpt lat="45.3423392761223" lon="7.387817904253684"><ele>906.0</ele><time>2026-04-18T16:02:05Z</time></trkpt><trkpt lat="45.34226921362194" lon="7.387970697123336"><ele>914.6666666666667</ele><time>2026-04-18T16:02:06Z</time></trkpt><trkpt lat="45.342230968865074" lon="7.38818908956761"><ele>923.3333333333334</ele><time>2026-04-18T16:02:07Z</time></trkpt><trkpt lat="45.3421677760151" lon="7.388429538524736"><ele>932.0</ele><time>2026-04-18T16:02:08Z</time></trkpt><trkpt lat="45.34210072379819" lon="7.388661988647455"><ele>924.5</ele><time>2026-04-18T16:02:09Z</time></trkpt><trkpt lat="45.34203785873235" lon="7.388874965060085"><ele>917.0</ele><time>2026-04-18T16:02:10Z</time></trkpt><trkpt lat="45.34197867723891" lon="7.389055308296988"><ele>909.5</ele><time>2026-04-18T16:02:11Z</time></trkpt><trkpt lat="45.341927402832496" lon="7.389212710565673"><ele>902.0</ele><time>2026-04-18T16:02:12Z</time></trkpt><trkpt lat="45.34185550333715" lon="7.389365439254642"><ele>902.0</ele><time>2026-04-18T16:02:13Z</time></trkpt><trkpt lat="45.341729474204" lon="7.3895058042978174"><ele>902.0</ele><time>2026-04-18T16:02:14Z</time></trkpt><trkpt lat="45.34159284409309" lon="7.3896659779392015"><ele>902.0</ele><time>2026-04-18T16:02:15Z</time></trkpt><trkpt lat="45.341460865007484" lon="7.389769901777703"><ele>900.0000000000001</ele><time>2026-04-18T16:02:16Z</time></trkpt><trkpt lat="45.34134960996479" lon="7.389840964837927"><ele>898.0</ele><time>2026-04-18T16:02:17Z</time></trkpt><trkpt lat="45.341268277299775" lon="7.389906576338765"><ele>896.0</ele><time>2026-04-18T16:02:18Z</time></trkpt><trkpt lat="45.34122566673758" lon="7.3899768854904995"><ele>894.0</ele><time>2026-04-18T16:02:19Z</time></trkpt><trkpt lat="45.34124447297216" lon="7.390078190259739"><ele>892.0000000000001</ele><time>2026-04-18T16:02:20Z</time></trkpt><trkpt lat="45.34133020948176" lon="7.390090111168222"><ele>890.0</ele><time>2026-04-18T16:02:21Z</time></trkpt><trkpt lat="45.341403544998265" lon="7.390062371416281"><ele>898.8333333333334</ele><time>2026-04-18T16:02:23Z</time></trkpt><trkpt lat="45.34148969748226" lon="7.390012994706269"><ele>907.6666666666667</ele><time>2026-04-18T16:02:24Z</time></trkpt><trkpt lat="45.34156352350677" lon="7.389914717094702"><ele>916.5</ele><time>2026-04-18T16:02:25Z</time></trkpt><trkpt lat="45.341656388094414" lon="7.389884911186777"><ele>925.3333333333333</ele><time>2026-04-18T16:02:26Z</time></trkpt><trkpt lat="45.34171907429746" lon="7.389860768672842"><ele>934.1666666666666</ele><time>2026-04-18T16:02:28Z</time></trkpt><trkpt lat="45.34172381310052" lon="7.389976645873737"><ele>943.0</ele><time>2026-04-18T16:02:30Z</time></trkpt><trkpt lat="45.34163358258401" lon="7.390031816547065"><ele>943.0</ele><time>2026-04-18T16:02:31Z</time></trkpt><trkpt lat="45.341544812111394" lon="7.390094593122715"><ele>943.0</ele><time>2026-04-18T16:02:32Z</time></trkpt><trkpt lat="45.34147542248453" lon="7.390180884124362"><ele>943.0</ele><time>2026-04-18T16:02:33Z</time></trkpt><trkpt lat="45.34143673117339" lon="7.390291189593988"><ele>943.0</ele><time>2026-04-18T16:02:34Z</time></trkpt><trkpt lat="45.34144198743661" lon="7.390461277800435"><ele>943.0</ele><time>2026-04-18T16:02:35Z</time></trkpt><trkpt lat="45.34142923805619" lon="7.390621340178088"><ele>938.4</ele><time>2026-04-18T16:02:36Z</time></trkpt><trkpt lat="45.341299360147424" lon="7.390708892942117"><ele>933.8</ele><time>2026-04-18T16:02:37Z</time></trkpt><trkpt lat="45.34129330310862" lon="7.390820669493766"><ele>929.2</ele><time>2026-04-18T16:02:38Z</time></trkpt><trkpt lat="45.34123483702769" lon="7.390870994660597"><ele>924.6</ele><time>2026-04-18T16:02:39Z</time></trkpt><trkpt lat="45.34125348789794" lon="7.3909763929674535"><ele>920.0</ele><time>2026-04-18T16:02:41Z</time></trkpt><trkpt lat="45.341352927307966" lon="7.3909539383275495"><ele>923.8333333333334</ele><time>2026-04-18T16:02:43Z</time></trkpt><trkpt lat="45.34142224292471" lon="7.390874346983994"><ele>927.6666666666667</ele><time>2026-04-18T16:02:44Z</time></trkpt><trkpt lat="45.34149083891273" lon="7.390762145577444"><ele>931.5</ele><time>2026-04-18T16:02:45Z</time></trkpt><trkpt lat="45.34155758820448" lon="7.3906614516141635"><ele>935.3333333333333</ele><time>2026-04-18T16:02:46Z</time></trkpt><trkpt lat="45.3416005840395" lon="7.390568592228204"><ele>939.1666666666666</ele><time>2026-04-18T16:02:47Z</time></trkpt><trkpt lat="45.34164938609519" lon="7.390493455250676"><ele>943.0</ele><time>2026-04-18T16:02:49Z</time></trkpt><trkpt lat="45.34161512671862" lon="7.390740127253391"><ele>941.5999999999999</ele><time>2026-04-18T16:02:52Z</time></trkpt><trkpt lat="45.341557082908544" lon="7.390870060968519"><ele>940.1999999999999</ele><time>2026-04-18T16:02:53Z</time></trkpt><trkpt lat="45.34148091936948" lon="7.390996659824584"><ele>938.8</ele><time>2026-04-18T16:02:54Z</time></trkpt><trkpt lat="45.34143513062012" lon="7.391145176385818"><ele>937.4</ele><time>2026-04-18T16:02:55Z</time></trkpt><trkpt lat="45.34140187639109" lon="7.391277626798251"><ele>936.0</ele><time>2026-04-18T16:02:56Z</time></trkpt><trkpt lat="45.34135294916011" lon="7.391409139520303"><ele>936.0</ele><time>2026-04-18T16:02:57Z</time></trkpt><trkpt lat="45.34129022196763" lon="7.391515650710021"><ele>936.0</ele><time>2026-04-18T16:02:58Z</time></trkpt><trkpt lat="45.34125074956627" lon="7.391609410836466"><ele>936.0</ele><time>2026-04-18T16:02:59Z</time></trkpt><trkpt lat="45.34121870176577" lon="7.391723359665491"><ele>936.0</ele><time>2026-04-18T16:03:01Z</time></trkpt><trkpt lat="45.34131037047937" lon="7.3918035555182335"><ele>936.0</ele><time>2026-04-18T16:03:03Z</time></trkpt><trkpt lat="45.34136974635001" lon="7.391734560441085"><ele>936.0</ele><time>2026-04-18T16:03:05Z</time></trkpt><trkpt lat="45.34143709783297" lon="7.3916580874612725"><ele>942.4</ele><time>2026-04-18T16:03:06Z</time></trkpt><trkpt lat="45.34150442300567" lon="7.391525704378315"><ele>948.8</ele><time>2026-04-18T16:03:07Z</time></trkpt><trkpt lat="45.34159177929887" lon="7.39142462985054"><ele>955.1999999999999</ele><time>2026-04-18T16:03:08Z</time></trkpt><trkpt lat="45.34167108628658" lon="7.3913243757643174"><ele>961.5999999999999</ele><time>2026-04-18T16:03:09Z</time></trkpt><trkpt lat="45.34172206559105" lon="7.391227762181884"><ele>968.0</ele><time>2026-04-18T16:03:10Z</time></trkpt><trkpt lat="45.34178938662768" lon="7.391199096702233"><ele>971.5999999999999</ele><time>2026-04-18T16:03:12Z</time></trkpt><trkpt lat="45.34177996846427" lon="7.391346354231287"><ele>975.1999999999999</ele><time>2026-04-18T16:03:14Z</time></trkpt><trkpt lat="45.34170479424302" lon="7.391416813974158"><ele>978.8</ele><time>2026-04-18T16:03:15Z</time></trkpt><trkpt lat="45.3416485221464" lon="7.391526403385684"><ele>982.4</ele><time>2026-04-18T16:03:16Z</time></trkpt><trkpt lat="45.341598847729244" lon="7.3916424725340795"><ele>986.0</ele><time>2026-04-18T16:03:17Z</time></trkpt><trkpt lat="45.34156978404941" lon="7.391757796736032"><ele>986.0</ele><time>2026-04-18T16:03:18Z</time></trkpt><trkpt lat="45.341553788195085" lon="7.391851802625795"><ele>985.9999999999999</ele><time>2026-04-18T16:03:19Z</time></trkpt><trkpt lat="45.34160748025838" lon="7.39196773977942"><ele>985.9999999999999</ele><time>2026-04-18T16:03:20Z</time></trkpt><trkpt lat="45.3416839018077" lon="7.3921087917356365"><ele>986.0</ele><time>2026-04-18T16:03:21Z</time></trkpt><trkpt lat="45.34174345218339" lon="7.39222441289393"><ele>986.0</ele><time>2026-04-18T16:03:22Z</time></trkpt><trkpt lat="45.341804307094186" lon="7.392345180106876"><ele>987.0</ele><time>2026-04-18T16:03:23Z</time></trkpt><trkpt lat="45.34187143766438" lon="7.392482778245455"><ele>988.0</ele><time>2026-04-18T16:03:24Z</time></trkpt><trkpt lat="45.34194914322837" lon="7.392623082585632"><ele>989.0</ele><time>2026-04-18T16:03:25Z</time></trkpt><trkpt lat="45.342009336077396" lon="7.392772001787558"><ele>990.0</ele><time>2026-04-18T16:03:26Z</time></trkpt><trkpt lat="45.3420703097951" lon="7.392928472388879"><ele>987.4</ele><time>2026-04-18T16:03:27Z</time></trkpt><trkpt lat="45.34211581871927" lon="7.393076113578356"><ele>984.8</ele><time>2026-04-18T16:03:28Z</time></trkpt><trkpt lat="45.34215279800809" lon="7.393198247531816"><ele>982.2</ele><time>2026-04-18T16:03:29Z</time></trkpt><trkpt lat="45.34220497870105" lon="7.393269295643856"><ele>979.6</ele><time>2026-04-18T16:03:30Z</time></trkpt><trkpt lat="45.34223849223992" lon="7.39335932875139"><ele>977.0</ele><time>2026-04-18T16:03:31Z</time></trkpt><trkpt lat="45.34232439200247" lon="7.393429495130667"><ele>985.0</ele><time>2026-04-18T16:03:32Z</time></trkpt><trkpt lat="45.34240240902973" lon="7.393468001879998"><ele>993.0</ele><time>2026-04-18T16:03:33Z</time></trkpt><trkpt lat="45.34246411967568" lon="7.393491736762382"><ele>1001.0</ele><time>2026-04-18T16:03:34Z</time></trkpt><trkpt lat="45.34257398469799" lon="7.3933432300788455"><ele>1009.0</ele><time>2026-04-18T16:03:38Z</time></trkpt><trkpt lat="45.342505518210714" lon="7.393239014630259"><ele>1017.0</ele><time>2026-04-18T16:03:39Z</time></trkpt><trkpt lat="45.342459101412466" lon="7.39314561474512"><ele>1017.0</ele><time>2026-04-18T16:03:40Z</time></trkpt><trkpt lat="45.34241035233082" lon="7.393029021568625"><ele>1017.0</ele><time>2026-04-18T16:03:41Z</time></trkpt><trkpt lat="45.34237663598088" lon="7.392934878179287"><ele>1017.0</ele><time>2026-04-18T16:03:42Z</time></trkpt><trkpt lat="45.34237132919088" lon="7.392812469212316"><ele>1017.0</ele><time>2026-04-18T16:03:43Z</time></trkpt><trkpt lat="45.34239074051789" lon="7.392642779788698"><ele>1017.0</ele><time>2026-04-18T16:03:44Z</time></trkpt><trkpt lat="45.34237451904288" lon="7.392504759589431"><ele>1019.5</ele><time>2026-04-18T16:03:45Z</time></trkpt><trkpt lat="45.34235789129605" lon="7.392346743587026"><ele>1022.0</ele><time>2026-04-18T16:03:46Z</time></trkpt><trkpt lat="45.3423628728853" lon="7.392237263168339"><ele>1024.5</ele><time>2026-04-18T16:03:47Z</time></trkpt><trkpt lat="45.3424060395676" lon="7.392155521765743"><ele>1027.0</ele><time>2026-04-18T16:03:50Z</time></trkpt><trkpt lat="45.342511360282835" lon="7.3921512018169"><ele>1029.5</ele><time>2026-04-18T16:03:52Z</time></trkpt><trkpt lat="45.34253030436533" lon="7.392240591435267"><ele>1032.0</ele><time>2026-04-18T16:03:54Z</time></trkpt><trkpt lat="45.34244415995341" lon="7.392185226576481"><ele>1032.0</ele><time>2026-04-18T16:04:03Z</time></trkpt><trkpt lat="45.34236402447052" lon="7.39210428969101"><ele>1032.0</ele><time>2026-04-18T16:04:05Z</time></trkpt><trkpt lat="45.34229239947466" lon="7.392226918489642"><ele>1032.0</ele><time>2026-04-18T16:04:07Z</time></trkpt><trkpt lat="45.34230690605304" lon="7.392314149563134"><ele>1032.0</ele><time>2026-04-18T16:04:08Z</time></trkpt><trkpt lat="45.34231420270652" lon="7.392417524323901"><ele>1032.0</ele><time>2026-04-18T16:04:09Z</time></trkpt><trkpt lat="45.34234496487163" lon="7.392532600637597"><ele>1032.0</ele><time>2026-04-18T16:04:10Z</time></trkpt><trkpt lat="45.34234285539755" lon="7.3926512116133845"><ele>1032.0</ele><time>2026-04-18T16:04:11Z</time></trkpt><trkpt lat="45.34233517900866" lon="7.3927679724276985"><ele>1032.0</ele><time>2026-04-18T16:04:12Z</time></trkpt><trkpt lat="45.34234199362941" lon="7.392871750425899"><ele>1032.0</ele><time>2026-04-18T16:04:13Z</time></trkpt><trkpt lat="45.34236089697687" lon="7.39298419944266"><ele>1032.0</ele><time>2026-04-18T16:04:14Z</time></trkpt><trkpt lat="45.34240074595275" lon="7.393100307074432"><ele>1032.0</ele><time>2026-04-18T16:04:15Z</time></trkpt><trkpt lat="45.34245281329714" lon="7.393187819615037"><ele>1032.0</ele><time>2026-04-18T16:04:16Z</time></trkpt><trkpt lat="45.342502848079555" lon="7.393253800881305"><ele>1017.0</ele><time>2026-04-18T16:04:17Z</time></trkpt><trkpt lat="45.34253686305289" lon="7.393393662827809"><ele>1017.0</ele><time>2026-04-18T16:04:19Z</time></trkpt><trkpt lat="45.34253041970218" lon="7.393509277923522"><ele>1017.0</ele><time>2026-04-18T16:04:21Z</time></trkpt><trkpt lat="45.34246946785466" lon="7.3935547915339175"><ele>1017.0</ele><time>2026-04-18T16:04:25Z</time></trkpt></trkseg></trk></gpx>